﻿_id	data_ora	id_station	denominazione	temperatura	cod_validazione_temperatura	umidita	cod_validazione_umidita_rel	precipitazione	cod_validazione_precipitazione	velocita_vento	cod_validazione_velocita_vento	direzione_vento	cod_validazione_direzione_vento	rad_solare_globale	cod_validazione_rad_solare_globale	pressione_atmosferica	cod_validazione_pressione_atmosferica	Latitude	Longitude
1	2024-01-01 00:00:00	12	torchiarolo	12.14	1	88.62	1	0.0	1	1.03	1	161.9	1	0.0	1	1013.17	1	40.488146	18.053571
2	2024-01-01 01:00:00	12	torchiarolo	11.46	1	91.51	1	0.0	1	0.6	1	182.29	1	0.0	1	1012.82	1	40.488146	18.053571
3	2024-01-01 02:00:00	12	torchiarolo	11.63	1	93.4	1	0.0	1	1.55	1	177.51	1	0.0	1	1012.51	1	40.488146	18.053571
4	2024-01-01 03:00:00	12	torchiarolo	11.91	1	94.27	1	0.0	1	1.3	1	182.57	1	0.0	1	1012.3	1	40.488146	18.053571
5	2024-01-01 04:00:00	12	torchiarolo	11.86	1	95.45	1	0.0	1	1.63	1	183.15	1	0.0	1	1011.7	1	40.488146	18.053571
6	2024-01-01 05:00:00	12	torchiarolo	11.63	1	96.81	1	0.0	1	1.12	1	192.98	1	0.0	1	1011.28	1	40.488146	18.053571
7	2024-01-01 06:00:00	12	torchiarolo	11.35	1	98.06	1	0.0	1	1.18	1	195.97	1	0.0	1	1011.04	1	40.488146	18.053571
8	2024-01-01 07:00:00	12	torchiarolo	11.02	1	99.16	1	0.0	1	1.19	1	193.86	1	0.0	1	1010.99	1	40.488146	18.053571
9	2024-01-01 08:00:00	12	torchiarolo	10.94	1	99.33	1	0.0	1	0.53	1	185.1	1	21.68	1	1011.12	1	40.488146	18.053571
10	2024-01-01 09:00:00	12	torchiarolo	12.44	1	99.34	1	0.0	1	0.9	1	194.51	1	100.49	1	1011.2	1	40.488146	18.053571
11	2024-01-01 10:00:00	12	torchiarolo	13.79	1	99.06	1	0.0	1	2.11	1	193.87	1	278.16	1	1011.33	1	40.488146	18.053571
12	2024-01-01 11:00:00	12	torchiarolo	15.8	1	79.82	1	0.0	1	2.8	1	220.72	1	337.65	1	1011.22	1	40.488146	18.053571
13	2024-01-01 12:00:00	12	torchiarolo	17.33	1	69.29	1	0.0	1	2.78	1	217.26	1	376.62	1	1010.78	1	40.488146	18.053571
14	2024-01-01 13:00:00	12	torchiarolo	18.23	1	65.64	1	0.0	1	2.55	1	219.29	1	309.88	1	1010.37	1	40.488146	18.053571
15	2024-01-01 14:00:00	12	torchiarolo	18.4	1	63.51	1	0.0	1	2.75	1	221.02	1	221.75	1	1009.96	1	40.488146	18.053571
16	2024-01-01 15:00:00	12	torchiarolo	18.78	1	62.17	1	0.0	1	2.68	1	219.87	1	245.86	1	1009.89	1	40.488146	18.053571
17	2024-01-01 16:00:00	12	torchiarolo	17.06	1	68.71	1	0.0	1	2.46	1	227.37	1	64.1	1	1009.89	1	40.488146	18.053571
18	2024-01-01 17:00:00	12	torchiarolo	15.54	1	77.32	1	0.0	1	2.16	1	213.48	1	5.95	1	1009.59	1	40.488146	18.053571
19	2024-01-01 18:00:00	12	torchiarolo	14.67	1	83.87	1	0.0	1	1.78	1	208.34	1	0.0	1	1009.67	1	40.488146	18.053571
20	2024-01-01 19:00:00	12	torchiarolo	14.16	1	89.08	1	0.0	1	1.78	1	197.05	1	0.0	1	1010.05	1	40.488146	18.053571
21	2024-01-01 20:00:00	12	torchiarolo	13.97	1	89.92	1	0.0	1	1.63	1	193.53	1	0.0	1	1010.24	1	40.488146	18.053571
22	2024-01-01 21:00:00	12	torchiarolo	13.71	1	88.03	1	0.0	1	1.1	1	189.13	1	0.0	1	1010.26	1	40.488146	18.053571
23	2024-01-01 22:00:00	12	torchiarolo	13.48	1	87.74	1	0.0	1	0.83	1	181.28	1	0.0	1	1010.26	1	40.488146	18.053571
24	2024-01-01 23:00:00	12	torchiarolo	13.47	1	87.05	1	0.0	1	0.84	1	201.77	1	0.0	1	1010.17	1	40.488146	18.053571
25	2024-01-02 00:00:00	12	torchiarolo	13.49	1	87.64	1	0.0	1	1.57	1	203.13	1	0.0	1	1009.97	1	40.488146	18.053571
26	2024-01-02 01:00:00	12	torchiarolo	13.75	1	85.56	1	0.0	1	1.09	1	229.46	1	0.0	1	1009.89	1	40.488146	18.053571
27	2024-01-02 02:00:00	12	torchiarolo	13.28	1	89.71	1	1.2	1	0.74	1	249.0	1	0.0	1	1010.23	1	40.488146	18.053571
28	2024-01-02 03:00:00	12	torchiarolo	12.68	1	94.02	1	0.6	1	0.75	1	294.5	1	0.0	1	1010.28	1	40.488146	18.053571
29	2024-01-02 04:00:00	12	torchiarolo	12.26	1	95.61	1	1.0	1	0.49	1	229.9	1	0.0	1	1010.13	1	40.488146	18.053571
30	2024-01-02 05:00:00	12	torchiarolo	11.92	1	96.59	1	0.0	1	0.15	1	244.74	1	0.0	1	1009.83	1	40.488146	18.053571
31	2024-01-02 06:00:00	12	torchiarolo	11.39	1	97.57	1	0.0	1	0.01	1	221.62	1	0.0	1	1010.01	1	40.488146	18.053571
32	2024-01-02 07:00:00	12	torchiarolo	10.95	1	97.84	1	0.0	1	0.98	1	268.18	1	0.0	1	1010.74	1	40.488146	18.053571
33	2024-01-02 08:00:00	12	torchiarolo	10.25	1	97.61	1	0.0	1	1.31	1	261.87	1	10.5	1	1011.56	1	40.488146	18.053571
34	2024-01-02 09:00:00	12	torchiarolo	10.58	1	89.05	1	0.0	1	1.35	1	279.78	1	133.75	1	1011.74	1	40.488146	18.053571
35	2024-01-02 10:00:00	12	torchiarolo	12.06	1	79.76	1	0.0	1	1.68	1	274.81	1	270.23	1	1012.29	1	40.488146	18.053571
36	2024-01-02 11:00:00	12	torchiarolo	14.0	1	72.68	1	0.0	1	2.32	1	307.07	1	382.8	1	1012.56	1	40.488146	18.053571
37	2024-01-02 12:00:00	12	torchiarolo	15.46	1	65.27	1	0.0	1	3.16	1	326.37	1	397.28	1	1012.45	1	40.488146	18.053571
38	2024-01-02 13:00:00	12	torchiarolo	16.59	1	59.69	1	0.0	1	2.78	1	336.31	1	435.41	1	1012.14	1	40.488146	18.053571
39	2024-01-02 14:00:00	12	torchiarolo	19.6	1	51.77	1	0.0	1	2.5	1	340.33	1	143.82	1	1012.08	1	40.488146	18.053571
40	2024-01-02 15:00:00	12	torchiarolo	19.01	1	56.2	1	0.0	1	2.41	1	358.12	1	256.92	1	1012.21	1	40.488146	18.053571
41	2024-01-02 16:00:00	12	torchiarolo	15.0	1	70.83	1	0.0	1	2.02	1	15.58	1	93.77	1	1012.17	1	40.488146	18.053571
42	2024-01-02 17:00:00	12	torchiarolo	13.27	1	80.09	1	0.0	1	0.4	1	33.24	1	8.08	1	1012.67	1	40.488146	18.053571
43	2024-01-02 18:00:00	12	torchiarolo	11.88	1	86.97	1	0.0	1	0.03	1	173.22	1	0.0	1	1012.56	1	40.488146	18.053571
44	2024-01-02 19:00:00	12	torchiarolo	11.17	1	90.15	1	0.0	1	0.11	1	187.08	1	0.0	1	1012.74	1	40.488146	18.053571
45	2024-01-02 20:00:00	12	torchiarolo	10.72	1	92.49	1	0.0	1	0.52	1	191.79	1	0.0	1	1013.17	1	40.488146	18.053571
46	2024-01-02 21:00:00	12	torchiarolo	10.37	1	93.4	1	0.0	1	1.63	1	191.16	1	0.0	1	1013.2	1	40.488146	18.053571
47	2024-01-02 22:00:00	12	torchiarolo	10.19	1	93.66	1	0.0	1	1.41	1	190.22	1	0.0	1	1013.21	1	40.488146	18.053571
48	2024-01-02 23:00:00	12	torchiarolo	9.76	1	94.06	1	0.0	1	1.31	1	197.9	1	0.0	1	1012.93	1	40.488146	18.053571
49	2024-01-03 00:00:00	12	torchiarolo	9.79	1	93.67	1	0.0	1	1.74	1	187.23	1	0.0	1	1012.53	1	40.488146	18.053571
50	2024-01-03 01:00:00	12	torchiarolo	10.04	1	91.88	1	0.0	1	2.01	1	197.84	1	0.0	1	1011.83	1	40.488146	18.053571
51	2024-01-03 02:00:00	12	torchiarolo	9.91	1	91.49	1	0.0	1	1.88	1	191.92	1	0.0	1	1011.83	1	40.488146	18.053571
52	2024-01-03 03:00:00	12	torchiarolo	9.78	1	91.7	1	0.0	1	1.64	1	191.84	1	0.0	1	1011.67	1	40.488146	18.053571
53	2024-01-03 04:00:00	12	torchiarolo	9.89	1	90.42	1	0.0	1	1.47	1	188.4	1	0.0	1	1011.16	1	40.488146	18.053571
54	2024-01-03 05:00:00	12	torchiarolo	9.41	1	90.46	1	0.0	1	0.86	1	187.49	1	0.0	1	1010.69	1	40.488146	18.053571
55	2024-01-03 06:00:00	12	torchiarolo	9.51	1	90.74	1	0.0	1	1.27	1	188.18	1	0.0	1	1010.39	1	40.488146	18.053571
56	2024-01-03 07:00:00	12	torchiarolo	10.03	1	88.97	1	0.0	1	1.17	1	193.37	1	0.0	1	1010.4	1	40.488146	18.053571
57	2024-01-03 08:00:00	12	torchiarolo	10.98	1	85.61	1	0.0	1	1.44	1	197.84	1	7.05	1	1010.34	1	40.488146	18.053571
58	2024-01-03 09:00:00	12	torchiarolo	11.65	1	84.68	1	0.0	1	1.5	1	187.21	1	73.56	1	1010.26	1	40.488146	18.053571
59	2024-01-03 10:00:00	12	torchiarolo	13.42	1	78.62	1	0.0	1	1.91	1	200.39	1	148.64	1	1010.22	1	40.488146	18.053571
60	2024-01-03 11:00:00	12	torchiarolo	15.74	1	67.25	1	0.0	1	3.37	1	220.64	1	277.18	1	1009.81	1	40.488146	18.053571
61	2024-01-03 12:00:00	12	torchiarolo	16.65	1	62.73	1	0.0	1	4.01	1	237.04	1	200.2	1	1009.4	1	40.488146	18.053571
62	2024-01-03 13:00:00	12	torchiarolo	16.49	1	64.41	1	0.0	1	3.94	1	225.75	1	247.15	1	1008.61	1	40.488146	18.053571
63	2024-01-03 14:00:00	12	torchiarolo	17.8	1	59.6	1	0.0	1	3.68	1	228.25	1	166.77	1	1008.12	1	40.488146	18.053571
64	2024-01-03 15:00:00	12	torchiarolo	17.45	1	62.86	1	0.0	1	3.23	1	219.39	1	173.32	1	1008.05	1	40.488146	18.053571
65	2024-01-03 16:00:00	12	torchiarolo	16.22	1	69.11	1	0.0	1	2.64	1	213.46	1	64.88	1	1007.81	1	40.488146	18.053571
66	2024-01-03 17:00:00	12	torchiarolo	15.1	1	74.29	1	0.0	1	2.23	1	212.2	1	6.33	1	1007.98	1	40.488146	18.053571
67	2024-01-03 18:00:00	12	torchiarolo	13.61	1	77.34	1	0.0	1	1.91	1	194.69	1	0.0	1	1007.96	1	40.488146	18.053571
68	2024-01-03 19:00:00	12	torchiarolo	12.89	1	82.28	1	0.0	1	1.62	1	187.66	1	0.0	1	1007.87	1	40.488146	18.053571
69	2024-01-03 20:00:00	12	torchiarolo	12.86	1	83.96	1	0.0	1	1.77	1	219.89	1	0.0	1	1008.06	1	40.488146	18.053571
70	2024-01-03 21:00:00	12	torchiarolo	12.64	1	83.48	1	0.0	1	1.84	1	215.55	1	0.0	1	1007.93	1	40.488146	18.053571
71	2024-01-03 22:00:00	12	torchiarolo	13.57	1	78.31	1	0.0	1	2.17	1	225.82	1	0.0	1	1007.76	1	40.488146	18.053571
72	2024-01-03 23:00:00	12	torchiarolo	13.27	1	80.01	1	0.0	1	1.83	1	193.68	1	0.0	1	1007.54	1	40.488146	18.053571
73	2024-01-04 00:00:00	12	torchiarolo	12.19	1	81.32	1	0.0	1	1.84	1	182.68	1	0.0	1	1007.45	1	40.488146	18.053571
74	2024-01-04 01:00:00	12	torchiarolo	11.89	1	83.11	1	0.0	1	2.31	1	189.56	1	0.0	1	1007.04	1	40.488146	18.053571
75	2024-01-04 02:00:00	12	torchiarolo	12.7	1	81.4	1	0.0	1	2.05	1	204.2	1	0.0	1	1006.96	1	40.488146	18.053571
76	2024-01-04 03:00:00	12	torchiarolo	12.44	1	83.13	1	0.0	1	2.05	1	183.66	1	0.0	1	1006.51	1	40.488146	18.053571
77	2024-01-04 04:00:00	12	torchiarolo	12.7	1	84.71	1	0.0	1	2.27	1	191.72	1	0.0	1	1006.08	1	40.488146	18.053571
78	2024-01-04 05:00:00	12	torchiarolo	12.09	1	86.88	1	0.0	1	1.22	1	190.54	1	0.0	1	1005.53	1	40.488146	18.053571
79	2024-01-04 06:00:00	12	torchiarolo	11.7	1	89.74	1	0.0	1	0.86	1	204.39	1	0.0	1	1005.63	1	40.488146	18.053571
80	2024-01-04 07:00:00	12	torchiarolo	11.39	1	92.24	1	0.0	1	1.16	1	197.93	1	0.0	1	1005.86	1	40.488146	18.053571
81	2024-01-04 08:00:00	12	torchiarolo	11.93	1	94.05	1	0.0	1	1.57	1	197.31	1	10.92	1	1006.02	1	40.488146	18.053571
82	2024-01-04 09:00:00	12	torchiarolo	13.99	1	89.26	1	0.0	1	1.46	1	195.6	1	129.53	1	1006.5	1	40.488146	18.053571
83	2024-01-04 10:00:00	12	torchiarolo	15.34	1	83.86	1	0.0	1	1.85	1	202.02	1	227.68	1	1006.63	1	40.488146	18.053571
84	2024-01-04 11:00:00	12	torchiarolo	17.64	1	67.91	1	0.0	1	2.74	1	227.18	1	398.02	1	1006.87	1	40.488146	18.053571
85	2024-01-04 12:00:00	12	torchiarolo	18.88	1	57.29	1	0.0	1	3.09	1	231.24	1	442.48	1	1006.22	1	40.488146	18.053571
86	2024-01-04 13:00:00	12	torchiarolo	19.88	1	51.32	1	0.0	1	4.2	1	254.77	1	434.64	1	1005.84	1	40.488146	18.053571
87	2024-01-04 14:00:00	12	torchiarolo	22.1	1	46.73	1	0.0	1	4.07	1	253.8	1	148.94	1	1005.53	1	40.488146	18.053571
88	2024-01-04 15:00:00	12	torchiarolo	21.56	1	46.74	1	0.0	1	3.1	1	257.19	1	173.91	1	1005.79	1	40.488146	18.053571
89	2024-01-04 16:00:00	12	torchiarolo	17.95	1	57.44	1	0.0	1	2.43	1	343.74	1	59.8	1	1006.61	1	40.488146	18.053571
90	2024-01-04 17:00:00	12	torchiarolo	15.78	1	65.92	1	0.0	1	0.2	1	336.3	1	6.83	1	1007.08	1	40.488146	18.053571
91	2024-01-04 18:00:00	12	torchiarolo	14.24	1	72.94	1	0.0	1	null	3	202.2	1	0.0	1	1007.73	1	40.488146	18.053571
92	2024-01-04 19:00:00	12	torchiarolo	12.6	1	82.0	1	0.0	1	null	3	194.57	1	0.0	1	1008.5	1	40.488146	18.053571
93	2024-01-04 20:00:00	12	torchiarolo	12.26	1	82.74	1	0.0	1	null	3	224.62	1	0.0	1	1009.28	1	40.488146	18.053571
94	2024-01-04 21:00:00	12	torchiarolo	11.67	1	82.05	1	0.0	1	0.1	1	236.62	1	0.0	1	1009.64	1	40.488146	18.053571
95	2024-01-04 22:00:00	12	torchiarolo	10.88	1	85.46	1	0.0	1	0.63	1	236.97	1	0.0	1	1009.89	1	40.488146	18.053571
96	2024-01-04 23:00:00	12	torchiarolo	10.39	1	86.86	1	0.0	1	null	3	245.25	1	0.0	1	1010.23	1	40.488146	18.053571
97	2024-01-05 00:00:00	12	torchiarolo	9.95	1	88.3	1	0.0	1	null	3	241.84	1	0.0	1	1010.26	1	40.488146	18.053571
98	2024-01-05 01:00:00	12	torchiarolo	9.33	1	88.85	1	0.0	1	null	3	240.28	1	0.0	1	1010.23	1	40.488146	18.053571
99	2024-01-05 02:00:00	12	torchiarolo	8.9	1	88.3	1	0.0	1	null	3	222.68	1	0.0	1	1010.26	1	40.488146	18.053571
100	2024-01-05 03:00:00	12	torchiarolo	7.64	1	91.51	1	0.0	1	null	3	190.96	1	0.0	1	1010.42	1	40.488146	18.053571
101	2024-01-05 04:00:00	12	torchiarolo	7.72	1	93.38	1	0.0	1	null	3	205.93	1	0.0	1	1010.0	1	40.488146	18.053571
102	2024-01-05 05:00:00	12	torchiarolo	8.26	1	94.18	1	0.0	1	0.05	1	200.14	1	0.0	1	1009.61	1	40.488146	18.053571
103	2024-01-05 06:00:00	12	torchiarolo	7.45	1	94.83	1	0.0	1	0.37	1	131.66	1	0.0	1	1009.37	1	40.488146	18.053571
104	2024-01-05 07:00:00	12	torchiarolo	8.44	1	96.61	1	0.0	1	1.1	1	172.86	1	0.0	1	1009.59	1	40.488146	18.053571
105	2024-01-05 08:00:00	12	torchiarolo	9.15	1	93.58	1	0.0	1	1.56	1	174.82	1	13.68	1	1009.57	1	40.488146	18.053571
106	2024-01-05 09:00:00	12	torchiarolo	12.11	1	88.31	1	0.0	1	1.74	1	182.73	1	190.14	1	1009.7	1	40.488146	18.053571
107	2024-01-05 10:00:00	12	torchiarolo	14.6	1	84.91	1	0.0	1	2.29	1	172.96	1	290.85	1	1009.89	1	40.488146	18.053571
108	2024-01-05 11:00:00	12	torchiarolo	16.27	1	76.11	1	0.0	1	2.81	1	163.63	1	356.95	1	1009.61	1	40.488146	18.053571
109	2024-01-05 12:00:00	12	torchiarolo	18.26	1	65.67	1	0.0	1	4.09	1	174.05	1	377.16	1	1008.69	1	40.488146	18.053571
110	2024-01-05 13:00:00	12	torchiarolo	18.55	1	63.73	1	0.0	1	4.03	1	173.6	1	260.41	1	1007.9	1	40.488146	18.053571
111	2024-01-05 14:00:00	12	torchiarolo	18.87	1	64.42	1	0.0	1	3.67	1	180.72	1	186.66	1	1007.52	1	40.488146	18.053571
112	2024-01-05 15:00:00	12	torchiarolo	17.95	1	71.03	1	0.0	1	3.78	1	170.12	1	90.63	1	1007.11	1	40.488146	18.053571
113	2024-01-05 16:00:00	12	torchiarolo	17.31	1	74.93	1	0.0	1	3.78	1	168.22	1	44.61	1	1006.81	1	40.488146	18.053571
114	2024-01-05 17:00:00	12	torchiarolo	16.74	1	79.66	1	0.0	1	3.37	1	171.29	1	5.4	1	1006.53	1	40.488146	18.053571
115	2024-01-05 18:00:00	12	torchiarolo	16.29	1	81.31	1	0.0	1	3.7	1	170.66	1	0.0	1	1006.37	1	40.488146	18.053571
116	2024-01-05 19:00:00	12	torchiarolo	16.16	1	81.85	1	0.0	1	3.24	1	171.55	1	0.0	1	1006.52	1	40.488146	18.053571
117	2024-01-05 20:00:00	12	torchiarolo	16.17	1	81.55	1	0.0	1	3.94	1	175.08	1	0.0	1	1006.25	1	40.488146	18.053571
118	2024-01-05 21:00:00	12	torchiarolo	16.16	1	81.3	1	0.0	1	4.13	1	178.84	1	0.0	1	1005.89	1	40.488146	18.053571
119	2024-01-05 22:00:00	12	torchiarolo	16.14	1	80.87	1	0.0	1	3.83	1	177.42	1	0.0	1	1005.72	1	40.488146	18.053571
120	2024-01-05 23:00:00	12	torchiarolo	16.02	1	81.57	1	0.0	1	3.85	1	175.73	1	0.0	1	1005.31	1	40.488146	18.053571
121	2024-01-06 00:00:00	12	torchiarolo	15.78	1	81.22	1	0.0	1	3.89	1	167.43	1	0.0	1	1004.9	1	40.488146	18.053571
122	2024-01-06 01:00:00	12	torchiarolo	15.66	1	79.64	1	0.0	1	4.31	1	167.48	1	0.0	1	1004.27	1	40.488146	18.053571
123	2024-01-06 02:00:00	12	torchiarolo	15.78	1	79.98	1	0.0	1	4.07	1	173.91	1	0.0	1	1004.03	1	40.488146	18.053571
124	2024-01-06 03:00:00	12	torchiarolo	15.96	1	80.24	1	0.0	1	4.16	1	171.47	1	0.0	1	1003.76	1	40.488146	18.053571
125	2024-01-06 04:00:00	12	torchiarolo	15.86	1	81.17	1	0.0	1	3.81	1	168.56	1	0.0	1	1003.08	1	40.488146	18.053571
126	2024-01-06 05:00:00	12	torchiarolo	15.51	1	81.96	1	0.0	1	3.39	1	170.16	1	0.0	1	1002.5	1	40.488146	18.053571
127	2024-01-06 06:00:00	12	torchiarolo	15.42	1	82.3	1	0.0	1	3.13	1	162.54	1	0.0	1	1002.1	1	40.488146	18.053571
128	2024-01-06 07:00:00	12	torchiarolo	15.5	1	83.38	1	0.0	1	3.73	1	150.65	1	0.0	1	1001.69	1	40.488146	18.053571
129	2024-01-06 08:00:00	12	torchiarolo	15.8	1	82.49	1	0.0	1	4.02	1	149.87	1	10.09	1	1001.16	1	40.488146	18.053571
130	2024-01-06 09:00:00	12	torchiarolo	16.32	1	81.57	1	0.0	1	3.69	1	166.04	1	46.01	1	1001.01	1	40.488146	18.053571
131	2024-01-06 10:00:00	12	torchiarolo	16.79	1	80.42	1	0.0	1	4.58	1	153.47	1	81.46	1	1000.77	1	40.488146	18.053571
132	2024-01-06 11:00:00	12	torchiarolo	17.75	1	75.2	1	0.0	1	4.57	1	148.19	1	177.27	1	1000.07	1	40.488146	18.053571
133	2024-01-06 12:00:00	12	torchiarolo	18.3	1	73.16	1	0.0	1	5.09	1	155.27	1	164.65	1	998.58	1	40.488146	18.053571
134	2024-01-06 13:00:00	12	torchiarolo	18.11	1	73.32	1	0.0	1	4.99	1	152.77	1	71.71	1	996.99	1	40.488146	18.053571
135	2024-01-06 14:00:00	12	torchiarolo	18.12	1	72.93	1	0.0	1	5.18	1	152.35	1	89.69	1	994.92	1	40.488146	18.053571
136	2024-01-06 15:00:00	12	torchiarolo	16.44	1	84.36	1	1.8	1	4.97	1	157.68	1	56.43	1	993.31	1	40.488146	18.053571
137	2024-01-06 16:00:00	12	torchiarolo	16.99	1	80.32	1	0.0	1	5.58	1	150.65	1	45.4	1	992.21	1	40.488146	18.053571
138	2024-01-06 17:00:00	12	torchiarolo	16.95	1	78.57	1	0.0	1	5.65	1	152.49	1	0.0	5	990.87	1	40.488146	18.053571
139	2024-01-06 18:00:00	12	torchiarolo	16.05	1	75.99	1	0.4	1	5.47	1	144.45	1	0.0	5	990.58	1	40.488146	18.053571
140	2024-01-06 19:00:00	12	torchiarolo	13.77	1	89.31	1	4.8	1	3.9	1	148.11	1	0.0	1	990.14	1	40.488146	18.053571
141	2024-01-06 20:00:00	12	torchiarolo	12.46	1	93.62	1	0.0	1	0.57	1	188.2	1	0.0	5	990.21	1	40.488146	18.053571
142	2024-01-06 21:00:00	12	torchiarolo	11.84	1	92.58	1	0.0	1	1.05	1	125.19	1	0.0	5	989.56	1	40.488146	18.053571
143	2024-01-06 22:00:00	12	torchiarolo	11.65	1	87.32	1	0.0	1	2.06	1	122.43	1	0.0	1	989.63	1	40.488146	18.053571
144	2024-01-06 23:00:00	12	torchiarolo	11.56	1	81.78	1	0.0	1	3.19	1	132.67	1	0.0	1	989.12	1	40.488146	18.053571
145	2024-01-07 00:00:00	12	torchiarolo	11.35	1	80.99	1	0.0	1	2.64	1	130.02	1	0.0	1	988.66	1	40.488146	18.053571
146	2024-01-07 01:00:00	12	torchiarolo	10.88	1	83.49	1	0.0	1	2.37	1	122.06	1	0.0	1	988.7	1	40.488146	18.053571
147	2024-01-07 02:00:00	12	torchiarolo	11.18	1	81.22	1	0.0	1	3.04	1	127.12	1	0.0	1	988.16	1	40.488146	18.053571
148	2024-01-07 03:00:00	12	torchiarolo	10.61	1	85.35	1	0.0	1	1.62	1	136.94	1	0.0	1	987.79	1	40.488146	18.053571
149	2024-01-07 04:00:00	12	torchiarolo	9.7	1	88.77	1	0.0	1	1.3	1	184.02	1	0.0	1	987.56	1	40.488146	18.053571
150	2024-01-07 05:00:00	12	torchiarolo	9.45	1	91.05	1	0.0	1	0.57	1	188.22	1	0.0	1	987.22	1	40.488146	18.053571
151	2024-01-07 06:00:00	12	torchiarolo	9.72	1	91.93	1	0.0	1	0.4	1	163.54	1	0.0	1	987.58	1	40.488146	18.053571
152	2024-01-07 07:00:00	12	torchiarolo	10.18	1	92.0	1	0.4	1	0.49	1	148.22	1	0.0	1	988.23	1	40.488146	18.053571
153	2024-01-07 08:00:00	12	torchiarolo	10.3	1	93.87	1	0.0	1	null	3	0.14	1	11.98	1	988.65	1	40.488146	18.053571
154	2024-01-07 09:00:00	12	torchiarolo	10.76	1	94.78	1	0.0	1	null	3	172.07	1	98.93	1	988.98	1	40.488146	18.053571
155	2024-01-07 10:00:00	12	torchiarolo	12.43	1	91.44	1	0.0	1	null	3	307.46	1	228.5	1	989.43	1	40.488146	18.053571
156	2024-01-07 11:00:00	12	torchiarolo	14.6	1	78.79	1	0.0	1	0.35	1	258.81	1	216.87	1	990.02	1	40.488146	18.053571
157	2024-01-07 12:00:00	12	torchiarolo	14.81	1	77.64	1	0.0	1	1.67	1	254.33	1	117.79	1	990.11	1	40.488146	18.053571
158	2024-01-07 13:00:00	12	torchiarolo	14.6	1	79.2	1	0.0	1	2.74	1	252.75	1	155.74	1	989.82	1	40.488146	18.053571
159	2024-01-07 14:00:00	12	torchiarolo	14.43	1	77.2	1	0.0	1	3.66	1	245.68	1	134.52	1	990.02	1	40.488146	18.053571
160	2024-01-07 15:00:00	12	torchiarolo	13.96	1	72.49	1	0.0	1	4.08	1	243.8	1	74.59	1	990.27	1	40.488146	18.053571
161	2024-01-07 16:00:00	12	torchiarolo	13.65	1	66.5	1	0.0	1	4.37	1	255.99	1	40.43	1	990.96	1	40.488146	18.053571
162	2024-01-07 17:00:00	12	torchiarolo	12.99	1	65.79	1	0.2	1	2.73	1	249.09	1	0.0	5	991.84	1	40.488146	18.053571
163	2024-01-07 18:00:00	12	torchiarolo	12.42	1	67.0	1	0.0	1	2.94	1	243.87	1	0.0	1	992.68	1	40.488146	18.053571
164	2024-01-07 19:00:00	12	torchiarolo	11.98	1	71.85	1	0.0	1	1.87	1	225.89	1	0.0	1	993.74	1	40.488146	18.053571
165	2024-01-07 20:00:00	12	torchiarolo	11.09	1	84.16	1	0.6	1	1.02	1	224.04	1	0.0	1	994.5	1	40.488146	18.053571
166	2024-01-07 21:00:00	12	torchiarolo	10.59	1	88.01	1	0.0	1	0.5	1	222.33	1	0.0	1	994.87	1	40.488146	18.053571
167	2024-01-07 22:00:00	12	torchiarolo	10.1	1	89.16	1	0.0	1	null	3	88.16	1	0.0	1	995.23	1	40.488146	18.053571
168	2024-01-07 23:00:00	12	torchiarolo	9.73	1	92.45	1	0.0	1	0.07	1	166.96	1	0.0	1	995.66	1	40.488146	18.053571
169	2024-01-08 00:00:00	12	torchiarolo	9.69	1	92.48	1	0.0	1	null	3	22.94	1	0.0	1	996.05	1	40.488146	18.053571
170	2024-01-08 01:00:00	12	torchiarolo	9.03	1	93.68	1	0.0	1	null	3	143.49	1	0.0	1	996.08	1	40.488146	18.053571
171	2024-01-08 02:00:00	12	torchiarolo	8.94	1	94.04	1	0.0	1	null	3	192.71	1	0.0	1	996.42	1	40.488146	18.053571
172	2024-01-08 03:00:00	12	torchiarolo	8.37	1	94.44	1	0.0	1	0.12	1	167.75	1	0.0	1	996.59	1	40.488146	18.053571
173	2024-01-08 04:00:00	12	torchiarolo	8.0	1	94.87	1	0.0	1	0.18	1	203.88	1	0.0	1	996.39	1	40.488146	18.053571
174	2024-01-08 05:00:00	12	torchiarolo	7.68	1	94.83	1	0.0	1	null	3	191.27	1	0.0	1	996.7	1	40.488146	18.053571
175	2024-01-08 06:00:00	12	torchiarolo	7.35	1	95.31	1	0.0	1	0.09	1	186.9	1	0.0	1	996.98	1	40.488146	18.053571
176	2024-01-08 07:00:00	12	torchiarolo	7.4	1	95.25	1	0.0	1	1.38	1	162.65	1	0.0	1	997.61	1	40.488146	18.053571
177	2024-01-08 08:00:00	12	torchiarolo	8.68	1	92.99	1	0.0	1	1.24	1	163.86	1	10.87	1	998.15	1	40.488146	18.053571
178	2024-01-08 09:00:00	12	torchiarolo	9.51	1	91.39	1	0.0	1	1.38	1	150.65	1	57.39	1	998.7	1	40.488146	18.053571
179	2024-01-08 10:00:00	12	torchiarolo	10.28	1	90.06	1	3.0	1	1.67	1	198.78	1	42.39	1	999.53	1	40.488146	18.053571
180	2024-01-08 11:00:00	12	torchiarolo	10.47	1	88.86	1	0.6	1	1.25	1	152.76	1	119.63	1	999.52	1	40.488146	18.053571
181	2024-01-08 12:00:00	12	torchiarolo	12.99	1	83.15	1	0.0	1	0.6	1	204.52	1	287.07	1	999.11	1	40.488146	18.053571
182	2024-01-08 13:00:00	12	torchiarolo	13.79	1	73.43	1	0.0	1	1.37	1	247.53	1	179.56	1	998.82	1	40.488146	18.053571
183	2024-01-08 14:00:00	12	torchiarolo	13.77	1	74.82	1	0.0	1	0.79	1	249.93	1	96.08	1	998.66	1	40.488146	18.053571
184	2024-01-08 15:00:00	12	torchiarolo	11.13	1	81.82	1	3.2	1	2.11	1	232.07	1	11.59	1	999.36	1	40.488146	18.053571
185	2024-01-08 16:00:00	12	torchiarolo	9.29	1	91.74	1	0.2	1	0.52	1	197.07	1	10.5	1	999.49	1	40.488146	18.053571
186	2024-01-08 17:00:00	12	torchiarolo	9.37	1	94.16	1	0.0	1	null	3	128.1	1	0.0	5	999.9	1	40.488146	18.053571
187	2024-01-08 18:00:00	12	torchiarolo	8.97	1	95.05	1	0.0	1	null	3	81.62	1	0.0	1	1000.01	1	40.488146	18.053571
188	2024-01-08 19:00:00	12	torchiarolo	8.95	1	96.22	1	0.0	1	0.74	1	66.31	1	0.0	1	1000.35	1	40.488146	18.053571
189	2024-01-08 20:00:00	12	torchiarolo	10.02	1	93.78	1	0.0	1	1.8	1	76.7	1	0.0	1	1000.79	1	40.488146	18.053571
190	2024-01-08 21:00:00	12	torchiarolo	10.43	1	88.94	1	0.0	1	0.98	1	81.16	1	0.0	1	1001.3	1	40.488146	18.053571
191	2024-01-08 22:00:00	12	torchiarolo	10.4	1	89.38	1	0.0	1	1.81	1	108.83	1	0.0	1	1001.78	1	40.488146	18.053571
192	2024-01-08 23:00:00	12	torchiarolo	10.23	1	84.11	1	0.0	1	2.98	1	120.36	1	0.0	1	1002.33	1	40.488146	18.053571
193	2024-01-09 00:00:00	12	torchiarolo	10.09	1	84.02	1	0.4	1	2.12	1	101.77	1	0.0	1	1003.07	1	40.488146	18.053571
194	2024-01-09 01:00:00	12	torchiarolo	9.68	1	86.29	1	0.2	1	0.15	1	194.58	1	0.0	1	1003.29	1	40.488146	18.053571
195	2024-01-09 02:00:00	12	torchiarolo	8.72	1	90.72	1	0.0	1	0.11	1	302.03	1	0.0	1	1003.41	1	40.488146	18.053571
196	2024-01-09 03:00:00	12	torchiarolo	7.41	1	93.41	1	0.0	1	1.14	1	304.77	1	0.0	1	1003.87	1	40.488146	18.053571
197	2024-01-09 04:00:00	12	torchiarolo	7.5	1	95.09	1	0.0	1	1.24	1	316.18	1	0.0	1	1004.25	1	40.488146	18.053571
198	2024-01-09 05:00:00	12	torchiarolo	8.42	1	95.87	1	0.6	1	1.73	1	316.51	1	0.0	1	1004.4	1	40.488146	18.053571
199	2024-01-09 06:00:00	12	torchiarolo	7.96	1	96.33	1	0.0	1	1.4	1	300.06	1	0.0	1	1004.86	1	40.488146	18.053571
200	2024-01-09 07:00:00	12	torchiarolo	7.65	1	97.1	1	0.0	1	1.61	1	352.53	1	0.0	1	1005.48	1	40.488146	18.053571
201	2024-01-09 08:00:00	12	torchiarolo	8.8	1	92.62	1	0.0	1	2.48	1	20.3	1	18.31	1	1006.32	1	40.488146	18.053571
202	2024-01-09 09:00:00	12	torchiarolo	10.8	1	76.93	1	0.0	1	3.53	1	22.31	1	138.7	1	1007.49	1	40.488146	18.053571
203	2024-01-09 10:00:00	12	torchiarolo	11.32	1	71.33	1	0.0	1	3.67	1	23.06	1	268.15	1	1008.48	1	40.488146	18.053571
204	2024-01-09 11:00:00	12	torchiarolo	12.19	1	65.84	1	0.0	1	4.15	1	17.29	1	402.3	1	1009.22	1	40.488146	18.053571
205	2024-01-09 12:00:00	12	torchiarolo	12.62	1	63.7	1	0.0	1	3.91	1	26.36	1	454.19	1	1009.8	1	40.488146	18.053571
206	2024-01-09 13:00:00	12	torchiarolo	12.98	1	61.67	1	0.0	1	4.37	1	17.78	1	437.28	1	1010.0	1	40.488146	18.053571
207	2024-01-09 14:00:00	12	torchiarolo	14.5	1	56.85	1	0.0	1	4.51	1	17.13	1	154.62	1	1010.34	1	40.488146	18.053571
208	2024-01-09 15:00:00	12	torchiarolo	13.42	1	58.86	1	0.0	1	4.48	1	14.54	1	202.32	1	1011.04	1	40.488146	18.053571
209	2024-01-09 16:00:00	12	torchiarolo	11.78	1	61.42	1	0.0	1	4.62	1	4.8	1	106.49	1	1011.53	1	40.488146	18.053571
210	2024-01-09 17:00:00	12	torchiarolo	11.05	1	63.08	1	0.0	1	4.08	1	357.34	1	11.57	1	1012.09	1	40.488146	18.053571
211	2024-01-09 18:00:00	12	torchiarolo	10.11	1	65.94	1	0.0	1	3.56	1	355.27	1	0.0	1	1012.71	1	40.488146	18.053571
212	2024-01-09 19:00:00	12	torchiarolo	10.45	1	67.09	1	0.0	1	3.76	1	3.07	1	0.0	1	1013.35	1	40.488146	18.053571
213	2024-01-09 20:00:00	12	torchiarolo	10.88	1	66.54	1	0.0	1	3.38	1	353.9	1	0.0	1	1013.83	1	40.488146	18.053571
214	2024-01-09 21:00:00	12	torchiarolo	10.8	1	65.9	1	0.0	1	3.48	1	13.21	1	0.0	1	1014.51	1	40.488146	18.053571
215	2024-01-09 22:00:00	12	torchiarolo	10.8	1	67.58	1	0.0	1	2.84	1	359.28	1	0.0	1	1015.15	1	40.488146	18.053571
216	2024-01-09 23:00:00	12	torchiarolo	10.54	1	67.48	1	0.0	1	2.62	1	14.23	1	0.0	1	1015.51	1	40.488146	18.053571
217	2024-01-10 00:00:00	12	torchiarolo	9.88	1	72.37	1	0.0	1	1.43	1	333.54	1	0.0	1	1015.89	1	40.488146	18.053571
218	2024-01-10 01:00:00	12	torchiarolo	9.83	1	76.0	1	0.0	1	0.9	1	316.86	1	0.0	1	1015.89	1	40.488146	18.053571
219	2024-01-10 02:00:00	12	torchiarolo	9.75	1	77.49	1	0.0	1	0.98	1	325.94	1	0.0	1	1016.31	1	40.488146	18.053571
220	2024-01-10 03:00:00	12	torchiarolo	8.63	1	77.63	1	0.0	1	0.56	1	341.55	1	0.0	1	1016.74	1	40.488146	18.053571
221	2024-01-10 04:00:00	12	torchiarolo	7.61	1	83.72	1	0.0	1	0.64	1	266.54	1	0.0	1	1017.19	1	40.488146	18.053571
222	2024-01-10 05:00:00	12	torchiarolo	7.6	1	86.02	1	0.0	1	0.25	1	266.4	1	0.0	1	1017.22	1	40.488146	18.053571
223	2024-01-10 06:00:00	12	torchiarolo	7.59	1	87.62	1	0.0	1	0.22	1	281.1	1	0.0	1	1017.5	1	40.488146	18.053571
224	2024-01-10 07:00:00	12	torchiarolo	7.18	1	89.59	1	0.0	1	1.04	1	287.14	1	0.0	1	1017.95	1	40.488146	18.053571
225	2024-01-10 08:00:00	12	torchiarolo	7.31	1	90.64	1	0.0	1	0.85	1	295.67	1	22.71	1	1018.48	1	40.488146	18.053571
226	2024-01-10 09:00:00	12	torchiarolo	9.81	1	81.34	1	0.0	1	1.32	1	306.76	1	188.2	1	1019.0	1	40.488146	18.053571
227	2024-01-10 10:00:00	12	torchiarolo	11.22	1	75.24	1	0.0	1	1.66	1	315.95	1	245.33	1	1019.6	1	40.488146	18.053571
228	2024-01-10 11:00:00	12	torchiarolo	12.51	1	72.19	1	0.0	1	1.71	1	330.63	1	258.55	1	1019.78	1	40.488146	18.053571
229	2024-01-10 12:00:00	12	torchiarolo	12.91	1	66.43	1	0.0	1	1.76	1	345.36	1	214.36	1	1019.53	1	40.488146	18.053571
230	2024-01-10 13:00:00	12	torchiarolo	13.14	1	61.35	1	0.0	1	2.24	1	13.83	1	254.11	1	1019.19	1	40.488146	18.053571
231	2024-01-10 14:00:00	12	torchiarolo	12.66	1	64.88	1	0.0	1	1.72	1	358.66	1	112.53	1	1019.04	1	40.488146	18.053571
232	2024-01-10 15:00:00	12	torchiarolo	12.08	1	72.5	1	0.0	1	1.7	1	333.99	1	83.91	1	1019.03	1	40.488146	18.053571
233	2024-01-10 16:00:00	12	torchiarolo	11.37	1	76.49	1	0.0	1	1.34	1	325.76	1	31.46	1	1019.05	1	40.488146	18.053571
234	2024-01-10 17:00:00	12	torchiarolo	10.68	1	80.74	1	0.0	1	0.56	1	321.64	1	0.0	5	1019.12	1	40.488146	18.053571
235	2024-01-10 18:00:00	12	torchiarolo	10.03	1	84.08	1	0.0	1	0.86	1	316.57	1	0.0	1	1019.43	1	40.488146	18.053571
236	2024-01-10 19:00:00	12	torchiarolo	9.69	1	86.41	1	0.0	1	0.53	1	321.1	1	0.0	1	1019.6	1	40.488146	18.053571
237	2024-01-10 20:00:00	12	torchiarolo	9.22	1	88.86	1	0.0	1	null	3	0.61	1	0.0	1	1019.17	1	40.488146	18.053571
238	2024-01-10 21:00:00	12	torchiarolo	9.0	1	89.57	1	0.0	1	0.03	1	277.8	1	0.0	1	1019.14	1	40.488146	18.053571
239	2024-01-10 22:00:00	12	torchiarolo	8.97	1	86.77	1	0.0	1	0.45	1	283.64	1	0.0	1	1019.41	1	40.488146	18.053571
240	2024-01-10 23:00:00	12	torchiarolo	8.86	1	85.71	1	0.0	1	0.51	1	305.92	1	0.0	1	1019.22	1	40.488146	18.053571
241	2024-01-11 00:00:00	12	torchiarolo	8.78	1	86.0	1	0.0	1	0.71	1	305.94	1	0.0	1	1018.94	1	40.488146	18.053571
242	2024-01-11 01:00:00	12	torchiarolo	8.75	1	84.6	1	0.0	1	0.3	1	15.89	1	0.0	1	1018.43	1	40.488146	18.053571
243	2024-01-11 02:00:00	12	torchiarolo	9.33	1	75.98	1	0.0	1	0.86	1	68.15	1	0.0	1	1017.98	1	40.488146	18.053571
244	2024-01-11 03:00:00	12	torchiarolo	9.17	1	74.48	1	0.0	1	0.65	1	42.32	1	0.0	1	1017.74	1	40.488146	18.053571
245	2024-01-11 04:00:00	12	torchiarolo	8.36	1	80.05	1	0.0	1	0.09	1	337.55	1	0.0	1	1017.58	1	40.488146	18.053571
246	2024-01-11 05:00:00	12	torchiarolo	7.56	1	84.45	1	0.0	1	0.1	1	5.18	1	0.0	1	1017.15	1	40.488146	18.053571
247	2024-01-11 06:00:00	12	torchiarolo	7.08	1	86.66	1	0.0	1	0.01	1	323.71	1	0.0	1	1016.85	1	40.488146	18.053571
248	2024-01-11 07:00:00	12	torchiarolo	6.66	1	88.62	1	0.0	1	null	3	345.98	1	0.0	1	1016.85	1	40.488146	18.053571
249	2024-01-11 08:00:00	12	torchiarolo	7.06	1	87.91	1	0.0	1	0.01	1	287.77	1	16.35	1	1016.85	1	40.488146	18.053571
250	2024-01-11 09:00:00	12	torchiarolo	9.22	1	81.83	1	0.0	1	null	3	293.89	1	111.65	1	1016.85	1	40.488146	18.053571
251	2024-01-11 10:00:00	12	torchiarolo	11.55	1	69.38	1	0.0	1	1.59	1	58.9	1	193.56	1	1016.84	1	40.488146	18.053571
252	2024-01-11 11:00:00	12	torchiarolo	12.61	1	60.63	1	0.0	1	1.79	1	70.57	1	259.2	1	1016.34	1	40.488146	18.053571
253	2024-01-11 12:00:00	12	torchiarolo	13.22	1	55.97	1	0.0	1	2.11	1	70.55	1	368.62	1	1015.53	1	40.488146	18.053571
254	2024-01-11 13:00:00	12	torchiarolo	13.08	1	61.64	1	0.0	1	2.52	1	68.15	1	212.6	1	1014.77	1	40.488146	18.053571
255	2024-01-11 14:00:00	12	torchiarolo	12.83	1	60.94	1	0.0	1	2.47	1	68.09	1	222.76	1	1014.15	1	40.488146	18.053571
256	2024-01-11 15:00:00	12	torchiarolo	13.02	1	60.11	1	0.0	1	2.78	1	67.54	1	202.77	1	1013.67	1	40.488146	18.053571
257	2024-01-11 16:00:00	12	torchiarolo	11.69	1	63.16	1	0.0	1	1.61	1	55.02	1	54.07	1	1013.4	1	40.488146	18.053571
258	2024-01-11 17:00:00	12	torchiarolo	11.05	1	66.62	1	0.0	1	1.17	1	62.55	1	9.71	1	1013.28	1	40.488146	18.053571
259	2024-01-11 18:00:00	12	torchiarolo	10.08	1	71.0	1	0.0	1	0.74	1	32.9	1	0.0	1	1013.19	1	40.488146	18.053571
260	2024-01-11 19:00:00	12	torchiarolo	9.52	1	74.61	1	0.0	1	0.25	1	34.54	1	0.0	1	1012.96	1	40.488146	18.053571
261	2024-01-11 20:00:00	12	torchiarolo	8.52	1	72.28	1	0.0	1	0.8	1	25.51	1	0.0	1	1012.56	1	40.488146	18.053571
262	2024-01-11 21:00:00	12	torchiarolo	8.04	1	74.35	1	0.0	1	0.55	1	16.44	1	0.0	1	1012.24	1	40.488146	18.053571
263	2024-01-11 22:00:00	12	torchiarolo	7.44	1	77.26	1	0.0	1	1.0	1	13.2	1	0.0	1	1012.35	1	40.488146	18.053571
264	2024-01-11 23:00:00	12	torchiarolo	7.4	1	80.64	1	0.0	1	0.63	1	338.08	1	0.0	1	1012.29	1	40.488146	18.053571
265	2024-01-12 00:00:00	12	torchiarolo	7.66	1	80.89	1	0.0	1	0.07	1	325.31	1	0.0	1	1012.0	1	40.488146	18.053571
266	2024-01-12 01:00:00	12	torchiarolo	7.63	1	82.11	1	0.0	1	0.2	1	293.0	1	0.0	1	1011.45	1	40.488146	18.053571
267	2024-01-12 02:00:00	12	torchiarolo	7.26	1	83.37	1	0.0	1	0.67	1	283.87	1	0.0	1	1010.91	1	40.488146	18.053571
268	2024-01-12 03:00:00	12	torchiarolo	6.55	1	87.4	1	0.0	1	1.53	1	293.75	1	0.0	1	1010.59	1	40.488146	18.053571
269	2024-01-12 04:00:00	12	torchiarolo	7.18	1	91.48	1	0.0	1	1.44	1	307.18	1	0.0	1	1010.07	1	40.488146	18.053571
270	2024-01-12 05:00:00	12	torchiarolo	8.33	1	90.39	1	0.6	1	2.16	1	333.69	1	0.0	1	1009.67	1	40.488146	18.053571
271	2024-01-12 06:00:00	12	torchiarolo	9.38	1	80.15	1	0.0	1	2.89	1	4.66	1	0.0	1	1009.49	1	40.488146	18.053571
272	2024-01-12 07:00:00	12	torchiarolo	10.56	1	71.24	1	0.0	1	3.72	1	8.5	1	0.0	1	1009.52	1	40.488146	18.053571
273	2024-01-12 08:00:00	12	torchiarolo	10.43	1	70.73	1	0.0	1	2.5	1	349.14	1	20.65	1	1009.52	1	40.488146	18.053571
274	2024-01-12 09:00:00	12	torchiarolo	11.68	1	67.09	1	0.0	1	3.46	1	349.5	1	71.25	1	1009.67	1	40.488146	18.053571
275	2024-01-12 10:00:00	12	torchiarolo	11.92	1	65.84	1	0.0	1	4.58	1	0.86	1	200.17	1	1010.01	1	40.488146	18.053571
276	2024-01-12 11:00:00	12	torchiarolo	12.23	1	54.59	1	0.0	1	4.9	1	353.98	1	413.71	1	1010.45	1	40.488146	18.053571
277	2024-01-12 12:00:00	12	torchiarolo	12.54	1	49.57	1	0.0	1	4.95	1	355.72	1	468.16	1	1010.3	1	40.488146	18.053571
278	2024-01-12 13:00:00	12	torchiarolo	12.66	1	52.31	1	0.0	1	4.48	1	15.43	1	468.95	1	1009.91	1	40.488146	18.053571
279	2024-01-12 14:00:00	12	torchiarolo	14.47	1	38.55	1	0.0	1	4.18	1	14.4	1	152.68	1	1009.89	1	40.488146	18.053571
280	2024-01-12 15:00:00	12	torchiarolo	14.34	1	36.71	1	0.0	1	4.24	1	13.9	1	304.48	1	1010.03	1	40.488146	18.053571
281	2024-01-12 16:00:00	12	torchiarolo	11.26	1	44.18	1	0.0	1	4.46	1	9.28	1	119.14	1	1010.26	1	40.488146	18.053571
282	2024-01-12 17:00:00	12	torchiarolo	10.14	1	53.71	1	0.0	1	3.68	1	6.43	1	9.46	1	1010.49	1	40.488146	18.053571
283	2024-01-12 18:00:00	12	torchiarolo	9.47	1	56.94	1	0.0	1	2.89	1	4.94	1	0.0	1	1010.83	1	40.488146	18.053571
284	2024-01-12 19:00:00	12	torchiarolo	9.12	1	56.99	1	0.0	1	2.55	1	358.79	1	0.0	1	1011.09	1	40.488146	18.053571
285	2024-01-12 20:00:00	12	torchiarolo	8.95	1	60.06	1	0.0	1	2.16	1	351.03	1	0.0	1	1011.32	1	40.488146	18.053571
286	2024-01-12 21:00:00	12	torchiarolo	9.27	1	61.23	1	0.0	1	2.26	1	333.93	1	0.0	1	1011.54	1	40.488146	18.053571
287	2024-01-12 22:00:00	12	torchiarolo	9.77	1	58.13	1	0.0	1	2.31	1	0.22	1	0.0	1	1012.17	1	40.488146	18.053571
288	2024-01-12 23:00:00	12	torchiarolo	9.51	1	56.3	1	0.0	1	2.58	1	9.34	1	0.0	1	1012.45	1	40.488146	18.053571
289	2024-01-13 00:00:00	12	torchiarolo	8.16	1	60.2	1	0.0	1	1.26	1	337.23	1	0.0	1	1012.45	1	40.488146	18.053571
290	2024-01-13 01:00:00	12	torchiarolo	6.97	1	65.26	1	0.0	1	1.1	1	336.48	1	0.0	1	1012.46	1	40.488146	18.053571
291	2024-01-13 02:00:00	12	torchiarolo	6.53	1	65.88	1	0.0	1	1.88	1	342.28	1	0.0	1	1012.73	1	40.488146	18.053571
292	2024-01-13 03:00:00	12	torchiarolo	6.27	1	66.78	1	0.0	1	1.65	1	336.08	1	0.0	1	1012.82	1	40.488146	18.053571
293	2024-01-13 04:00:00	12	torchiarolo	7.68	1	61.59	1	0.0	1	2.6	1	13.27	1	0.0	1	1012.56	1	40.488146	18.053571
294	2024-01-13 05:00:00	12	torchiarolo	8.09	1	59.52	1	0.0	1	2.82	1	9.34	1	0.0	1	1012.73	1	40.488146	18.053571
295	2024-01-13 06:00:00	12	torchiarolo	7.45	1	61.75	1	0.0	1	2.44	1	7.33	1	0.0	1	1013.04	1	40.488146	18.053571
296	2024-01-13 07:00:00	12	torchiarolo	7.31	1	61.4	1	0.0	1	2.26	1	356.89	1	0.0	1	1013.54	1	40.488146	18.053571
297	2024-01-13 08:00:00	12	torchiarolo	7.39	1	62.72	1	0.0	1	1.56	1	350.16	1	15.3	1	1013.77	1	40.488146	18.053571
298	2024-01-13 09:00:00	12	torchiarolo	8.33	1	61.29	1	0.0	1	2.23	1	355.22	1	66.4	1	1014.68	1	40.488146	18.053571
299	2024-01-13 10:00:00	12	torchiarolo	9.48	1	56.45	1	0.0	1	3.41	1	14.3	1	223.27	1	1015.27	1	40.488146	18.053571
300	2024-01-13 11:00:00	12	torchiarolo	10.25	1	55.2	1	0.0	1	3.43	1	3.39	1	322.13	1	1015.48	1	40.488146	18.053571
301	2024-01-13 12:00:00	12	torchiarolo	10.79	1	55.29	1	0.0	1	3.32	1	9.59	1	347.7	1	1015.35	1	40.488146	18.053571
302	2024-01-13 13:00:00	12	torchiarolo	10.95	1	56.56	1	0.0	1	3.08	1	354.46	1	214.22	1	1014.95	1	40.488146	18.053571
303	2024-01-13 14:00:00	12	torchiarolo	11.86	1	47.6	1	0.0	1	4.34	1	337.75	1	172.46	1	1014.64	1	40.488146	18.053571
304	2024-01-13 15:00:00	12	torchiarolo	12.3	1	47.38	1	0.0	1	3.7	1	343.25	1	231.45	1	1014.62	1	40.488146	18.053571
305	2024-01-13 16:00:00	12	torchiarolo	10.36	1	55.38	1	0.0	1	2.63	1	343.77	1	60.73	1	1014.55	1	40.488146	18.053571
306	2024-01-13 17:00:00	12	torchiarolo	9.85	1	56.16	1	0.0	1	2.15	1	325.82	1	13.16	1	1014.38	1	40.488146	18.053571
307	2024-01-13 18:00:00	12	torchiarolo	7.68	1	63.35	1	0.0	1	0.56	1	311.06	1	0.0	1	1014.65	1	40.488146	18.053571
308	2024-01-13 19:00:00	12	torchiarolo	6.46	1	69.56	1	0.0	1	1.05	1	267.0	1	0.0	1	1014.67	1	40.488146	18.053571
309	2024-01-13 20:00:00	12	torchiarolo	6.0	1	74.12	1	0.0	1	1.3	1	257.21	1	0.0	1	1014.56	1	40.488146	18.053571
310	2024-01-13 21:00:00	12	torchiarolo	5.64	1	77.72	1	0.0	1	1.85	1	258.31	1	0.0	1	1014.42	1	40.488146	18.053571
311	2024-01-13 22:00:00	12	torchiarolo	5.94	1	75.93	1	0.0	1	2.4	1	277.86	1	0.0	1	1014.3	1	40.488146	18.053571
312	2024-01-13 23:00:00	12	torchiarolo	5.57	1	78.7	1	0.0	1	1.83	1	267.62	1	0.0	1	1014.28	1	40.488146	18.053571
313	2024-01-14 00:00:00	12	torchiarolo	4.77	1	82.83	1	0.0	1	2.0	1	267.77	1	0.0	1	1014.28	1	40.488146	18.053571
314	2024-01-14 01:00:00	12	torchiarolo	4.43	1	83.38	1	0.0	1	2.1	1	255.05	1	0.0	1	1013.99	1	40.488146	18.053571
315	2024-01-14 02:00:00	12	torchiarolo	4.6	1	82.06	1	0.0	1	1.96	1	256.81	1	0.0	1	1013.85	1	40.488146	18.053571
316	2024-01-14 03:00:00	12	torchiarolo	4.78	1	78.14	1	0.0	1	1.4	1	252.93	1	0.0	1	1013.35	1	40.488146	18.053571
317	2024-01-14 04:00:00	12	torchiarolo	4.3	1	76.14	1	0.0	1	1.88	1	251.85	1	0.0	1	1012.8	1	40.488146	18.053571
318	2024-01-14 05:00:00	12	torchiarolo	3.77	1	79.25	1	0.0	1	1.76	1	252.14	1	0.0	1	1012.45	1	40.488146	18.053571
319	2024-01-14 06:00:00	12	torchiarolo	3.33	1	81.69	1	0.0	1	1.25	1	256.67	1	0.0	1	1012.45	1	40.488146	18.053571
320	2024-01-14 07:00:00	12	torchiarolo	3.26	1	79.58	1	0.0	1	0.67	1	235.55	1	0.0	1	1012.56	1	40.488146	18.053571
321	2024-01-14 08:00:00	12	torchiarolo	2.98	1	80.26	1	0.0	1	0.99	1	235.55	1	11.1	1	1012.79	1	40.488146	18.053571
322	2024-01-14 09:00:00	12	torchiarolo	5.13	1	74.05	1	0.0	1	1.54	1	241.74	1	169.7	1	1012.8	1	40.488146	18.053571
323	2024-01-14 10:00:00	12	torchiarolo	6.57	1	67.99	1	0.0	1	1.31	1	254.75	1	331.57	1	1012.82	1	40.488146	18.053571
324	2024-01-14 11:00:00	12	torchiarolo	9.27	1	57.96	1	0.0	1	1.15	1	241.43	1	441.22	1	1012.88	1	40.488146	18.053571
325	2024-01-14 12:00:00	12	torchiarolo	11.39	1	45.09	1	0.0	1	2.13	1	246.26	1	470.18	1	1012.76	1	40.488146	18.053571
326	2024-01-14 13:00:00	12	torchiarolo	13.28	1	35.88	1	0.0	1	2.4	1	246.39	1	486.78	1	1012.36	1	40.488146	18.053571
327	2024-01-14 14:00:00	12	torchiarolo	15.78	1	34.27	1	0.0	1	2.62	1	224.58	1	162.28	1	1011.86	1	40.488146	18.053571
328	2024-01-14 15:00:00	12	torchiarolo	13.37	1	46.75	1	0.0	1	2.43	1	222.31	1	119.55	1	1011.72	1	40.488146	18.053571
329	2024-01-14 16:00:00	12	torchiarolo	12.37	1	61.7	1	0.0	1	2.03	1	212.14	1	70.69	1	1011.46	1	40.488146	18.053571
330	2024-01-14 17:00:00	12	torchiarolo	11.7	1	66.46	1	0.0	1	1.65	1	195.68	1	8.61	1	1011.28	1	40.488146	18.053571
331	2024-01-14 18:00:00	12	torchiarolo	11.05	1	68.97	1	0.0	1	1.43	1	190.01	1	0.0	1	1011.04	1	40.488146	18.053571
332	2024-01-14 19:00:00	12	torchiarolo	10.55	1	68.45	1	0.0	1	1.6	1	173.56	1	0.0	1	1010.6	1	40.488146	18.053571
333	2024-01-14 20:00:00	12	torchiarolo	10.33	1	65.66	1	0.0	1	1.95	1	184.45	1	0.0	1	1010.24	1	40.488146	18.053571
334	2024-01-14 21:00:00	12	torchiarolo	9.75	1	66.79	1	0.0	1	1.85	1	194.62	1	0.0	1	1009.95	1	40.488146	18.053571
335	2024-01-14 22:00:00	12	torchiarolo	9.25	1	71.7	1	0.0	1	1.73	1	195.32	1	0.0	1	1009.72	1	40.488146	18.053571
336	2024-01-14 23:00:00	12	torchiarolo	9.04	1	77.67	1	0.0	1	1.79	1	190.14	1	0.0	1	1009.15	1	40.488146	18.053571
337	2024-01-15 00:00:00	12	torchiarolo	9.14	1	80.63	1	0.0	1	1.4	1	186.49	1	0.0	1	1008.49	1	40.488146	18.053571
338	2024-01-15 01:00:00	12	torchiarolo	9.18	1	82.39	1	0.0	1	0.99	1	195.82	1	0.0	1	1008.09	1	40.488146	18.053571
339	2024-01-15 02:00:00	12	torchiarolo	9.78	1	79.0	1	0.0	1	1.64	1	190.78	1	0.0	1	1007.44	1	40.488146	18.053571
340	2024-01-15 03:00:00	12	torchiarolo	10.03	1	80.9	1	0.0	1	1.48	1	186.18	1	0.0	1	1006.66	1	40.488146	18.053571
341	2024-01-15 04:00:00	12	torchiarolo	10.67	1	85.19	1	0.0	1	1.77	1	193.8	1	0.0	1	1005.96	1	40.488146	18.053571
342	2024-01-15 05:00:00	12	torchiarolo	10.82	1	87.35	1	0.0	1	1.49	1	185.78	1	0.0	1	1004.99	1	40.488146	18.053571
343	2024-01-15 06:00:00	12	torchiarolo	11.01	1	89.48	1	0.0	1	1.12	1	179.56	1	0.0	1	1004.38	1	40.488146	18.053571
344	2024-01-15 07:00:00	12	torchiarolo	11.21	1	89.69	1	0.0	1	1.51	1	184.65	1	0.0	1	1003.92	1	40.488146	18.053571
345	2024-01-15 08:00:00	12	torchiarolo	11.75	1	88.59	1	0.0	1	2.13	1	191.61	1	9.65	1	1003.34	1	40.488146	18.053571
346	2024-01-15 09:00:00	12	torchiarolo	12.39	1	86.72	1	0.0	1	2.24	1	185.76	1	47.18	1	1002.89	1	40.488146	18.053571
347	2024-01-15 10:00:00	12	torchiarolo	13.24	1	81.38	1	0.0	1	2.83	1	193.7	1	107.67	1	1002.6	1	40.488146	18.053571
348	2024-01-15 11:00:00	12	torchiarolo	14.51	1	77.22	1	0.0	1	3.11	1	195.97	1	107.31	1	1002.34	1	40.488146	18.053571
349	2024-01-15 12:00:00	12	torchiarolo	15.37	1	72.53	1	0.0	1	3.59	1	196.39	1	170.21	1	1001.18	1	40.488146	18.053571
350	2024-01-15 13:00:00	12	torchiarolo	14.63	1	76.35	1	0.2	1	2.62	1	207.23	1	62.18	1	999.56	1	40.488146	18.053571
351	2024-01-15 14:00:00	12	torchiarolo	13.78	1	78.5	1	0.2	1	2.5	1	200.95	1	101.93	1	998.37	1	40.488146	18.053571
352	2024-01-15 15:00:00	12	torchiarolo	14.29	1	75.29	1	0.0	1	2.78	1	196.26	1	122.7	1	997.52	1	40.488146	18.053571
353	2024-01-15 16:00:00	12	torchiarolo	14.18	1	77.29	1	0.0	1	2.11	1	199.9	1	71.48	1	997.41	1	40.488146	18.053571
354	2024-01-15 17:00:00	12	torchiarolo	13.39	1	80.42	1	0.0	1	1.9	1	197.03	1	10.7	1	997.07	1	40.488146	18.053571
355	2024-01-15 18:00:00	12	torchiarolo	12.72	1	83.88	1	0.0	1	1.39	1	182.85	1	0.0	1	997.32	1	40.488146	18.053571
356	2024-01-15 19:00:00	12	torchiarolo	11.85	1	87.78	1	0.0	1	0.57	1	195.09	1	0.0	1	997.3	1	40.488146	18.053571
357	2024-01-15 20:00:00	12	torchiarolo	11.82	1	89.8	1	0.0	1	1.06	1	222.4	1	0.0	1	997.44	1	40.488146	18.053571
358	2024-01-15 21:00:00	12	torchiarolo	12.22	1	88.93	1	0.0	1	1.14	1	227.66	1	0.0	1	997.57	1	40.488146	18.053571
359	2024-01-15 22:00:00	12	torchiarolo	12.09	1	89.36	1	0.0	1	1.27	1	228.21	1	0.0	1	997.8	1	40.488146	18.053571
360	2024-01-15 23:00:00	12	torchiarolo	11.9	1	89.66	1	0.0	1	1.66	1	219.26	1	0.0	1	997.8	1	40.488146	18.053571
361	2024-01-16 00:00:00	12	torchiarolo	11.72	1	88.52	1	0.0	1	2.01	1	224.49	1	0.0	1	997.94	1	40.488146	18.053571
362	2024-01-16 01:00:00	12	torchiarolo	10.83	1	88.35	1	0.0	1	1.49	1	222.66	1	0.0	1	998.29	1	40.488146	18.053571
363	2024-01-16 02:00:00	12	torchiarolo	9.85	1	90.29	1	0.0	1	0.6	1	236.1	1	0.0	1	998.84	1	40.488146	18.053571
364	2024-01-16 03:00:00	12	torchiarolo	9.2	1	91.31	1	0.0	1	0.03	1	224.41	1	0.0	1	999.22	1	40.488146	18.053571
365	2024-01-16 04:00:00	12	torchiarolo	8.8	1	90.16	1	0.0	1	0.67	1	232.87	1	0.0	1	999.31	1	40.488146	18.053571
366	2024-01-16 05:00:00	12	torchiarolo	8.16	1	91.05	1	0.0	1	0.81	1	237.53	1	0.0	1	999.8	1	40.488146	18.053571
367	2024-01-16 06:00:00	12	torchiarolo	8.26	1	88.66	1	0.0	1	0.76	1	230.58	1	0.0	1	1000.45	1	40.488146	18.053571
368	2024-01-16 07:00:00	12	torchiarolo	8.13	1	88.62	1	0.0	1	0.34	1	214.58	1	0.0	1	1001.32	1	40.488146	18.053571
369	2024-01-16 08:00:00	12	torchiarolo	8.4	1	87.62	1	0.0	1	0.88	1	225.11	1	13.4	1	1001.95	1	40.488146	18.053571
370	2024-01-16 09:00:00	12	torchiarolo	10.37	1	81.44	1	0.0	1	1.13	1	247.55	1	155.31	1	1002.91	1	40.488146	18.053571
371	2024-01-16 10:00:00	12	torchiarolo	12.22	1	75.98	1	0.0	1	1.52	1	267.87	1	314.18	1	1003.77	1	40.488146	18.053571
372	2024-01-16 11:00:00	12	torchiarolo	14.85	1	64.37	1	0.0	1	1.99	1	284.86	1	420.92	1	1004.7	1	40.488146	18.053571
373	2024-01-16 12:00:00	12	torchiarolo	15.9	1	60.73	1	0.0	1	2.06	1	335.2	1	473.75	1	1004.76	1	40.488146	18.053571
374	2024-01-16 13:00:00	12	torchiarolo	17.03	1	54.75	1	0.0	1	1.99	1	342.77	1	472.81	1	1004.53	1	40.488146	18.053571
375	2024-01-16 14:00:00	12	torchiarolo	20.02	1	48.48	1	0.0	1	2.29	1	4.86	1	155.28	1	1004.76	1	40.488146	18.053571
376	2024-01-16 15:00:00	12	torchiarolo	19.07	1	56.47	1	0.0	1	2.23	1	16.47	1	301.16	1	1005.08	1	40.488146	18.053571
377	2024-01-16 16:00:00	12	torchiarolo	15.36	1	72.4	1	0.0	1	1.49	1	43.73	1	128.34	1	1005.42	1	40.488146	18.053571
378	2024-01-16 17:00:00	12	torchiarolo	13.79	1	80.16	1	0.0	1	0.93	1	112.61	1	12.24	1	1006.08	1	40.488146	18.053571
379	2024-01-16 18:00:00	12	torchiarolo	12.35	1	85.83	1	0.0	1	0.56	1	123.42	1	0.0	1	1006.5	1	40.488146	18.053571
380	2024-01-16 19:00:00	12	torchiarolo	12.14	1	87.28	1	0.0	1	0.94	1	189.87	1	0.0	1	1007.16	1	40.488146	18.053571
381	2024-01-16 20:00:00	12	torchiarolo	12.24	1	85.65	1	0.0	1	1.04	1	183.11	1	0.0	1	1007.33	1	40.488146	18.053571
382	2024-01-16 21:00:00	12	torchiarolo	11.41	1	87.35	1	0.0	1	0.76	1	168.83	1	0.0	1	1007.06	1	40.488146	18.053571
383	2024-01-16 22:00:00	12	torchiarolo	10.92	1	89.07	1	0.0	1	1.78	1	188.08	1	0.0	1	1007.63	1	40.488146	18.053571
384	2024-01-16 23:00:00	12	torchiarolo	10.83	1	89.23	1	0.0	1	1.54	1	187.67	1	0.0	1	1008.06	1	40.488146	18.053571
385	2024-01-17 00:00:00	12	torchiarolo	10.49	1	88.8	1	0.0	1	1.58	1	181.72	1	0.0	1	1007.92	1	40.488146	18.053571
386	2024-01-17 01:00:00	12	torchiarolo	10.45	1	89.51	1	0.0	1	1.78	1	193.54	1	0.0	1	1007.46	1	40.488146	18.053571
387	2024-01-17 02:00:00	12	torchiarolo	10.29	1	89.37	1	0.0	1	1.63	1	186.78	1	0.0	1	1007.42	1	40.488146	18.053571
388	2024-01-17 03:00:00	12	torchiarolo	9.93	1	90.17	1	0.0	1	1.46	1	195.28	1	0.0	1	1007.89	1	40.488146	18.053571
389	2024-01-17 04:00:00	12	torchiarolo	9.44	1	91.02	1	0.0	1	0.69	1	194.69	1	0.0	1	1008.03	1	40.488146	18.053571
390	2024-01-17 05:00:00	12	torchiarolo	9.31	1	92.94	1	0.0	1	0.98	1	199.95	1	0.0	1	1007.91	1	40.488146	18.053571
391	2024-01-17 06:00:00	12	torchiarolo	9.64	1	92.22	1	0.0	1	1.93	1	190.44	1	0.0	1	1007.69	1	40.488146	18.053571
392	2024-01-17 07:00:00	12	torchiarolo	9.71	1	93.07	1	0.0	1	0.85	1	187.63	1	0.0	1	1007.84	1	40.488146	18.053571
393	2024-01-17 08:00:00	12	torchiarolo	9.73	1	94.33	1	0.0	1	0.95	1	187.2	1	19.56	1	1008.37	1	40.488146	18.053571
394	2024-01-17 09:00:00	12	torchiarolo	11.81	1	89.51	1	0.0	1	1.42	1	192.85	1	122.21	1	1008.88	1	40.488146	18.053571
395	2024-01-17 10:00:00	12	torchiarolo	14.19	1	77.99	1	0.0	1	1.95	1	192.69	1	258.36	1	1008.8	1	40.488146	18.053571
396	2024-01-17 11:00:00	12	torchiarolo	16.39	1	70.6	1	0.0	1	2.66	1	204.69	1	336.73	1	1008.81	1	40.488146	18.053571
397	2024-01-17 12:00:00	12	torchiarolo	17.96	1	60.31	1	0.0	1	3.12	1	203.57	1	427.72	1	1008.21	1	40.488146	18.053571
398	2024-01-17 13:00:00	12	torchiarolo	19.02	1	51.21	1	0.0	1	3.58	1	200.15	1	343.87	1	1007.5	1	40.488146	18.053571
399	2024-01-17 14:00:00	12	torchiarolo	19.29	1	51.58	1	0.0	1	3.03	1	190.38	1	154.1	1	1006.75	1	40.488146	18.053571
400	2024-01-17 15:00:00	12	torchiarolo	18.39	1	59.77	1	0.0	1	3.54	1	192.51	1	184.61	1	1006.59	1	40.488146	18.053571
401	2024-01-17 16:00:00	12	torchiarolo	17.3	1	67.22	1	0.0	1	2.67	1	188.11	1	57.88	1	1006.48	1	40.488146	18.053571
402	2024-01-17 17:00:00	12	torchiarolo	16.3	1	74.5	1	0.0	1	2.69	1	170.82	1	15.83	1	1006.41	1	40.488146	18.053571
403	2024-01-17 18:00:00	12	torchiarolo	15.55	1	81.33	1	0.0	1	2.72	1	175.99	1	0.0	1	1006.59	1	40.488146	18.053571
404	2024-01-17 19:00:00	12	torchiarolo	15.2	1	86.14	1	0.0	1	3.13	1	188.55	1	0.0	1	1006.89	1	40.488146	18.053571
405	2024-01-17 20:00:00	12	torchiarolo	14.96	1	90.02	1	0.2	1	3.11	1	189.51	1	0.0	1	1006.75	1	40.488146	18.053571
406	2024-01-17 21:00:00	12	torchiarolo	14.61	1	91.81	1	0.2	1	2.54	1	174.01	1	0.0	1	1006.25	1	40.488146	18.053571
407	2024-01-17 22:00:00	12	torchiarolo	14.34	1	91.47	1	0.0	1	2.15	1	177.12	1	0.0	1	1005.94	1	40.488146	18.053571
408	2024-01-17 23:00:00	12	torchiarolo	14.39	1	92.18	1	0.0	1	3.03	1	183.63	1	0.0	1	1005.61	1	40.488146	18.053571
409	2024-01-18 00:00:00	12	torchiarolo	14.59	1	91.55	1	0.0	1	2.2	1	171.99	1	0.0	1	1005.38	1	40.488146	18.053571
410	2024-01-18 01:00:00	12	torchiarolo	14.59	1	92.29	1	0.0	1	2.48	1	163.27	1	0.0	1	1004.54	1	40.488146	18.053571
411	2024-01-18 02:00:00	12	torchiarolo	14.61	1	92.28	1	0.0	1	2.44	1	166.11	1	0.0	1	1003.61	1	40.488146	18.053571
412	2024-01-18 03:00:00	12	torchiarolo	14.66	1	90.08	1	0.0	1	2.27	1	179.65	1	0.0	1	1003.56	1	40.488146	18.053571
413	2024-01-18 04:00:00	12	torchiarolo	14.49	1	89.6	1	0.0	1	2.8	1	174.92	1	0.0	1	1002.78	1	40.488146	18.053571
414	2024-01-18 05:00:00	12	torchiarolo	14.04	1	91.41	1	0.0	1	1.9	1	150.49	1	0.0	1	1002.3	1	40.488146	18.053571
415	2024-01-18 06:00:00	12	torchiarolo	13.82	1	92.89	1	0.0	1	1.94	1	154.9	1	0.0	1	1001.87	1	40.488146	18.053571
416	2024-01-18 07:00:00	12	torchiarolo	13.93	1	91.64	1	0.0	1	3.37	1	177.36	1	0.0	1	1000.98	1	40.488146	18.053571
417	2024-01-18 08:00:00	12	torchiarolo	14.05	1	90.25	1	0.0	1	3.7	1	188.3	1	8.56	1	1000.85	1	40.488146	18.053571
418	2024-01-18 09:00:00	12	torchiarolo	15.07	1	85.17	1	0.0	1	3.28	1	186.84	1	148.16	1	1001.25	1	40.488146	18.053571
419	2024-01-18 10:00:00	12	torchiarolo	17.12	1	71.29	1	0.0	1	3.45	1	198.29	1	328.44	1	1000.9	1	40.488146	18.053571
420	2024-01-18 11:00:00	12	torchiarolo	19.24	1	63.44	1	0.0	1	5.06	1	220.14	1	501.12	1	1000.75	1	40.488146	18.053571
421	2024-01-18 12:00:00	12	torchiarolo	19.81	1	61.06	1	0.0	1	5.11	1	223.78	1	302.82	1	1001.09	1	40.488146	18.053571
422	2024-01-18 13:00:00	12	torchiarolo	19.56	1	61.53	1	0.0	1	5.09	1	222.75	1	229.05	1	1000.09	1	40.488146	18.053571
423	2024-01-18 14:00:00	12	torchiarolo	20.99	1	57.92	1	0.0	1	4.93	1	233.42	1	167.34	1	999.6	1	40.488146	18.053571
424	2024-01-18 15:00:00	12	torchiarolo	21.22	1	57.27	1	0.0	1	4.79	1	244.05	1	290.08	1	999.69	1	40.488146	18.053571
425	2024-01-18 16:00:00	12	torchiarolo	19.06	1	62.86	1	0.0	1	4.95	1	239.9	1	132.98	1	999.6	1	40.488146	18.053571
426	2024-01-18 17:00:00	12	torchiarolo	17.47	1	69.07	1	0.0	1	4.3	1	240.57	1	13.36	1	999.87	1	40.488146	18.053571
427	2024-01-18 18:00:00	12	torchiarolo	16.28	1	73.3	1	0.0	1	4.14	1	245.17	1	0.0	1	1000.14	1	40.488146	18.053571
428	2024-01-18 19:00:00	12	torchiarolo	15.99	1	70.6	1	0.0	1	3.38	1	233.93	1	0.0	1	1000.53	1	40.488146	18.053571
429	2024-01-18 20:00:00	12	torchiarolo	15.68	1	73.43	1	0.0	1	4.71	1	219.47	1	0.0	1	1000.39	1	40.488146	18.053571
430	2024-01-18 21:00:00	12	torchiarolo	15.25	1	74.32	1	0.0	1	2.31	1	230.91	1	0.0	1	1001.11	1	40.488146	18.053571
431	2024-01-18 22:00:00	12	torchiarolo	14.86	1	76.62	1	0.0	1	1.96	1	230.98	1	0.0	1	1001.77	1	40.488146	18.053571
432	2024-01-18 23:00:00	12	torchiarolo	13.61	1	83.07	1	0.0	1	0.8	1	154.08	1	0.0	1	1002.51	1	40.488146	18.053571
433	2024-01-19 00:00:00	12	torchiarolo	13.01	1	86.52	1	0.0	1	1.25	1	192.51	1	0.0	1	1002.37	1	40.488146	18.053571
434	2024-01-19 01:00:00	12	torchiarolo	12.51	1	87.9	1	0.0	1	1.23	1	181.57	1	0.0	1	1002.55	1	40.488146	18.053571
435	2024-01-19 02:00:00	12	torchiarolo	12.18	1	89.97	1	0.0	1	1.57	1	188.58	1	0.0	1	1002.54	1	40.488146	18.053571
436	2024-01-19 03:00:00	12	torchiarolo	12.49	1	88.16	1	0.0	1	1.67	1	192.62	1	0.0	1	1002.57	1	40.488146	18.053571
437	2024-01-19 04:00:00	12	torchiarolo	12.55	1	86.52	1	0.0	1	1.31	1	188.25	1	0.0	1	1002.72	1	40.488146	18.053571
438	2024-01-19 05:00:00	12	torchiarolo	12.54	1	87.94	1	0.0	1	1.22	1	193.9	1	0.0	1	1003.02	1	40.488146	18.053571
439	2024-01-19 06:00:00	12	torchiarolo	12.94	1	87.58	1	0.0	1	1.65	1	219.74	1	0.0	1	1003.17	1	40.488146	18.053571
440	2024-01-19 07:00:00	12	torchiarolo	12.91	1	88.03	1	0.0	1	1.8	1	191.23	1	0.0	1	1003.42	1	40.488146	18.053571
441	2024-01-19 08:00:00	12	torchiarolo	12.6	1	89.37	1	0.0	1	1.58	1	193.65	1	22.8	1	1004.01	1	40.488146	18.053571
442	2024-01-19 09:00:00	12	torchiarolo	14.93	1	79.38	1	0.0	1	2.81	1	217.63	1	153.44	1	1004.18	1	40.488146	18.053571
443	2024-01-19 10:00:00	12	torchiarolo	16.64	1	71.4	1	0.0	1	3.58	1	227.28	1	261.88	1	1004.37	1	40.488146	18.053571
444	2024-01-19 11:00:00	12	torchiarolo	18.01	1	64.25	1	0.0	1	3.85	1	233.48	1	339.04	1	1004.49	1	40.488146	18.053571
445	2024-01-19 12:00:00	12	torchiarolo	19.31	1	57.09	1	0.0	1	4.48	1	243.7	1	436.31	1	1004.58	1	40.488146	18.053571
446	2024-01-19 13:00:00	12	torchiarolo	19.9	1	53.9	1	0.0	1	4.78	1	245.53	1	350.35	1	1004.54	1	40.488146	18.053571
447	2024-01-19 14:00:00	12	torchiarolo	19.25	1	57.25	1	0.0	1	2.7	1	216.93	1	192.57	1	1004.3	1	40.488146	18.053571
448	2024-01-19 15:00:00	12	torchiarolo	20.32	1	52.0	1	0.0	1	1.56	1	206.69	1	194.36	1	1003.71	1	40.488146	18.053571
449	2024-01-19 16:00:00	12	torchiarolo	18.68	1	55.46	1	0.0	1	1.99	1	217.52	1	66.58	1	1004.05	1	40.488146	18.053571
450	2024-01-19 17:00:00	12	torchiarolo	17.32	1	60.61	1	0.0	1	2.67	1	221.27	1	22.09	1	1004.09	1	40.488146	18.053571
451	2024-01-19 18:00:00	12	torchiarolo	15.77	1	68.19	1	0.0	1	1.6	1	208.95	1	0.0	1	1004.35	1	40.488146	18.053571
452	2024-01-19 19:00:00	12	torchiarolo	15.02	1	74.18	1	0.0	1	2.18	1	204.09	1	0.0	1	1004.48	1	40.488146	18.053571
453	2024-01-19 20:00:00	12	torchiarolo	15.01	1	73.99	1	0.0	1	2.41	1	203.11	1	0.0	1	1004.85	1	40.488146	18.053571
454	2024-01-19 21:00:00	12	torchiarolo	15.02	1	72.89	1	0.0	1	3.02	1	197.21	1	0.0	1	1004.54	1	40.488146	18.053571
455	2024-01-19 22:00:00	12	torchiarolo	15.28	1	72.75	1	0.0	1	2.51	1	208.63	1	0.0	1	1005.02	1	40.488146	18.053571
456	2024-01-19 23:00:00	12	torchiarolo	15.14	1	74.17	1	0.0	1	1.95	1	225.73	1	0.0	1	1005.1	1	40.488146	18.053571
457	2024-01-20 00:00:00	12	torchiarolo	15.35	1	71.5	1	0.0	1	2.49	1	246.39	1	0.0	1	1005.27	1	40.488146	18.053571
458	2024-01-20 01:00:00	12	torchiarolo	15.51	1	69.76	1	0.0	1	2.3	1	219.85	1	0.0	1	1005.14	1	40.488146	18.053571
459	2024-01-20 02:00:00	12	torchiarolo	15.28	1	75.18	1	0.0	1	1.69	1	218.51	1	0.0	1	1005.55	1	40.488146	18.053571
460	2024-01-20 03:00:00	12	torchiarolo	14.16	1	84.64	1	0.0	1	1.48	1	344.37	1	0.0	1	1006.21	1	40.488146	18.053571
461	2024-01-20 04:00:00	12	torchiarolo	13.31	1	88.16	1	0.2	1	1.82	1	329.03	1	0.0	1	1006.3	1	40.488146	18.053571
462	2024-01-20 05:00:00	12	torchiarolo	12.51	1	89.6	1	0.8	1	3.66	1	330.96	1	0.0	1	1006.59	1	40.488146	18.053571
463	2024-01-20 06:00:00	12	torchiarolo	11.72	1	93.09	1	1.4	1	4.13	1	341.52	1	0.0	1	1006.98	1	40.488146	18.053571
464	2024-01-20 07:00:00	12	torchiarolo	10.59	1	92.22	1	0.4	1	4.37	1	338.66	1	0.0	1	1007.75	1	40.488146	18.053571
465	2024-01-20 08:00:00	12	torchiarolo	10.2	1	90.77	1	0.2	1	4.82	1	341.93	1	0.0	5	1008.37	1	40.488146	18.053571
466	2024-01-20 09:00:00	12	torchiarolo	9.68	1	88.78	1	1.6	1	5.23	1	344.31	1	12.11	1	1009.28	1	40.488146	18.053571
467	2024-01-20 10:00:00	12	torchiarolo	9.28	1	92.47	1	3.0	1	4.44	1	354.77	1	17.72	1	1009.96	1	40.488146	18.053571
468	2024-01-20 11:00:00	12	torchiarolo	9.15	1	94.98	1	3.0	1	3.56	1	19.13	1	27.61	1	1010.62	1	40.488146	18.053571
469	2024-01-20 12:00:00	12	torchiarolo	8.78	1	93.56	1	0.4	1	4.24	1	22.42	1	103.62	1	1010.55	1	40.488146	18.053571
470	2024-01-20 13:00:00	12	torchiarolo	8.75	1	88.6	1	0.0	1	4.41	1	23.29	1	75.21	1	1010.83	1	40.488146	18.053571
471	2024-01-20 14:00:00	12	torchiarolo	8.67	1	83.13	1	0.0	1	4.83	1	21.75	1	82.29	1	1010.67	1	40.488146	18.053571
472	2024-01-20 15:00:00	12	torchiarolo	8.48	1	78.69	1	0.0	1	5.17	1	22.29	1	50.18	1	1010.88	1	40.488146	18.053571
473	2024-01-20 16:00:00	12	torchiarolo	8.52	1	72.24	1	0.0	1	5.13	1	19.42	1	33.02	1	1011.64	1	40.488146	18.053571
474	2024-01-20 17:00:00	12	torchiarolo	8.38	1	70.9	1	0.0	1	5.43	1	22.5	1	7.19	1	1011.93	1	40.488146	18.053571
475	2024-01-20 18:00:00	12	torchiarolo	8.33	1	68.22	1	0.0	1	5.42	1	20.84	1	0.0	1	1012.58	1	40.488146	18.053571
476	2024-01-20 19:00:00	12	torchiarolo	8.6	1	61.39	1	0.0	1	5.63	1	22.08	1	0.0	1	1012.92	1	40.488146	18.053571
477	2024-01-20 20:00:00	12	torchiarolo	8.54	1	58.98	1	0.0	1	5.66	1	20.21	1	0.0	1	1013.09	1	40.488146	18.053571
478	2024-01-20 21:00:00	12	torchiarolo	8.34	1	56.55	1	0.0	1	6.2	1	14.58	1	0.0	1	1013.48	1	40.488146	18.053571
479	2024-01-20 22:00:00	12	torchiarolo	8.19	1	57.24	1	0.0	1	6.24	1	15.27	1	0.0	1	1013.5	1	40.488146	18.053571
480	2024-01-20 23:00:00	12	torchiarolo	8.1	1	57.14	1	0.0	1	6.39	1	15.7	1	0.0	1	1013.65	1	40.488146	18.053571
481	2024-01-21 00:00:00	12	torchiarolo	8.16	1	56.2	1	0.0	1	6.2	1	17.88	1	0.0	1	1014.01	1	40.488146	18.053571
482	2024-01-21 01:00:00	12	torchiarolo	8.17	1	53.4	1	0.0	1	6.23	1	16.65	1	0.0	1	1014.27	1	40.488146	18.053571
483	2024-01-21 02:00:00	12	torchiarolo	8.24	1	57.79	1	0.0	1	6.07	1	17.29	1	0.0	1	1014.42	1	40.488146	18.053571
484	2024-01-21 03:00:00	12	torchiarolo	8.35	1	54.57	1	0.0	1	6.19	1	19.81	1	0.0	1	1014.78	1	40.488146	18.053571
485	2024-01-21 04:00:00	12	torchiarolo	7.94	1	55.28	1	0.0	1	6.15	1	14.53	1	0.0	1	1015.01	1	40.488146	18.053571
486	2024-01-21 05:00:00	12	torchiarolo	7.92	1	59.02	1	0.0	1	6.17	1	12.66	1	0.0	1	1015.31	1	40.488146	18.053571
487	2024-01-21 06:00:00	12	torchiarolo	7.91	1	59.21	1	0.0	1	5.86	1	15.75	1	0.0	1	1015.68	1	40.488146	18.053571
488	2024-01-21 07:00:00	12	torchiarolo	8.0	1	62.12	1	0.0	1	5.79	1	17.11	1	0.0	1	1016.02	1	40.488146	18.053571
489	2024-01-21 08:00:00	12	torchiarolo	8.13	1	61.26	1	0.0	1	5.87	1	15.31	1	17.74	1	1016.7	1	40.488146	18.053571
490	2024-01-21 09:00:00	12	torchiarolo	9.19	1	61.15	1	0.0	1	5.71	1	12.99	1	167.87	1	1017.45	1	40.488146	18.053571
491	2024-01-21 10:00:00	12	torchiarolo	9.93	1	59.86	1	0.0	1	5.65	1	15.64	1	317.86	1	1018.12	1	40.488146	18.053571
492	2024-01-21 11:00:00	12	torchiarolo	10.65	1	58.47	1	0.0	1	5.72	1	15.25	1	378.4	1	1018.89	1	40.488146	18.053571
493	2024-01-21 12:00:00	12	torchiarolo	10.81	1	56.26	1	0.0	1	5.64	1	15.75	1	488.17	1	1019.11	1	40.488146	18.053571
494	2024-01-21 13:00:00	12	torchiarolo	11.53	1	54.93	1	0.0	1	5.63	1	12.2	1	487.37	1	1019.18	1	40.488146	18.053571
495	2024-01-21 14:00:00	12	torchiarolo	12.67	1	50.42	1	0.0	1	5.77	1	13.52	1	134.11	1	1019.41	1	40.488146	18.053571
496	2024-01-21 15:00:00	12	torchiarolo	12.63	1	46.05	1	0.0	1	5.47	1	15.36	1	333.4	1	1019.41	1	40.488146	18.053571
497	2024-01-21 16:00:00	12	torchiarolo	10.99	1	49.5	1	0.0	1	5.4	1	15.91	1	157.98	1	1019.7	1	40.488146	18.053571
498	2024-01-21 17:00:00	12	torchiarolo	10.18	1	51.56	1	0.0	1	4.65	1	13.99	1	15.76	1	1020.17	1	40.488146	18.053571
499	2024-01-21 18:00:00	12	torchiarolo	9.93	1	46.13	1	0.0	1	5.12	1	16.8	1	0.0	5	1021.01	1	40.488146	18.053571
500	2024-01-21 19:00:00	12	torchiarolo	10.16	1	40.64	1	0.0	1	5.48	1	19.33	1	0.0	1	1021.75	1	40.488146	18.053571
501	2024-01-21 20:00:00	12	torchiarolo	10.07	1	45.78	1	0.0	1	5.15	1	15.36	1	0.0	1	1022.29	1	40.488146	18.053571
502	2024-01-21 21:00:00	12	torchiarolo	9.85	1	48.94	1	0.0	1	4.36	1	13.51	1	0.0	1	1022.57	1	40.488146	18.053571
503	2024-01-21 22:00:00	12	torchiarolo	9.61	1	54.66	1	0.0	1	2.63	1	22.96	1	0.0	1	1022.7	1	40.488146	18.053571
504	2024-01-21 23:00:00	12	torchiarolo	9.66	1	53.23	1	0.0	1	2.53	1	29.07	1	0.0	1	1023.03	1	40.488146	18.053571
505	2024-01-22 00:00:00	12	torchiarolo	9.64	1	46.32	1	0.0	1	3.04	1	32.85	1	0.0	1	1023.28	1	40.488146	18.053571
506	2024-01-22 01:00:00	12	torchiarolo	9.45	1	44.69	1	0.0	1	3.2	1	46.72	1	0.0	1	1023.16	1	40.488146	18.053571
507	2024-01-22 02:00:00	12	torchiarolo	9.25	1	43.96	1	0.0	1	3.16	1	38.49	1	0.0	1	1023.53	1	40.488146	18.053571
508	2024-01-22 03:00:00	12	torchiarolo	9.31	1	43.33	1	0.0	1	3.07	1	53.01	1	0.0	1	1023.81	1	40.488146	18.053571
509	2024-01-22 04:00:00	12	torchiarolo	9.1	1	46.61	1	0.0	1	2.35	1	46.37	1	0.0	1	1023.81	1	40.488146	18.053571
510	2024-01-22 05:00:00	12	torchiarolo	9.09	1	40.9	1	0.0	1	2.48	1	35.82	1	0.0	1	1023.97	1	40.488146	18.053571
511	2024-01-22 06:00:00	12	torchiarolo	9.16	1	41.21	1	0.0	1	2.33	1	38.87	1	0.0	1	1024.18	1	40.488146	18.053571
512	2024-01-22 07:00:00	12	torchiarolo	8.88	1	42.19	1	0.0	1	2.33	1	29.76	1	0.0	1	1024.42	1	40.488146	18.053571
513	2024-01-22 08:00:00	12	torchiarolo	8.99	1	42.04	1	0.0	1	2.24	1	43.71	1	19.28	1	1024.77	1	40.488146	18.053571
514	2024-01-22 09:00:00	12	torchiarolo	11.36	1	43.19	1	0.0	1	2.29	1	37.79	1	190.19	1	1025.29	1	40.488146	18.053571
515	2024-01-22 10:00:00	12	torchiarolo	11.69	1	43.56	1	0.0	1	2.84	1	34.75	1	355.13	1	1025.84	1	40.488146	18.053571
516	2024-01-22 11:00:00	12	torchiarolo	12.67	1	38.64	1	0.0	1	4.06	1	23.56	1	468.93	1	1026.35	1	40.488146	18.053571
517	2024-01-22 12:00:00	12	torchiarolo	13.0	1	44.7	1	0.0	1	4.1	1	17.49	1	523.06	1	1026.07	1	40.488146	18.053571
518	2024-01-22 13:00:00	12	torchiarolo	13.66	1	45.57	1	0.0	1	4.11	1	14.81	1	509.16	1	1025.76	1	40.488146	18.053571
519	2024-01-22 14:00:00	12	torchiarolo	15.31	1	53.52	1	0.0	1	3.87	1	349.58	1	145.35	1	1025.31	1	40.488146	18.053571
520	2024-01-22 15:00:00	12	torchiarolo	15.86	1	47.96	1	0.0	1	3.91	1	355.31	1	340.18	1	1024.76	1	40.488146	18.053571
521	2024-01-22 16:00:00	12	torchiarolo	13.18	1	54.45	1	0.0	1	3.68	1	355.22	1	136.07	1	1024.52	1	40.488146	18.053571
522	2024-01-22 17:00:00	12	torchiarolo	11.58	1	61.8	1	0.0	1	2.55	1	340.51	1	16.74	1	1024.18	1	40.488146	18.053571
523	2024-01-22 18:00:00	12	torchiarolo	9.62	1	70.15	1	0.0	1	1.21	1	301.97	1	0.0	5	1024.16	1	40.488146	18.053571
524	2024-01-22 19:00:00	12	torchiarolo	8.37	1	75.59	1	0.0	1	1.15	1	291.45	1	0.0	1	1023.94	1	40.488146	18.053571
525	2024-01-22 20:00:00	12	torchiarolo	7.51	1	81.67	1	0.0	1	1.41	1	278.35	1	0.0	1	1023.83	1	40.488146	18.053571
526	2024-01-22 21:00:00	12	torchiarolo	6.6	1	84.23	1	0.0	1	0.11	1	272.88	1	0.0	1	1023.81	1	40.488146	18.053571
527	2024-01-22 22:00:00	12	torchiarolo	6.03	1	85.74	1	0.0	1	0.48	1	266.96	1	0.0	1	1023.52	1	40.488146	18.053571
528	2024-01-22 23:00:00	12	torchiarolo	5.83	1	85.7	1	0.0	1	0.84	1	254.69	1	0.0	1	1023.41	1	40.488146	18.053571
529	2024-01-23 00:00:00	12	torchiarolo	5.37	1	86.08	1	0.0	1	1.16	1	249.83	1	0.0	1	1023.01	1	40.488146	18.053571
530	2024-01-23 01:00:00	12	torchiarolo	4.91	1	87.3	1	0.0	1	0.61	1	243.99	1	0.0	1	1022.53	1	40.488146	18.053571
531	2024-01-23 02:00:00	12	torchiarolo	4.59	1	87.91	1	0.0	1	0.23	1	235.83	1	0.0	1	1022.09	1	40.488146	18.053571
532	2024-01-23 03:00:00	12	torchiarolo	4.34	1	87.44	1	0.0	1	null	3	212.45	1	0.0	1	1021.41	1	40.488146	18.053571
533	2024-01-23 04:00:00	12	torchiarolo	4.12	1	87.07	1	0.0	1	0.42	1	219.11	1	0.0	1	1020.74	1	40.488146	18.053571
534	2024-01-23 05:00:00	12	torchiarolo	3.45	1	89.52	1	0.0	1	1.06	1	230.0	1	0.0	1	1020.52	1	40.488146	18.053571
535	2024-01-23 06:00:00	12	torchiarolo	3.72	1	91.23	1	0.0	1	0.57	1	195.14	1	0.0	1	1020.34	1	40.488146	18.053571
536	2024-01-23 07:00:00	12	torchiarolo	3.78	1	90.38	1	0.0	1	0.73	1	237.73	1	0.0	5	1020.51	1	40.488146	18.053571
537	2024-01-23 08:00:00	12	torchiarolo	4.25	1	89.34	1	0.0	1	0.99	1	252.54	1	9.06	1	1020.41	1	40.488146	18.053571
538	2024-01-23 09:00:00	12	torchiarolo	5.5	1	81.95	1	0.0	1	1.6	1	254.76	1	90.27	1	1020.63	1	40.488146	18.053571
539	2024-01-23 10:00:00	12	torchiarolo	8.29	1	66.78	1	0.0	1	2.03	1	289.86	1	192.43	1	1020.61	1	40.488146	18.053571
540	2024-01-23 11:00:00	12	torchiarolo	11.18	1	64.8	1	0.0	1	2.72	1	325.94	1	342.24	1	1020.5	1	40.488146	18.053571
541	2024-01-23 12:00:00	12	torchiarolo	13.07	1	62.35	1	0.0	1	3.73	1	329.64	1	497.96	1	1020.15	1	40.488146	18.053571
542	2024-01-23 13:00:00	12	torchiarolo	14.1	1	60.37	1	0.0	1	4.14	1	330.92	1	323.81	1	1019.69	1	40.488146	18.053571
543	2024-01-23 14:00:00	12	torchiarolo	13.56	1	62.29	1	0.0	1	4.42	1	338.76	1	107.84	1	1019.31	1	40.488146	18.053571
544	2024-01-23 15:00:00	12	torchiarolo	11.89	1	75.07	1	0.0	1	4.32	1	334.19	1	65.67	1	1019.39	1	40.488146	18.053571
545	2024-01-23 16:00:00	12	torchiarolo	11.66	1	76.04	1	0.2	1	3.53	1	332.71	1	53.71	1	1019.41	1	40.488146	18.053571
546	2024-01-23 17:00:00	12	torchiarolo	10.81	1	82.1	1	0.4	1	3.72	1	342.0	1	0.0	5	1019.48	1	40.488146	18.053571
547	2024-01-23 18:00:00	12	torchiarolo	10.16	1	85.0	1	0.6	1	3.95	1	1.18	1	0.0	1	1019.89	1	40.488146	18.053571
548	2024-01-23 19:00:00	12	torchiarolo	10.36	1	79.39	1	0.0	1	3.48	1	14.38	1	0.0	1	1020.5	1	40.488146	18.053571
549	2024-01-23 20:00:00	12	torchiarolo	10.48	1	75.54	1	0.0	1	3.95	1	2.41	1	0.0	1	1020.92	1	40.488146	18.053571
550	2024-01-23 21:00:00	12	torchiarolo	10.53	1	70.77	1	0.0	1	4.17	1	0.21	1	0.0	1	1021.23	1	40.488146	18.053571
551	2024-01-23 22:00:00	12	torchiarolo	11.4	1	64.14	1	0.0	1	5.29	1	356.58	1	0.0	1	1021.23	1	40.488146	18.053571
552	2024-01-23 23:00:00	12	torchiarolo	11.8	1	59.2	1	0.0	1	5.09	1	1.29	1	0.0	1	1020.88	1	40.488146	18.053571
553	2024-01-24 00:00:00	12	torchiarolo	11.69	1	52.54	1	0.0	1	5.14	1	16.04	1	0.0	1	1021.15	1	40.488146	18.053571
554	2024-01-24 01:00:00	12	torchiarolo	11.61	1	52.18	1	0.0	1	5.05	1	5.63	1	0.0	1	1021.24	1	40.488146	18.053571
555	2024-01-24 02:00:00	12	torchiarolo	11.24	1	53.12	1	0.0	1	4.54	1	13.69	1	0.0	1	1021.34	1	40.488146	18.053571
556	2024-01-24 03:00:00	12	torchiarolo	11.18	1	54.6	1	0.0	1	4.37	1	21.98	1	0.0	1	1021.57	1	40.488146	18.053571
557	2024-01-24 04:00:00	12	torchiarolo	10.89	1	53.39	1	0.0	1	4.37	1	18.01	1	0.0	1	1021.4	1	40.488146	18.053571
558	2024-01-24 05:00:00	12	torchiarolo	10.65	1	55.15	1	0.0	1	3.79	1	20.92	1	0.0	1	1021.58	1	40.488146	18.053571
559	2024-01-24 06:00:00	12	torchiarolo	10.29	1	55.49	1	0.0	1	3.34	1	18.02	1	0.0	1	1021.9	1	40.488146	18.053571
560	2024-01-24 07:00:00	12	torchiarolo	10.19	1	53.52	1	0.0	1	3.52	1	16.31	1	0.0	1	1022.47	1	40.488146	18.053571
561	2024-01-24 08:00:00	12	torchiarolo	10.06	1	54.43	1	0.0	1	2.82	1	16.46	1	25.02	1	1022.63	1	40.488146	18.053571
562	2024-01-24 09:00:00	12	torchiarolo	12.1	1	48.32	1	0.0	1	3.8	1	14.35	1	189.37	1	1022.9	1	40.488146	18.053571
563	2024-01-24 10:00:00	12	torchiarolo	12.37	1	47.03	1	0.0	1	4.16	1	0.86	1	345.72	1	1023.62	1	40.488146	18.053571
564	2024-01-24 11:00:00	12	torchiarolo	13.26	1	45.58	1	0.0	1	4.12	1	358.8	1	457.65	1	1024.14	1	40.488146	18.053571
565	2024-01-24 12:00:00	12	torchiarolo	13.83	1	41.1	1	0.0	1	4.62	1	3.49	1	518.48	1	1023.87	1	40.488146	18.053571
566	2024-01-24 13:00:00	12	torchiarolo	14.56	5	null	6	0.0	5	null	6	null	6	null	6	1023.2	5	40.488146	18.053571
567	2024-01-24 14:00:00	12	torchiarolo	15.29	1	46.49	1	0.0	1	4.5	1	13.77	1	140.64	1	1022.53	1	40.488146	18.053571
568	2024-01-24 15:00:00	12	torchiarolo	15.47	1	49.21	1	0.0	1	3.28	1	21.46	1	293.32	1	1022.45	1	40.488146	18.053571
569	2024-01-24 16:00:00	12	torchiarolo	13.17	1	54.13	1	0.0	1	2.94	1	355.33	1	138.95	1	1022.24	1	40.488146	18.053571
570	2024-01-24 17:00:00	12	torchiarolo	12.23	1	60.14	1	0.0	1	2.47	1	339.67	1	24.14	1	1021.92	1	40.488146	18.053571
571	2024-01-24 18:00:00	12	torchiarolo	11.02	1	71.38	1	0.0	1	1.76	1	324.12	1	0.0	5	1021.63	1	40.488146	18.053571
572	2024-01-24 19:00:00	12	torchiarolo	10.13	1	77.43	1	0.0	1	1.27	1	295.75	1	0.0	1	1021.63	1	40.488146	18.053571
573	2024-01-24 20:00:00	12	torchiarolo	9.33	1	77.21	1	0.0	1	1.23	1	288.21	1	0.0	1	1021.41	1	40.488146	18.053571
574	2024-01-24 21:00:00	12	torchiarolo	8.77	1	74.12	1	0.0	1	1.34	1	274.42	1	0.0	1	1021.5	1	40.488146	18.053571
575	2024-01-24 22:00:00	12	torchiarolo	8.33	1	73.58	1	0.0	1	1.36	1	262.56	1	0.0	1	1021.25	1	40.488146	18.053571
576	2024-01-24 23:00:00	12	torchiarolo	7.93	1	71.74	1	0.0	1	0.53	1	258.78	1	0.0	1	1020.8	1	40.488146	18.053571
577	2024-01-25 00:00:00	12	torchiarolo	7.31	1	71.32	1	0.0	1	1.04	1	250.05	1	0.0	1	1020.53	1	40.488146	18.053571
578	2024-01-25 01:00:00	12	torchiarolo	6.83	1	71.06	1	0.0	1	1.0	1	252.07	1	0.0	1	1019.52	1	40.488146	18.053571
579	2024-01-25 02:00:00	12	torchiarolo	6.75	1	73.3	1	0.0	1	0.63	1	252.22	1	0.0	1	1019.1	1	40.488146	18.053571
580	2024-01-25 03:00:00	12	torchiarolo	6.35	1	76.63	1	0.0	1	0.35	1	242.74	1	0.0	1	1018.89	1	40.488146	18.053571
581	2024-01-25 04:00:00	12	torchiarolo	6.13	1	70.33	1	0.0	1	0.81	1	233.55	1	0.0	1	1018.39	1	40.488146	18.053571
582	2024-01-25 05:00:00	12	torchiarolo	5.71	1	68.02	1	0.0	1	0.83	1	242.0	1	0.0	1	1018.0	1	40.488146	18.053571
583	2024-01-25 06:00:00	12	torchiarolo	5.26	1	71.41	1	0.0	1	1.1	1	244.75	1	0.0	1	1017.95	1	40.488146	18.053571
584	2024-01-25 07:00:00	12	torchiarolo	4.97	1	74.75	1	0.0	1	0.89	1	249.31	1	0.0	1	1017.94	1	40.488146	18.053571
585	2024-01-25 08:00:00	12	torchiarolo	5.22	1	74.83	1	0.0	1	0.78	1	236.05	1	22.8	1	1017.96	1	40.488146	18.053571
586	2024-01-25 09:00:00	12	torchiarolo	8.36	1	65.7	1	0.0	1	null	3	231.05	1	178.62	1	1017.94	1	40.488146	18.053571
587	2024-01-25 10:00:00	12	torchiarolo	10.62	1	59.06	1	0.0	1	0.17	1	253.9	1	338.63	1	1017.77	1	40.488146	18.053571
588	2024-01-25 11:00:00	12	torchiarolo	14.09	1	49.22	1	0.0	1	1.9	1	338.58	1	451.34	1	1017.95	1	40.488146	18.053571
589	2024-01-25 12:00:00	12	torchiarolo	15.24	1	51.62	1	0.0	1	2.87	1	351.07	1	507.0	1	1017.63	1	40.488146	18.053571
590	2024-01-25 13:00:00	12	torchiarolo	15.94	1	58.55	1	0.0	1	3.29	1	4.91	1	490.45	1	1017.33	1	40.488146	18.053571
591	2024-01-25 14:00:00	12	torchiarolo	16.39	1	63.36	1	0.0	1	3.83	1	5.51	1	170.71	1	1017.42	1	40.488146	18.053571
592	2024-01-25 15:00:00	12	torchiarolo	17.21	1	54.07	1	0.0	1	3.66	1	2.32	1	336.11	1	1017.63	1	40.488146	18.053571
593	2024-01-25 16:00:00	12	torchiarolo	14.78	1	64.4	1	0.0	1	3.12	1	7.08	1	173.69	1	1017.91	1	40.488146	18.053571
594	2024-01-25 17:00:00	12	torchiarolo	13.0	1	72.34	1	0.0	1	2.19	1	345.36	1	18.14	1	1017.89	1	40.488146	18.053571
595	2024-01-25 18:00:00	12	torchiarolo	11.29	1	78.23	1	0.0	1	1.24	1	292.28	1	0.0	5	1017.74	1	40.488146	18.053571
596	2024-01-25 19:00:00	12	torchiarolo	10.42	1	82.49	1	0.0	1	1.39	1	294.26	1	0.0	1	1017.83	1	40.488146	18.053571
597	2024-01-25 20:00:00	12	torchiarolo	9.26	1	86.5	1	0.0	1	0.78	1	292.24	1	0.0	1	1018.5	1	40.488146	18.053571
598	2024-01-25 21:00:00	12	torchiarolo	9.27	1	88.74	1	0.0	1	2.11	1	326.61	1	0.0	1	1018.4	1	40.488146	18.053571
599	2024-01-25 22:00:00	12	torchiarolo	9.6	1	89.2	1	0.0	1	2.18	1	322.05	1	0.0	1	1018.47	1	40.488146	18.053571
600	2024-01-25 23:00:00	12	torchiarolo	9.2	1	91.93	1	0.0	1	1.21	1	305.5	1	0.0	1	1018.67	1	40.488146	18.053571
601	2024-01-26 00:00:00	12	torchiarolo	8.87	1	94.12	1	0.0	1	1.4	1	294.96	1	0.0	1	1018.68	1	40.488146	18.053571
602	2024-01-26 01:00:00	12	torchiarolo	8.48	1	95.42	1	0.0	1	1.38	1	276.35	1	0.0	1	1018.64	1	40.488146	18.053571
603	2024-01-26 02:00:00	12	torchiarolo	8.47	1	96.25	1	0.0	1	1.83	1	299.88	1	0.0	1	1018.68	1	40.488146	18.053571
604	2024-01-26 03:00:00	12	torchiarolo	8.03	1	95.94	1	0.0	1	1.93	1	297.99	1	0.0	1	1019.05	1	40.488146	18.053571
605	2024-01-26 04:00:00	12	torchiarolo	8.01	1	95.9	1	0.0	1	1.9	1	294.31	1	0.0	1	1019.05	1	40.488146	18.053571
606	2024-01-26 05:00:00	12	torchiarolo	8.2	1	96.41	1	0.0	1	1.34	1	276.08	1	0.0	1	1019.05	1	40.488146	18.053571
607	2024-01-26 06:00:00	12	torchiarolo	8.27	1	96.73	1	0.0	1	1.46	1	282.44	1	0.0	1	1019.15	1	40.488146	18.053571
608	2024-01-26 07:00:00	12	torchiarolo	7.77	1	97.21	1	0.0	1	1.23	1	262.21	1	0.0	5	1019.38	1	40.488146	18.053571
609	2024-01-26 08:00:00	12	torchiarolo	7.91	1	97.82	1	0.0	1	0.96	1	251.73	1	19.19	1	1019.42	1	40.488146	18.053571
610	2024-01-26 09:00:00	12	torchiarolo	9.3	1	97.34	1	0.2	1	0.5	1	279.09	1	152.18	1	1019.89	1	40.488146	18.053571
611	2024-01-26 10:00:00	12	torchiarolo	12.12	1	92.22	1	0.0	1	2.92	1	334.42	1	351.03	1	1020.17	1	40.488146	18.053571
612	2024-01-26 11:00:00	12	torchiarolo	14.12	1	78.14	1	0.0	1	3.83	1	337.74	1	454.47	1	1020.51	1	40.488146	18.053571
613	2024-01-26 12:00:00	12	torchiarolo	15.22	1	69.31	1	0.0	1	4.04	1	343.06	1	531.42	1	1020.27	1	40.488146	18.053571
614	2024-01-26 13:00:00	12	torchiarolo	16.42	1	63.31	1	0.0	1	3.48	1	348.49	1	519.44	1	1019.95	1	40.488146	18.053571
615	2024-01-26 14:00:00	12	torchiarolo	18.6	1	59.53	1	0.0	1	2.8	1	14.09	1	119.07	1	1019.48	1	40.488146	18.053571
616	2024-01-26 15:00:00	12	torchiarolo	18.54	1	63.24	1	0.0	1	1.98	1	16.34	1	350.46	1	1019.41	1	40.488146	18.053571
617	2024-01-26 16:00:00	12	torchiarolo	15.7	1	69.03	1	0.0	1	1.83	1	8.71	1	185.05	1	1019.24	1	40.488146	18.053571
618	2024-01-26 17:00:00	12	torchiarolo	13.05	1	78.6	1	0.0	1	1.09	1	13.65	1	17.23	1	1019.38	1	40.488146	18.053571
619	2024-01-26 18:00:00	12	torchiarolo	11.15	1	84.68	1	0.0	1	0.22	1	308.45	1	0.0	5	1019.41	1	40.488146	18.053571
620	2024-01-26 19:00:00	12	torchiarolo	10.1	1	87.54	1	0.0	1	0.37	1	267.38	1	0.0	1	1019.41	1	40.488146	18.053571
621	2024-01-26 20:00:00	12	torchiarolo	9.3	1	90.47	1	0.0	1	0.74	1	300.69	1	0.0	1	1019.41	1	40.488146	18.053571
622	2024-01-26 21:00:00	12	torchiarolo	8.72	1	92.37	1	0.0	1	0.59	1	267.11	1	0.0	1	1019.41	1	40.488146	18.053571
623	2024-01-26 22:00:00	12	torchiarolo	7.93	1	92.85	1	0.0	1	1.11	1	272.26	1	0.0	1	1019.41	1	40.488146	18.053571
624	2024-01-26 23:00:00	12	torchiarolo	7.21	1	90.81	1	0.0	1	1.28	1	266.28	1	0.0	1	1019.3	1	40.488146	18.053571
625	2024-01-27 00:00:00	12	torchiarolo	6.92	1	84.59	1	0.0	1	1.47	1	264.47	1	0.0	1	1019.39	1	40.488146	18.053571
626	2024-01-27 01:00:00	12	torchiarolo	7.04	1	79.54	1	0.0	1	1.31	1	246.3	1	0.0	1	1019.1	1	40.488146	18.053571
627	2024-01-27 02:00:00	12	torchiarolo	6.63	1	79.29	1	0.0	1	0.81	1	227.47	1	0.0	1	1019.05	1	40.488146	18.053571
628	2024-01-27 03:00:00	12	torchiarolo	6.28	1	76.46	1	0.0	1	0.9	1	274.51	1	0.0	1	1019.37	1	40.488146	18.053571
629	2024-01-27 04:00:00	12	torchiarolo	7.1	1	75.96	1	0.0	1	1.23	1	299.06	1	0.0	1	1019.21	1	40.488146	18.053571
630	2024-01-27 05:00:00	12	torchiarolo	7.66	1	83.38	1	0.0	1	0.62	1	313.07	1	0.0	1	1019.14	1	40.488146	18.053571
631	2024-01-27 06:00:00	12	torchiarolo	7.74	1	88.0	1	0.0	1	0.78	1	317.74	1	0.0	1	1019.26	1	40.488146	18.053571
632	2024-01-27 07:00:00	12	torchiarolo	8.41	1	93.36	1	0.0	1	1.52	1	329.9	1	0.0	1	1020.07	1	40.488146	18.053571
633	2024-01-27 08:00:00	12	torchiarolo	9.46	1	95.77	1	0.0	1	2.33	1	319.79	1	15.11	1	1020.11	1	40.488146	18.053571
634	2024-01-27 09:00:00	12	torchiarolo	10.75	1	94.75	1	0.0	1	1.87	1	317.13	1	93.05	1	1020.33	1	40.488146	18.053571
635	2024-01-27 10:00:00	12	torchiarolo	12.72	1	88.02	1	0.0	1	2.31	1	339.08	1	212.36	1	1020.57	1	40.488146	18.053571
636	2024-01-27 11:00:00	12	torchiarolo	14.66	1	80.83	1	0.0	1	4.58	1	341.91	1	343.68	1	1021.09	1	40.488146	18.053571
637	2024-01-27 12:00:00	12	torchiarolo	15.01	1	79.5	1	0.0	1	4.75	1	335.87	1	331.11	1	1021.26	1	40.488146	18.053571
638	2024-01-27 13:00:00	12	torchiarolo	15.44	1	77.44	1	0.0	1	5.05	1	334.37	1	301.78	1	1021.01	1	40.488146	18.053571
639	2024-01-27 14:00:00	12	torchiarolo	16.2	1	72.36	1	0.0	1	5.02	1	334.39	1	211.99	1	1020.76	1	40.488146	18.053571
640	2024-01-27 15:00:00	12	torchiarolo	16.28	1	71.91	1	0.0	1	5.01	1	334.43	1	283.23	1	1020.52	1	40.488146	18.053571
641	2024-01-27 16:00:00	12	torchiarolo	15.07	1	74.9	1	0.0	1	4.51	1	337.95	1	172.8	1	1020.56	1	40.488146	18.053571
642	2024-01-27 17:00:00	12	torchiarolo	13.64	1	56.72	1	0.0	1	4.26	1	348.98	1	19.09	1	1020.92	1	40.488146	18.053571
643	2024-01-27 18:00:00	12	torchiarolo	11.76	1	59.92	1	0.0	1	2.28	1	334.41	1	0.0	5	1021.41	1	40.488146	18.053571
644	2024-01-27 19:00:00	12	torchiarolo	10.95	1	64.07	1	0.0	1	2.55	1	337.48	1	0.0	1	1021.84	1	40.488146	18.053571
645	2024-01-27 20:00:00	12	torchiarolo	11.16	1	54.21	1	0.0	1	2.66	1	335.35	1	0.0	1	1022.02	1	40.488146	18.053571
646	2024-01-27 21:00:00	12	torchiarolo	11.28	1	54.14	1	0.0	1	3.33	1	339.58	1	0.0	1	1022.39	1	40.488146	18.053571
647	2024-01-27 22:00:00	12	torchiarolo	11.08	1	55.41	1	0.0	1	3.54	1	341.06	1	0.0	1	1022.72	1	40.488146	18.053571
648	2024-01-27 23:00:00	12	torchiarolo	11.87	1	43.02	1	0.0	1	4.17	1	0.27	1	0.0	1	1022.75	1	40.488146	18.053571
649	2024-01-28 00:00:00	12	torchiarolo	11.59	1	44.88	1	0.0	1	3.95	1	5.93	1	0.0	1	1023.22	1	40.488146	18.053571
650	2024-01-28 01:00:00	12	torchiarolo	11.54	1	38.07	1	0.0	1	4.11	1	17.63	1	0.0	1	1023.44	1	40.488146	18.053571
651	2024-01-28 02:00:00	12	torchiarolo	11.03	1	41.54	1	0.0	1	3.83	1	13.22	1	0.0	1	1023.6	1	40.488146	18.053571
652	2024-01-28 03:00:00	12	torchiarolo	10.87	1	40.36	1	0.0	1	4.36	1	13.88	1	0.0	1	1023.77	1	40.488146	18.053571
653	2024-01-28 04:00:00	12	torchiarolo	10.48	1	40.79	1	0.0	1	4.26	1	14.05	1	0.0	1	1023.8	1	40.488146	18.053571
654	2024-01-28 05:00:00	12	torchiarolo	10.36	1	40.56	1	0.0	1	4.16	1	14.01	1	0.0	1	1024.16	1	40.488146	18.053571
655	2024-01-28 06:00:00	12	torchiarolo	10.41	1	44.44	1	0.0	1	4.66	1	14.07	1	0.0	1	1024.25	1	40.488146	18.053571
656	2024-01-28 07:00:00	12	torchiarolo	10.49	1	44.64	1	0.0	1	5.38	1	17.73	1	0.0	5	1024.77	1	40.488146	18.053571
657	2024-01-28 08:00:00	12	torchiarolo	10.25	1	45.82	1	0.0	1	4.91	1	22.72	1	32.87	1	1025.44	1	40.488146	18.053571
658	2024-01-28 09:00:00	12	torchiarolo	11.29	1	42.49	1	0.0	1	4.82	1	26.1	1	202.42	1	1025.94	1	40.488146	18.053571
659	2024-01-28 10:00:00	12	torchiarolo	11.43	1	43.38	1	0.0	1	4.13	1	23.53	1	368.27	1	1026.44	1	40.488146	18.053571
660	2024-01-28 11:00:00	12	torchiarolo	11.88	1	43.92	1	0.0	1	4.41	1	20.22	1	483.23	1	1027.05	1	40.488146	18.053571
661	2024-01-28 12:00:00	12	torchiarolo	12.2	1	43.9	1	0.0	1	4.29	1	20.82	1	545.72	1	1027.12	1	40.488146	18.053571
662	2024-01-28 13:00:00	12	torchiarolo	12.72	1	44.0	1	0.0	1	4.5	1	17.41	1	539.64	1	1027.07	1	40.488146	18.053571
663	2024-01-28 14:00:00	12	torchiarolo	14.01	1	41.11	1	0.0	1	4.8	1	16.57	1	138.6	1	1026.73	1	40.488146	18.053571
664	2024-01-28 15:00:00	12	torchiarolo	13.71	1	42.03	1	0.0	1	4.36	1	14.91	1	361.33	1	1026.58	1	40.488146	18.053571
665	2024-01-28 16:00:00	12	torchiarolo	12.04	1	45.35	1	0.0	1	4.37	1	5.16	1	212.06	1	1026.7	1	40.488146	18.053571
666	2024-01-28 17:00:00	12	torchiarolo	10.27	1	47.03	1	0.0	1	3.94	1	3.86	1	24.38	1	1026.66	1	40.488146	18.053571
667	2024-01-28 18:00:00	12	torchiarolo	9.78	1	50.09	1	0.0	1	3.8	1	355.14	1	0.0	5	1026.91	1	40.488146	18.053571
668	2024-01-28 19:00:00	12	torchiarolo	9.39	1	51.57	1	0.0	1	3.6	1	1.88	1	0.0	1	1027.11	1	40.488146	18.053571
669	2024-01-28 20:00:00	12	torchiarolo	9.6	1	51.49	1	0.0	1	3.28	1	15.03	1	0.0	1	1027.11	1	40.488146	18.053571
670	2024-01-28 21:00:00	12	torchiarolo	9.68	1	50.06	1	0.0	1	3.25	1	17.7	1	0.0	1	1027.21	1	40.488146	18.053571
671	2024-01-28 22:00:00	12	torchiarolo	9.79	1	49.99	1	0.0	1	2.68	1	26.88	1	0.0	1	1027.34	1	40.488146	18.053571
672	2024-01-28 23:00:00	12	torchiarolo	9.43	1	51.12	1	0.0	1	2.24	1	22.01	1	0.0	1	1027.37	1	40.488146	18.053571
673	2024-01-29 00:00:00	12	torchiarolo	9.17	1	53.65	1	0.0	1	2.17	1	29.19	1	0.0	1	1027.46	1	40.488146	18.053571
674	2024-01-29 01:00:00	12	torchiarolo	9.72	1	52.51	1	0.0	1	2.88	1	42.51	1	0.0	1	1027.47	1	40.488146	18.053571
675	2024-01-29 02:00:00	12	torchiarolo	9.8	1	52.12	1	0.0	1	2.97	1	37.06	1	0.0	1	1027.47	1	40.488146	18.053571
676	2024-01-29 03:00:00	12	torchiarolo	9.56	1	50.65	1	0.0	1	3.24	1	24.07	1	0.0	1	1027.42	1	40.488146	18.053571
677	2024-01-29 04:00:00	12	torchiarolo	9.46	1	50.28	1	0.0	1	3.14	1	28.75	1	0.0	1	1027.16	1	40.488146	18.053571
678	2024-01-29 05:00:00	12	torchiarolo	9.07	1	48.54	1	0.0	1	2.32	1	37.51	1	0.0	1	1027.11	1	40.488146	18.053571
679	2024-01-29 06:00:00	12	torchiarolo	8.23	1	52.82	1	0.0	1	1.53	1	31.49	1	0.0	1	1027.32	1	40.488146	18.053571
680	2024-01-29 07:00:00	12	torchiarolo	8.4	1	51.75	1	0.0	1	2.02	1	41.5	1	0.0	1	1027.66	1	40.488146	18.053571
681	2024-01-29 08:00:00	12	torchiarolo	8.79	1	50.69	1	0.0	1	2.07	1	40.91	1	33.91	1	1028.08	1	40.488146	18.053571
682	2024-01-29 09:00:00	12	torchiarolo	11.01	1	46.06	1	0.0	1	2.37	1	31.29	1	187.25	1	1028.26	1	40.488146	18.053571
683	2024-01-29 10:00:00	12	torchiarolo	11.55	1	42.57	1	0.0	1	3.17	1	36.24	1	301.25	1	1028.82	1	40.488146	18.053571
684	2024-01-29 11:00:00	12	torchiarolo	10.97	1	45.71	1	0.0	1	3.21	1	25.13	1	190.8	1	1028.96	1	40.488146	18.053571
685	2024-01-29 12:00:00	12	torchiarolo	11.64	1	43.29	1	0.0	1	4.07	1	32.37	1	524.16	1	1028.79	1	40.488146	18.053571
686	2024-01-29 13:00:00	12	torchiarolo	12.24	1	41.73	1	0.0	1	4.17	1	33.97	1	545.46	1	1028.53	1	40.488146	18.053571
687	2024-01-29 14:00:00	12	torchiarolo	13.67	1	39.94	1	0.0	1	4.17	1	25.05	1	136.09	1	1028.23	1	40.488146	18.053571
688	2024-01-29 15:00:00	12	torchiarolo	13.37	1	41.73	1	0.0	1	3.72	1	22.64	1	352.04	1	1028.2	1	40.488146	18.053571
689	2024-01-29 16:00:00	12	torchiarolo	11.65	1	45.47	1	0.0	1	3.3	1	21.97	1	203.11	1	1027.85	1	40.488146	18.053571
690	2024-01-29 17:00:00	12	torchiarolo	9.96	1	52.02	1	0.0	1	3.01	1	17.96	1	23.37	1	1027.67	1	40.488146	18.053571
691	2024-01-29 18:00:00	12	torchiarolo	8.85	1	57.9	1	0.0	1	2.97	1	14.1	1	0.0	5	1027.78	1	40.488146	18.053571
692	2024-01-29 19:00:00	12	torchiarolo	8.8	1	57.94	1	0.0	1	2.98	1	14.63	1	0.0	1	1028.03	1	40.488146	18.053571
693	2024-01-29 20:00:00	12	torchiarolo	9.07	1	55.27	1	0.0	1	3.35	1	15.58	1	0.0	1	1028.2	1	40.488146	18.053571
694	2024-01-29 21:00:00	12	torchiarolo	9.17	1	52.27	1	0.0	1	3.39	1	14.88	1	0.0	1	1028.22	1	40.488146	18.053571
695	2024-01-29 22:00:00	12	torchiarolo	9.39	1	48.83	1	0.0	1	3.79	1	21.02	1	0.0	1	1028.23	1	40.488146	18.053571
696	2024-01-29 23:00:00	12	torchiarolo	9.36	1	47.55	1	0.0	1	3.99	1	23.99	1	0.0	1	1028.53	1	40.488146	18.053571
697	2024-01-30 00:00:00	12	torchiarolo	9.25	1	47.63	1	0.0	1	3.08	1	30.77	1	0.0	1	1028.75	1	40.488146	18.053571
698	2024-01-30 01:00:00	12	torchiarolo	8.69	1	48.27	1	0.0	1	2.3	1	38.49	1	0.0	1	1028.57	1	40.488146	18.053571
699	2024-01-30 02:00:00	12	torchiarolo	8.38	1	49.8	1	0.0	1	2.04	1	49.1	1	0.0	1	1028.56	1	40.488146	18.053571
700	2024-01-30 03:00:00	12	torchiarolo	8.18	1	49.8	1	0.0	1	2.1	1	49.42	1	0.0	1	1028.49	1	40.488146	18.053571
701	2024-01-30 04:00:00	12	torchiarolo	8.06	1	47.99	1	0.0	1	2.25	1	48.32	1	0.0	1	1028.29	1	40.488146	18.053571
702	2024-01-30 05:00:00	12	torchiarolo	7.79	1	47.9	1	0.0	1	2.51	1	44.66	1	0.0	1	1028.2	1	40.488146	18.053571
703	2024-01-30 06:00:00	12	torchiarolo	7.97	1	45.18	1	0.0	1	3.02	1	60.0	1	0.0	1	1028.2	1	40.488146	18.053571
704	2024-01-30 07:00:00	12	torchiarolo	7.72	1	46.67	1	0.0	1	2.8	1	60.78	1	0.0	5	1028.47	1	40.488146	18.053571
705	2024-01-30 08:00:00	12	torchiarolo	7.64	1	48.27	1	0.0	1	2.12	1	44.25	1	33.62	1	1028.85	1	40.488146	18.053571
706	2024-01-30 09:00:00	12	torchiarolo	10.27	1	42.32	1	0.0	1	2.45	1	38.4	1	208.89	1	1029.28	1	40.488146	18.053571
707	2024-01-30 10:00:00	12	torchiarolo	10.54	1	42.35	1	0.0	1	3.32	1	41.66	1	372.4	1	1029.62	1	40.488146	18.053571
708	2024-01-30 11:00:00	12	torchiarolo	10.88	1	42.5	1	0.0	1	3.22	1	37.1	1	488.62	1	1029.73	1	40.488146	18.053571
709	2024-01-30 12:00:00	12	torchiarolo	11.13	1	43.04	1	0.0	1	3.43	1	25.59	1	550.85	1	1029.66	1	40.488146	18.053571
710	2024-01-30 13:00:00	12	torchiarolo	11.92	1	42.2	1	0.0	1	3.44	1	25.78	1	552.15	1	1029.26	1	40.488146	18.053571
711	2024-01-30 14:00:00	12	torchiarolo	13.42	1	40.7	1	0.0	1	3.05	1	31.13	1	145.99	1	1028.83	1	40.488146	18.053571
712	2024-01-30 15:00:00	12	torchiarolo	13.69	1	42.41	1	0.0	1	3.72	1	3.28	1	378.82	1	1028.58	1	40.488146	18.053571
713	2024-01-30 16:00:00	12	torchiarolo	11.33	1	48.0	1	0.0	1	4.4	1	13.8	1	213.35	1	1028.54	1	40.488146	18.053571
714	2024-01-30 17:00:00	12	torchiarolo	9.9	1	51.14	1	0.0	1	3.26	1	19.96	1	25.17	1	1028.27	1	40.488146	18.053571
715	2024-01-30 18:00:00	12	torchiarolo	9.28	1	53.92	1	0.0	1	3.34	1	15.53	1	0.0	5	1028.53	1	40.488146	18.053571
716	2024-01-30 19:00:00	12	torchiarolo	8.98	1	53.31	1	0.0	1	2.95	1	16.24	1	0.0	1	1028.74	1	40.488146	18.053571
717	2024-01-30 20:00:00	12	torchiarolo	8.55	1	61.01	1	0.0	1	2.29	1	4.13	1	0.0	1	1028.91	1	40.488146	18.053571
718	2024-01-30 21:00:00	12	torchiarolo	8.09	1	64.67	1	0.0	1	1.53	1	335.12	1	0.0	1	1028.93	1	40.488146	18.053571
719	2024-01-30 22:00:00	12	torchiarolo	7.83	1	70.68	1	0.0	1	1.78	1	343.08	1	0.0	1	1028.8	1	40.488146	18.053571
720	2024-01-30 23:00:00	12	torchiarolo	8.72	1	69.34	1	0.0	1	2.65	1	0.01	1	0.0	5	1028.57	1	40.488146	18.053571
721	2024-01-31 00:00:00	12	torchiarolo	8.48	1	65.89	1	0.0	1	2.63	1	5.26	1	0.0	1	1028.37	1	40.488146	18.053571
722	2024-01-31 01:00:00	12	torchiarolo	9.03	1	51.02	1	0.0	1	2.45	1	14.79	1	0.0	1	1028.2	1	40.488146	18.053571
723	2024-01-31 02:00:00	12	torchiarolo	7.62	1	64.8	1	0.0	1	1.63	1	324.79	1	0.0	1	1028.2	1	40.488146	18.053571
724	2024-01-31 03:00:00	12	torchiarolo	6.47	1	78.73	1	0.0	1	1.56	1	281.74	1	0.0	1	1028.01	1	40.488146	18.053571
725	2024-01-31 04:00:00	12	torchiarolo	7.76	1	65.86	1	0.0	1	2.6	1	14.27	1	0.0	1	1027.54	1	40.488146	18.053571
726	2024-01-31 05:00:00	12	torchiarolo	9.11	1	46.79	1	0.0	1	2.42	1	22.01	1	0.0	1	1027.21	1	40.488146	18.053571
727	2024-01-31 06:00:00	12	torchiarolo	8.56	1	50.66	1	0.0	1	1.64	1	20.69	1	0.0	1	1027.11	1	40.488146	18.053571
728	2024-01-31 07:00:00	12	torchiarolo	7.63	1	70.42	1	0.0	1	1.8	1	330.3	1	0.0	5	1027.12	1	40.488146	18.053571
729	2024-01-31 08:00:00	12	torchiarolo	6.77	1	87.51	1	0.0	1	2.36	1	324.75	1	31.27	1	1027.38	1	40.488146	18.053571
730	2024-01-31 09:00:00	12	torchiarolo	10.11	1	81.81	1	0.0	1	2.81	1	327.78	1	196.17	1	1027.53	1	40.488146	18.053571
731	2024-01-31 10:00:00	12	torchiarolo	11.23	1	78.63	1	0.0	1	3.65	1	328.83	1	234.71	1	1027.7	1	40.488146	18.053571
732	2024-01-31 11:00:00	12	torchiarolo	12.54	1	72.62	1	0.0	1	3.85	1	336.51	1	413.19	1	1027.47	1	40.488146	18.053571
733	2024-01-31 12:00:00	12	torchiarolo	13.64	1	60.51	1	0.0	1	4.37	1	0.57	1	511.08	1	1027.01	1	40.488146	18.053571
734	2024-01-31 13:00:00	12	torchiarolo	14.29	1	57.97	1	0.0	1	4.57	1	5.68	1	474.0	1	1026.57	1	40.488146	18.053571
735	2024-01-31 14:00:00	12	torchiarolo	14.72	1	60.43	1	0.0	1	4.06	1	343.36	1	197.16	1	1026.18	1	40.488146	18.053571
736	2024-01-31 15:00:00	12	torchiarolo	14.51	1	57.22	1	0.0	1	4.09	1	359.25	1	226.39	1	1025.75	1	40.488146	18.053571
737	2024-01-31 16:00:00	12	torchiarolo	13.05	1	63.37	1	0.0	1	3.66	1	353.48	1	114.87	1	1025.64	1	40.488146	18.053571
738	2024-01-31 17:00:00	12	torchiarolo	12.38	1	73.07	1	0.0	1	3.24	1	332.05	1	45.65	1	1025.64	1	40.488146	18.053571
739	2024-01-31 18:00:00	12	torchiarolo	10.48	1	82.14	1	0.0	1	1.62	1	323.33	1	0.0	5	1025.64	1	40.488146	18.053571
740	2024-01-31 19:00:00	12	torchiarolo	9.1	1	87.67	1	0.0	1	1.12	1	312.97	1	0.0	1	1025.64	1	40.488146	18.053571
741	2024-01-31 20:00:00	12	torchiarolo	8.05	1	90.87	1	0.0	1	0.69	1	308.21	1	0.0	1	1025.61	1	40.488146	18.053571
742	2024-01-31 21:00:00	12	torchiarolo	7.57	1	92.5	1	0.0	1	0.7	1	290.06	1	0.0	1	1025.29	1	40.488146	18.053571
743	2024-01-31 22:00:00	12	torchiarolo	7.07	1	93.33	1	0.0	1	1.29	1	310.84	1	0.0	1	1025.15	1	40.488146	18.053571
744	2024-01-31 23:00:00	12	torchiarolo	6.82	1	93.92	1	0.0	1	1.04	1	332.21	1	0.0	1	1024.91	1	40.488146	18.053571
745	2024-02-01 00:00:00	12	torchiarolo	6.63	1	94.56	1	0.0	1	0.81	1	287.28	1	0.0	1	1024.69	1	40.488146	18.053571
746	2024-02-01 01:00:00	12	torchiarolo	6.24	1	94.75	1	0.0	1	0.56	1	274.36	1	0.0	1	1024.54	1	40.488146	18.053571
747	2024-02-01 02:00:00	12	torchiarolo	5.71	1	95.01	1	0.0	1	0.51	1	262.61	1	0.0	1	1024.33	1	40.488146	18.053571
748	2024-02-01 03:00:00	12	torchiarolo	5.62	1	95.6	1	0.0	1	1.1	1	284.73	1	0.0	1	1024.18	1	40.488146	18.053571
749	2024-02-01 04:00:00	12	torchiarolo	5.25	1	95.17	1	0.0	1	1.26	1	241.26	1	0.0	1	1023.72	1	40.488146	18.053571
750	2024-02-01 05:00:00	12	torchiarolo	4.89	1	95.2	1	0.0	1	0.84	1	261.95	1	0.0	1	1023.28	1	40.488146	18.053571
751	2024-02-01 06:00:00	12	torchiarolo	5.12	1	95.75	1	0.0	1	1.73	1	273.8	1	0.0	1	1023.02	1	40.488146	18.053571
752	2024-02-01 07:00:00	12	torchiarolo	5.12	1	96.16	1	0.0	1	1.71	1	277.43	1	0.0	5	1023.02	1	40.488146	18.053571
753	2024-02-01 08:00:00	12	torchiarolo	5.33	1	96.49	1	0.0	1	1.53	1	269.28	1	31.65	1	1023.08	1	40.488146	18.053571
754	2024-02-01 09:00:00	12	torchiarolo	8.22	1	93.0	1	0.0	1	1.77	1	277.36	1	198.84	1	1023.08	1	40.488146	18.053571
755	2024-02-01 10:00:00	12	torchiarolo	10.97	1	80.76	1	0.0	1	1.98	1	302.77	1	364.47	1	1023.24	1	40.488146	18.053571
756	2024-02-01 11:00:00	12	torchiarolo	12.78	1	70.15	1	0.0	1	2.1	1	319.54	1	446.96	1	1023.39	1	40.488146	18.053571
757	2024-02-01 12:00:00	12	torchiarolo	13.77	1	63.8	1	0.0	1	2.35	1	337.58	1	346.02	1	1022.91	1	40.488146	18.053571
758	2024-02-01 13:00:00	12	torchiarolo	15.38	1	56.29	1	0.0	1	1.62	1	336.82	1	528.53	1	1022.05	1	40.488146	18.053571
759	2024-02-01 14:00:00	12	torchiarolo	17.48	1	49.04	1	0.0	1	2.21	1	342.86	1	233.87	1	1021.37	1	40.488146	18.053571
760	2024-02-01 15:00:00	12	torchiarolo	16.07	1	56.65	1	0.0	1	2.6	1	16.84	1	299.68	1	1020.88	1	40.488146	18.053571
761	2024-02-01 16:00:00	12	torchiarolo	14.03	1	62.79	1	0.0	1	2.32	1	17.46	1	235.63	1	1020.42	1	40.488146	18.053571
762	2024-02-01 17:00:00	12	torchiarolo	11.92	1	69.98	1	0.0	1	1.45	1	18.37	1	44.67	1	1020.15	1	40.488146	18.053571
763	2024-02-01 18:00:00	12	torchiarolo	9.85	1	76.5	1	0.0	1	0.15	1	352.1	1	0.0	5	1020.15	1	40.488146	18.053571
764	2024-02-01 19:00:00	12	torchiarolo	8.59	1	82.19	1	0.0	1	0.69	1	260.62	1	0.0	1	1020.15	1	40.488146	18.053571
765	2024-02-01 20:00:00	12	torchiarolo	7.6	1	83.69	1	0.0	1	0.16	1	252.65	1	0.0	1	1020.15	1	40.488146	18.053571
766	2024-02-01 21:00:00	12	torchiarolo	6.94	1	81.6	1	0.0	1	1.3	1	266.78	1	0.0	1	1019.98	1	40.488146	18.053571
767	2024-02-01 22:00:00	12	torchiarolo	6.67	1	81.65	1	0.0	1	1.14	1	257.2	1	0.0	1	1019.81	1	40.488146	18.053571
768	2024-02-01 23:00:00	12	torchiarolo	6.23	1	84.24	1	0.0	1	0.04	1	260.84	1	0.0	1	1019.41	1	40.488146	18.053571
769	2024-02-02 00:00:00	12	torchiarolo	5.75	1	87.02	1	0.0	1	null	3	263.87	1	0.0	1	1019.42	1	40.488146	18.053571
770	2024-02-02 01:00:00	12	torchiarolo	5.28	1	89.1	1	0.0	1	1.46	1	269.98	1	0.0	1	1019.41	1	40.488146	18.053571
771	2024-02-02 02:00:00	12	torchiarolo	4.82	1	89.18	1	0.0	1	1.06	1	267.15	1	0.0	1	1019.13	1	40.488146	18.053571
772	2024-02-02 03:00:00	12	torchiarolo	4.53	1	89.03	1	0.0	1	0.72	1	262.34	1	0.0	1	1018.68	1	40.488146	18.053571
773	2024-02-02 04:00:00	12	torchiarolo	4.56	1	90.0	1	0.0	1	1.3	1	272.44	1	0.0	1	1018.32	1	40.488146	18.053571
774	2024-02-02 05:00:00	12	torchiarolo	5.55	1	90.31	1	0.0	1	1.42	1	284.79	1	0.0	1	1018.27	1	40.488146	18.053571
775	2024-02-02 06:00:00	12	torchiarolo	6.19	1	89.62	1	0.0	1	1.6	1	298.58	1	0.0	1	1018.31	1	40.488146	18.053571
776	2024-02-02 07:00:00	12	torchiarolo	6.69	1	90.57	1	0.0	1	1.63	1	308.63	1	0.0	5	1018.41	1	40.488146	18.053571
777	2024-02-02 08:00:00	12	torchiarolo	7.67	1	91.27	1	0.0	1	2.06	1	308.52	1	41.61	1	1018.93	1	40.488146	18.053571
778	2024-02-02 09:00:00	12	torchiarolo	9.33	1	87.84	1	0.0	1	1.8	1	314.31	1	109.3	1	1019.16	1	40.488146	18.053571
779	2024-02-02 10:00:00	12	torchiarolo	12.04	1	72.26	1	0.0	1	3.43	1	5.11	1	278.74	1	1019.44	1	40.488146	18.053571
780	2024-02-02 11:00:00	12	torchiarolo	13.77	1	66.82	1	0.0	1	3.33	1	16.91	1	280.15	1	1019.76	1	40.488146	18.053571
781	2024-02-02 12:00:00	12	torchiarolo	14.01	1	62.31	1	0.0	1	4.3	1	14.69	1	401.93	1	1019.78	1	40.488146	18.053571
782	2024-02-02 13:00:00	12	torchiarolo	14.86	1	57.22	1	0.0	1	4.51	1	14.82	1	520.7	1	1019.4	1	40.488146	18.053571
783	2024-02-02 14:00:00	12	torchiarolo	15.9	1	53.15	1	0.0	1	4.3	1	14.42	1	239.78	1	1018.82	1	40.488146	18.053571
784	2024-02-02 15:00:00	12	torchiarolo	16.34	1	49.06	1	0.0	1	4.11	1	13.29	1	392.15	1	1018.79	1	40.488146	18.053571
785	2024-02-02 16:00:00	12	torchiarolo	14.54	1	51.01	1	0.0	1	3.87	1	6.31	1	198.25	1	1019.05	1	40.488146	18.053571
786	2024-02-02 17:00:00	12	torchiarolo	12.75	1	56.25	1	0.0	1	3.57	1	350.19	1	40.69	1	1018.77	1	40.488146	18.053571
787	2024-02-02 18:00:00	12	torchiarolo	11.28	1	53.87	1	0.0	1	2.75	1	342.09	1	0.0	5	1018.91	1	40.488146	18.053571
788	2024-02-02 19:00:00	12	torchiarolo	10.86	1	57.61	1	0.0	1	2.62	1	350.89	1	0.0	1	1019.11	1	40.488146	18.053571
789	2024-02-02 20:00:00	12	torchiarolo	10.77	1	57.76	1	0.0	1	2.82	1	355.38	1	0.0	1	1019.24	1	40.488146	18.053571
790	2024-02-02 21:00:00	12	torchiarolo	11.35	1	52.85	1	0.0	1	3.6	1	7.41	1	0.0	1	1019.41	1	40.488146	18.053571
791	2024-02-02 22:00:00	12	torchiarolo	11.63	1	50.71	1	0.0	1	3.67	1	2.74	1	0.0	1	1019.41	1	40.488146	18.053571
792	2024-02-02 23:00:00	12	torchiarolo	11.02	1	52.12	1	0.0	1	2.56	1	348.91	1	0.0	1	1019.42	1	40.488146	18.053571
793	2024-02-03 00:00:00	12	torchiarolo	9.83	1	59.34	1	0.0	1	1.53	1	22.06	1	0.0	1	1019.43	1	40.488146	18.053571
794	2024-02-03 01:00:00	12	torchiarolo	9.67	1	58.74	1	0.0	1	1.77	1	22.18	1	0.0	1	1019.41	1	40.488146	18.053571
795	2024-02-03 02:00:00	12	torchiarolo	9.84	1	55.6	1	0.0	1	2.25	1	20.75	1	0.0	1	1019.46	1	40.488146	18.053571
796	2024-02-03 03:00:00	12	torchiarolo	9.63	1	56.11	1	0.0	1	2.19	1	14.34	1	0.0	1	1019.76	1	40.488146	18.053571
797	2024-02-03 04:00:00	12	torchiarolo	8.91	1	58.63	1	0.0	1	1.56	1	9.41	1	0.0	1	1019.59	1	40.488146	18.053571
798	2024-02-03 05:00:00	12	torchiarolo	7.49	1	65.38	1	0.0	1	1.44	1	7.11	1	0.0	1	1019.78	1	40.488146	18.053571
799	2024-02-03 06:00:00	12	torchiarolo	8.38	1	59.83	1	0.0	1	1.96	1	14.97	1	0.0	1	1019.85	1	40.488146	18.053571
800	2024-02-03 07:00:00	12	torchiarolo	7.61	1	62.6	1	0.0	1	1.6	1	10.58	1	0.0	5	1020.15	1	40.488146	18.053571
801	2024-02-03 08:00:00	12	torchiarolo	5.33	1	74.47	1	0.0	1	0.12	1	257.96	1	40.79	1	1020.76	1	40.488146	18.053571
802	2024-02-03 09:00:00	12	torchiarolo	9.42	1	64.37	1	0.0	1	0.89	1	266.32	1	213.74	1	1020.95	1	40.488146	18.053571
803	2024-02-03 10:00:00	12	torchiarolo	13.38	1	55.13	1	0.0	1	0.75	1	265.31	1	375.99	1	1021.25	1	40.488146	18.053571
804	2024-02-03 11:00:00	12	torchiarolo	13.99	1	49.98	1	0.0	1	2.56	1	2.68	1	494.96	1	1021.43	1	40.488146	18.053571
805	2024-02-03 12:00:00	12	torchiarolo	14.45	1	49.1	1	0.0	1	2.87	1	13.41	1	553.61	1	1021.59	1	40.488146	18.053571
806	2024-02-03 13:00:00	12	torchiarolo	15.72	1	47.46	1	0.0	1	3.23	1	13.96	1	562.11	1	1021.21	1	40.488146	18.053571
807	2024-02-03 14:00:00	12	torchiarolo	17.49	1	50.75	1	0.0	1	3.58	1	337.55	1	244.22	1	1020.69	1	40.488146	18.053571
808	2024-02-03 15:00:00	12	torchiarolo	17.57	1	56.16	1	0.0	1	3.95	1	338.9	1	330.19	1	1020.39	1	40.488146	18.053571
809	2024-02-03 16:00:00	12	torchiarolo	15.75	1	64.29	1	0.0	1	3.24	1	333.09	1	213.86	1	1020.27	1	40.488146	18.053571
810	2024-02-03 17:00:00	12	torchiarolo	13.61	1	72.33	1	0.0	1	1.88	1	332.58	1	37.02	1	1020.15	1	40.488146	18.053571
811	2024-02-03 18:00:00	12	torchiarolo	11.91	1	78.41	1	0.0	1	0.55	1	270.66	1	0.0	5	1020.35	1	40.488146	18.053571
812	2024-02-03 19:00:00	12	torchiarolo	10.4	1	82.73	1	0.0	1	0.39	1	290.55	1	0.0	1	1020.76	1	40.488146	18.053571
813	2024-02-03 20:00:00	12	torchiarolo	9.32	1	84.86	1	0.0	1	0.28	1	322.85	1	0.0	1	1021.21	1	40.488146	18.053571
814	2024-02-03 21:00:00	12	torchiarolo	8.57	1	85.94	1	0.0	1	0.09	1	232.1	1	0.0	1	1021.53	1	40.488146	18.053571
815	2024-02-03 22:00:00	12	torchiarolo	8.52	1	83.78	1	0.0	1	1.13	1	229.33	1	0.0	1	1021.45	1	40.488146	18.053571
816	2024-02-03 23:00:00	12	torchiarolo	8.02	1	85.06	1	0.0	1	0.85	1	231.76	1	0.0	1	1021.26	1	40.488146	18.053571
817	2024-02-04 00:00:00	12	torchiarolo	7.28	1	88.07	1	0.0	1	0.92	1	238.74	1	0.0	1	1021.24	1	40.488146	18.053571
818	2024-02-04 01:00:00	12	torchiarolo	6.8	1	89.81	1	0.0	1	0.6	1	213.33	1	0.0	1	1020.89	1	40.488146	18.053571
819	2024-02-04 02:00:00	12	torchiarolo	6.1	1	90.86	1	0.0	1	0.1	1	228.81	1	0.0	1	1020.88	1	40.488146	18.053571
820	2024-02-04 03:00:00	12	torchiarolo	5.79	1	92.45	1	0.0	1	0.77	1	241.78	1	0.0	1	1020.73	1	40.488146	18.053571
821	2024-02-04 04:00:00	12	torchiarolo	5.58	1	93.65	1	0.0	1	1.49	1	246.75	1	0.0	1	1020.53	1	40.488146	18.053571
822	2024-02-04 05:00:00	12	torchiarolo	5.84	1	94.97	1	0.0	1	1.33	1	244.02	1	0.0	1	1020.18	1	40.488146	18.053571
823	2024-02-04 06:00:00	12	torchiarolo	5.9	1	95.76	1	0.0	1	0.72	1	238.06	1	0.0	1	1020.01	1	40.488146	18.053571
824	2024-02-04 07:00:00	12	torchiarolo	5.92	1	96.31	1	0.0	1	0.64	1	234.87	1	0.0	5	1019.98	1	40.488146	18.053571
825	2024-02-04 08:00:00	12	torchiarolo	6.11	1	96.45	1	0.0	1	0.77	1	232.78	1	40.54	1	1020.34	1	40.488146	18.053571
826	2024-02-04 09:00:00	12	torchiarolo	9.93	1	91.7	1	0.0	1	0.09	1	259.68	1	198.31	1	1020.58	1	40.488146	18.053571
827	2024-02-04 10:00:00	12	torchiarolo	12.9	1	74.09	1	0.0	1	null	3	245.14	1	244.84	1	1020.67	1	40.488146	18.053571
828	2024-02-04 11:00:00	12	torchiarolo	14.09	1	60.83	1	0.0	1	null	3	310.78	1	336.29	1	1021.19	1	40.488146	18.053571
829	2024-02-04 12:00:00	12	torchiarolo	15.23	1	55.14	1	0.0	1	0.66	1	344.87	1	549.14	1	1021.46	1	40.488146	18.053571
830	2024-02-04 13:00:00	12	torchiarolo	17.45	1	46.31	1	0.0	1	0.96	1	53.49	1	555.76	1	1021.33	1	40.488146	18.053571
831	2024-02-04 14:00:00	12	torchiarolo	20.22	1	38.64	1	0.0	1	0.68	1	354.26	1	211.06	1	1020.7	1	40.488146	18.053571
832	2024-02-04 15:00:00	12	torchiarolo	20.92	1	38.26	1	0.0	1	1.02	1	20.93	1	378.09	1	1020.33	1	40.488146	18.053571
833	2024-02-04 16:00:00	12	torchiarolo	18.28	1	46.79	1	0.0	1	1.2	1	56.85	1	219.14	1	1020.24	1	40.488146	18.053571
834	2024-02-04 17:00:00	12	torchiarolo	14.79	1	55.01	1	0.0	1	0.36	1	62.11	1	40.15	1	1020.13	1	40.488146	18.053571
835	2024-02-04 18:00:00	12	torchiarolo	12.61	1	63.42	1	0.0	1	0.09	1	63.49	1	0.0	5	1020.52	1	40.488146	18.053571
836	2024-02-04 19:00:00	12	torchiarolo	10.72	1	72.96	1	0.0	1	null	3	21.39	1	0.0	1	1020.98	1	40.488146	18.053571
837	2024-02-04 20:00:00	12	torchiarolo	10.09	1	75.47	1	0.0	1	null	3	225.5	1	0.0	1	1021.05	1	40.488146	18.053571
838	2024-02-04 21:00:00	12	torchiarolo	9.86	1	73.7	1	0.0	1	0.16	1	219.75	1	0.0	1	1020.96	1	40.488146	18.053571
839	2024-02-04 22:00:00	12	torchiarolo	9.24	1	73.41	1	0.0	1	0.4	1	232.96	1	0.0	1	1021.23	1	40.488146	18.053571
840	2024-02-04 23:00:00	12	torchiarolo	7.54	1	79.98	1	0.0	1	0.11	1	224.87	1	0.0	1	1021.24	1	40.488146	18.053571
841	2024-02-05 00:00:00	12	torchiarolo	7.91	1	79.23	1	0.0	1	0.49	1	235.37	1	0.0	1	1021.2	1	40.488146	18.053571
842	2024-02-05 01:00:00	12	torchiarolo	7.36	1	80.41	1	0.0	1	1.3	1	272.93	1	0.0	1	1021.32	1	40.488146	18.053571
843	2024-02-05 02:00:00	12	torchiarolo	6.82	1	82.98	1	0.0	1	1.32	1	259.02	1	0.0	1	1021.24	1	40.488146	18.053571
844	2024-02-05 03:00:00	12	torchiarolo	7.03	1	83.2	1	0.0	1	1.15	1	240.02	1	0.0	1	1021.15	1	40.488146	18.053571
845	2024-02-05 04:00:00	12	torchiarolo	6.73	1	87.14	1	0.0	1	1.35	1	241.59	1	0.0	1	1020.56	1	40.488146	18.053571
846	2024-02-05 05:00:00	12	torchiarolo	6.41	1	88.69	1	0.0	1	1.25	1	243.65	1	0.0	1	1020.87	1	40.488146	18.053571
847	2024-02-05 06:00:00	12	torchiarolo	6.71	1	88.29	1	0.0	1	1.21	1	242.92	1	0.0	1	1020.9	1	40.488146	18.053571
848	2024-02-05 07:00:00	12	torchiarolo	6.92	1	89.71	1	0.0	1	1.07	1	242.99	1	0.0	5	1021.21	1	40.488146	18.053571
849	2024-02-05 08:00:00	12	torchiarolo	7.45	1	90.87	1	0.0	1	0.59	1	249.88	1	45.57	1	1021.24	1	40.488146	18.053571
850	2024-02-05 09:00:00	12	torchiarolo	10.93	1	79.14	1	0.0	1	1.18	1	232.04	1	200.01	1	1021.24	1	40.488146	18.053571
851	2024-02-05 10:00:00	12	torchiarolo	15.92	1	62.29	1	0.0	1	0.65	1	251.82	1	388.36	1	1021.64	1	40.488146	18.053571
852	2024-02-05 11:00:00	12	torchiarolo	17.35	1	55.27	1	0.0	1	0.72	1	122.55	1	453.93	1	1021.98	1	40.488146	18.053571
853	2024-02-05 12:00:00	12	torchiarolo	17.1	1	57.48	1	0.0	1	1.84	1	75.19	1	440.23	1	1021.96	1	40.488146	18.053571
854	2024-02-05 13:00:00	12	torchiarolo	17.42	1	59.01	1	0.0	1	1.64	1	74.91	1	420.25	1	1021.15	1	40.488146	18.053571
855	2024-02-05 14:00:00	12	torchiarolo	21.27	1	46.84	1	0.0	1	1.65	1	236.7	1	223.59	1	1019.61	1	40.488146	18.053571
856	2024-02-05 15:00:00	12	torchiarolo	22.3	1	43.45	1	0.0	1	1.22	1	254.86	1	335.82	1	1018.8	1	40.488146	18.053571
857	2024-02-05 16:00:00	12	torchiarolo	17.59	1	64.07	1	0.0	1	1.48	1	65.9	1	174.57	1	1018.73	1	40.488146	18.053571
858	2024-02-05 17:00:00	12	torchiarolo	15.13	1	68.1	1	0.0	1	0.66	1	69.09	1	40.28	1	1018.8	1	40.488146	18.053571
859	2024-02-05 18:00:00	12	torchiarolo	12.74	1	78.02	1	0.0	1	0.02	1	224.91	1	0.0	5	1018.87	1	40.488146	18.053571
860	2024-02-05 19:00:00	12	torchiarolo	11.43	1	76.99	1	0.0	1	0.58	1	237.76	1	0.0	1	1019.39	1	40.488146	18.053571
861	2024-02-05 20:00:00	12	torchiarolo	11.08	1	79.0	1	0.0	1	1.34	1	224.53	1	0.0	1	1019.7	1	40.488146	18.053571
862	2024-02-05 21:00:00	12	torchiarolo	10.43	1	86.5	1	0.0	1	1.42	1	224.81	1	0.0	1	1019.79	1	40.488146	18.053571
863	2024-02-05 22:00:00	12	torchiarolo	9.65	1	90.47	1	0.0	1	0.39	1	213.91	1	0.0	1	1019.78	1	40.488146	18.053571
864	2024-02-05 23:00:00	12	torchiarolo	9.24	1	93.1	1	0.0	1	0.24	1	219.66	1	0.0	1	1019.5	1	40.488146	18.053571
865	2024-02-06 00:00:00	12	torchiarolo	7.64	1	93.49	1	0.0	1	0.09	1	241.31	1	0.0	1	1019.92	1	40.488146	18.053571
866	2024-02-06 01:00:00	12	torchiarolo	6.83	1	95.04	1	0.0	1	0.68	1	250.77	1	0.0	1	1020.05	1	40.488146	18.053571
867	2024-02-06 02:00:00	12	torchiarolo	6.8	1	95.89	1	0.0	1	0.92	1	248.82	1	0.0	1	1019.78	1	40.488146	18.053571
868	2024-02-06 03:00:00	12	torchiarolo	6.03	1	96.04	1	0.0	1	0.19	1	146.1	1	0.0	1	1019.58	1	40.488146	18.053571
869	2024-02-06 04:00:00	12	torchiarolo	6.06	1	97.16	1	0.0	1	null	3	209.02	1	0.0	1	1019.4	1	40.488146	18.053571
870	2024-02-06 05:00:00	12	torchiarolo	6.36	1	97.59	1	0.0	1	1.04	1	254.31	1	0.0	1	1019.21	1	40.488146	18.053571
871	2024-02-06 06:00:00	12	torchiarolo	6.55	1	98.43	1	0.0	1	0.29	1	231.93	1	0.0	1	1019.05	1	40.488146	18.053571
872	2024-02-06 07:00:00	12	torchiarolo	6.46	1	98.76	1	0.0	1	0.23	1	187.02	1	0.0	5	1018.85	1	40.488146	18.053571
873	2024-02-06 08:00:00	12	torchiarolo	7.15	1	98.94	1	0.0	1	0.06	1	205.99	1	25.53	1	1019.05	1	40.488146	18.053571
874	2024-02-06 09:00:00	12	torchiarolo	7.8	1	98.27	1	0.0	1	0.06	1	240.87	1	88.99	1	1019.14	1	40.488146	18.053571
875	2024-02-06 10:00:00	12	torchiarolo	9.77	1	98.74	1	0.0	1	0.47	1	210.04	1	175.97	1	1019.41	1	40.488146	18.053571
876	2024-02-06 11:00:00	12	torchiarolo	11.82	1	97.46	1	0.0	1	0.22	1	135.35	1	292.58	1	1019.41	1	40.488146	18.053571
877	2024-02-06 12:00:00	12	torchiarolo	13.46	1	92.66	1	0.0	1	0.01	1	132.67	1	464.85	1	1018.98	1	40.488146	18.053571
878	2024-02-06 13:00:00	12	torchiarolo	16.97	1	67.01	1	0.0	1	0.87	1	217.63	1	551.39	1	1018.15	1	40.488146	18.053571
879	2024-02-06 14:00:00	12	torchiarolo	20.48	1	51.83	1	0.0	1	1.32	1	197.65	1	280.22	1	1017.66	1	40.488146	18.053571
880	2024-02-06 15:00:00	12	torchiarolo	17.44	1	69.5	1	0.0	1	1.76	1	58.12	1	248.94	1	1017.31	1	40.488146	18.053571
881	2024-02-06 16:00:00	12	torchiarolo	16.31	1	65.73	1	0.0	1	2.05	1	25.36	1	219.06	1	1017.26	1	40.488146	18.053571
882	2024-02-06 17:00:00	12	torchiarolo	13.79	1	77.31	1	0.0	1	1.26	1	77.16	1	51.32	1	1016.82	1	40.488146	18.053571
883	2024-02-06 18:00:00	12	torchiarolo	12.06	1	87.13	1	0.0	1	0.09	1	106.85	1	0.0	5	1016.88	1	40.488146	18.053571
884	2024-02-06 19:00:00	12	torchiarolo	10.97	1	88.82	1	0.0	1	0.59	1	244.22	1	0.0	1	1017.2	1	40.488146	18.053571
885	2024-02-06 20:00:00	12	torchiarolo	10.25	1	87.47	1	0.0	1	1.33	1	245.32	1	0.0	1	1017.22	1	40.488146	18.053571
886	2024-02-06 21:00:00	12	torchiarolo	9.61	1	86.84	1	0.0	1	0.79	1	243.7	1	0.0	1	1017.16	1	40.488146	18.053571
887	2024-02-06 22:00:00	12	torchiarolo	9.32	1	89.07	1	0.0	1	1.42	1	237.27	1	0.0	1	1016.95	1	40.488146	18.053571
888	2024-02-06 23:00:00	12	torchiarolo	9.05	1	90.63	1	0.0	1	1.24	1	230.46	1	0.0	1	1016.69	1	40.488146	18.053571
889	2024-02-07 00:00:00	12	torchiarolo	8.79	1	92.02	1	0.0	1	1.11	1	225.58	1	0.0	1	1016.46	1	40.488146	18.053571
890	2024-02-07 01:00:00	12	torchiarolo	8.31	1	93.32	1	0.0	1	0.13	1	213.99	1	0.0	1	1016.12	1	40.488146	18.053571
891	2024-02-07 02:00:00	12	torchiarolo	8.24	1	93.49	1	0.0	1	0.82	1	215.03	1	0.0	1	1015.7	1	40.488146	18.053571
892	2024-02-07 03:00:00	12	torchiarolo	8.06	1	93.46	1	0.0	1	0.41	1	192.68	1	0.0	1	1015.22	1	40.488146	18.053571
893	2024-02-07 04:00:00	12	torchiarolo	8.26	1	95.39	1	0.0	1	0.82	1	200.91	1	0.0	1	1014.61	1	40.488146	18.053571
894	2024-02-07 05:00:00	12	torchiarolo	7.78	1	96.02	1	0.0	1	0.4	1	205.4	1	0.0	1	1014.26	1	40.488146	18.053571
895	2024-02-07 06:00:00	12	torchiarolo	7.61	1	97.06	1	0.0	1	1.54	1	194.99	1	0.0	1	1013.93	1	40.488146	18.053571
896	2024-02-07 07:00:00	12	torchiarolo	7.78	1	97.8	1	0.2	1	1.03	1	188.64	1	0.0	5	1013.57	1	40.488146	18.053571
897	2024-02-07 08:00:00	12	torchiarolo	8.6	1	98.34	1	0.0	1	0.64	1	185.72	1	27.43	1	1013.75	1	40.488146	18.053571
898	2024-02-07 09:00:00	12	torchiarolo	9.84	1	98.19	1	0.0	1	1.02	1	186.24	1	120.52	1	1013.55	1	40.488146	18.053571
899	2024-02-07 10:00:00	12	torchiarolo	13.08	1	92.92	1	0.0	1	1.72	1	188.53	1	309.1	1	1013.22	1	40.488146	18.053571
900	2024-02-07 11:00:00	12	torchiarolo	14.89	1	81.74	1	0.0	1	2.47	1	186.77	1	459.39	1	1012.91	1	40.488146	18.053571
901	2024-02-07 12:00:00	12	torchiarolo	16.58	1	72.04	1	0.0	1	2.25	1	189.29	1	513.21	1	1012.19	1	40.488146	18.053571
902	2024-02-07 13:00:00	12	torchiarolo	18.95	1	61.13	1	0.0	1	2.72	1	190.23	1	519.94	1	1011.18	1	40.488146	18.053571
903	2024-02-07 14:00:00	12	torchiarolo	20.8	1	51.49	1	0.0	1	3.39	1	200.42	1	316.45	1	1010.46	1	40.488146	18.053571
904	2024-02-07 15:00:00	12	torchiarolo	20.67	1	53.45	1	0.0	1	2.9	1	196.36	1	352.76	1	1009.74	1	40.488146	18.053571
905	2024-02-07 16:00:00	12	torchiarolo	19.31	1	54.23	1	0.0	1	2.55	1	197.07	1	213.95	1	1009.35	1	40.488146	18.053571
906	2024-02-07 17:00:00	12	torchiarolo	16.61	1	60.53	1	0.0	1	2.04	1	182.26	1	44.33	1	1008.89	1	40.488146	18.053571
907	2024-02-07 18:00:00	12	torchiarolo	14.64	1	70.8	1	0.0	1	1.47	1	176.32	1	0.0	5	1008.97	1	40.488146	18.053571
908	2024-02-07 19:00:00	12	torchiarolo	13.31	1	82.33	1	0.0	1	1.74	1	176.62	1	0.0	1	1009.26	1	40.488146	18.053571
909	2024-02-07 20:00:00	12	torchiarolo	12.69	1	88.35	1	0.0	1	1.52	1	182.33	1	0.0	1	1009.02	1	40.488146	18.053571
910	2024-02-07 21:00:00	12	torchiarolo	12.29	1	91.4	1	0.0	1	0.53	1	173.55	1	0.0	1	1008.77	1	40.488146	18.053571
911	2024-02-07 22:00:00	12	torchiarolo	12.01	1	93.17	1	0.0	1	1.31	1	188.82	1	0.0	1	1008.44	1	40.488146	18.053571
912	2024-02-07 23:00:00	12	torchiarolo	11.8	1	94.38	1	0.0	1	1.09	1	181.46	1	0.0	1	1008.33	1	40.488146	18.053571
913	2024-02-08 00:00:00	12	torchiarolo	11.85	1	95.55	1	0.0	1	1.65	1	176.19	1	0.0	1	1008.06	1	40.488146	18.053571
914	2024-02-08 01:00:00	12	torchiarolo	11.7	1	96.02	1	0.0	1	2.23	1	178.77	1	0.0	1	1007.84	1	40.488146	18.053571
915	2024-02-08 02:00:00	12	torchiarolo	11.39	1	96.67	1	0.0	1	1.8	1	172.55	1	0.0	1	1007.61	1	40.488146	18.053571
916	2024-02-08 03:00:00	12	torchiarolo	10.93	1	97.09	1	0.0	1	0.71	1	187.42	1	0.0	1	1007.69	1	40.488146	18.053571
917	2024-02-08 04:00:00	12	torchiarolo	9.46	1	97.11	1	0.0	1	null	3	209.51	1	0.0	1	1007.14	1	40.488146	18.053571
918	2024-02-08 05:00:00	12	torchiarolo	8.04	1	97.29	1	0.0	1	null	3	225.56	1	0.0	1	1006.96	1	40.488146	18.053571
919	2024-02-08 06:00:00	12	torchiarolo	7.36	1	97.86	1	0.0	1	0.29	1	285.87	1	0.0	1	1006.97	1	40.488146	18.053571
920	2024-02-08 07:00:00	12	torchiarolo	7.32	1	98.87	1	0.0	1	0.3	1	267.23	1	0.0	5	1007.3	1	40.488146	18.053571
921	2024-02-08 08:00:00	12	torchiarolo	8.15	1	99.24	1	0.2	1	0.36	1	194.46	1	41.5	1	1007.75	1	40.488146	18.053571
922	2024-02-08 09:00:00	12	torchiarolo	11.32	1	96.7	1	0.0	1	0.92	1	222.46	1	212.82	1	1008.17	1	40.488146	18.053571
923	2024-02-08 10:00:00	12	torchiarolo	14.69	1	81.45	1	0.0	1	0.51	1	219.09	1	382.81	1	1008.38	1	40.488146	18.053571
924	2024-02-08 11:00:00	12	torchiarolo	15.48	1	71.94	1	0.0	1	1.42	1	220.61	1	499.65	1	1008.7	1	40.488146	18.053571
925	2024-02-08 12:00:00	12	torchiarolo	17.49	1	50.5	1	0.0	1	1.59	1	250.66	1	559.4	1	1008.7	1	40.488146	18.053571
926	2024-02-08 13:00:00	12	torchiarolo	19.47	1	48.19	1	0.0	1	1.69	1	228.91	1	543.07	1	1008.05	1	40.488146	18.053571
927	2024-02-08 14:00:00	12	torchiarolo	21.75	1	42.24	1	0.0	1	2.1	1	232.31	1	320.22	1	1007.49	1	40.488146	18.053571
928	2024-02-08 15:00:00	12	torchiarolo	22.37	1	39.8	1	0.0	1	2.18	1	214.92	1	418.97	1	1007.28	1	40.488146	18.053571
929	2024-02-08 16:00:00	12	torchiarolo	19.76	1	46.91	1	0.0	1	2.56	1	223.85	1	236.21	1	1007.33	1	40.488146	18.053571
930	2024-02-08 17:00:00	12	torchiarolo	16.82	1	58.81	1	0.0	1	2.36	1	225.63	1	56.52	1	1007.31	1	40.488146	18.053571
931	2024-02-08 18:00:00	12	torchiarolo	15.02	1	68.08	1	0.0	1	1.43	1	223.34	1	0.0	5	1007.21	1	40.488146	18.053571
932	2024-02-08 19:00:00	12	torchiarolo	13.59	1	78.39	1	0.0	1	1.01	1	210.04	1	0.0	1	1007.59	1	40.488146	18.053571
933	2024-02-08 20:00:00	12	torchiarolo	12.34	1	85.69	1	0.0	1	0.54	1	195.01	1	0.0	1	1007.77	1	40.488146	18.053571
934	2024-02-08 21:00:00	12	torchiarolo	10.65	1	90.25	1	0.0	1	0.44	1	114.54	1	0.0	1	1008.01	1	40.488146	18.053571
935	2024-02-08 22:00:00	12	torchiarolo	10.29	1	92.92	1	0.0	1	0.63	1	185.85	1	0.0	1	1007.78	1	40.488146	18.053571
936	2024-02-08 23:00:00	12	torchiarolo	10.9	1	92.37	1	0.0	1	1.3	1	214.29	1	0.0	1	1007.72	1	40.488146	18.053571
937	2024-02-09 00:00:00	12	torchiarolo	10.94	1	91.37	1	0.0	1	1.59	1	232.91	1	0.0	1	1008.06	1	40.488146	18.053571
938	2024-02-09 01:00:00	12	torchiarolo	10.51	1	90.67	1	0.0	1	1.34	1	222.1	1	0.0	1	1007.97	1	40.488146	18.053571
939	2024-02-09 02:00:00	12	torchiarolo	9.77	1	89.61	1	0.0	1	1.58	1	223.78	1	0.0	1	1007.85	1	40.488146	18.053571
940	2024-02-09 03:00:00	12	torchiarolo	10.19	1	85.01	1	0.0	1	1.65	1	221.16	1	0.0	1	1007.59	1	40.488146	18.053571
941	2024-02-09 04:00:00	12	torchiarolo	9.67	1	90.8	1	0.0	1	1.02	1	192.88	1	0.0	1	1007.3	1	40.488146	18.053571
942	2024-02-09 05:00:00	12	torchiarolo	9.28	1	94.39	1	0.0	1	0.79	1	195.93	1	0.0	1	1007.18	1	40.488146	18.053571
943	2024-02-09 06:00:00	12	torchiarolo	8.91	1	96.0	1	0.0	1	1.15	1	195.0	1	0.0	1	1007.13	1	40.488146	18.053571
944	2024-02-09 07:00:00	12	torchiarolo	8.58	1	96.64	1	0.0	1	0.99	1	224.01	1	0.0	5	1006.97	1	40.488146	18.053571
945	2024-02-09 08:00:00	12	torchiarolo	8.99	1	96.12	1	0.0	1	1.01	1	197.11	1	50.56	1	1007.57	1	40.488146	18.053571
946	2024-02-09 09:00:00	12	torchiarolo	13.56	1	82.03	1	0.0	1	0.92	1	185.1	1	225.95	1	1007.8	1	40.488146	18.053571
947	2024-02-09 10:00:00	12	torchiarolo	16.78	1	68.45	1	0.0	1	2.99	1	165.3	1	414.36	1	1007.44	1	40.488146	18.053571
948	2024-02-09 11:00:00	12	torchiarolo	17.18	1	62.04	1	0.0	1	3.48	1	156.85	1	470.45	1	1007.15	1	40.488146	18.053571
949	2024-02-09 12:00:00	12	torchiarolo	18.57	1	55.54	1	0.0	1	3.21	1	168.57	1	340.64	1	1006.81	1	40.488146	18.053571
950	2024-02-09 13:00:00	12	torchiarolo	18.74	1	54.62	1	0.0	1	4.34	1	187.83	1	426.9	1	1006.26	1	40.488146	18.053571
951	2024-02-09 14:00:00	12	torchiarolo	18.66	1	56.02	1	0.0	1	4.1	1	193.39	1	347.46	1	1006.11	1	40.488146	18.053571
952	2024-02-09 15:00:00	12	torchiarolo	18.94	1	54.82	1	0.0	1	3.44	1	195.08	1	279.41	1	1005.46	1	40.488146	18.053571
953	2024-02-09 16:00:00	12	torchiarolo	17.42	1	59.55	1	0.0	1	3.32	1	179.07	1	138.68	1	1004.92	1	40.488146	18.053571
954	2024-02-09 17:00:00	12	torchiarolo	16.0	1	65.37	1	0.0	1	3.21	1	165.95	1	46.62	1	1004.59	1	40.488146	18.053571
955	2024-02-09 18:00:00	12	torchiarolo	14.75	1	73.65	1	0.0	1	2.65	1	168.03	1	0.0	5	1004.32	1	40.488146	18.053571
956	2024-02-09 19:00:00	12	torchiarolo	13.71	1	82.83	1	0.0	1	3.24	1	157.96	1	0.0	1	1003.96	1	40.488146	18.053571
957	2024-02-09 20:00:00	12	torchiarolo	13.26	1	85.94	1	0.0	1	3.23	1	161.42	1	0.0	1	1004.02	1	40.488146	18.053571
958	2024-02-09 21:00:00	12	torchiarolo	13.32	1	86.93	1	0.0	1	3.86	1	153.92	1	0.0	1	1003.78	1	40.488146	18.053571
959	2024-02-09 22:00:00	12	torchiarolo	13.36	1	87.34	1	0.0	1	3.52	1	164.4	1	0.0	1	1003.7	1	40.488146	18.053571
960	2024-02-09 23:00:00	12	torchiarolo	13.49	1	86.93	1	0.0	1	2.68	1	159.56	1	0.0	1	1003.58	1	40.488146	18.053571
961	2024-02-10 00:00:00	12	torchiarolo	13.93	1	86.01	1	0.0	1	2.59	1	146.71	1	0.0	1	1003.45	1	40.488146	18.053571
962	2024-02-10 01:00:00	12	torchiarolo	13.88	1	86.66	1	0.0	1	3.16	1	146.87	1	0.0	1	1002.67	1	40.488146	18.053571
963	2024-02-10 02:00:00	12	torchiarolo	14.04	1	86.46	1	0.0	1	2.47	1	146.93	1	0.0	1	1002.28	1	40.488146	18.053571
964	2024-02-10 03:00:00	12	torchiarolo	14.33	1	84.81	1	0.0	1	2.38	1	152.51	1	0.0	1	1002.13	1	40.488146	18.053571
965	2024-02-10 04:00:00	12	torchiarolo	14.49	1	83.74	1	0.0	1	2.56	1	149.37	1	0.0	1	1001.55	1	40.488146	18.053571
966	2024-02-10 05:00:00	12	torchiarolo	14.56	1	83.3	1	0.0	1	2.79	1	154.45	1	0.0	1	1001.47	1	40.488146	18.053571
967	2024-02-10 06:00:00	12	torchiarolo	14.53	1	83.19	1	0.0	1	3.29	1	170.84	1	0.0	1	1001.24	1	40.488146	18.053571
968	2024-02-10 07:00:00	12	torchiarolo	14.36	1	83.52	1	0.0	1	2.97	1	159.2	1	0.0	1	1000.92	1	40.488146	18.053571
969	2024-02-10 08:00:00	12	torchiarolo	14.48	1	83.11	1	0.0	1	2.77	1	151.77	1	20.28	1	1001.2	1	40.488146	18.053571
970	2024-02-10 09:00:00	12	torchiarolo	15.2	1	80.12	1	0.0	1	3.15	1	155.72	1	64.4	1	1001.47	1	40.488146	18.053571
971	2024-02-10 10:00:00	12	torchiarolo	16.01	1	76.46	1	0.0	1	4.04	1	163.2	1	148.7	1	1001.27	1	40.488146	18.053571
972	2024-02-10 11:00:00	12	torchiarolo	17.41	1	68.36	1	0.0	1	4.55	1	174.04	1	189.55	1	1001.42	1	40.488146	18.053571
973	2024-02-10 12:00:00	12	torchiarolo	17.47	1	68.39	1	0.0	1	4.9	1	166.97	1	184.42	1	1000.98	1	40.488146	18.053571
974	2024-02-10 13:00:00	12	torchiarolo	17.66	1	69.21	1	0.0	1	4.82	1	172.43	1	147.67	1	1000.33	1	40.488146	18.053571
975	2024-02-10 14:00:00	12	torchiarolo	17.25	1	71.53	1	0.0	1	4.71	1	170.5	1	79.78	1	999.72	1	40.488146	18.053571
976	2024-02-10 15:00:00	12	torchiarolo	17.06	1	73.26	1	0.0	1	4.48	1	166.48	1	64.17	1	998.69	1	40.488146	18.053571
977	2024-02-10 16:00:00	12	torchiarolo	16.74	1	74.19	1	0.0	1	4.5	1	165.89	1	45.32	1	998.11	1	40.488146	18.053571
978	2024-02-10 17:00:00	12	torchiarolo	16.55	1	75.99	1	0.0	1	4.21	1	171.25	1	18.73	1	997.7	1	40.488146	18.053571
979	2024-02-10 18:00:00	12	torchiarolo	16.22	1	77.82	1	0.0	1	4.25	1	164.48	1	0.0	5	996.96	1	40.488146	18.053571
980	2024-02-10 19:00:00	12	torchiarolo	15.97	1	79.25	1	0.0	1	4.74	1	159.51	1	0.0	1	996.09	1	40.488146	18.053571
981	2024-02-10 20:00:00	12	torchiarolo	15.99	1	77.6	1	0.0	1	5.05	1	162.45	1	0.0	1	995.95	1	40.488146	18.053571
982	2024-02-10 21:00:00	12	torchiarolo	16.53	1	69.96	1	0.0	1	4.92	1	174.48	1	0.0	1	996.52	1	40.488146	18.053571
983	2024-02-10 22:00:00	12	torchiarolo	16.12	1	77.58	1	0.8	1	4.7	1	182.52	1	0.0	1	997.21	1	40.488146	18.053571
984	2024-02-10 23:00:00	12	torchiarolo	15.21	1	84.95	1	0.2	1	4.74	1	176.05	1	0.0	1	996.97	1	40.488146	18.053571
985	2024-02-11 00:00:00	12	torchiarolo	15.4	1	83.39	1	0.0	1	4.38	1	168.07	1	0.0	1	996.31	1	40.488146	18.053571
986	2024-02-11 01:00:00	12	torchiarolo	15.5	1	83.38	1	0.0	1	4.75	1	166.95	1	0.0	1	995.75	1	40.488146	18.053571
987	2024-02-11 02:00:00	12	torchiarolo	15.63	1	82.28	1	0.0	1	5.0	1	185.08	1	0.0	1	995.61	1	40.488146	18.053571
988	2024-02-11 03:00:00	12	torchiarolo	15.54	1	81.86	1	0.0	1	4.55	1	182.81	1	0.0	1	995.41	1	40.488146	18.053571
989	2024-02-11 04:00:00	12	torchiarolo	15.16	1	84.13	1	0.0	1	4.24	1	177.91	1	0.0	1	994.4	1	40.488146	18.053571
990	2024-02-11 05:00:00	12	torchiarolo	15.2	1	82.95	1	0.0	1	4.9	1	177.78	1	0.0	1	993.75	1	40.488146	18.053571
991	2024-02-11 06:00:00	12	torchiarolo	15.32	1	81.75	1	0.0	1	4.59	1	178.34	1	0.0	1	993.15	1	40.488146	18.053571
992	2024-02-11 07:00:00	12	torchiarolo	15.02	1	84.27	1	0.0	1	4.08	1	185.9	1	0.0	5	993.01	1	40.488146	18.053571
993	2024-02-11 08:00:00	12	torchiarolo	15.11	1	85.51	1	0.0	1	3.7	1	187.98	1	22.93	1	993.59	1	40.488146	18.053571
994	2024-02-11 09:00:00	12	torchiarolo	15.31	1	86.19	1	0.0	1	3.49	1	188.05	1	105.02	1	994.16	1	40.488146	18.053571
995	2024-02-11 10:00:00	12	torchiarolo	16.86	1	79.75	1	0.0	1	3.28	1	187.4	1	277.79	1	994.63	1	40.488146	18.053571
996	2024-02-11 11:00:00	12	torchiarolo	17.77	1	69.5	1	0.0	1	3.62	1	193.42	1	452.69	1	995.19	1	40.488146	18.053571
997	2024-02-11 12:00:00	12	torchiarolo	18.19	1	62.8	1	0.0	1	3.87	1	199.42	1	552.02	1	995.17	1	40.488146	18.053571
998	2024-02-11 13:00:00	12	torchiarolo	19.34	1	55.32	1	0.0	1	4.06	1	208.8	1	574.58	1	994.85	1	40.488146	18.053571
999	2024-02-11 14:00:00	12	torchiarolo	20.38	1	51.32	1	0.0	1	4.17	1	213.51	1	401.88	1	994.54	1	40.488146	18.053571
1000	2024-02-11 15:00:00	12	torchiarolo	19.6	1	57.22	1	0.0	1	4.4	1	206.26	1	331.03	1	994.77	1	40.488146	18.053571
1001	2024-02-11 16:00:00	12	torchiarolo	16.62	1	65.12	1	0.0	1	3.45	1	227.76	1	141.93	1	994.6	1	40.488146	18.053571
1002	2024-02-11 17:00:00	12	torchiarolo	15.37	1	58.51	1	0.0	1	1.43	1	223.34	1	51.09	1	994.51	1	40.488146	18.053571
1003	2024-02-11 18:00:00	12	torchiarolo	14.34	1	62.87	1	0.0	1	1.64	1	192.61	1	0.0	5	994.64	1	40.488146	18.053571
1004	2024-02-11 19:00:00	12	torchiarolo	13.76	1	69.33	1	0.0	1	2.85	1	219.16	1	0.0	1	995.37	1	40.488146	18.053571
1005	2024-02-11 20:00:00	12	torchiarolo	13.08	1	73.65	1	0.0	1	1.84	1	198.88	1	0.0	1	995.97	1	40.488146	18.053571
1006	2024-02-11 21:00:00	12	torchiarolo	13.11	1	70.71	1	0.0	1	3.17	1	214.71	1	0.0	1	996.17	1	40.488146	18.053571
1007	2024-02-11 22:00:00	12	torchiarolo	12.15	1	75.61	1	0.0	1	2.55	1	220.33	1	0.0	1	996.33	1	40.488146	18.053571
1008	2024-02-11 23:00:00	12	torchiarolo	11.27	1	79.86	1	0.0	1	0.91	1	229.81	1	0.0	1	996.66	1	40.488146	18.053571
1009	2024-02-12 00:00:00	12	torchiarolo	10.26	1	84.42	1	0.0	1	0.5	1	203.3	1	0.0	1	996.7	1	40.488146	18.053571
1010	2024-02-12 01:00:00	12	torchiarolo	9.53	1	85.0	1	0.0	1	0.44	1	197.66	1	0.0	1	996.81	1	40.488146	18.053571
1011	2024-02-12 02:00:00	12	torchiarolo	9.73	1	84.82	1	0.0	1	1.11	1	215.1	1	0.0	1	997.03	1	40.488146	18.053571
1012	2024-02-12 03:00:00	12	torchiarolo	9.89	1	82.87	1	0.0	1	1.32	1	226.97	1	0.0	1	997.09	1	40.488146	18.053571
1013	2024-02-12 04:00:00	12	torchiarolo	9.97	1	80.78	1	0.0	1	0.35	1	202.82	1	0.0	1	997.13	1	40.488146	18.053571
1014	2024-02-12 05:00:00	12	torchiarolo	9.33	1	83.98	1	0.0	1	0.15	1	201.81	1	0.0	1	997.39	1	40.488146	18.053571
1015	2024-02-12 06:00:00	12	torchiarolo	9.67	1	85.13	1	0.0	1	1.2	1	197.75	1	0.0	1	997.41	1	40.488146	18.053571
1016	2024-02-12 07:00:00	12	torchiarolo	10.09	1	83.61	1	0.0	1	1.92	1	231.6	1	0.0	5	997.67	1	40.488146	18.053571
1017	2024-02-12 08:00:00	12	torchiarolo	10.55	1	79.83	1	0.0	1	2.19	1	234.75	1	30.67	1	998.21	1	40.488146	18.053571
1018	2024-02-12 09:00:00	12	torchiarolo	12.15	1	74.65	1	0.0	1	2.79	1	221.94	1	151.1	1	998.7	1	40.488146	18.053571
1019	2024-02-12 10:00:00	12	torchiarolo	15.23	1	65.26	1	0.0	1	3.05	1	229.72	1	355.25	1	999.14	1	40.488146	18.053571
1020	2024-02-12 11:00:00	12	torchiarolo	15.8	1	61.7	1	0.0	1	2.48	1	225.5	1	411.16	1	999.28	1	40.488146	18.053571
1021	2024-02-12 12:00:00	12	torchiarolo	16.48	1	53.81	1	0.0	1	3.72	1	243.42	1	439.33	1	999.32	1	40.488146	18.053571
1022	2024-02-12 13:00:00	12	torchiarolo	17.4	1	52.95	1	0.0	1	3.06	1	220.8	1	526.52	1	998.96	1	40.488146	18.053571
1023	2024-02-12 14:00:00	12	torchiarolo	18.63	1	48.97	1	0.0	1	2.71	1	220.04	1	381.35	1	998.7	1	40.488146	18.053571
1024	2024-02-12 15:00:00	12	torchiarolo	18.07	1	47.59	1	0.0	1	2.26	1	247.38	1	211.36	1	998.53	1	40.488146	18.053571
1025	2024-02-12 16:00:00	12	torchiarolo	15.87	1	57.96	1	0.0	1	2.82	1	356.88	1	115.48	1	998.86	1	40.488146	18.053571
1026	2024-02-12 17:00:00	12	torchiarolo	14.39	1	65.37	1	0.0	1	2.02	1	3.15	1	60.81	1	999.48	1	40.488146	18.053571
1027	2024-02-12 18:00:00	12	torchiarolo	13.08	1	70.02	1	0.0	1	0.81	1	329.5	1	0.0	5	1000.4	1	40.488146	18.053571
1028	2024-02-12 19:00:00	12	torchiarolo	12.65	1	70.24	1	0.0	1	0.05	1	277.6	1	0.0	1	1001.3	1	40.488146	18.053571
1029	2024-02-12 20:00:00	12	torchiarolo	11.2	1	76.46	1	0.0	1	0.29	1	266.56	1	0.0	1	1001.56	1	40.488146	18.053571
1030	2024-02-12 21:00:00	12	torchiarolo	10.12	1	80.76	1	0.0	1	0.78	1	266.96	1	0.0	1	1002.03	1	40.488146	18.053571
1031	2024-02-12 22:00:00	12	torchiarolo	9.69	1	83.48	1	0.0	1	0.46	1	274.08	1	0.0	1	1002.56	1	40.488146	18.053571
1032	2024-02-12 23:00:00	12	torchiarolo	9.28	1	85.06	1	0.0	1	0.63	1	267.56	1	0.0	1	1002.72	1	40.488146	18.053571
1033	2024-02-13 00:00:00	12	torchiarolo	9.1	1	87.78	1	0.0	1	0.81	1	272.75	1	0.0	1	1003.25	1	40.488146	18.053571
1034	2024-02-13 01:00:00	12	torchiarolo	9.04	1	87.58	1	0.0	1	0.08	1	272.44	1	0.0	1	1003.3	1	40.488146	18.053571
1035	2024-02-13 02:00:00	12	torchiarolo	8.56	1	86.94	1	0.0	1	1.29	1	282.82	1	0.0	1	1003.43	1	40.488146	18.053571
1036	2024-02-13 03:00:00	12	torchiarolo	8.86	1	84.65	1	0.0	1	1.4	1	282.05	1	0.0	1	1003.61	1	40.488146	18.053571
1037	2024-02-13 04:00:00	12	torchiarolo	8.68	1	86.4	1	0.0	1	1.59	1	292.6	1	0.0	1	1003.85	1	40.488146	18.053571
1038	2024-02-13 05:00:00	12	torchiarolo	8.7	1	86.08	1	0.0	1	1.2	1	283.21	1	0.0	1	1003.99	1	40.488146	18.053571
1039	2024-02-13 06:00:00	12	torchiarolo	8.15	1	86.59	1	0.0	1	1.38	1	292.53	1	0.0	1	1004.57	1	40.488146	18.053571
1040	2024-02-13 07:00:00	12	torchiarolo	8.23	1	87.17	1	0.0	1	1.55	1	292.26	1	0.0	5	1005.05	1	40.488146	18.053571
1041	2024-02-13 08:00:00	12	torchiarolo	9.06	1	87.43	1	0.0	1	1.78	1	286.19	1	61.89	1	1005.67	1	40.488146	18.053571
1042	2024-02-13 09:00:00	12	torchiarolo	12.23	1	79.8	1	0.0	1	2.04	1	296.05	1	201.31	1	1006.32	1	40.488146	18.053571
1043	2024-02-13 10:00:00	12	torchiarolo	14.17	1	72.5	1	0.0	1	2.86	1	316.46	1	234.8	1	1006.78	1	40.488146	18.053571
1044	2024-02-13 11:00:00	12	torchiarolo	14.77	1	71.13	1	0.0	1	3.67	1	327.48	1	388.46	1	1006.98	1	40.488146	18.053571
1045	2024-02-13 12:00:00	12	torchiarolo	15.49	1	70.16	1	0.2	1	4.28	1	329.24	1	363.17	1	1006.99	1	40.488146	18.053571
1046	2024-02-13 13:00:00	12	torchiarolo	13.16	1	85.84	1	1.4	1	4.44	1	333.05	1	124.98	1	1006.96	1	40.488146	18.053571
1047	2024-02-13 14:00:00	12	torchiarolo	12.15	1	92.24	1	1.0	1	4.14	1	330.03	1	110.9	1	1006.62	1	40.488146	18.053571
1048	2024-02-13 15:00:00	12	torchiarolo	11.99	1	91.1	1	0.0	1	4.25	1	332.34	1	91.72	1	1006.8	1	40.488146	18.053571
1049	2024-02-13 16:00:00	12	torchiarolo	11.84	1	90.97	1	0.0	1	3.78	1	326.82	1	77.44	1	1007.18	1	40.488146	18.053571
1050	2024-02-13 17:00:00	12	torchiarolo	11.39	1	92.09	1	0.6	1	3.6	1	327.72	1	17.05	1	1007.48	1	40.488146	18.053571
1051	2024-02-13 18:00:00	12	torchiarolo	11.01	1	94.27	1	0.0	1	2.89	1	327.29	1	0.0	5	1008.1	1	40.488146	18.053571
1052	2024-02-13 19:00:00	12	torchiarolo	10.71	1	95.02	1	0.0	1	2.73	1	327.19	1	0.0	1	1008.7	1	40.488146	18.053571
1053	2024-02-13 20:00:00	12	torchiarolo	10.4	1	94.52	1	0.0	1	2.95	1	326.48	1	0.0	1	1009.12	1	40.488146	18.053571
1054	2024-02-13 21:00:00	12	torchiarolo	9.89	1	91.72	1	0.0	1	3.93	1	326.28	1	0.0	1	1009.28	1	40.488146	18.053571
1055	2024-02-13 22:00:00	12	torchiarolo	9.83	1	89.79	1	0.0	1	3.88	1	324.14	1	0.0	1	1009.58	1	40.488146	18.053571
1056	2024-02-13 23:00:00	12	torchiarolo	9.8	1	90.01	1	0.0	1	2.61	1	312.46	1	0.0	1	1009.64	1	40.488146	18.053571
1057	2024-02-14 00:00:00	12	torchiarolo	9.47	1	88.0	1	0.0	1	1.75	1	305.72	1	0.0	1	1009.89	1	40.488146	18.053571
1058	2024-02-14 01:00:00	12	torchiarolo	10.21	1	77.06	1	0.0	1	3.22	1	336.72	1	0.0	1	1009.78	1	40.488146	18.053571
1059	2024-02-14 02:00:00	12	torchiarolo	11.01	1	72.21	1	0.0	1	3.72	1	340.18	1	0.0	1	1010.08	1	40.488146	18.053571
1060	2024-02-14 03:00:00	12	torchiarolo	10.66	1	68.74	1	0.0	1	3.03	1	335.67	1	0.0	1	1010.26	1	40.488146	18.053571
1061	2024-02-14 04:00:00	12	torchiarolo	10.67	1	69.11	1	0.0	1	3.31	1	340.39	1	0.0	1	1010.26	1	40.488146	18.053571
1062	2024-02-14 05:00:00	12	torchiarolo	10.81	1	64.67	1	0.0	1	3.52	1	349.1	1	0.0	1	1010.72	1	40.488146	18.053571
1063	2024-02-14 06:00:00	12	torchiarolo	10.91	1	65.2	1	0.0	1	3.19	1	342.74	1	0.0	1	1011.34	1	40.488146	18.053571
1064	2024-02-14 07:00:00	12	torchiarolo	10.85	1	63.54	1	0.0	1	4.26	1	344.78	1	0.0	5	1011.94	1	40.488146	18.053571
1065	2024-02-14 08:00:00	12	torchiarolo	11.62	1	55.76	1	0.0	1	5.09	1	349.48	1	75.14	1	1012.5	1	40.488146	18.053571
1066	2024-02-14 09:00:00	12	torchiarolo	14.21	1	50.44	1	0.0	1	4.93	1	348.86	1	270.84	1	1013.05	1	40.488146	18.053571
1067	2024-02-14 10:00:00	12	torchiarolo	15.16	1	46.71	1	0.0	1	5.37	1	348.3	1	430.54	1	1013.38	1	40.488146	18.053571
1068	2024-02-14 11:00:00	12	torchiarolo	14.57	1	46.53	1	0.0	1	5.74	1	348.21	1	551.43	1	1013.55	1	40.488146	18.053571
1069	2024-02-14 12:00:00	12	torchiarolo	14.51	1	43.77	1	0.0	1	5.69	1	343.78	1	612.75	1	1013.55	1	40.488146	18.053571
1070	2024-02-14 13:00:00	12	torchiarolo	15.69	1	43.36	1	0.0	1	5.63	1	341.6	1	619.86	1	1013.53	1	40.488146	18.053571
1071	2024-02-14 14:00:00	12	torchiarolo	16.63	1	44.8	1	0.0	1	5.58	1	347.03	1	428.72	1	1013.31	1	40.488146	18.053571
1072	2024-02-14 15:00:00	12	torchiarolo	16.46	1	45.66	1	0.0	1	5.6	1	339.6	1	444.47	1	1013.37	1	40.488146	18.053571
1073	2024-02-14 16:00:00	12	torchiarolo	14.74	1	47.67	1	0.0	1	5.66	1	337.72	1	279.94	1	1013.57	1	40.488146	18.053571
1074	2024-02-14 17:00:00	12	torchiarolo	12.66	1	49.22	1	0.0	1	5.56	1	343.6	1	94.72	1	1013.9	1	40.488146	18.053571
1075	2024-02-14 18:00:00	12	torchiarolo	11.95	1	52.64	1	0.0	1	5.08	1	345.99	1	0.0	5	1014.27	1	40.488146	18.053571
1076	2024-02-14 19:00:00	12	torchiarolo	11.78	1	53.68	1	0.0	1	4.69	1	343.83	1	0.0	1	1014.57	1	40.488146	18.053571
1077	2024-02-14 20:00:00	12	torchiarolo	11.61	1	57.67	1	0.0	1	3.77	1	340.08	1	0.0	1	1014.98	1	40.488146	18.053571
1078	2024-02-14 21:00:00	12	torchiarolo	11.63	1	59.44	1	0.0	1	3.72	1	339.84	1	0.0	1	1015.1	1	40.488146	18.053571
1079	2024-02-14 22:00:00	12	torchiarolo	11.74	1	66.73	1	0.0	1	3.6	1	332.94	1	0.0	1	1015.36	1	40.488146	18.053571
1080	2024-02-14 23:00:00	12	torchiarolo	11.36	1	69.33	1	0.0	1	3.16	1	332.09	1	0.0	1	1015.21	1	40.488146	18.053571
1081	2024-02-15 00:00:00	12	torchiarolo	11.08	1	71.68	1	0.0	1	2.3	1	316.45	1	0.0	1	1015.02	1	40.488146	18.053571
1082	2024-02-15 01:00:00	12	torchiarolo	9.94	1	80.03	1	0.0	1	1.99	1	294.7	1	0.0	1	1015.15	1	40.488146	18.053571
1083	2024-02-15 02:00:00	12	torchiarolo	9.88	1	79.66	1	0.0	1	1.44	1	313.96	1	0.0	1	1015.13	1	40.488146	18.053571
1084	2024-02-15 03:00:00	12	torchiarolo	8.86	1	82.74	1	0.0	1	1.47	1	303.87	1	0.0	1	1014.89	1	40.488146	18.053571
1085	2024-02-15 04:00:00	12	torchiarolo	8.14	1	85.34	1	0.0	1	0.64	1	265.96	1	0.0	1	1014.75	1	40.488146	18.053571
1086	2024-02-15 05:00:00	12	torchiarolo	7.43	1	83.4	1	0.0	1	1.1	1	291.97	1	0.0	1	1015.02	1	40.488146	18.053571
1087	2024-02-15 06:00:00	12	torchiarolo	7.05	1	84.4	1	0.0	1	1.75	1	291.46	1	0.0	1	1015.13	1	40.488146	18.053571
1088	2024-02-15 07:00:00	12	torchiarolo	6.73	1	85.35	1	0.0	1	1.38	1	323.76	1	0.0	5	1015.62	1	40.488146	18.053571
1089	2024-02-15 08:00:00	12	torchiarolo	8.32	1	74.59	1	0.0	1	1.87	1	8.94	1	81.57	1	1016.1	1	40.488146	18.053571
1090	2024-02-15 09:00:00	12	torchiarolo	14.29	1	48.59	1	0.0	1	3.51	1	17.32	1	276.74	1	1016.43	1	40.488146	18.053571
1091	2024-02-15 10:00:00	12	torchiarolo	16.0	1	45.69	1	0.0	1	3.49	1	14.42	1	438.99	1	1016.73	1	40.488146	18.053571
1092	2024-02-15 11:00:00	12	torchiarolo	15.48	1	45.77	1	0.0	1	3.93	1	7.91	1	564.69	1	1016.84	1	40.488146	18.053571
1093	2024-02-15 12:00:00	12	torchiarolo	15.41	1	45.56	1	0.0	1	4.24	1	2.72	1	631.83	1	1016.64	1	40.488146	18.053571
1094	2024-02-15 13:00:00	12	torchiarolo	16.68	1	39.23	1	0.0	1	4.6	1	359.64	1	640.8	1	1016.18	1	40.488146	18.053571
1095	2024-02-15 14:00:00	12	torchiarolo	17.83	1	36.38	1	0.0	1	4.02	1	358.93	1	456.03	1	1016.0	1	40.488146	18.053571
1096	2024-02-15 15:00:00	12	torchiarolo	17.61	1	41.77	1	0.0	1	3.74	1	1.77	1	457.98	1	1015.7	1	40.488146	18.053571
1097	2024-02-15 16:00:00	12	torchiarolo	16.1	1	46.99	1	0.0	1	3.65	1	2.88	1	291.91	1	1015.37	1	40.488146	18.053571
1098	2024-02-15 17:00:00	12	torchiarolo	13.38	1	53.47	1	0.0	1	3.25	1	349.62	1	100.29	1	1015.12	1	40.488146	18.053571
1099	2024-02-15 18:00:00	12	torchiarolo	11.89	1	61.23	1	0.0	1	2.27	1	330.11	1	0.0	5	1015.21	1	40.488146	18.053571
1100	2024-02-15 19:00:00	12	torchiarolo	10.42	1	66.09	1	0.0	1	1.69	1	315.78	1	0.0	1	1015.64	1	40.488146	18.053571
1101	2024-02-15 20:00:00	12	torchiarolo	8.97	1	71.17	1	0.0	1	0.59	1	319.38	1	0.0	1	1015.75	1	40.488146	18.053571
1102	2024-02-15 21:00:00	12	torchiarolo	8.37	1	75.01	1	0.0	1	1.32	1	330.85	1	0.0	1	1015.75	1	40.488146	18.053571
1103	2024-02-15 22:00:00	12	torchiarolo	8.66	1	78.85	1	0.0	1	1.65	1	335.91	1	0.0	1	1015.75	1	40.488146	18.053571
1104	2024-02-15 23:00:00	12	torchiarolo	9.12	1	89.07	1	0.0	1	1.36	1	334.31	1	0.0	1	1015.75	1	40.488146	18.053571
1105	2024-02-16 00:00:00	12	torchiarolo	8.9	1	92.65	1	0.0	1	1.61	1	313.36	1	0.0	1	1015.75	1	40.488146	18.053571
1106	2024-02-16 01:00:00	12	torchiarolo	9.64	1	95.09	1	0.0	1	2.63	1	329.42	1	0.0	1	1015.4	1	40.488146	18.053571
1107	2024-02-16 02:00:00	12	torchiarolo	9.84	1	95.75	1	0.0	1	1.89	1	309.85	1	0.0	1	1015.38	1	40.488146	18.053571
1108	2024-02-16 03:00:00	12	torchiarolo	8.69	1	95.8	1	0.0	1	0.62	1	281.58	1	0.0	1	1015.22	1	40.488146	18.053571
1109	2024-02-16 04:00:00	12	torchiarolo	8.12	1	96.8	1	0.0	1	0.65	1	308.98	1	0.0	1	1014.8	1	40.488146	18.053571
1110	2024-02-16 05:00:00	12	torchiarolo	7.99	1	97.7	1	0.0	1	1.21	1	298.84	1	0.0	1	1014.79	1	40.488146	18.053571
1111	2024-02-16 06:00:00	12	torchiarolo	8.4	1	97.89	1	0.0	1	1.54	1	307.0	1	0.0	1	1015.02	1	40.488146	18.053571
1112	2024-02-16 07:00:00	12	torchiarolo	7.63	1	96.69	1	0.0	1	1.34	1	313.14	1	0.0	5	1015.02	1	40.488146	18.053571
1113	2024-02-16 08:00:00	12	torchiarolo	8.39	1	94.83	1	0.0	1	1.71	1	326.81	1	66.27	1	1015.34	1	40.488146	18.053571
1114	2024-02-16 09:00:00	12	torchiarolo	13.76	1	75.31	1	0.0	1	1.84	1	339.81	1	281.08	1	1015.75	1	40.488146	18.053571
1115	2024-02-16 10:00:00	12	torchiarolo	17.18	1	58.96	1	0.0	1	2.29	1	2.61	1	443.87	1	1016.0	1	40.488146	18.053571
1116	2024-02-16 11:00:00	12	torchiarolo	16.33	1	49.22	1	0.0	1	1.88	1	22.89	1	572.29	1	1016.34	1	40.488146	18.053571
1117	2024-02-16 12:00:00	12	torchiarolo	16.37	1	47.17	1	0.0	1	2.25	1	7.64	1	637.56	1	1016.28	1	40.488146	18.053571
1118	2024-02-16 13:00:00	12	torchiarolo	17.34	1	45.86	1	0.0	1	2.25	1	28.66	1	644.39	1	1016.04	1	40.488146	18.053571
1119	2024-02-16 14:00:00	12	torchiarolo	18.4	1	40.96	1	0.0	1	2.11	1	24.78	1	434.19	1	1015.65	1	40.488146	18.053571
1120	2024-02-16 15:00:00	12	torchiarolo	18.65	1	42.81	1	0.0	1	1.8	1	21.57	1	463.63	1	1015.43	1	40.488146	18.053571
1121	2024-02-16 16:00:00	12	torchiarolo	17.17	1	48.86	1	0.0	1	1.33	1	44.47	1	294.13	1	1015.41	1	40.488146	18.053571
1122	2024-02-16 17:00:00	12	torchiarolo	14.24	1	64.37	1	0.0	1	1.1	1	25.83	1	100.64	1	1015.38	1	40.488146	18.053571
1123	2024-02-16 18:00:00	12	torchiarolo	12.35	1	71.99	1	0.0	1	0.64	1	15.46	1	0.0	5	1015.68	1	40.488146	18.053571
1124	2024-02-16 19:00:00	12	torchiarolo	10.44	1	79.79	1	0.0	1	0.16	1	16.03	1	0.0	1	1016.06	1	40.488146	18.053571
1125	2024-02-16 20:00:00	12	torchiarolo	9.41	1	85.24	1	0.0	1	null	3	94.65	1	0.0	1	1016.49	1	40.488146	18.053571
1126	2024-02-16 21:00:00	12	torchiarolo	8.18	1	87.21	1	0.0	1	null	3	129.76	1	0.0	1	1016.84	1	40.488146	18.053571
1127	2024-02-16 22:00:00	12	torchiarolo	7.89	1	86.07	1	0.0	1	0.03	1	231.94	1	0.0	1	1017.22	1	40.488146	18.053571
1128	2024-02-16 23:00:00	12	torchiarolo	7.15	1	87.9	1	0.0	1	null	3	241.23	1	0.0	1	1017.35	1	40.488146	18.053571
1129	2024-02-17 00:00:00	12	torchiarolo	7.08	1	89.18	1	0.0	1	0.08	1	233.85	1	0.0	1	1017.68	1	40.488146	18.053571
1130	2024-02-17 01:00:00	12	torchiarolo	6.85	1	91.2	1	0.0	1	null	3	241.73	1	0.0	1	1017.84	1	40.488146	18.053571
1131	2024-02-17 02:00:00	12	torchiarolo	6.7	1	92.8	1	0.0	1	null	3	241.93	1	0.0	1	1017.9	1	40.488146	18.053571
1132	2024-02-17 03:00:00	12	torchiarolo	6.14	1	93.52	1	0.0	1	null	3	252.35	1	0.0	1	1017.89	1	40.488146	18.053571
1133	2024-02-17 04:00:00	12	torchiarolo	5.63	1	93.92	1	0.0	1	null	3	253.31	1	0.0	1	1017.86	1	40.488146	18.053571
1134	2024-02-17 05:00:00	12	torchiarolo	5.04	1	93.99	1	0.0	1	null	3	265.18	1	0.0	1	1017.95	1	40.488146	18.053571
1135	2024-02-17 06:00:00	12	torchiarolo	4.79	1	94.65	1	0.0	1	null	3	251.59	1	0.0	1	1018.23	1	40.488146	18.053571
1136	2024-02-17 07:00:00	12	torchiarolo	4.41	1	94.92	1	0.0	1	0.21	1	249.53	1	0.0	5	1018.54	1	40.488146	18.053571
1137	2024-02-17 08:00:00	12	torchiarolo	5.0	1	95.22	1	0.0	1	0.72	1	240.77	1	58.91	1	1019.21	1	40.488146	18.053571
1138	2024-02-17 09:00:00	12	torchiarolo	null	3	94.54	1	0.0	1	null	3	257.42	1	226.82	1	1019.89	1	40.488146	18.053571
1139	2024-02-17 10:00:00	12	torchiarolo	null	3	78.85	1	0.2	1	null	3	247.78	1	441.64	1	1020.38	1	40.488146	18.053571
1140	2024-02-17 11:00:00	12	torchiarolo	16.33	1	60.95	1	0.0	1	0.24	1	122.54	1	568.38	1	1020.73	1	40.488146	18.053571
1141	2024-02-17 12:00:00	12	torchiarolo	16.14	1	54.35	1	0.0	1	1.28	1	44.94	1	628.88	1	1020.87	1	40.488146	18.053571
1142	2024-02-17 13:00:00	12	torchiarolo	17.75	1	49.38	1	0.0	1	1.8	1	51.17	1	642.96	1	1021.02	1	40.488146	18.053571
1143	2024-02-17 14:00:00	12	torchiarolo	18.68	1	51.52	1	0.0	1	2.12	1	49.11	1	440.96	1	1021.46	1	40.488146	18.053571
1144	2024-02-17 15:00:00	12	torchiarolo	17.94	1	55.56	1	0.0	1	2.35	1	64.62	1	458.48	1	1021.87	1	40.488146	18.053571
1145	2024-02-17 16:00:00	12	torchiarolo	17.33	1	59.45	1	0.0	1	1.86	1	22.26	1	297.34	1	1022.31	1	40.488146	18.053571
1146	2024-02-17 17:00:00	12	torchiarolo	14.59	1	67.12	1	0.0	1	1.69	1	22.74	1	103.63	1	1022.56	1	40.488146	18.053571
1147	2024-02-17 18:00:00	12	torchiarolo	12.75	1	72.9	1	0.0	1	0.88	1	357.65	1	5.02	1	1022.9	1	40.488146	18.053571
1148	2024-02-17 19:00:00	12	torchiarolo	11.02	1	79.26	1	0.0	1	0.11	1	308.15	1	0.0	1	1023.62	1	40.488146	18.053571
1149	2024-02-17 20:00:00	12	torchiarolo	10.1	1	80.83	1	0.0	1	null	3	287.22	1	0.0	1	1024.07	1	40.488146	18.053571
1150	2024-02-17 21:00:00	12	torchiarolo	9.33	1	84.09	1	0.0	1	0.48	1	281.71	1	0.0	1	1024.58	1	40.488146	18.053571
1151	2024-02-17 22:00:00	12	torchiarolo	8.99	1	90.39	1	0.0	1	1.3	1	289.81	1	0.0	1	1024.91	1	40.488146	18.053571
1152	2024-02-17 23:00:00	12	torchiarolo	8.9	1	93.87	1	0.0	1	1.35	1	291.53	1	0.0	1	1025.09	1	40.488146	18.053571
1153	2024-02-18 00:00:00	12	torchiarolo	8.58	1	95.38	1	0.0	1	0.62	1	302.2	1	0.0	1	1025.47	1	40.488146	18.053571
1154	2024-02-18 01:00:00	12	torchiarolo	8.49	1	96.49	1	0.0	1	1.37	1	312.48	1	0.0	1	1025.64	1	40.488146	18.053571
1155	2024-02-18 02:00:00	12	torchiarolo	8.49	1	96.98	1	0.0	1	1.21	1	308.87	1	0.0	1	1025.64	1	40.488146	18.053571
1156	2024-02-18 03:00:00	12	torchiarolo	7.99	1	97.2	1	0.0	1	0.94	1	291.36	1	0.0	1	1025.54	1	40.488146	18.053571
1157	2024-02-18 04:00:00	12	torchiarolo	7.76	1	97.65	1	0.0	1	0.69	1	300.86	1	0.0	1	1025.27	1	40.488146	18.053571
1158	2024-02-18 05:00:00	12	torchiarolo	8.72	1	98.27	1	0.0	1	0.84	1	299.66	1	0.0	1	1025.27	1	40.488146	18.053571
1159	2024-02-18 06:00:00	12	torchiarolo	9.79	1	98.67	1	0.0	1	1.31	1	302.25	1	0.0	1	1025.52	1	40.488146	18.053571
1160	2024-02-18 07:00:00	12	torchiarolo	10.41	1	98.87	1	0.0	1	1.81	1	318.81	1	0.0	5	1025.7	1	40.488146	18.053571
1161	2024-02-18 08:00:00	12	torchiarolo	11.4	1	97.3	1	0.0	1	2.39	1	328.5	1	76.5	1	1026.13	1	40.488146	18.053571
1162	2024-02-18 09:00:00	12	torchiarolo	14.01	1	83.1	1	0.0	1	2.54	1	322.07	1	261.83	1	1026.39	1	40.488146	18.053571
1163	2024-02-18 10:00:00	12	torchiarolo	16.76	1	69.97	1	0.0	1	3.26	1	335.8	1	426.5	1	1026.68	1	40.488146	18.053571
1164	2024-02-18 11:00:00	12	torchiarolo	16.96	1	66.23	1	0.0	1	3.06	1	330.09	1	482.83	1	1026.74	1	40.488146	18.053571
1165	2024-02-18 12:00:00	12	torchiarolo	16.6	1	63.92	1	0.0	1	3.42	1	336.42	1	306.53	1	1026.68	1	40.488146	18.053571
1166	2024-02-18 13:00:00	12	torchiarolo	16.9	1	64.42	1	0.0	1	3.54	1	342.88	1	407.79	1	1026.25	1	40.488146	18.053571
1167	2024-02-18 14:00:00	12	torchiarolo	18.76	1	58.77	1	0.0	1	3.41	1	335.96	1	404.84	1	1025.66	1	40.488146	18.053571
1168	2024-02-18 15:00:00	12	torchiarolo	null	6	null	6	null	6	null	6	null	6	null	6	null	6	40.488146	18.053571
1169	2024-02-18 16:00:00	12	torchiarolo	null	6	null	6	null	6	null	6	null	6	null	6	null	6	40.488146	18.053571
1170	2024-02-18 17:00:00	12	torchiarolo	null	6	null	6	null	6	null	6	null	6	null	6	null	6	40.488146	18.053571
1171	2024-02-18 18:00:00	12	torchiarolo	null	6	null	6	null	6	null	6	null	6	null	6	null	6	40.488146	18.053571
1172	2024-02-18 19:00:00	12	torchiarolo	null	6	null	6	null	6	null	6	null	6	null	6	null	6	40.488146	18.053571
1173	2024-02-18 20:00:00	12	torchiarolo	null	6	null	6	null	6	null	6	null	6	null	6	null	6	40.488146	18.053571
1174	2024-02-18 21:00:00	12	torchiarolo	null	6	null	6	null	6	null	6	null	6	null	6	null	6	40.488146	18.053571
1175	2024-02-18 22:00:00	12	torchiarolo	null	6	null	6	null	6	null	6	null	6	null	6	null	6	40.488146	18.053571
1176	2024-02-18 23:00:00	12	torchiarolo	null	6	null	6	null	6	null	6	null	6	null	6	null	6	40.488146	18.053571
1177	2024-02-19 00:00:00	12	torchiarolo	null	6	null	6	null	6	null	6	null	6	null	6	null	6	40.488146	18.053571
1178	2024-02-19 01:00:00	12	torchiarolo	null	6	null	6	null	6	null	6	null	6	null	6	null	6	40.488146	18.053571
1179	2024-02-19 02:00:00	12	torchiarolo	null	6	null	6	null	6	null	6	null	6	null	6	null	6	40.488146	18.053571
1180	2024-02-19 03:00:00	12	torchiarolo	null	6	null	6	null	6	null	6	null	6	null	6	null	6	40.488146	18.053571
1181	2024-02-19 04:00:00	12	torchiarolo	null	6	null	6	null	6	null	6	null	6	null	6	null	6	40.488146	18.053571
1182	2024-02-19 05:00:00	12	torchiarolo	null	6	null	6	null	6	null	6	null	6	null	6	null	6	40.488146	18.053571
1183	2024-02-19 06:00:00	12	torchiarolo	null	6	null	6	null	6	null	6	null	6	null	6	null	6	40.488146	18.053571
1184	2024-02-19 07:00:00	12	torchiarolo	null	6	null	6	null	6	null	6	null	6	null	6	null	6	40.488146	18.053571
1185	2024-02-19 08:00:00	12	torchiarolo	null	6	null	6	null	6	null	6	null	6	null	6	null	6	40.488146	18.053571
1186	2024-02-19 09:00:00	12	torchiarolo	null	6	null	6	null	6	null	6	null	6	null	6	null	6	40.488146	18.053571
1187	2024-02-19 10:00:00	12	torchiarolo	null	6	null	6	null	6	null	6	null	6	null	6	null	6	40.488146	18.053571
1188	2024-02-19 11:00:00	12	torchiarolo	null	6	null	6	null	6	null	6	null	6	null	6	null	6	40.488146	18.053571
1189	2024-02-19 12:00:00	12	torchiarolo	null	6	null	6	null	6	null	6	null	6	null	6	null	6	40.488146	18.053571
1190	2024-02-19 13:00:00	12	torchiarolo	null	6	null	6	null	6	null	6	null	6	null	6	null	6	40.488146	18.053571
1191	2024-02-19 14:00:00	12	torchiarolo	19.0	1	55.36	1	0.0	1	2.08	1	68.03	1	442.24	1	1018.27	1	40.488146	18.053571
1192	2024-02-19 15:00:00	12	torchiarolo	18.79	1	56.25	1	0.0	1	2.22	1	69.29	1	502.67	1	1017.35	1	40.488146	18.053571
1193	2024-02-19 16:00:00	12	torchiarolo	16.43	1	59.86	1	0.0	1	2.05	1	87.81	1	112.62	1	1016.69	1	40.488146	18.053571
1194	2024-02-19 17:00:00	12	torchiarolo	15.2	1	66.13	1	0.0	1	1.88	1	109.55	1	49.09	1	1016.17	1	40.488146	18.053571
1195	2024-02-19 18:00:00	12	torchiarolo	13.96	1	77.47	1	0.0	1	1.05	1	115.26	1	0.0	5	1016.13	1	40.488146	18.053571
1196	2024-02-19 19:00:00	12	torchiarolo	12.74	1	85.64	1	0.0	1	0.86	1	114.8	1	0.0	1	1016.23	1	40.488146	18.053571
1197	2024-02-19 20:00:00	12	torchiarolo	12.64	1	83.99	1	0.0	1	0.37	1	242.28	1	0.0	1	1016.4	1	40.488146	18.053571
1198	2024-02-19 21:00:00	12	torchiarolo	12.51	1	85.45	1	0.0	1	0.67	1	250.55	1	0.0	1	1016.57	1	40.488146	18.053571
1199	2024-02-19 22:00:00	12	torchiarolo	12.02	1	88.07	1	0.0	1	0.85	1	255.32	1	0.0	1	1016.64	1	40.488146	18.053571
1200	2024-02-19 23:00:00	12	torchiarolo	11.93	1	89.26	1	0.0	1	0.67	1	237.88	1	0.0	1	1016.42	1	40.488146	18.053571
1201	2024-02-20 00:00:00	12	torchiarolo	11.57	1	88.06	1	0.0	1	0.17	1	235.66	1	0.0	1	1016.12	1	40.488146	18.053571
1202	2024-02-20 01:00:00	12	torchiarolo	11.15	1	86.14	1	0.0	1	0.05	1	242.66	1	0.0	1	1015.9	1	40.488146	18.053571
1203	2024-02-20 02:00:00	12	torchiarolo	10.05	1	87.92	1	0.0	1	null	3	292.77	1	0.0	1	1015.74	1	40.488146	18.053571
1204	2024-02-20 03:00:00	12	torchiarolo	9.93	1	90.73	1	0.0	1	0.01	1	299.82	1	0.0	1	1015.27	1	40.488146	18.053571
1205	2024-02-20 04:00:00	12	torchiarolo	9.68	1	92.76	1	0.0	1	0.87	1	296.08	1	0.0	1	1014.91	1	40.488146	18.053571
1206	2024-02-20 05:00:00	12	torchiarolo	9.82	1	93.7	1	0.0	1	0.65	1	296.94	1	0.0	1	1015.02	1	40.488146	18.053571
1207	2024-02-20 06:00:00	12	torchiarolo	10.07	1	94.58	1	0.0	1	0.65	1	320.66	1	0.0	1	1015.02	1	40.488146	18.053571
1208	2024-02-20 07:00:00	12	torchiarolo	10.15	1	95.02	1	0.0	1	null	3	297.16	1	0.0	5	1015.02	1	40.488146	18.053571
1209	2024-02-20 08:00:00	12	torchiarolo	10.37	1	95.19	1	0.0	1	0.51	1	277.92	1	46.77	1	1015.33	1	40.488146	18.053571
1210	2024-02-20 09:00:00	12	torchiarolo	12.21	1	91.92	1	0.0	1	1.27	1	323.91	1	195.55	1	1015.75	1	40.488146	18.053571
1211	2024-02-20 10:00:00	12	torchiarolo	17.0	1	69.91	1	0.0	1	1.72	1	333.02	1	393.19	1	1015.98	1	40.488146	18.053571
1212	2024-02-20 11:00:00	12	torchiarolo	17.42	1	65.8	1	0.0	1	2.12	1	1.05	1	417.38	1	1016.1	1	40.488146	18.053571
1213	2024-02-20 12:00:00	12	torchiarolo	16.93	1	67.35	1	0.0	1	2.13	1	16.89	1	275.23	1	1015.98	1	40.488146	18.053571
1214	2024-02-20 13:00:00	12	torchiarolo	18.14	1	60.14	1	0.0	1	2.57	1	15.77	1	564.77	1	1015.35	1	40.488146	18.053571
1215	2024-02-20 14:00:00	12	torchiarolo	18.83	1	56.46	1	0.0	1	2.76	1	13.21	1	410.06	1	1014.83	1	40.488146	18.053571
1216	2024-02-20 15:00:00	12	torchiarolo	18.79	1	58.59	1	0.0	1	2.29	1	8.89	1	374.17	1	1014.66	1	40.488146	18.053571
1217	2024-02-20 16:00:00	12	torchiarolo	17.39	1	62.62	1	0.0	1	1.76	1	16.97	1	219.84	1	1014.65	1	40.488146	18.053571
1218	2024-02-20 17:00:00	12	torchiarolo	15.11	1	70.81	1	0.0	1	1.76	1	15.47	1	81.09	1	1014.65	1	40.488146	18.053571
1219	2024-02-20 18:00:00	12	torchiarolo	13.59	1	75.78	1	0.0	1	1.14	1	355.58	1	9.42	1	1014.89	1	40.488146	18.053571
1220	2024-02-20 19:00:00	12	torchiarolo	11.98	1	80.83	1	0.0	1	0.73	1	314.61	1	0.0	1	1015.53	1	40.488146	18.053571
1221	2024-02-20 20:00:00	12	torchiarolo	11.11	1	87.24	1	0.0	1	0.16	1	314.81	1	0.0	1	1015.78	1	40.488146	18.053571
1222	2024-02-20 21:00:00	12	torchiarolo	10.48	1	89.4	1	0.0	1	0.04	1	296.91	1	0.0	1	1016.14	1	40.488146	18.053571
1223	2024-02-20 22:00:00	12	torchiarolo	10.24	1	89.69	1	0.0	1	0.78	1	337.72	1	0.0	1	1016.48	1	40.488146	18.053571
1224	2024-02-20 23:00:00	12	torchiarolo	9.71	1	90.42	1	0.0	1	0.64	1	342.43	1	0.0	1	1016.48	1	40.488146	18.053571
1225	2024-02-21 00:00:00	12	torchiarolo	9.64	1	91.27	1	0.0	1	0.97	1	0.37	1	0.0	1	1016.72	1	40.488146	18.053571
1226	2024-02-21 01:00:00	12	torchiarolo	9.89	1	90.86	1	0.0	1	1.27	1	327.17	1	0.0	1	1016.83	1	40.488146	18.053571
1227	2024-02-21 02:00:00	12	torchiarolo	10.31	1	90.24	1	0.0	1	1.53	1	316.99	1	0.0	1	1016.4	1	40.488146	18.053571
1228	2024-02-21 03:00:00	12	torchiarolo	9.19	1	90.52	1	0.0	1	1.39	1	286.89	1	0.0	1	1016.0	1	40.488146	18.053571
1229	2024-02-21 04:00:00	12	torchiarolo	8.2	1	90.66	1	0.0	1	1.51	1	268.71	1	0.0	1	1015.43	1	40.488146	18.053571
1230	2024-02-21 05:00:00	12	torchiarolo	7.98	1	91.84	1	0.0	1	0.18	1	37.78	1	0.0	1	1015.39	1	40.488146	18.053571
1231	2024-02-21 06:00:00	12	torchiarolo	8.29	1	93.51	1	0.0	1	null	3	55.89	1	0.0	1	1015.61	1	40.488146	18.053571
1232	2024-02-21 07:00:00	12	torchiarolo	7.51	1	93.33	1	0.0	1	0.65	1	274.08	1	0.0	5	1016.02	1	40.488146	18.053571
1233	2024-02-21 08:00:00	12	torchiarolo	8.8	1	91.53	1	0.0	1	1.87	1	288.68	1	91.86	1	1016.8	1	40.488146	18.053571
1234	2024-02-21 09:00:00	12	torchiarolo	13.9	1	75.98	1	0.0	1	1.24	1	325.4	1	270.78	1	1017.5	1	40.488146	18.053571
1235	2024-02-21 10:00:00	12	torchiarolo	17.96	1	57.59	1	0.0	1	1.88	1	6.52	1	433.9	1	1018.02	1	40.488146	18.053571
1236	2024-02-21 11:00:00	12	torchiarolo	17.37	1	53.9	1	0.0	1	2.78	1	14.24	1	555.55	1	1018.55	1	40.488146	18.053571
1237	2024-02-21 12:00:00	12	torchiarolo	17.12	1	52.1	1	0.0	1	3.01	1	13.99	1	625.19	1	1018.54	1	40.488146	18.053571
1238	2024-02-21 13:00:00	12	torchiarolo	18.14	1	48.1	1	0.0	1	2.77	1	25.97	1	638.46	1	1018.02	1	40.488146	18.053571
1239	2024-02-21 14:00:00	12	torchiarolo	19.01	1	45.63	1	0.0	1	2.79	1	17.94	1	447.54	1	1017.52	1	40.488146	18.053571
1240	2024-02-21 15:00:00	12	torchiarolo	19.27	1	44.78	1	0.0	1	3.07	1	6.82	1	469.33	1	1017.22	1	40.488146	18.053571
1241	2024-02-21 16:00:00	12	torchiarolo	17.86	1	48.9	1	0.0	1	3.04	1	10.52	1	318.71	1	1017.13	1	40.488146	18.053571
1242	2024-02-21 17:00:00	12	torchiarolo	14.58	1	54.95	1	0.0	1	2.98	1	5.33	1	121.74	1	1016.88	1	40.488146	18.053571
1243	2024-02-21 18:00:00	12	torchiarolo	12.72	1	63.19	1	0.0	1	1.49	1	353.23	1	7.96	1	1017.21	1	40.488146	18.053571
1244	2024-02-21 19:00:00	12	torchiarolo	11.12	1	68.1	1	0.0	1	0.36	1	301.55	1	0.0	1	1017.57	1	40.488146	18.053571
1245	2024-02-21 20:00:00	12	torchiarolo	10.39	1	71.33	1	0.0	1	0.01	1	285.08	1	0.0	1	1017.65	1	40.488146	18.053571
1246	2024-02-21 21:00:00	12	torchiarolo	9.14	1	75.56	1	0.0	1	null	3	235.62	1	0.0	1	1017.83	1	40.488146	18.053571
1247	2024-02-21 22:00:00	12	torchiarolo	8.73	1	77.56	1	0.0	1	0.74	1	247.42	1	0.0	1	1017.78	1	40.488146	18.053571
1248	2024-02-21 23:00:00	12	torchiarolo	8.56	1	80.44	1	0.0	1	0.83	1	252.61	1	0.0	1	1017.43	1	40.488146	18.053571
1249	2024-02-22 00:00:00	12	torchiarolo	7.93	1	83.35	1	0.0	1	1.1	1	274.21	1	0.0	1	1017.49	1	40.488146	18.053571
1250	2024-02-22 01:00:00	12	torchiarolo	7.14	1	86.74	1	0.0	1	1.46	1	261.15	1	0.0	1	1017.22	1	40.488146	18.053571
1251	2024-02-22 02:00:00	12	torchiarolo	6.96	1	88.39	1	0.0	1	1.07	1	247.29	1	0.0	1	1017.02	1	40.488146	18.053571
1252	2024-02-22 03:00:00	12	torchiarolo	6.57	1	88.52	1	0.0	1	1.5	1	241.33	1	0.0	1	1016.54	1	40.488146	18.053571
1253	2024-02-22 04:00:00	12	torchiarolo	5.58	1	88.25	1	0.0	1	1.59	1	252.17	1	0.0	1	1015.97	1	40.488146	18.053571
1254	2024-02-22 05:00:00	12	torchiarolo	5.42	1	87.46	1	0.0	1	1.36	1	246.85	1	0.0	1	1015.75	1	40.488146	18.053571
1255	2024-02-22 06:00:00	12	torchiarolo	5.28	1	87.22	1	0.0	1	1.06	1	241.59	1	0.0	1	1015.75	1	40.488146	18.053571
1256	2024-02-22 07:00:00	12	torchiarolo	5.44	1	86.08	1	0.0	1	1.35	1	245.36	1	0.0	5	1015.75	1	40.488146	18.053571
1257	2024-02-22 08:00:00	12	torchiarolo	7.54	1	77.75	1	0.0	1	0.51	1	233.21	1	111.4	1	1015.77	1	40.488146	18.053571
1258	2024-02-22 09:00:00	12	torchiarolo	12.4	1	67.09	1	0.0	1	null	3	224.51	1	307.15	1	1016.12	1	40.488146	18.053571
1259	2024-02-22 10:00:00	12	torchiarolo	16.6	1	56.84	1	0.0	1	1.27	1	208.23	1	467.55	1	1016.05	1	40.488146	18.053571
1260	2024-02-22 11:00:00	12	torchiarolo	16.97	1	50.64	1	0.0	1	1.72	1	215.9	1	582.75	1	1015.88	1	40.488146	18.053571
1261	2024-02-22 12:00:00	12	torchiarolo	17.21	1	46.52	1	0.0	1	2.19	1	207.73	1	648.22	1	1015.41	1	40.488146	18.053571
1262	2024-02-22 13:00:00	12	torchiarolo	19.28	1	40.49	1	0.0	1	2.61	1	210.1	1	648.36	1	1014.74	1	40.488146	18.053571
1263	2024-02-22 14:00:00	12	torchiarolo	20.18	1	38.88	1	0.0	1	2.62	1	214.42	1	451.25	1	1014.07	1	40.488146	18.053571
1264	2024-02-22 15:00:00	12	torchiarolo	19.84	1	37.52	1	0.0	1	2.71	1	211.62	1	426.55	1	1013.37	1	40.488146	18.053571
1265	2024-02-22 16:00:00	12	torchiarolo	18.34	1	39.4	1	0.0	1	2.56	1	212.13	1	270.6	1	1012.66	1	40.488146	18.053571
1266	2024-02-22 17:00:00	12	torchiarolo	15.8	1	45.72	1	0.0	1	2.38	1	214.89	1	132.64	1	1012.39	1	40.488146	18.053571
1267	2024-02-22 18:00:00	12	torchiarolo	13.86	1	52.55	1	0.0	1	1.65	1	196.5	1	9.98	1	1012.09	1	40.488146	18.053571
1268	2024-02-22 19:00:00	12	torchiarolo	12.28	1	59.18	1	0.0	1	1.38	1	192.25	1	0.0	1	1012.35	1	40.488146	18.053571
1269	2024-02-22 20:00:00	12	torchiarolo	11.23	1	65.48	1	0.0	1	1.69	1	187.44	1	0.0	1	1012.0	1	40.488146	18.053571
1270	2024-02-22 21:00:00	12	torchiarolo	10.55	1	72.5	1	0.0	1	1.9	1	187.23	1	0.0	1	1011.6	1	40.488146	18.053571
1271	2024-02-22 22:00:00	12	torchiarolo	10.06	1	79.2	1	0.0	1	1.83	1	189.78	1	0.0	1	1011.45	1	40.488146	18.053571
1272	2024-02-22 23:00:00	12	torchiarolo	9.62	1	84.56	1	0.0	1	2.0	1	181.8	1	0.0	1	1011.2	1	40.488146	18.053571
1273	2024-02-23 00:00:00	12	torchiarolo	9.51	1	88.07	1	0.0	1	1.65	1	183.64	1	0.0	1	1010.5	1	40.488146	18.053571
1274	2024-02-23 01:00:00	12	torchiarolo	9.43	1	90.64	1	0.0	1	1.59	1	184.42	1	0.0	1	1010.09	1	40.488146	18.053571
1275	2024-02-23 02:00:00	12	torchiarolo	9.43	1	92.12	1	0.0	1	1.82	1	181.65	1	0.0	1	1009.65	1	40.488146	18.053571
1276	2024-02-23 03:00:00	12	torchiarolo	9.42	1	92.67	1	0.0	1	1.51	1	175.52	1	0.0	1	1009.06	1	40.488146	18.053571
1277	2024-02-23 04:00:00	12	torchiarolo	9.45	1	93.77	1	0.0	1	1.68	1	172.34	1	0.0	1	1008.44	1	40.488146	18.053571
1278	2024-02-23 05:00:00	12	torchiarolo	9.59	1	94.64	1	0.0	1	1.83	1	182.96	1	0.0	1	1008.17	1	40.488146	18.053571
1279	2024-02-23 06:00:00	12	torchiarolo	9.62	1	95.02	1	0.0	1	1.59	1	177.61	1	0.0	1	1008.06	1	40.488146	18.053571
1280	2024-02-23 07:00:00	12	torchiarolo	10.39	1	94.49	1	0.0	1	2.18	1	177.32	1	9.57	1	1007.79	1	40.488146	18.053571
1281	2024-02-23 08:00:00	12	torchiarolo	11.62	1	91.1	1	0.0	1	2.11	1	174.91	1	87.84	1	1007.92	1	40.488146	18.053571
1282	2024-02-23 09:00:00	12	torchiarolo	15.15	1	77.61	1	0.0	1	2.87	1	188.05	1	295.59	1	1008.06	1	40.488146	18.053571
1283	2024-02-23 10:00:00	12	torchiarolo	16.16	1	70.65	1	0.0	1	4.51	1	192.65	1	272.25	1	1008.06	1	40.488146	18.053571
1284	2024-02-23 11:00:00	12	torchiarolo	16.69	1	64.81	1	0.0	1	4.85	1	192.88	1	410.64	1	1008.06	1	40.488146	18.053571
1285	2024-02-23 12:00:00	12	torchiarolo	17.37	1	61.57	1	0.0	1	4.99	1	192.51	1	378.59	1	1007.74	1	40.488146	18.053571
1286	2024-02-23 13:00:00	12	torchiarolo	18.21	1	59.04	1	0.0	1	5.03	1	193.09	1	502.31	1	1007.36	1	40.488146	18.053571
1287	2024-02-23 14:00:00	12	torchiarolo	18.33	1	57.64	1	0.0	1	5.13	1	192.28	1	351.85	1	1006.9	1	40.488146	18.053571
1288	2024-02-23 15:00:00	12	torchiarolo	18.33	1	58.05	1	0.0	1	5.11	1	187.63	1	296.0	1	1006.58	1	40.488146	18.053571
1289	2024-02-23 16:00:00	12	torchiarolo	17.06	1	62.51	1	0.0	1	4.91	1	192.38	1	105.03	1	1006.29	1	40.488146	18.053571
1290	2024-02-23 17:00:00	12	torchiarolo	16.06	1	68.99	1	0.0	1	5.39	1	192.22	1	33.42	1	1006.17	1	40.488146	18.053571
1291	2024-02-23 18:00:00	12	torchiarolo	15.62	1	71.74	1	0.0	1	5.3	1	193.46	1	0.0	5	1006.22	1	40.488146	18.053571
1292	2024-02-23 19:00:00	12	torchiarolo	15.36	1	73.63	1	0.0	1	4.91	1	187.5	1	0.0	1	1006.34	1	40.488146	18.053571
1293	2024-02-23 20:00:00	12	torchiarolo	15.21	1	75.59	1	0.0	1	4.67	1	183.56	1	0.0	1	1006.58	1	40.488146	18.053571
1294	2024-02-23 21:00:00	12	torchiarolo	15.23	1	75.69	1	0.0	1	4.95	1	187.47	1	0.0	1	1006.79	1	40.488146	18.053571
1295	2024-02-23 22:00:00	12	torchiarolo	15.23	1	76.15	1	0.0	1	4.86	1	189.05	1	0.0	1	1006.82	1	40.488146	18.053571
1296	2024-02-23 23:00:00	12	torchiarolo	15.1	1	76.69	1	0.0	1	4.69	1	187.53	1	0.0	1	1006.52	1	40.488146	18.053571
1297	2024-02-24 00:00:00	12	torchiarolo	15.13	1	76.48	1	0.0	1	4.77	1	186.15	1	0.0	1	1006.59	1	40.488146	18.053571
1298	2024-02-24 01:00:00	12	torchiarolo	15.18	1	76.08	1	0.0	1	5.14	1	184.62	1	0.0	1	1006.54	1	40.488146	18.053571
1299	2024-02-24 02:00:00	12	torchiarolo	15.17	1	76.45	1	0.0	1	4.89	1	188.56	1	0.0	1	1006.62	1	40.488146	18.053571
1300	2024-02-24 03:00:00	12	torchiarolo	15.2	1	76.45	1	0.0	1	4.26	1	186.94	1	0.0	1	1006.68	1	40.488146	18.053571
1301	2024-02-24 04:00:00	12	torchiarolo	15.14	1	77.07	1	0.0	1	4.67	1	188.74	1	0.0	1	1006.23	1	40.488146	18.053571
1302	2024-02-24 05:00:00	12	torchiarolo	15.11	1	78.16	1	0.0	1	4.65	1	186.15	1	0.0	1	1006.3	1	40.488146	18.053571
1303	2024-02-24 06:00:00	12	torchiarolo	15.16	1	79.29	1	0.0	1	4.44	1	187.26	1	0.0	1	1006.58	1	40.488146	18.053571
1304	2024-02-24 07:00:00	12	torchiarolo	15.05	1	82.16	1	0.0	1	4.31	1	194.13	1	0.0	5	1006.65	1	40.488146	18.053571
1305	2024-02-24 08:00:00	12	torchiarolo	14.71	1	87.62	1	0.0	1	4.14	1	196.96	1	39.4	1	1007.09	1	40.488146	18.053571
1306	2024-02-24 09:00:00	12	torchiarolo	15.03	1	86.65	1	0.0	1	4.15	1	189.25	1	71.41	1	1007.55	1	40.488146	18.053571
1307	2024-02-24 10:00:00	12	torchiarolo	15.47	1	82.69	1	0.2	1	4.62	1	188.63	1	115.17	1	1007.96	1	40.488146	18.053571
1308	2024-02-24 11:00:00	12	torchiarolo	16.16	1	79.44	1	0.2	1	4.94	1	187.06	1	232.92	1	1008.16	1	40.488146	18.053571
1309	2024-02-24 12:00:00	12	torchiarolo	15.53	1	85.88	1	1.0	1	4.18	1	183.42	1	137.72	1	1008.42	1	40.488146	18.053571
1310	2024-02-24 13:00:00	12	torchiarolo	15.47	1	87.87	1	0.2	1	4.61	1	183.86	1	179.23	1	1008.18	1	40.488146	18.053571
1311	2024-02-24 14:00:00	12	torchiarolo	15.21	1	88.77	1	2.2	1	4.32	1	186.51	1	120.42	1	1007.84	1	40.488146	18.053571
1312	2024-02-24 15:00:00	12	torchiarolo	15.39	1	90.35	1	0.0	1	4.23	1	178.37	1	129.59	1	1007.69	1	40.488146	18.053571
1313	2024-02-24 16:00:00	12	torchiarolo	15.69	1	86.82	1	0.0	1	3.92	1	174.39	1	66.25	1	1007.56	1	40.488146	18.053571
1314	2024-02-24 17:00:00	12	torchiarolo	15.76	1	85.26	1	0.0	1	3.9	1	177.09	1	35.44	1	1007.32	1	40.488146	18.053571
1315	2024-02-24 18:00:00	12	torchiarolo	15.6	1	85.16	1	0.0	1	3.91	1	173.56	1	16.44	1	1007.51	1	40.488146	18.053571
1316	2024-02-24 19:00:00	12	torchiarolo	15.38	1	84.75	1	0.0	1	4.14	1	166.87	1	0.0	1	1007.68	1	40.488146	18.053571
1317	2024-02-24 20:00:00	12	torchiarolo	15.47	1	84.2	1	0.0	1	3.99	1	173.63	1	0.0	1	1007.8	1	40.488146	18.053571
1318	2024-02-24 21:00:00	12	torchiarolo	15.36	1	84.12	1	0.0	1	3.92	1	177.82	1	0.0	1	1008.28	1	40.488146	18.053571
1319	2024-02-24 22:00:00	12	torchiarolo	15.25	1	84.78	1	0.0	1	3.63	1	177.33	1	0.0	1	1008.44	1	40.488146	18.053571
1320	2024-02-24 23:00:00	12	torchiarolo	15.26	1	84.77	1	0.0	1	3.2	1	182.8	1	0.0	1	1008.77	1	40.488146	18.053571
1321	2024-02-25 00:00:00	12	torchiarolo	15.13	1	84.68	1	0.0	1	2.61	1	169.38	1	0.0	1	1008.69	1	40.488146	18.053571
1322	2024-02-25 01:00:00	12	torchiarolo	14.85	1	84.61	1	0.0	1	2.55	1	165.35	1	0.0	1	1008.27	1	40.488146	18.053571
1323	2024-02-25 02:00:00	12	torchiarolo	14.24	1	87.54	1	0.0	1	2.48	1	157.01	1	0.0	1	1007.82	1	40.488146	18.053571
1324	2024-02-25 03:00:00	12	torchiarolo	14.21	1	88.51	1	0.0	1	2.96	1	161.21	1	0.0	1	1007.32	1	40.488146	18.053571
1325	2024-02-25 04:00:00	12	torchiarolo	14.25	1	88.26	1	0.0	1	2.7	1	153.43	1	0.0	1	1006.73	1	40.488146	18.053571
1326	2024-02-25 05:00:00	12	torchiarolo	14.33	1	87.2	1	0.0	1	2.88	1	158.17	1	0.0	1	1006.41	1	40.488146	18.053571
1327	2024-02-25 06:00:00	12	torchiarolo	13.96	1	88.82	1	0.0	1	2.45	1	156.14	1	0.0	1	1006.22	1	40.488146	18.053571
1328	2024-02-25 07:00:00	12	torchiarolo	13.88	1	89.16	1	0.0	1	2.75	1	164.02	1	7.1	1	1006.06	1	40.488146	18.053571
1329	2024-02-25 08:00:00	12	torchiarolo	14.72	1	86.68	1	0.0	1	3.18	1	160.89	1	78.28	1	1005.86	1	40.488146	18.053571
1330	2024-02-25 09:00:00	12	torchiarolo	16.18	1	81.15	1	0.0	1	3.04	1	150.63	1	184.61	1	1005.71	1	40.488146	18.053571
1331	2024-02-25 10:00:00	12	torchiarolo	17.41	1	76.08	1	0.0	1	3.81	1	150.74	1	173.49	1	1005.31	1	40.488146	18.053571
1332	2024-02-25 11:00:00	12	torchiarolo	16.73	1	80.57	1	0.8	1	3.58	1	138.77	1	120.45	1	1004.41	1	40.488146	18.053571
1333	2024-02-25 12:00:00	12	torchiarolo	15.37	1	80.51	1	0.0	1	4.84	1	140.73	1	56.12	1	1003.78	1	40.488146	18.053571
1334	2024-02-25 13:00:00	12	torchiarolo	15.87	1	73.33	1	0.2	1	4.85	1	132.02	1	95.91	1	1003.16	1	40.488146	18.053571
1335	2024-02-25 14:00:00	12	torchiarolo	15.56	1	75.62	1	0.0	1	4.04	1	131.75	1	99.06	1	1002.4	1	40.488146	18.053571
1336	2024-02-25 15:00:00	12	torchiarolo	16.16	1	71.23	1	0.0	1	4.46	1	130.5	1	176.9	1	1001.47	1	40.488146	18.053571
1337	2024-02-25 16:00:00	12	torchiarolo	15.74	1	71.57	1	0.0	1	4.18	1	119.29	1	74.71	1	1001.21	1	40.488146	18.053571
1338	2024-02-25 17:00:00	12	torchiarolo	15.56	1	72.46	1	1.0	1	2.59	1	123.47	1	21.77	1	1001.23	1	40.488146	18.053571
1339	2024-02-25 18:00:00	12	torchiarolo	13.82	1	87.78	1	2.2	1	0.62	1	110.99	1	0.0	5	1001.63	1	40.488146	18.053571
1340	2024-02-25 19:00:00	12	torchiarolo	12.8	1	92.6	1	0.6	1	2.26	1	337.2	1	0.0	1	1001.76	1	40.488146	18.053571
1341	2024-02-25 20:00:00	12	torchiarolo	12.07	1	95.74	1	0.0	1	2.84	1	349.85	1	0.0	1	1001.86	1	40.488146	18.053571
1342	2024-02-25 21:00:00	12	torchiarolo	12.13	1	96.9	1	0.6	1	2.82	1	355.89	1	0.0	1	1002.05	1	40.488146	18.053571
1343	2024-02-25 22:00:00	12	torchiarolo	12.39	1	97.47	1	0.0	1	2.32	1	6.8	1	0.0	1	1002.09	1	40.488146	18.053571
1344	2024-02-25 23:00:00	12	torchiarolo	12.3	1	97.63	1	0.4	1	1.47	1	356.21	1	0.0	1	1002.18	1	40.488146	18.053571
1345	2024-02-26 00:00:00	12	torchiarolo	12.4	1	97.92	1	0.0	1	1.61	1	338.32	1	0.0	1	1001.86	1	40.488146	18.053571
1346	2024-02-26 01:00:00	12	torchiarolo	12.57	1	98.06	1	0.0	1	1.75	1	340.33	1	0.0	1	1001.86	1	40.488146	18.053571
1347	2024-02-26 02:00:00	12	torchiarolo	12.62	1	97.88	1	0.0	1	2.64	1	336.4	1	0.0	1	1001.79	1	40.488146	18.053571
1348	2024-02-26 03:00:00	12	torchiarolo	12.18	1	97.46	1	0.0	1	3.0	1	331.36	1	0.0	1	1001.38	1	40.488146	18.053571
1349	2024-02-26 04:00:00	12	torchiarolo	11.59	1	97.55	1	0.0	1	2.33	1	327.04	1	0.0	1	1001.12	1	40.488146	18.053571
1350	2024-02-26 05:00:00	12	torchiarolo	11.48	1	98.03	1	0.0	1	2.51	1	328.37	1	0.0	1	1001.43	1	40.488146	18.053571
1351	2024-02-26 06:00:00	12	torchiarolo	11.69	1	98.53	1	0.0	1	2.7	1	330.0	1	0.0	1	1001.47	1	40.488146	18.053571
1352	2024-02-26 07:00:00	12	torchiarolo	11.56	1	98.68	1	0.0	1	2.12	1	323.91	1	0.0	5	1001.59	1	40.488146	18.053571
1353	2024-02-26 08:00:00	12	torchiarolo	11.62	1	98.9	1	0.0	1	2.45	1	330.27	1	68.53	1	1001.97	1	40.488146	18.053571
1354	2024-02-26 09:00:00	12	torchiarolo	13.56	1	96.16	1	0.0	1	3.09	1	330.04	1	211.02	1	1002.4	1	40.488146	18.053571
1355	2024-02-26 10:00:00	12	torchiarolo	14.82	1	87.05	1	0.0	1	3.93	1	333.74	1	334.71	1	1002.89	1	40.488146	18.053571
1356	2024-02-26 11:00:00	12	torchiarolo	16.64	1	75.99	1	0.0	1	4.26	1	339.59	1	474.21	1	1002.92	1	40.488146	18.053571
1357	2024-02-26 12:00:00	12	torchiarolo	17.22	1	72.07	1	0.0	1	4.09	1	343.59	1	587.22	1	1002.93	1	40.488146	18.053571
1358	2024-02-26 13:00:00	12	torchiarolo	18.61	1	66.27	1	0.0	1	4.18	1	336.71	1	644.37	1	1002.66	1	40.488146	18.053571
1359	2024-02-26 14:00:00	12	torchiarolo	19.51	1	61.38	1	0.0	1	3.66	1	337.59	1	455.02	1	1002.66	1	40.488146	18.053571
1360	2024-02-26 15:00:00	12	torchiarolo	20.07	1	57.57	1	0.0	1	3.18	1	349.55	1	439.22	1	1002.57	1	40.488146	18.053571
1361	2024-02-26 16:00:00	12	torchiarolo	19.47	1	58.39	1	0.0	1	2.47	1	339.85	1	301.07	1	1002.56	1	40.488146	18.053571
1362	2024-02-26 17:00:00	12	torchiarolo	16.71	1	69.99	1	0.0	1	1.33	1	11.34	1	110.43	1	1002.56	1	40.488146	18.053571
1363	2024-02-26 18:00:00	12	torchiarolo	14.07	1	84.61	1	0.0	1	0.23	1	20.76	1	6.82	1	1002.66	1	40.488146	18.053571
1364	2024-02-26 19:00:00	12	torchiarolo	12.77	1	90.14	1	0.0	1	0.29	1	269.64	1	0.0	1	1003.4	1	40.488146	18.053571
1365	2024-02-26 20:00:00	12	torchiarolo	12.2	1	92.0	1	0.0	1	null	3	266.44	1	0.0	1	1003.83	1	40.488146	18.053571
1366	2024-02-26 21:00:00	12	torchiarolo	11.62	1	93.15	1	0.0	1	null	3	255.97	1	0.0	1	1004.26	1	40.488146	18.053571
1367	2024-02-26 22:00:00	12	torchiarolo	10.87	1	93.53	1	0.0	1	null	3	232.92	1	0.0	1	1004.77	1	40.488146	18.053571
1368	2024-02-26 23:00:00	12	torchiarolo	10.78	1	95.17	1	0.0	1	null	3	223.69	1	0.0	1	1005.13	1	40.488146	18.053571
1369	2024-02-27 00:00:00	12	torchiarolo	10.88	1	95.86	1	0.0	1	0.81	1	191.62	1	0.0	1	1005.13	1	40.488146	18.053571
1370	2024-02-27 01:00:00	12	torchiarolo	10.56	1	95.78	1	0.0	1	1.25	1	192.5	1	0.0	1	1005.37	1	40.488146	18.053571
1371	2024-02-27 02:00:00	12	torchiarolo	10.18	1	95.71	1	0.0	1	0.43	1	190.43	1	0.0	1	1005.49	1	40.488146	18.053571
1372	2024-02-27 03:00:00	12	torchiarolo	10.35	1	95.45	1	0.0	1	1.09	1	172.54	1	0.0	1	1005.7	1	40.488146	18.053571
1373	2024-02-27 04:00:00	12	torchiarolo	10.72	1	96.4	1	0.0	1	1.22	1	162.19	1	0.0	1	1005.79	1	40.488146	18.053571
1374	2024-02-27 05:00:00	12	torchiarolo	10.52	1	96.18	1	0.0	1	1.47	1	132.04	1	0.0	1	1005.69	1	40.488146	18.053571
1375	2024-02-27 06:00:00	12	torchiarolo	10.13	1	95.39	1	0.0	1	1.31	1	180.99	1	0.0	1	1006.21	1	40.488146	18.053571
1376	2024-02-27 07:00:00	12	torchiarolo	10.37	1	95.01	1	0.0	1	1.06	1	152.44	1	6.97	1	1006.32	1	40.488146	18.053571
1377	2024-02-27 08:00:00	12	torchiarolo	12.26	1	94.52	1	0.0	1	1.4	1	154.44	1	110.02	1	1006.79	1	40.488146	18.053571
1378	2024-02-27 09:00:00	12	torchiarolo	15.13	1	81.37	1	0.2	1	2.19	1	143.3	1	250.1	1	1006.99	1	40.488146	18.053571
1379	2024-02-27 10:00:00	12	torchiarolo	16.83	1	72.42	1	0.0	1	3.59	1	152.14	1	377.96	1	1007.32	1	40.488146	18.053571
1380	2024-02-27 11:00:00	12	torchiarolo	18.58	1	55.17	1	0.0	1	4.45	1	171.57	1	620.62	1	1007.65	1	40.488146	18.053571
1381	2024-02-27 12:00:00	12	torchiarolo	19.45	1	44.76	1	0.0	1	4.56	1	182.65	1	678.59	1	1007.91	1	40.488146	18.053571
1382	2024-02-27 13:00:00	12	torchiarolo	20.21	1	46.12	1	0.0	1	4.6	1	178.55	1	524.81	1	1007.72	1	40.488146	18.053571
1383	2024-02-27 14:00:00	12	torchiarolo	19.17	1	51.75	1	0.0	1	4.6	1	172.71	1	342.69	1	1007.63	1	40.488146	18.053571
1384	2024-02-27 15:00:00	12	torchiarolo	18.82	1	53.12	1	0.0	1	4.43	1	174.7	1	295.5	1	1007.41	1	40.488146	18.053571
1385	2024-02-27 16:00:00	12	torchiarolo	17.72	1	61.03	1	0.0	1	4.19	1	172.87	1	175.92	1	1007.11	1	40.488146	18.053571
1386	2024-02-27 17:00:00	12	torchiarolo	16.48	1	68.11	1	0.0	1	3.92	1	148.6	1	69.74	1	1006.96	1	40.488146	18.053571
1387	2024-02-27 18:00:00	12	torchiarolo	15.47	1	74.95	1	0.0	1	3.04	1	152.63	1	6.76	1	1007.29	1	40.488146	18.053571
1388	2024-02-27 19:00:00	12	torchiarolo	14.93	1	78.78	1	0.0	1	3.02	1	151.52	1	0.0	1	1007.72	1	40.488146	18.053571
1389	2024-02-27 20:00:00	12	torchiarolo	14.73	1	79.78	1	0.0	1	2.81	1	147.06	1	0.0	1	1008.06	1	40.488146	18.053571
1390	2024-02-27 21:00:00	12	torchiarolo	14.62	1	78.6	1	0.0	1	3.12	1	153.03	1	0.0	1	1008.33	1	40.488146	18.053571
1391	2024-02-27 22:00:00	12	torchiarolo	14.55	1	78.86	1	0.0	1	3.02	1	159.87	1	0.0	1	1008.98	1	40.488146	18.053571
1392	2024-02-27 23:00:00	12	torchiarolo	14.38	1	81.24	1	0.0	1	2.7	1	155.42	1	0.0	1	1009.16	1	40.488146	18.053571
1393	2024-02-28 00:00:00	12	torchiarolo	14.06	1	83.96	1	0.0	1	2.79	1	153.08	1	0.0	1	1009.48	1	40.488146	18.053571
1394	2024-02-28 01:00:00	12	torchiarolo	13.62	1	88.1	1	0.0	1	2.78	1	147.66	1	0.0	1	1009.52	1	40.488146	18.053571
1395	2024-02-28 02:00:00	12	torchiarolo	13.42	1	89.82	1	0.0	1	2.66	1	138.03	1	0.0	1	1009.52	1	40.488146	18.053571
1396	2024-02-28 03:00:00	12	torchiarolo	13.19	1	90.96	1	0.0	1	1.92	1	156.61	1	0.0	1	1009.33	1	40.488146	18.053571
1397	2024-02-28 04:00:00	12	torchiarolo	12.91	1	91.53	1	0.0	1	1.57	1	186.85	1	0.0	1	1009.55	1	40.488146	18.053571
1398	2024-02-28 05:00:00	12	torchiarolo	12.57	1	92.98	1	0.0	1	1.03	1	161.47	1	0.0	1	1009.58	1	40.488146	18.053571
1399	2024-02-28 06:00:00	12	torchiarolo	12.56	1	94.12	1	0.0	1	1.07	1	150.85	1	0.0	1	1009.53	1	40.488146	18.053571
1400	2024-02-28 07:00:00	12	torchiarolo	12.59	1	94.44	1	0.0	1	0.68	1	137.8	1	0.0	5	1009.43	1	40.488146	18.053571
1401	2024-02-28 08:00:00	12	torchiarolo	13.68	1	91.72	1	0.0	1	2.61	1	138.05	1	65.99	1	1009.52	1	40.488146	18.053571
1402	2024-02-28 09:00:00	12	torchiarolo	17.38	1	77.13	1	0.0	1	3.13	1	136.63	1	353.91	1	1009.52	1	40.488146	18.053571
1403	2024-02-28 10:00:00	12	torchiarolo	18.99	1	65.32	1	0.0	1	3.57	1	139.58	1	377.39	1	1009.8	1	40.488146	18.053571
1404	2024-02-28 11:00:00	12	torchiarolo	19.47	1	60.34	1	0.0	1	3.9	1	146.53	1	433.44	1	1009.91	1	40.488146	18.053571
1405	2024-02-28 12:00:00	12	torchiarolo	19.41	1	59.23	1	0.0	1	4.02	1	137.63	1	355.11	1	1009.89	1	40.488146	18.053571
1406	2024-02-28 13:00:00	12	torchiarolo	19.41	1	57.52	1	0.0	1	4.19	1	141.87	1	335.39	1	1009.36	1	40.488146	18.053571
1407	2024-02-28 14:00:00	12	torchiarolo	19.38	1	56.59	1	0.0	1	4.85	1	136.75	1	353.38	1	1008.71	1	40.488146	18.053571
1408	2024-02-28 15:00:00	12	torchiarolo	20.09	1	52.91	1	0.0	1	5.05	1	146.67	1	377.23	1	1008.33	1	40.488146	18.053571
1409	2024-02-28 16:00:00	12	torchiarolo	19.65	1	54.6	1	0.0	1	4.59	1	146.83	1	219.14	1	1008.07	1	40.488146	18.053571
1410	2024-02-28 17:00:00	12	torchiarolo	18.35	1	57.5	1	0.0	1	4.24	1	161.57	1	55.75	1	1007.72	1	40.488146	18.053571
1411	2024-02-28 18:00:00	12	torchiarolo	17.71	1	60.45	1	0.0	1	3.92	1	160.41	1	11.72	1	1007.36	1	40.488146	18.053571
1412	2024-02-28 19:00:00	12	torchiarolo	16.87	1	64.91	1	0.0	1	3.01	1	148.52	1	0.0	1	1007.67	1	40.488146	18.053571
1413	2024-02-28 20:00:00	12	torchiarolo	15.84	1	73.55	1	0.0	1	1.74	1	129.67	1	0.0	1	1008.51	1	40.488146	18.053571
1414	2024-02-28 21:00:00	12	torchiarolo	14.96	1	82.01	1	0.0	1	0.83	1	108.74	1	0.0	1	1008.91	1	40.488146	18.053571
1415	2024-02-28 22:00:00	12	torchiarolo	14.34	1	83.94	1	0.0	1	null	3	47.21	1	0.0	1	1009.16	1	40.488146	18.053571
1416	2024-02-28 23:00:00	12	torchiarolo	14.52	1	85.85	1	0.0	1	0.75	1	127.44	1	0.0	1	1009.07	1	40.488146	18.053571
1417	2024-02-29 00:00:00	12	torchiarolo	14.81	1	87.27	1	0.0	1	1.0	1	104.16	1	0.0	1	1008.93	1	40.488146	18.053571
1418	2024-02-29 01:00:00	12	torchiarolo	14.11	1	90.96	1	0.0	1	1.04	1	102.51	1	0.0	1	1008.68	1	40.488146	18.053571
1419	2024-02-29 02:00:00	12	torchiarolo	14.13	1	90.5	1	0.0	1	1.97	1	94.84	1	0.0	1	1008.31	1	40.488146	18.053571
1420	2024-02-29 03:00:00	12	torchiarolo	14.82	1	83.02	1	0.0	1	2.31	1	94.82	1	0.0	1	1007.73	1	40.488146	18.053571
1421	2024-02-29 04:00:00	12	torchiarolo	15.07	1	81.12	1	0.0	1	1.8	1	102.53	1	0.0	1	1007.09	1	40.488146	18.053571
1422	2024-02-29 05:00:00	12	torchiarolo	14.35	1	82.89	1	0.0	1	1.69	1	102.14	1	0.0	1	1006.63	1	40.488146	18.053571
1423	2024-02-29 06:00:00	12	torchiarolo	13.94	1	84.26	1	0.0	1	1.35	1	95.53	1	0.0	1	1006.11	1	40.488146	18.053571
1424	2024-02-29 07:00:00	12	torchiarolo	14.03	1	87.17	1	0.0	1	1.81	1	99.59	1	5.61	1	1005.59	1	40.488146	18.053571
1425	2024-02-29 08:00:00	12	torchiarolo	14.75	1	82.37	1	0.0	1	1.35	1	104.67	1	59.28	1	1005.33	1	40.488146	18.053571
1426	2024-02-29 09:00:00	12	torchiarolo	16.48	1	74.59	1	0.0	1	1.56	1	114.2	1	169.85	1	1005.49	1	40.488146	18.053571
1427	2024-02-29 10:00:00	12	torchiarolo	18.59	1	63.11	1	0.0	1	3.3	1	134.56	1	236.13	1	1005.82	1	40.488146	18.053571
1428	2024-02-29 11:00:00	12	torchiarolo	19.66	1	55.03	1	0.0	1	3.89	1	138.77	1	221.84	1	1005.86	1	40.488146	18.053571
1429	2024-02-29 12:00:00	12	torchiarolo	20.52	1	48.75	1	0.0	1	5.01	1	145.89	1	287.19	1	1005.61	1	40.488146	18.053571
1430	2024-02-29 13:00:00	12	torchiarolo	19.61	1	51.31	1	0.0	1	5.33	1	141.91	1	107.65	1	1005.13	1	40.488146	18.053571
1431	2024-02-29 14:00:00	12	torchiarolo	18.86	1	55.39	1	0.0	1	5.17	1	139.32	1	86.48	1	1004.53	1	40.488146	18.053571
1432	2024-02-29 15:00:00	12	torchiarolo	16.62	1	73.97	1	0.8	1	4.86	1	145.33	1	32.83	1	1004.48	1	40.488146	18.053571
1433	2024-02-29 16:00:00	12	torchiarolo	16.51	1	74.19	1	0.0	1	4.73	1	140.23	1	51.83	1	1003.91	1	40.488146	18.053571
1434	2024-02-29 17:00:00	12	torchiarolo	15.31	1	81.92	1	1.0	1	4.75	1	139.46	1	12.87	1	1003.24	1	40.488146	18.053571
1435	2024-02-29 18:00:00	12	torchiarolo	13.88	1	89.3	1	16.2	1	3.3	1	173.06	1	0.0	5	1003.31	1	40.488146	18.053571
1436	2024-02-29 19:00:00	12	torchiarolo	12.17	1	95.05	1	6.6	1	1.71	1	197.01	1	0.0	5	1003.11	1	40.488146	18.053571
1437	2024-02-29 20:00:00	12	torchiarolo	11.88	1	97.14	1	1.4	1	1.67	1	196.78	1	0.0	1	1003.03	1	40.488146	18.053571
1438	2024-02-29 21:00:00	12	torchiarolo	11.67	1	97.64	1	4.0	1	1.91	1	174.63	1	0.0	1	1003.34	1	40.488146	18.053571
1439	2024-02-29 22:00:00	12	torchiarolo	11.11	1	97.32	1	0.6	1	2.81	1	88.13	1	0.0	1	1002.41	1	40.488146	18.053571
1440	2024-02-29 23:00:00	12	torchiarolo	10.92	1	96.49	1	0.0	1	1.87	1	140.15	1	0.0	1	1002.37	1	40.488146	18.053571
1441	2024-03-01 00:00:00	12	torchiarolo	10.81	1	96.91	1	0.0	1	2.09	1	132.57	1	0.0	1	1002.57	1	40.488146	18.053571
1442	2024-03-01 01:00:00	12	torchiarolo	11.2	1	96.03	1	0.0	1	3.0	1	138.26	1	0.0	1	1002.35	1	40.488146	18.053571
1443	2024-03-01 02:00:00	12	torchiarolo	11.19	1	96.62	1	0.0	1	1.9	1	149.97	1	0.0	1	1002.16	1	40.488146	18.053571
1444	2024-03-01 03:00:00	12	torchiarolo	11.25	1	96.81	1	0.0	1	2.29	1	151.39	1	0.0	1	1001.91	1	40.488146	18.053571
1445	2024-03-01 04:00:00	12	torchiarolo	11.33	1	96.41	1	0.0	1	2.1	1	155.47	1	0.0	1	1001.98	1	40.488146	18.053571
1446	2024-03-01 05:00:00	12	torchiarolo	11.04	1	95.71	1	0.0	1	2.12	1	156.33	1	0.0	1	1002.33	1	40.488146	18.053571
1447	2024-03-01 06:00:00	12	torchiarolo	10.43	1	96.07	1	0.0	1	1.39	1	151.4	1	0.0	1	1002.44	1	40.488146	18.053571
1448	2024-03-01 07:00:00	12	torchiarolo	9.87	1	96.67	1	0.0	1	0.83	1	134.22	1	5.37	1	1002.91	1	40.488146	18.053571
1449	2024-03-01 08:00:00	12	torchiarolo	11.56	1	95.18	1	0.0	1	1.73	1	160.61	1	121.87	1	1002.68	1	40.488146	18.053571
1450	2024-03-01 09:00:00	12	torchiarolo	15.29	1	77.24	1	0.0	1	2.72	1	170.08	1	305.1	1	1003.13	1	40.488146	18.053571
1451	2024-03-01 10:00:00	12	torchiarolo	17.53	1	67.23	1	0.0	1	2.76	1	179.82	1	461.13	1	1003.3	1	40.488146	18.053571
1452	2024-03-01 11:00:00	12	torchiarolo	17.77	1	64.02	1	0.0	1	2.43	1	176.02	1	464.19	1	1003.32	1	40.488146	18.053571
1453	2024-03-01 12:00:00	12	torchiarolo	18.88	1	56.27	1	0.0	1	2.73	1	201.75	1	540.64	1	1003.31	1	40.488146	18.053571
1454	2024-03-01 13:00:00	12	torchiarolo	18.94	1	54.85	1	0.0	1	2.9	1	215.57	1	476.69	1	1003.06	1	40.488146	18.053571
1455	2024-03-01 14:00:00	12	torchiarolo	20.39	1	49.77	1	0.0	1	3.58	1	222.38	1	546.76	1	1002.93	1	40.488146	18.053571
1456	2024-03-01 15:00:00	12	torchiarolo	20.5	1	49.72	1	0.0	1	3.56	1	218.11	1	565.34	1	1002.97	1	40.488146	18.053571
1457	2024-03-01 16:00:00	12	torchiarolo	19.94	1	49.08	1	0.0	1	2.81	1	207.76	1	352.47	1	1003.18	1	40.488146	18.053571
1458	2024-03-01 17:00:00	12	torchiarolo	16.88	1	59.96	1	0.0	1	2.22	1	219.13	1	106.83	1	1003.26	1	40.488146	18.053571
1459	2024-03-01 18:00:00	12	torchiarolo	15.08	1	70.4	1	0.0	1	1.58	1	215.29	1	16.64	1	1003.3	1	40.488146	18.053571
1460	2024-03-01 19:00:00	12	torchiarolo	13.81	1	76.95	1	0.0	1	0.45	1	197.79	1	0.0	1	1003.58	1	40.488146	18.053571
1461	2024-03-01 20:00:00	12	torchiarolo	13.08	1	81.84	1	0.0	1	0.41	1	172.16	1	0.0	1	1003.72	1	40.488146	18.053571
1462	2024-03-01 21:00:00	12	torchiarolo	12.53	1	85.25	1	0.0	1	0.92	1	173.96	1	0.0	1	1004.03	1	40.488146	18.053571
1463	2024-03-01 22:00:00	12	torchiarolo	12.0	1	87.03	1	0.0	1	0.31	1	143.56	1	0.0	1	1004.03	1	40.488146	18.053571
1464	2024-03-01 23:00:00	12	torchiarolo	11.28	1	89.24	1	0.0	1	0.52	1	133.95	1	0.0	1	1004.2	1	40.488146	18.053571
1465	2024-03-02 00:00:00	12	torchiarolo	11.19	1	89.77	1	0.0	1	0.55	1	119.83	1	0.0	1	1004.04	1	40.488146	18.053571
1466	2024-03-02 01:00:00	12	torchiarolo	11.26	1	90.68	1	0.0	1	0.12	1	109.15	1	0.0	1	1004.03	1	40.488146	18.053571
1467	2024-03-02 02:00:00	12	torchiarolo	11.17	1	92.53	1	0.0	1	0.51	1	114.08	1	0.0	1	1004.03	1	40.488146	18.053571
1468	2024-03-02 03:00:00	12	torchiarolo	11.47	1	92.98	1	0.0	1	0.74	1	135.81	1	0.0	1	1003.92	1	40.488146	18.053571
1469	2024-03-02 04:00:00	12	torchiarolo	11.43	1	92.98	1	0.0	1	0.15	1	154.15	1	0.0	1	1003.66	1	40.488146	18.053571
1470	2024-03-02 05:00:00	12	torchiarolo	11.11	1	93.71	1	0.0	1	0.67	1	154.69	1	0.0	1	1003.79	1	40.488146	18.053571
1471	2024-03-02 06:00:00	12	torchiarolo	10.71	1	94.7	1	0.0	1	1.17	1	165.41	1	0.0	1	1004.08	1	40.488146	18.053571
1472	2024-03-02 07:00:00	12	torchiarolo	10.63	1	95.27	1	0.0	1	1.56	1	179.26	1	11.2	1	1004.56	1	40.488146	18.053571
1473	2024-03-02 08:00:00	12	torchiarolo	13.06	1	88.66	1	0.0	1	0.97	1	181.3	1	145.07	1	1005.29	1	40.488146	18.053571
1474	2024-03-02 09:00:00	12	torchiarolo	17.22	1	71.02	1	0.0	1	1.7	1	193.06	1	342.08	1	1005.93	1	40.488146	18.053571
1475	2024-03-02 10:00:00	12	torchiarolo	18.73	1	62.41	1	0.0	1	2.57	1	217.46	1	518.66	1	1006.54	1	40.488146	18.053571
1476	2024-03-02 11:00:00	12	torchiarolo	18.85	1	53.18	1	0.0	1	2.72	1	212.54	1	631.98	1	1006.97	1	40.488146	18.053571
1477	2024-03-02 12:00:00	12	torchiarolo	19.08	1	49.73	1	0.0	1	2.93	1	228.45	1	695.08	1	1007.32	1	40.488146	18.053571
1478	2024-03-02 13:00:00	12	torchiarolo	20.75	1	42.06	1	0.0	1	2.57	1	217.76	1	699.09	1	1007.02	1	40.488146	18.053571
1479	2024-03-02 14:00:00	12	torchiarolo	21.42	1	38.5	1	0.0	1	2.14	1	219.88	1	498.84	1	1006.93	1	40.488146	18.053571
1480	2024-03-02 15:00:00	12	torchiarolo	21.54	1	37.82	1	0.0	1	2.41	1	214.98	1	517.91	1	1007.1	1	40.488146	18.053571
1481	2024-03-02 16:00:00	12	torchiarolo	20.92	1	37.69	1	0.0	1	1.9	1	210.65	1	351.42	1	1006.97	1	40.488146	18.053571
1482	2024-03-02 17:00:00	12	torchiarolo	18.13	1	45.99	1	0.0	1	1.95	1	220.43	1	157.52	1	1006.96	1	40.488146	18.053571
1483	2024-03-02 18:00:00	12	torchiarolo	16.09	1	54.08	1	0.0	1	1.33	1	222.34	1	14.77	1	1007.26	1	40.488146	18.053571
1484	2024-03-02 19:00:00	12	torchiarolo	14.22	1	66.69	1	0.0	1	1.13	1	223.98	1	0.0	1	1007.68	1	40.488146	18.053571
1485	2024-03-02 20:00:00	12	torchiarolo	13.2	1	75.82	1	0.0	1	0.66	1	199.0	1	0.0	1	1007.99	1	40.488146	18.053571
1486	2024-03-02 21:00:00	12	torchiarolo	12.6	1	82.27	1	0.0	1	1.14	1	190.96	1	0.0	1	1008.15	1	40.488146	18.053571
1487	2024-03-02 22:00:00	12	torchiarolo	11.84	1	84.57	1	0.0	1	1.02	1	184.88	1	0.0	1	1008.42	1	40.488146	18.053571
1488	2024-03-02 23:00:00	12	torchiarolo	11.56	1	86.94	1	0.0	1	1.4	1	182.77	1	0.0	1	1008.42	1	40.488146	18.053571
1489	2024-03-03 00:00:00	12	torchiarolo	11.35	1	90.07	1	0.0	1	1.38	1	186.95	1	0.0	1	1008.43	1	40.488146	18.053571
1490	2024-03-03 01:00:00	12	torchiarolo	11.78	1	89.96	1	0.0	1	1.26	1	186.51	1	0.0	1	1008.68	1	40.488146	18.053571
1491	2024-03-03 02:00:00	12	torchiarolo	11.92	1	89.21	1	0.0	1	0.37	1	190.95	1	0.0	1	1008.47	1	40.488146	18.053571
1492	2024-03-03 03:00:00	12	torchiarolo	11.45	1	88.07	1	0.0	1	0.89	1	207.39	1	0.0	1	1008.19	1	40.488146	18.053571
1493	2024-03-03 04:00:00	12	torchiarolo	10.78	1	86.34	1	0.0	1	1.18	1	225.17	1	0.0	1	1007.89	1	40.488146	18.053571
1494	2024-03-03 05:00:00	12	torchiarolo	9.96	1	85.82	1	0.0	1	1.26	1	232.27	1	0.0	1	1008.06	1	40.488146	18.053571
1495	2024-03-03 06:00:00	12	torchiarolo	9.41	1	85.61	1	0.0	1	0.97	1	244.51	1	0.0	1	1008.06	1	40.488146	18.053571
1496	2024-03-03 07:00:00	12	torchiarolo	8.98	1	88.43	1	0.0	1	1.22	1	245.92	1	13.59	1	1008.06	1	40.488146	18.053571
1497	2024-03-03 08:00:00	12	torchiarolo	11.9	1	83.22	1	0.0	1	0.83	1	227.54	1	159.03	1	1008.1	1	40.488146	18.053571
1498	2024-03-03 09:00:00	12	torchiarolo	15.6	1	72.7	1	0.0	1	0.96	1	221.21	1	353.33	1	1008.44	1	40.488146	18.053571
1499	2024-03-03 10:00:00	12	torchiarolo	19.24	1	53.05	1	0.0	1	0.97	1	203.42	1	513.01	1	1008.78	1	40.488146	18.053571
1500	2024-03-03 11:00:00	12	torchiarolo	19.82	1	42.17	1	0.0	1	1.45	1	199.92	1	613.11	1	1008.79	1	40.488146	18.053571
1501	2024-03-03 12:00:00	12	torchiarolo	20.18	1	39.77	1	0.0	1	2.09	1	191.37	1	686.83	1	1008.54	1	40.488146	18.053571
1502	2024-03-03 13:00:00	12	torchiarolo	20.9	1	42.08	1	0.0	1	2.51	1	179.22	1	592.68	1	1007.99	1	40.488146	18.053571
1503	2024-03-03 14:00:00	12	torchiarolo	20.87	1	44.19	1	0.0	1	2.48	1	180.24	1	402.0	1	1007.21	1	40.488146	18.053571
1504	2024-03-03 15:00:00	12	torchiarolo	21.33	1	47.3	1	0.0	1	2.78	1	177.87	1	490.32	1	1006.64	1	40.488146	18.053571
1505	2024-03-03 16:00:00	12	torchiarolo	21.15	1	44.84	1	0.0	1	3.32	1	179.37	1	393.52	1	1006.31	1	40.488146	18.053571
1506	2024-03-03 17:00:00	12	torchiarolo	17.86	1	50.82	1	0.0	1	3.16	1	186.87	1	154.35	1	1006.07	1	40.488146	18.053571
1507	2024-03-03 18:00:00	12	torchiarolo	15.66	1	57.46	1	0.0	1	3.1	1	186.6	1	14.88	1	1005.86	1	40.488146	18.053571
1508	2024-03-03 19:00:00	12	torchiarolo	13.98	1	71.81	1	0.0	1	1.74	1	172.14	1	0.0	1	1006.03	1	40.488146	18.053571
1509	2024-03-03 20:00:00	12	torchiarolo	12.82	1	80.29	1	0.0	1	1.67	1	160.13	1	0.0	1	1006.23	1	40.488146	18.053571
1510	2024-03-03 21:00:00	12	torchiarolo	12.3	1	82.61	1	0.0	1	2.15	1	167.5	1	0.0	1	1005.89	1	40.488146	18.053571
1511	2024-03-03 22:00:00	12	torchiarolo	12.04	1	82.6	1	0.0	1	1.85	1	149.94	1	0.0	1	1005.86	1	40.488146	18.053571
1512	2024-03-03 23:00:00	12	torchiarolo	12.29	1	82.15	1	0.0	1	2.38	1	154.45	1	0.0	1	1005.56	1	40.488146	18.053571
1513	2024-03-04 00:00:00	12	torchiarolo	12.51	1	82.38	1	0.0	1	2.89	1	154.33	1	0.0	1	1005.18	1	40.488146	18.053571
1514	2024-03-04 01:00:00	12	torchiarolo	13.15	1	82.45	1	0.0	1	3.13	1	152.75	1	0.0	1	1004.79	1	40.488146	18.053571
1515	2024-03-04 02:00:00	12	torchiarolo	13.67	1	81.39	1	0.0	1	3.22	1	159.68	1	0.0	1	1004.57	1	40.488146	18.053571
1516	2024-03-04 03:00:00	12	torchiarolo	13.94	1	80.28	1	0.0	1	3.7	1	160.73	1	0.0	1	1003.87	1	40.488146	18.053571
1517	2024-03-04 04:00:00	12	torchiarolo	14.05	1	78.43	1	0.0	1	3.5	1	147.7	1	0.0	1	1003.33	1	40.488146	18.053571
1518	2024-03-04 05:00:00	12	torchiarolo	14.04	1	79.44	1	0.0	1	3.61	1	145.84	1	0.0	1	1003.17	1	40.488146	18.053571
1519	2024-03-04 06:00:00	12	torchiarolo	13.94	1	81.42	1	0.0	1	3.8	1	144.64	1	0.0	1	1002.93	1	40.488146	18.053571
1520	2024-03-04 07:00:00	12	torchiarolo	13.99	1	81.02	1	0.0	1	3.47	1	149.79	1	5.86	1	1002.88	1	40.488146	18.053571
1521	2024-03-04 08:00:00	12	torchiarolo	14.26	1	80.27	1	0.0	1	3.73	1	139.41	1	44.1	1	1002.41	1	40.488146	18.053571
1522	2024-03-04 09:00:00	12	torchiarolo	14.91	1	77.32	1	0.0	1	4.72	1	144.29	1	113.52	1	1001.6	1	40.488146	18.053571
1523	2024-03-04 10:00:00	12	torchiarolo	15.5	1	72.81	1	0.0	1	5.0	1	150.04	1	143.79	1	1000.99	1	40.488146	18.053571
1524	2024-03-04 11:00:00	12	torchiarolo	15.03	1	76.47	1	0.4	1	4.27	1	153.87	1	37.95	1	1001.29	1	40.488146	18.053571
1525	2024-03-04 12:00:00	12	torchiarolo	10.54	1	90.09	1	14.0	1	4.39	1	265.04	1	9.28	1	1001.69	1	40.488146	18.053571
1526	2024-03-04 13:00:00	12	torchiarolo	9.45	1	96.9	1	1.6	1	1.57	1	92.85	1	39.3	1	1000.45	1	40.488146	18.053571
1527	2024-03-04 14:00:00	12	torchiarolo	9.96	1	97.6	1	0.6	1	1.98	1	271.91	1	92.41	1	1000.85	1	40.488146	18.053571
1528	2024-03-04 15:00:00	12	torchiarolo	10.06	1	97.28	1	0.4	1	1.03	1	298.18	1	102.78	1	1000.85	1	40.488146	18.053571
1529	2024-03-04 16:00:00	12	torchiarolo	10.27	1	97.33	1	0.0	1	0.45	1	322.2	1	125.46	1	1000.58	1	40.488146	18.053571
1530	2024-03-04 17:00:00	12	torchiarolo	10.48	1	95.38	1	0.0	1	0.13	1	79.23	1	171.32	1	1000.26	1	40.488146	18.053571
1531	2024-03-04 18:00:00	12	torchiarolo	10.15	1	93.52	1	0.0	1	null	3	173.79	1	31.13	1	1000.61	1	40.488146	18.053571
1532	2024-03-04 19:00:00	12	torchiarolo	9.33	1	95.32	1	0.0	1	null	3	185.48	1	0.0	1	1001.08	1	40.488146	18.053571
1533	2024-03-04 20:00:00	12	torchiarolo	8.72	1	96.98	1	0.0	1	0.76	1	189.18	1	0.0	1	1001.41	1	40.488146	18.053571
1534	2024-03-04 21:00:00	12	torchiarolo	8.32	1	97.65	1	0.0	1	0.85	1	194.27	1	0.0	1	1001.22	1	40.488146	18.053571
1535	2024-03-04 22:00:00	12	torchiarolo	7.79	1	97.75	1	0.0	1	0.88	1	189.82	1	0.0	1	1001.1	1	40.488146	18.053571
1536	2024-03-04 23:00:00	12	torchiarolo	7.31	1	97.46	1	0.0	1	1.09	1	191.92	1	0.0	1	1001.27	1	40.488146	18.053571
1537	2024-03-05 00:00:00	12	torchiarolo	6.6	1	97.27	1	0.0	1	0.15	1	142.95	1	0.0	1	1001.56	1	40.488146	18.053571
1538	2024-03-05 01:00:00	12	torchiarolo	6.31	1	97.97	1	0.0	1	0.15	1	150.27	1	0.0	1	1001.61	1	40.488146	18.053571
1539	2024-03-05 02:00:00	12	torchiarolo	5.92	1	98.56	1	0.0	1	0.32	1	182.35	1	0.0	1	1002.09	1	40.488146	18.053571
1540	2024-03-05 03:00:00	12	torchiarolo	6.1	1	99.1	1	0.0	1	0.2	1	196.93	1	0.0	1	1001.94	1	40.488146	18.053571
1541	2024-03-05 04:00:00	12	torchiarolo	5.82	1	99.15	1	0.0	1	0.04	1	233.09	1	0.0	1	1001.84	1	40.488146	18.053571
1542	2024-03-05 05:00:00	12	torchiarolo	5.54	1	99.1	1	0.0	1	0.73	1	256.11	1	0.0	1	1002.22	1	40.488146	18.053571
1543	2024-03-05 06:00:00	12	torchiarolo	5.02	1	98.57	1	0.0	1	0.98	1	260.77	1	0.0	1	1002.56	1	40.488146	18.053571
1544	2024-03-05 07:00:00	12	torchiarolo	5.31	1	98.39	1	0.0	1	1.36	1	273.27	1	13.97	1	1002.6	1	40.488146	18.053571
1545	2024-03-05 08:00:00	12	torchiarolo	7.93	1	97.58	1	0.0	1	1.1	1	291.28	1	100.2	1	1003.24	1	40.488146	18.053571
1546	2024-03-05 09:00:00	12	torchiarolo	10.48	1	94.4	1	0.0	1	1.52	1	306.69	1	170.49	1	1004.33	1	40.488146	18.053571
1547	2024-03-05 10:00:00	12	torchiarolo	14.05	1	79.98	1	0.0	1	2.49	1	321.8	1	429.06	1	1005.13	1	40.488146	18.053571
1548	2024-03-05 11:00:00	12	torchiarolo	16.04	1	66.33	1	0.0	1	3.31	1	331.31	1	455.89	1	1005.92	1	40.488146	18.053571
1549	2024-03-05 12:00:00	12	torchiarolo	16.37	1	61.46	1	0.0	1	3.42	1	325.89	1	436.4	1	1006.5	1	40.488146	18.053571
1550	2024-03-05 13:00:00	12	torchiarolo	15.04	1	65.51	1	0.0	1	3.66	1	329.69	1	209.54	1	1006.84	1	40.488146	18.053571
1551	2024-03-05 14:00:00	12	torchiarolo	13.61	1	78.3	1	0.0	1	3.9	1	325.77	1	137.26	1	1007.24	1	40.488146	18.053571
1552	2024-03-05 15:00:00	12	torchiarolo	14.16	1	75.33	1	0.0	1	3.02	1	319.32	1	288.29	1	1007.33	1	40.488146	18.053571
1553	2024-03-05 16:00:00	12	torchiarolo	16.59	1	63.15	1	0.0	1	3.41	1	330.06	1	336.3	1	1007.69	1	40.488146	18.053571
1554	2024-03-05 17:00:00	12	torchiarolo	14.84	1	67.91	1	0.0	1	3.63	1	331.17	1	160.81	1	1008.06	1	40.488146	18.053571
1555	2024-03-05 18:00:00	12	torchiarolo	13.57	1	76.32	1	0.0	1	2.19	1	333.17	1	22.85	1	1008.7	1	40.488146	18.053571
1556	2024-03-05 19:00:00	12	torchiarolo	11.99	1	85.17	1	0.0	1	0.5	1	311.23	1	0.0	1	1009.38	1	40.488146	18.053571
1557	2024-03-05 20:00:00	12	torchiarolo	11.01	1	89.26	1	0.0	1	null	3	287.54	1	0.0	1	1009.59	1	40.488146	18.053571
1558	2024-03-05 21:00:00	12	torchiarolo	10.46	1	91.22	1	0.0	1	null	3	274.05	1	0.0	1	1010.04	1	40.488146	18.053571
1559	2024-03-05 22:00:00	12	torchiarolo	9.84	1	92.07	1	0.0	1	null	3	256.3	1	0.0	1	1010.22	1	40.488146	18.053571
1560	2024-03-05 23:00:00	12	torchiarolo	9.54	1	92.91	1	0.0	1	0.72	1	236.82	1	0.0	1	1010.62	1	40.488146	18.053571
1561	2024-03-06 00:00:00	12	torchiarolo	9.0	1	93.9	1	0.0	1	0.44	1	250.35	1	0.0	1	1010.95	1	40.488146	18.053571
1562	2024-03-06 01:00:00	12	torchiarolo	9.07	1	95.09	1	0.0	1	0.3	1	241.52	1	0.0	1	1010.99	1	40.488146	18.053571
1563	2024-03-06 02:00:00	12	torchiarolo	8.68	1	95.68	1	0.0	1	0.02	1	240.5	1	0.0	1	1010.99	1	40.488146	18.053571
1564	2024-03-06 03:00:00	12	torchiarolo	8.44	1	96.07	1	0.0	1	0.19	1	233.81	1	0.0	1	1011.28	1	40.488146	18.053571
1565	2024-03-06 04:00:00	12	torchiarolo	8.07	1	95.64	1	0.0	1	0.81	1	238.83	1	0.0	1	1011.28	1	40.488146	18.053571
1566	2024-03-06 05:00:00	12	torchiarolo	7.69	1	95.24	1	0.0	1	0.7	1	237.55	1	0.0	1	1011.4	1	40.488146	18.053571
1567	2024-03-06 06:00:00	12	torchiarolo	7.56	1	95.27	1	0.0	1	null	3	235.07	1	0.0	1	1011.66	1	40.488146	18.053571
1568	2024-03-06 07:00:00	12	torchiarolo	7.72	1	94.35	1	0.0	1	0.33	1	222.03	1	15.05	1	1011.72	1	40.488146	18.053571
1569	2024-03-06 08:00:00	12	torchiarolo	10.02	1	88.6	1	0.0	1	0.66	1	232.59	1	151.96	1	1012.05	1	40.488146	18.053571
1570	2024-03-06 09:00:00	12	torchiarolo	14.37	1	74.33	1	0.0	1	1.56	1	244.2	1	341.99	1	1012.54	1	40.488146	18.053571
1571	2024-03-06 10:00:00	12	torchiarolo	18.15	1	59.55	1	0.0	1	1.66	1	254.73	1	504.56	1	1013.06	1	40.488146	18.053571
1572	2024-03-06 11:00:00	12	torchiarolo	19.71	1	49.65	1	0.0	1	0.73	1	278.7	1	630.19	1	1013.19	1	40.488146	18.053571
1573	2024-03-06 12:00:00	12	torchiarolo	20.96	1	44.81	1	0.0	1	1.38	1	309.24	1	670.3	1	1013.52	1	40.488146	18.053571
1574	2024-03-06 13:00:00	12	torchiarolo	null	6	null	6	null	6	null	6	null	6	null	6	null	6	40.488146	18.053571
1575	2024-03-06 14:00:00	12	torchiarolo	null	6	null	6	null	6	null	6	null	6	null	6	null	6	40.488146	18.053571
1576	2024-03-06 15:00:00	12	torchiarolo	null	6	null	6	null	6	null	6	null	6	null	6	null	6	40.488146	18.053571
1577	2024-03-06 16:00:00	12	torchiarolo	null	6	null	6	null	6	null	6	null	6	null	6	null	6	40.488146	18.053571
1578	2024-03-06 17:00:00	12	torchiarolo	null	6	null	6	null	6	null	6	null	6	null	6	null	6	40.488146	18.053571
1579	2024-03-06 18:00:00	12	torchiarolo	null	6	null	6	null	6	null	6	null	6	null	6	null	6	40.488146	18.053571
1580	2024-03-06 19:00:00	12	torchiarolo	null	6	null	6	null	6	null	6	null	6	null	6	null	6	40.488146	18.053571
1581	2024-03-06 20:00:00	12	torchiarolo	null	6	null	6	null	6	null	6	null	6	null	6	null	6	40.488146	18.053571
1582	2024-03-06 21:00:00	12	torchiarolo	null	6	null	6	null	6	null	6	null	6	null	6	null	6	40.488146	18.053571
1583	2024-03-06 22:00:00	12	torchiarolo	null	6	null	6	null	6	null	6	null	6	null	6	null	6	40.488146	18.053571
1584	2024-03-06 23:00:00	12	torchiarolo	null	6	null	6	null	6	null	6	null	6	null	6	null	6	40.488146	18.053571
1585	2024-03-07 00:00:00	12	torchiarolo	null	6	null	6	null	6	null	6	null	6	null	6	null	6	40.488146	18.053571
1586	2024-03-07 01:00:00	12	torchiarolo	null	6	null	6	null	6	null	6	null	6	null	6	null	6	40.488146	18.053571
1587	2024-03-07 02:00:00	12	torchiarolo	null	6	null	6	null	6	null	6	null	6	null	6	null	6	40.488146	18.053571
1588	2024-03-07 03:00:00	12	torchiarolo	null	6	null	6	null	6	null	6	null	6	null	6	null	6	40.488146	18.053571
1589	2024-03-07 04:00:00	12	torchiarolo	null	6	null	6	null	6	null	6	null	6	null	6	null	6	40.488146	18.053571
1590	2024-03-07 05:00:00	12	torchiarolo	null	6	null	6	null	6	null	6	null	6	null	6	null	6	40.488146	18.053571
1591	2024-03-07 06:00:00	12	torchiarolo	null	6	null	6	null	6	null	6	null	6	null	6	null	6	40.488146	18.053571
1592	2024-03-07 07:00:00	12	torchiarolo	null	6	null	6	null	6	null	6	null	6	null	6	null	6	40.488146	18.053571
1593	2024-03-07 08:00:00	12	torchiarolo	null	6	null	6	null	6	null	6	null	6	null	6	null	6	40.488146	18.053571
1594	2024-03-07 09:00:00	12	torchiarolo	null	6	null	6	null	6	null	6	null	6	null	6	null	6	40.488146	18.053571
1595	2024-03-07 10:00:00	12	torchiarolo	null	6	null	6	null	6	null	6	null	6	null	6	null	6	40.488146	18.053571
1596	2024-03-07 11:00:00	12	torchiarolo	16.87	1	35.38	1	0.0	1	4.15	1	242.84	1	647.19	1	1011.42	1	40.488146	18.053571
1597	2024-03-07 12:00:00	12	torchiarolo	18.0	1	33.34	1	0.0	1	3.74	1	255.62	1	604.56	1	1011.15	1	40.488146	18.053571
1598	2024-03-07 13:00:00	12	torchiarolo	19.66	1	29.97	1	0.0	1	3.81	1	274.84	1	804.54	1	1010.43	1	40.488146	18.053571
1599	2024-03-07 14:00:00	12	torchiarolo	20.38	1	28.47	1	0.0	1	2.63	1	280.67	1	482.27	1	1010.02	1	40.488146	18.053571
1600	2024-03-07 15:00:00	12	torchiarolo	17.67	1	44.63	1	0.0	1	3.07	1	16.51	1	443.7	1	1009.89	1	40.488146	18.053571
1601	2024-03-07 16:00:00	12	torchiarolo	15.97	1	48.5	1	0.0	1	2.33	1	13.0	1	199.5	1	1010.18	1	40.488146	18.053571
1602	2024-03-07 17:00:00	12	torchiarolo	14.43	1	53.85	1	0.0	1	0.98	1	23.54	1	67.9	1	1010.58	1	40.488146	18.053571
1603	2024-03-07 18:00:00	12	torchiarolo	12.94	1	65.29	1	0.0	1	0.22	1	4.89	1	6.51	1	1010.64	1	40.488146	18.053571
1604	2024-03-07 19:00:00	12	torchiarolo	11.83	1	73.7	1	0.0	1	0.28	1	252.47	1	0.0	1	1010.96	1	40.488146	18.053571
1605	2024-03-07 20:00:00	12	torchiarolo	11.32	1	75.29	1	0.0	1	0.8	1	251.14	1	0.0	1	1011.09	1	40.488146	18.053571
1606	2024-03-07 21:00:00	12	torchiarolo	10.34	1	78.28	1	0.0	1	0.57	1	252.18	1	0.0	1	1011.34	1	40.488146	18.053571
1607	2024-03-07 22:00:00	12	torchiarolo	9.51	1	80.8	1	0.0	1	0.72	1	249.18	1	0.0	1	1011.57	1	40.488146	18.053571
1608	2024-03-07 23:00:00	12	torchiarolo	9.47	1	79.37	1	0.0	1	0.4	1	261.49	1	0.0	1	1011.72	1	40.488146	18.053571
1609	2024-03-08 00:00:00	12	torchiarolo	9.02	1	80.85	1	0.0	1	0.36	1	259.94	1	0.0	1	1011.67	1	40.488146	18.053571
1610	2024-03-08 01:00:00	12	torchiarolo	8.86	1	82.75	1	0.0	1	1.15	1	259.05	1	0.0	1	1011.72	1	40.488146	18.053571
1611	2024-03-08 02:00:00	12	torchiarolo	9.25	1	81.28	1	0.0	1	1.18	1	260.7	1	0.0	1	1011.73	1	40.488146	18.053571
1612	2024-03-08 03:00:00	12	torchiarolo	8.84	1	81.69	1	0.0	1	1.98	1	255.38	1	0.0	1	1011.39	1	40.488146	18.053571
1613	2024-03-08 04:00:00	12	torchiarolo	8.0	1	84.38	1	0.0	1	0.87	1	245.91	1	0.0	1	1011.35	1	40.488146	18.053571
1614	2024-03-08 05:00:00	12	torchiarolo	7.38	1	86.82	1	0.0	1	0.53	1	262.79	1	0.0	1	1011.35	1	40.488146	18.053571
1615	2024-03-08 06:00:00	12	torchiarolo	7.05	1	88.04	1	0.0	1	0.9	1	250.31	1	0.0	1	1011.36	1	40.488146	18.053571
1616	2024-03-08 07:00:00	12	torchiarolo	7.12	1	86.89	1	0.0	1	1.75	1	247.81	1	20.4	1	1011.56	1	40.488146	18.053571
1617	2024-03-08 08:00:00	12	torchiarolo	11.21	1	71.57	1	0.0	1	1.66	1	260.89	1	192.27	1	1011.97	1	40.488146	18.053571
1618	2024-03-08 09:00:00	12	torchiarolo	15.44	1	60.69	1	0.0	1	1.78	1	282.02	1	392.77	1	1012.27	1	40.488146	18.053571
1619	2024-03-08 10:00:00	12	torchiarolo	17.53	1	56.27	1	0.0	1	1.95	1	287.17	1	559.83	1	1012.46	1	40.488146	18.053571
1620	2024-03-08 11:00:00	12	torchiarolo	18.44	1	51.15	1	0.0	1	1.37	1	319.47	1	561.09	1	1012.51	1	40.488146	18.053571
1621	2024-03-08 12:00:00	12	torchiarolo	18.22	1	51.5	1	0.0	1	1.29	1	302.85	1	444.33	1	1012.57	1	40.488146	18.053571
1622	2024-03-08 13:00:00	12	torchiarolo	15.27	1	63.09	1	0.0	1	2.15	1	69.15	1	228.54	1	1012.23	1	40.488146	18.053571
1623	2024-03-08 14:00:00	12	torchiarolo	15.53	1	62.81	1	0.0	1	1.82	1	67.49	1	285.31	1	1011.79	1	40.488146	18.053571
1624	2024-03-08 15:00:00	12	torchiarolo	14.73	1	65.25	1	0.0	1	2.06	1	88.54	1	161.32	1	1011.62	1	40.488146	18.053571
1625	2024-03-08 16:00:00	12	torchiarolo	15.71	1	59.51	1	0.0	1	1.75	1	89.84	1	300.73	1	1011.34	1	40.488146	18.053571
1626	2024-03-08 17:00:00	12	torchiarolo	16.25	1	44.53	1	0.0	1	2.59	1	221.46	1	200.14	1	1011.34	1	40.488146	18.053571
1627	2024-03-08 18:00:00	12	torchiarolo	13.87	1	59.03	1	0.0	1	1.72	1	208.93	1	20.51	1	1011.36	1	40.488146	18.053571
1628	2024-03-08 19:00:00	12	torchiarolo	12.12	1	68.3	1	0.0	1	0.7	1	198.83	1	0.0	1	1011.66	1	40.488146	18.053571
1629	2024-03-08 20:00:00	12	torchiarolo	11.05	1	72.39	1	0.0	1	0.91	1	181.79	1	0.0	1	1012.08	1	40.488146	18.053571
1630	2024-03-08 21:00:00	12	torchiarolo	10.37	1	74.71	1	0.0	1	0.9	1	161.92	1	0.0	1	1012.09	1	40.488146	18.053571
1631	2024-03-08 22:00:00	12	torchiarolo	10.33	1	76.17	1	0.0	1	0.79	1	163.13	1	0.0	1	1012.16	1	40.488146	18.053571
1632	2024-03-08 23:00:00	12	torchiarolo	10.64	1	76.26	1	0.0	1	0.93	1	161.22	1	0.0	1	1012.16	1	40.488146	18.053571
1633	2024-03-09 00:00:00	12	torchiarolo	10.63	1	77.29	1	0.0	1	1.28	1	154.03	1	0.0	1	1011.87	1	40.488146	18.053571
1634	2024-03-09 01:00:00	12	torchiarolo	10.67	1	78.84	1	0.0	1	0.63	1	132.83	1	0.0	1	1011.65	1	40.488146	18.053571
1635	2024-03-09 02:00:00	12	torchiarolo	10.54	1	80.36	1	0.0	1	0.95	1	135.75	1	0.0	1	1011.2	1	40.488146	18.053571
1636	2024-03-09 03:00:00	12	torchiarolo	10.86	1	80.75	1	0.0	1	1.2	1	155.01	1	0.0	1	1010.8	1	40.488146	18.053571
1637	2024-03-09 04:00:00	12	torchiarolo	11.88	1	78.46	1	0.0	1	1.52	1	143.41	1	0.0	1	1010.51	1	40.488146	18.053571
1638	2024-03-09 05:00:00	12	torchiarolo	11.86	1	83.36	1	0.0	1	1.71	1	140.88	1	0.0	1	1010.42	1	40.488146	18.053571
1639	2024-03-09 06:00:00	12	torchiarolo	11.65	1	86.43	1	0.2	1	2.18	1	141.31	1	0.0	1	1010.26	1	40.488146	18.053571
1640	2024-03-09 07:00:00	12	torchiarolo	11.94	1	85.31	1	0.0	1	2.07	1	139.45	1	0.0	5	1010.22	1	40.488146	18.053571
1641	2024-03-09 08:00:00	12	torchiarolo	12.3	1	86.32	1	0.0	1	2.2	1	134.25	1	12.95	1	1010.34	1	40.488146	18.053571
1642	2024-03-09 09:00:00	12	torchiarolo	12.26	1	91.92	1	13.8	1	1.85	1	137.13	1	7.06	1	1010.89	1	40.488146	18.053571
1643	2024-03-09 10:00:00	12	torchiarolo	11.92	1	97.24	1	15.6	1	3.78	1	109.63	1	19.27	1	1011.12	1	40.488146	18.053571
1644	2024-03-09 11:00:00	12	torchiarolo	12.36	1	99.2	1	1.6	1	3.11	1	120.26	1	115.98	1	1010.76	1	40.488146	18.053571
1645	2024-03-09 12:00:00	12	torchiarolo	14.69	1	99.09	1	0.0	1	2.37	1	134.66	1	338.99	1	1010.34	1	40.488146	18.053571
1646	2024-03-09 13:00:00	12	torchiarolo	16.17	1	94.78	1	0.0	1	3.14	1	166.37	1	349.0	1	1010.03	1	40.488146	18.053571
1647	2024-03-09 14:00:00	12	torchiarolo	18.18	1	73.79	1	0.0	1	3.76	1	184.45	1	391.64	1	1009.72	1	40.488146	18.053571
1648	2024-03-09 15:00:00	12	torchiarolo	18.37	1	70.42	1	0.0	1	3.52	1	181.88	1	305.66	1	1009.52	1	40.488146	18.053571
1649	2024-03-09 16:00:00	12	torchiarolo	18.77	1	67.07	1	0.0	1	3.35	1	184.69	1	267.13	1	1009.17	1	40.488146	18.053571
1650	2024-03-09 17:00:00	12	torchiarolo	16.89	1	73.34	1	0.0	1	3.02	1	176.69	1	67.41	1	1008.89	1	40.488146	18.053571
1651	2024-03-09 18:00:00	12	torchiarolo	15.9	1	75.77	1	0.0	1	3.56	1	174.58	1	15.41	1	1009.06	1	40.488146	18.053571
1652	2024-03-09 19:00:00	12	torchiarolo	15.04	1	80.47	1	0.0	1	2.98	1	174.02	1	0.0	1	1009.52	1	40.488146	18.053571
1653	2024-03-09 20:00:00	12	torchiarolo	14.37	1	84.33	1	0.0	1	2.37	1	162.4	1	0.0	1	1009.89	1	40.488146	18.053571
1654	2024-03-09 21:00:00	12	torchiarolo	13.68	1	88.11	1	0.0	1	1.99	1	164.25	1	0.0	1	1010.03	1	40.488146	18.053571
1655	2024-03-09 22:00:00	12	torchiarolo	13.87	1	87.55	1	0.0	1	2.94	1	177.3	1	0.0	1	1009.95	1	40.488146	18.053571
1656	2024-03-09 23:00:00	12	torchiarolo	14.28	1	84.14	1	0.0	1	3.78	1	177.47	1	0.0	1	1009.45	1	40.488146	18.053571
1657	2024-03-10 00:00:00	12	torchiarolo	14.19	1	83.95	1	0.0	1	4.36	1	186.4	1	0.0	1	1009.52	1	40.488146	18.053571
1658	2024-03-10 01:00:00	12	torchiarolo	13.78	1	84.63	1	0.0	1	3.91	1	176.82	1	0.0	1	1009.52	1	40.488146	18.053571
1659	2024-03-10 02:00:00	12	torchiarolo	13.91	1	84.34	1	0.0	1	4.0	1	176.99	1	0.0	1	1009.37	1	40.488146	18.053571
1660	2024-03-10 03:00:00	12	torchiarolo	14.03	1	83.42	1	0.0	1	3.57	1	175.86	1	0.0	1	1009.18	1	40.488146	18.053571
1661	2024-03-10 04:00:00	12	torchiarolo	13.92	1	82.88	1	0.0	1	3.72	1	178.74	1	0.0	1	1008.93	1	40.488146	18.053571
1662	2024-03-10 05:00:00	12	torchiarolo	13.86	1	83.05	1	0.0	1	3.47	1	180.93	1	0.0	1	1008.96	1	40.488146	18.053571
1663	2024-03-10 06:00:00	12	torchiarolo	13.81	1	82.86	1	0.0	1	3.32	1	176.85	1	0.0	1	1008.96	1	40.488146	18.053571
1664	2024-03-10 07:00:00	12	torchiarolo	13.88	1	81.88	1	0.0	1	3.69	1	180.29	1	37.1	1	1008.81	1	40.488146	18.053571
1665	2024-03-10 08:00:00	12	torchiarolo	14.77	1	78.53	1	0.0	1	4.59	1	178.74	1	109.11	1	1008.96	1	40.488146	18.053571
1666	2024-03-10 09:00:00	12	torchiarolo	16.73	1	69.96	1	0.0	1	5.04	1	181.71	1	339.65	1	1009.22	1	40.488146	18.053571
1667	2024-03-10 10:00:00	12	torchiarolo	18.11	1	60.93	1	0.0	1	5.54	1	183.34	1	471.53	1	1009.52	1	40.488146	18.053571
1668	2024-03-10 11:00:00	12	torchiarolo	18.36	1	55.62	1	0.0	1	5.17	1	175.18	1	404.56	1	1009.33	1	40.488146	18.053571
1669	2024-03-10 12:00:00	12	torchiarolo	18.31	1	52.86	1	0.0	1	5.41	1	177.73	1	335.22	1	1009.11	1	40.488146	18.053571
1670	2024-03-10 13:00:00	12	torchiarolo	18.03	1	54.09	1	0.0	1	5.16	1	175.01	1	191.4	1	1008.92	1	40.488146	18.053571
1671	2024-03-10 14:00:00	12	torchiarolo	17.56	1	57.65	1	0.0	1	5.22	1	171.66	1	196.46	1	1008.42	1	40.488146	18.053571
1672	2024-03-10 15:00:00	12	torchiarolo	17.8	1	59.36	1	0.0	1	5.24	1	174.66	1	260.85	1	1007.72	1	40.488146	18.053571
1673	2024-03-10 16:00:00	12	torchiarolo	17.59	1	62.66	1	0.0	1	5.1	1	169.06	1	213.54	1	1007.3	1	40.488146	18.053571
1674	2024-03-10 17:00:00	12	torchiarolo	16.56	1	69.56	1	0.0	1	5.09	2	159.04	1	84.87	1	1007.05	1	40.488146	18.053571
1675	2024-03-10 18:00:00	12	torchiarolo	15.71	1	73.78	1	0.0	1	5.08	1	161.53	1	18.65	1	1007.15	1	40.488146	18.053571
1676	2024-03-10 19:00:00	12	torchiarolo	15.2	1	75.62	1	0.0	1	4.63	1	153.1	1	0.0	1	1007.06	1	40.488146	18.053571
1677	2024-03-10 20:00:00	12	torchiarolo	15.06	1	76.18	1	0.0	1	4.84	1	152.84	1	0.0	1	1006.41	1	40.488146	18.053571
1678	2024-03-10 21:00:00	12	torchiarolo	15.0	1	76.97	1	0.0	1	5.07	1	154.96	1	0.0	1	1006.44	1	40.488146	18.053571
1679	2024-03-10 22:00:00	12	torchiarolo	14.92	1	77.2	1	0.0	1	4.68	1	174.16	1	0.0	1	1006.58	1	40.488146	18.053571
1680	2024-03-10 23:00:00	12	torchiarolo	14.83	1	76.93	1	0.0	1	4.94	1	165.01	1	0.0	1	1006.51	1	40.488146	18.053571
1681	2024-03-11 00:00:00	12	torchiarolo	14.77	1	75.98	1	0.0	1	4.97	1	169.26	1	0.0	1	1005.71	1	40.488146	18.053571
1682	2024-03-11 01:00:00	12	torchiarolo	14.67	1	76.56	1	0.0	1	4.73	1	170.0	1	0.0	1	1005.26	1	40.488146	18.053571
1683	2024-03-11 02:00:00	12	torchiarolo	14.52	1	78.27	1	0.0	1	4.62	1	162.29	1	0.0	1	1004.67	1	40.488146	18.053571
1684	2024-03-11 03:00:00	12	torchiarolo	14.52	1	78.47	1	0.0	1	4.55	1	163.85	1	0.0	1	1004.4	1	40.488146	18.053571
1685	2024-03-11 04:00:00	12	torchiarolo	14.53	1	77.76	1	0.0	1	4.29	1	170.48	1	0.0	1	1004.19	1	40.488146	18.053571
1686	2024-03-11 05:00:00	12	torchiarolo	14.86	1	76.12	1	0.0	1	4.68	1	174.33	1	0.0	1	1003.48	1	40.488146	18.053571
1687	2024-03-11 06:00:00	12	torchiarolo	15.08	1	75.74	1	0.0	1	5.79	1	152.85	1	0.0	1	1001.85	1	40.488146	18.053571
1688	2024-03-11 07:00:00	12	torchiarolo	15.28	1	75.63	1	0.0	1	5.86	1	157.18	1	0.0	5	1001.12	1	40.488146	18.053571
1689	2024-03-11 08:00:00	12	torchiarolo	15.5	1	77.34	1	0.0	1	5.64	1	155.8	1	17.96	1	1001.42	1	40.488146	18.053571
1690	2024-03-11 09:00:00	12	torchiarolo	15.88	1	77.62	1	0.0	1	5.81	1	160.06	1	113.45	1	1001.11	1	40.488146	18.053571
1691	2024-03-11 10:00:00	12	torchiarolo	17.16	1	71.89	1	0.0	1	5.75	1	164.96	1	186.99	1	1001.28	1	40.488146	18.053571
1692	2024-03-11 11:00:00	12	torchiarolo	15.95	1	76.02	1	5.8	1	3.78	1	238.28	1	65.11	1	1002.61	1	40.488146	18.053571
1693	2024-03-11 12:00:00	12	torchiarolo	12.58	1	95.13	1	10.0	1	2.0	1	194.46	1	76.78	1	1002.92	1	40.488146	18.053571
1694	2024-03-11 13:00:00	12	torchiarolo	14.84	1	95.28	1	0.4	1	1.99	1	215.75	1	583.92	1	1002.03	1	40.488146	18.053571
1695	2024-03-11 14:00:00	12	torchiarolo	19.1	1	73.27	1	0.0	1	2.68	1	222.2	1	553.22	1	1001.59	1	40.488146	18.053571
1696	2024-03-11 15:00:00	12	torchiarolo	21.51	1	55.85	1	0.0	1	3.23	1	227.84	1	570.99	1	1001.66	1	40.488146	18.053571
1697	2024-03-11 16:00:00	12	torchiarolo	20.39	1	59.04	1	0.0	1	3.64	1	243.08	1	286.89	1	1002.24	1	40.488146	18.053571
1698	2024-03-11 17:00:00	12	torchiarolo	16.15	1	80.08	1	0.0	1	2.44	1	335.62	1	74.18	1	1002.84	1	40.488146	18.053571
1699	2024-03-11 18:00:00	12	torchiarolo	13.96	1	86.58	1	0.0	1	1.48	1	69.02	1	14.23	1	1003.11	1	40.488146	18.053571
1700	2024-03-11 19:00:00	12	torchiarolo	13.07	1	89.72	1	0.0	1	0.32	1	158.53	1	0.0	1	1003.54	1	40.488146	18.053571
1701	2024-03-11 20:00:00	12	torchiarolo	12.71	1	91.43	1	0.0	1	0.8	1	260.3	1	0.0	1	1004.29	1	40.488146	18.053571
1702	2024-03-11 21:00:00	12	torchiarolo	12.18	1	86.99	1	0.0	1	0.57	1	234.42	1	0.0	1	1004.76	1	40.488146	18.053571
1703	2024-03-11 22:00:00	12	torchiarolo	12.03	1	80.09	1	0.0	1	0.99	1	227.66	1	0.0	1	1004.93	1	40.488146	18.053571
1704	2024-03-11 23:00:00	12	torchiarolo	12.06	1	83.3	1	0.0	1	1.43	1	202.34	1	0.0	1	1005.12	1	40.488146	18.053571
1705	2024-03-12 00:00:00	12	torchiarolo	12.14	1	81.45	1	0.0	1	1.26	1	218.67	1	0.0	1	1005.11	1	40.488146	18.053571
1706	2024-03-12 01:00:00	12	torchiarolo	11.95	1	80.73	1	0.0	1	0.85	1	237.9	1	0.0	1	1004.91	1	40.488146	18.053571
1707	2024-03-12 02:00:00	12	torchiarolo	11.99	1	80.37	1	0.0	1	2.28	1	214.03	1	0.0	1	1005.0	1	40.488146	18.053571
1708	2024-03-12 03:00:00	12	torchiarolo	12.36	1	78.29	1	0.0	1	2.89	1	223.54	1	0.0	1	1004.63	1	40.488146	18.053571
1709	2024-03-12 04:00:00	12	torchiarolo	12.02	1	79.97	1	0.0	1	2.13	1	223.68	1	0.0	1	1004.28	1	40.488146	18.053571
1710	2024-03-12 05:00:00	12	torchiarolo	11.75	1	75.03	1	0.0	1	2.19	1	234.11	1	0.0	1	1004.2	1	40.488146	18.053571
1711	2024-03-12 06:00:00	12	torchiarolo	11.19	1	72.05	1	0.0	1	1.67	1	247.67	1	0.0	1	1004.14	1	40.488146	18.053571
1712	2024-03-12 07:00:00	12	torchiarolo	10.5	1	75.24	1	0.0	1	1.59	1	248.98	1	21.93	1	1004.68	1	40.488146	18.053571
1713	2024-03-12 08:00:00	12	torchiarolo	13.83	1	63.51	1	0.0	1	2.68	1	244.98	1	238.92	1	1005.48	1	40.488146	18.053571
1714	2024-03-12 09:00:00	12	torchiarolo	16.83	1	57.64	1	0.0	1	3.08	1	244.9	1	372.46	1	1005.89	1	40.488146	18.053571
1715	2024-03-12 10:00:00	12	torchiarolo	18.14	1	49.74	1	0.0	1	3.4	1	242.28	1	535.99	1	1006.2	1	40.488146	18.053571
1716	2024-03-12 11:00:00	12	torchiarolo	18.87	1	45.0	1	0.0	1	3.09	1	243.02	1	698.42	1	1006.23	1	40.488146	18.053571
1717	2024-03-12 12:00:00	12	torchiarolo	19.77	1	39.13	1	0.0	1	3.53	1	245.71	1	723.07	1	1006.41	1	40.488146	18.053571
1718	2024-03-12 13:00:00	12	torchiarolo	19.56	1	41.86	1	0.0	1	2.85	1	239.32	1	462.28	1	1006.47	1	40.488146	18.053571
1719	2024-03-12 14:00:00	12	torchiarolo	21.17	1	41.41	1	0.0	1	2.64	1	214.06	1	609.73	1	1006.12	1	40.488146	18.053571
1720	2024-03-12 15:00:00	12	torchiarolo	17.44	1	55.33	1	0.0	1	2.39	1	15.25	1	196.56	1	1006.46	1	40.488146	18.053571
1721	2024-03-12 16:00:00	12	torchiarolo	11.91	1	79.71	1	0.6	1	2.64	1	341.02	1	14.84	1	1006.7	1	40.488146	18.053571
1722	2024-03-12 17:00:00	12	torchiarolo	11.24	1	88.9	1	0.2	1	0.94	1	315.6	1	35.94	1	1006.59	1	40.488146	18.053571
1723	2024-03-12 18:00:00	12	torchiarolo	11.2	1	90.29	1	0.0	1	0.89	1	291.04	1	19.81	1	1006.66	1	40.488146	18.053571
1724	2024-03-12 19:00:00	12	torchiarolo	10.92	1	89.18	1	0.0	1	1.44	1	259.48	1	0.0	5	1006.96	1	40.488146	18.053571
1725	2024-03-12 20:00:00	12	torchiarolo	10.71	1	88.56	1	0.0	1	1.26	1	260.69	1	0.0	1	1007.53	1	40.488146	18.053571
1726	2024-03-12 21:00:00	12	torchiarolo	10.42	1	87.99	1	0.0	1	1.74	1	277.18	1	0.0	1	1007.95	1	40.488146	18.053571
1727	2024-03-12 22:00:00	12	torchiarolo	10.65	1	88.34	1	0.2	1	0.49	1	256.15	1	0.0	1	1008.22	1	40.488146	18.053571
1728	2024-03-12 23:00:00	12	torchiarolo	9.95	1	88.46	1	0.0	1	1.57	1	266.51	1	0.0	1	1008.37	1	40.488146	18.053571
1729	2024-03-13 00:00:00	12	torchiarolo	9.35	1	88.01	1	0.0	1	1.43	1	270.82	1	0.0	1	1008.42	1	40.488146	18.053571
1730	2024-03-13 01:00:00	12	torchiarolo	8.93	1	89.19	1	0.0	1	1.65	1	249.34	1	0.0	1	1008.57	1	40.488146	18.053571
1731	2024-03-13 02:00:00	12	torchiarolo	8.32	1	89.07	1	0.0	1	1.75	1	247.97	1	0.0	1	1008.43	1	40.488146	18.053571
1732	2024-03-13 03:00:00	12	torchiarolo	8.03	1	87.96	1	0.0	1	1.44	1	258.0	1	0.0	1	1008.2	1	40.488146	18.053571
1733	2024-03-13 04:00:00	12	torchiarolo	8.52	1	86.91	1	0.0	1	1.56	1	262.18	1	0.0	1	1008.06	1	40.488146	18.053571
1734	2024-03-13 05:00:00	12	torchiarolo	9.06	1	88.65	1	0.0	1	2.13	1	266.52	1	0.0	1	1008.06	1	40.488146	18.053571
1735	2024-03-13 06:00:00	12	torchiarolo	9.1	1	88.73	1	0.8	1	1.94	1	294.0	1	0.0	1	1008.12	1	40.488146	18.053571
1736	2024-03-13 07:00:00	12	torchiarolo	9.73	1	92.29	1	0.0	1	1.54	1	307.92	1	21.19	1	1008.32	1	40.488146	18.053571
1737	2024-03-13 08:00:00	12	torchiarolo	12.76	1	82.41	1	0.0	1	2.29	1	276.05	1	219.35	1	1008.45	1	40.488146	18.053571
1738	2024-03-13 09:00:00	12	torchiarolo	15.46	1	74.93	1	0.2	1	1.82	1	288.39	1	271.93	1	1009.05	1	40.488146	18.053571
1739	2024-03-13 10:00:00	12	torchiarolo	15.91	1	70.71	1	0.0	1	3.33	1	351.96	1	445.66	1	1009.64	1	40.488146	18.053571
1740	2024-03-13 11:00:00	12	torchiarolo	15.96	1	66.61	1	0.0	1	3.72	1	343.96	1	282.59	1	1010.23	1	40.488146	18.053571
1741	2024-03-13 12:00:00	12	torchiarolo	13.36	1	80.6	1	1.4	1	2.56	1	337.64	1	114.83	1	1010.57	1	40.488146	18.053571
1742	2024-03-13 13:00:00	12	torchiarolo	14.55	1	79.65	1	0.0	1	3.29	1	340.85	1	381.24	1	1010.01	1	40.488146	18.053571
1743	2024-03-13 14:00:00	12	torchiarolo	17.42	1	59.53	1	0.0	1	4.14	1	343.67	1	460.15	1	1009.88	1	40.488146	18.053571
1744	2024-03-13 15:00:00	12	torchiarolo	17.16	1	58.44	1	0.0	1	3.99	1	336.62	1	372.65	1	1009.8	1	40.488146	18.053571
1745	2024-03-13 16:00:00	12	torchiarolo	18.32	1	50.44	1	0.0	1	4.14	1	333.36	1	429.19	1	1009.84	1	40.488146	18.053571
1746	2024-03-13 17:00:00	12	torchiarolo	16.27	1	57.84	1	0.0	1	3.82	1	335.39	1	193.23	1	1009.89	1	40.488146	18.053571
1747	2024-03-13 18:00:00	12	torchiarolo	13.67	1	66.39	1	0.0	1	2.25	1	329.08	1	16.4	1	1010.01	1	40.488146	18.053571
1748	2024-03-13 19:00:00	12	torchiarolo	11.81	1	75.62	1	0.0	1	1.1	1	320.09	1	0.0	1	1010.26	1	40.488146	18.053571
1749	2024-03-13 20:00:00	12	torchiarolo	10.62	1	82.05	1	0.0	1	1.05	1	261.4	1	0.0	1	1010.54	1	40.488146	18.053571
1750	2024-03-13 21:00:00	12	torchiarolo	9.97	1	85.06	1	0.0	1	1.14	1	278.87	1	0.0	1	1010.76	1	40.488146	18.053571
1751	2024-03-13 22:00:00	12	torchiarolo	9.63	1	86.34	1	0.0	1	1.57	1	288.12	1	0.0	1	1010.99	1	40.488146	18.053571
1752	2024-03-13 23:00:00	12	torchiarolo	9.42	1	87.8	1	0.0	1	1.42	1	259.16	1	0.0	1	1010.99	1	40.488146	18.053571
1753	2024-03-14 00:00:00	12	torchiarolo	9.21	1	87.61	1	0.0	1	2.04	1	260.62	1	0.0	1	1010.99	1	40.488146	18.053571
1754	2024-03-14 01:00:00	12	torchiarolo	9.04	1	87.5	1	0.0	1	1.77	1	266.55	1	0.0	1	1010.99	1	40.488146	18.053571
1755	2024-03-14 02:00:00	12	torchiarolo	9.12	1	90.78	1	0.0	1	2.04	1	270.67	1	0.0	1	1010.99	1	40.488146	18.053571
1756	2024-03-14 03:00:00	12	torchiarolo	9.08	1	93.56	1	0.0	1	2.17	1	281.11	1	0.0	1	1010.66	1	40.488146	18.053571
1757	2024-03-14 04:00:00	12	torchiarolo	9.21	1	93.69	1	0.0	1	2.27	1	293.93	1	0.0	1	1010.73	1	40.488146	18.053571
1758	2024-03-14 05:00:00	12	torchiarolo	9.28	1	88.61	1	0.0	1	1.97	1	299.3	1	0.0	1	1010.72	1	40.488146	18.053571
1759	2024-03-14 06:00:00	12	torchiarolo	8.69	1	88.83	1	0.0	1	1.85	1	297.87	1	0.0	1	1011.34	1	40.488146	18.053571
1760	2024-03-14 07:00:00	12	torchiarolo	8.61	1	87.58	1	0.0	1	2.02	1	293.31	1	22.5	1	1011.81	1	40.488146	18.053571
1761	2024-03-14 08:00:00	12	torchiarolo	11.09	1	76.45	1	0.0	1	2.29	1	294.92	1	175.19	1	1012.23	1	40.488146	18.053571
1762	2024-03-14 09:00:00	12	torchiarolo	16.48	1	62.89	1	0.0	1	2.73	1	318.94	1	423.43	1	1012.48	1	40.488146	18.053571
1763	2024-03-14 10:00:00	12	torchiarolo	18.46	1	59.32	1	0.0	1	3.46	1	329.03	1	583.49	1	1012.82	1	40.488146	18.053571
1764	2024-03-14 11:00:00	12	torchiarolo	18.83	1	55.91	1	0.0	1	3.62	1	336.56	1	670.87	1	1012.82	1	40.488146	18.053571
1765	2024-03-14 12:00:00	12	torchiarolo	19.38	1	52.59	1	0.0	1	4.17	1	334.79	1	767.95	1	1012.83	1	40.488146	18.053571
1766	2024-03-14 13:00:00	12	torchiarolo	20.06	1	47.76	1	0.0	1	3.89	1	342.53	1	726.23	1	1012.78	1	40.488146	18.053571
1767	2024-03-14 14:00:00	12	torchiarolo	20.35	1	48.47	1	0.0	1	4.07	1	340.04	1	564.91	1	1012.4	1	40.488146	18.053571
1768	2024-03-14 15:00:00	12	torchiarolo	20.31	1	50.65	1	0.0	1	4.1	1	336.17	1	571.43	1	1012.45	1	40.488146	18.053571
1769	2024-03-14 16:00:00	12	torchiarolo	19.33	1	54.72	1	0.0	1	3.99	1	340.41	1	413.21	1	1012.45	1	40.488146	18.053571
1770	2024-03-14 17:00:00	12	torchiarolo	17.26	1	61.1	1	0.0	1	3.28	1	333.59	1	217.6	1	1012.44	1	40.488146	18.053571
1771	2024-03-14 18:00:00	12	torchiarolo	14.68	1	69.64	1	0.0	1	2.04	1	330.9	1	34.64	1	1012.45	1	40.488146	18.053571
1772	2024-03-14 19:00:00	12	torchiarolo	12.65	1	81.66	1	0.0	1	1.37	1	0.59	1	0.0	5	1012.45	1	40.488146	18.053571
1773	2024-03-14 20:00:00	12	torchiarolo	11.65	1	88.18	1	0.0	1	2.9	1	11.65	1	0.0	1	1012.52	1	40.488146	18.053571
1774	2024-03-14 21:00:00	12	torchiarolo	11.29	1	88.4	1	0.0	1	0.68	1	272.3	1	0.0	1	1012.94	1	40.488146	18.053571
1775	2024-03-14 22:00:00	12	torchiarolo	10.37	1	89.93	1	0.0	1	0.59	1	240.52	1	0.0	1	1013.19	1	40.488146	18.053571
1776	2024-03-14 23:00:00	12	torchiarolo	9.65	1	87.55	1	0.0	1	1.34	1	250.76	1	0.0	1	1013.25	1	40.488146	18.053571
1777	2024-03-15 00:00:00	12	torchiarolo	9.1	1	83.55	1	0.0	1	0.19	1	253.65	1	0.0	1	1013.19	1	40.488146	18.053571
1778	2024-03-15 01:00:00	12	torchiarolo	8.56	1	79.52	1	0.0	1	0.19	1	259.64	1	0.0	1	1013.18	1	40.488146	18.053571
1779	2024-03-15 02:00:00	12	torchiarolo	7.95	1	76.26	1	0.0	1	1.13	1	255.79	1	0.0	1	1013.09	1	40.488146	18.053571
1780	2024-03-15 03:00:00	12	torchiarolo	7.82	1	72.86	1	0.0	1	0.45	1	260.03	1	0.0	1	1012.75	1	40.488146	18.053571
1781	2024-03-15 04:00:00	12	torchiarolo	7.67	1	72.07	1	0.0	1	0.63	1	246.25	1	0.0	1	1012.46	1	40.488146	18.053571
1782	2024-03-15 05:00:00	12	torchiarolo	7.33	1	72.01	1	0.0	1	1.06	1	251.12	1	0.0	1	1012.46	1	40.488146	18.053571
1783	2024-03-15 06:00:00	12	torchiarolo	7.14	1	71.94	1	0.0	1	1.36	1	253.26	1	0.0	1	1012.47	1	40.488146	18.053571
1784	2024-03-15 07:00:00	12	torchiarolo	7.81	1	66.95	1	0.0	1	0.7	1	249.74	1	42.64	1	1012.79	1	40.488146	18.053571
1785	2024-03-15 08:00:00	12	torchiarolo	13.46	1	53.25	1	0.0	1	0.65	1	248.07	1	237.99	1	1013.14	1	40.488146	18.053571
1786	2024-03-15 09:00:00	12	torchiarolo	18.05	1	46.48	1	0.0	1	1.08	1	247.17	1	435.94	1	1013.53	1	40.488146	18.053571
1787	2024-03-15 10:00:00	12	torchiarolo	20.5	1	34.66	1	0.0	1	1.86	1	262.02	1	596.86	1	1013.92	1	40.488146	18.053571
1788	2024-03-15 11:00:00	12	torchiarolo	21.16	1	34.8	1	0.0	1	1.03	1	291.48	1	713.69	1	1013.92	1	40.488146	18.053571
1789	2024-03-15 12:00:00	12	torchiarolo	20.45	1	38.55	1	0.0	1	1.64	1	63.18	1	777.81	1	1013.87	1	40.488146	18.053571
1790	2024-03-15 13:00:00	12	torchiarolo	21.76	1	36.59	1	0.0	1	1.15	1	75.08	1	773.66	1	1013.45	1	40.488146	18.053571
1791	2024-03-15 14:00:00	12	torchiarolo	20.47	1	44.36	1	0.0	1	2.59	1	62.0	1	562.2	1	1013.19	1	40.488146	18.053571
1792	2024-03-15 15:00:00	12	torchiarolo	19.65	1	47.69	1	0.0	1	2.48	1	68.27	1	586.54	1	1012.94	1	40.488146	18.053571
1793	2024-03-15 16:00:00	12	torchiarolo	19.66	1	46.35	1	0.0	1	1.91	1	80.29	1	414.4	1	1012.82	1	40.488146	18.053571
1794	2024-03-15 17:00:00	12	torchiarolo	18.52	1	45.85	1	0.0	1	1.46	1	107.6	1	219.99	1	1012.59	1	40.488146	18.053571
1795	2024-03-15 18:00:00	12	torchiarolo	16.91	1	50.91	1	0.0	1	0.88	1	127.17	1	36.88	1	1012.46	1	40.488146	18.053571
1796	2024-03-15 19:00:00	12	torchiarolo	15.63	1	58.85	1	0.0	1	0.64	1	160.58	1	0.0	5	1012.65	1	40.488146	18.053571
1797	2024-03-15 20:00:00	12	torchiarolo	14.71	1	67.0	1	0.0	1	0.74	1	241.63	1	0.0	1	1013.15	1	40.488146	18.053571
1798	2024-03-15 21:00:00	12	torchiarolo	13.18	1	78.4	1	0.0	1	0.61	1	241.05	1	0.0	1	1013.55	1	40.488146	18.053571
1799	2024-03-15 22:00:00	12	torchiarolo	12.15	1	83.78	1	0.0	1	null	3	233.82	1	0.0	1	1013.55	1	40.488146	18.053571
1800	2024-03-15 23:00:00	12	torchiarolo	11.44	1	87.11	1	0.0	1	null	3	194.25	1	0.0	1	1013.55	1	40.488146	18.053571
1801	2024-03-16 00:00:00	12	torchiarolo	10.46	1	90.3	1	0.0	1	null	3	168.82	1	0.0	1	1013.55	1	40.488146	18.053571
1802	2024-03-16 01:00:00	12	torchiarolo	10.57	1	92.24	1	0.0	1	null	3	191.86	1	0.0	1	1013.72	1	40.488146	18.053571
1803	2024-03-16 02:00:00	12	torchiarolo	10.2	1	91.69	1	0.0	1	null	3	272.06	1	0.0	1	1013.88	1	40.488146	18.053571
1804	2024-03-16 03:00:00	12	torchiarolo	10.17	1	93.44	1	0.0	1	null	3	182.76	1	0.0	1	1013.55	1	40.488146	18.053571
1805	2024-03-16 04:00:00	12	torchiarolo	10.06	1	94.28	1	0.0	1	null	3	236.4	1	0.0	1	1013.51	1	40.488146	18.053571
1806	2024-03-16 05:00:00	12	torchiarolo	9.73	1	95.07	1	0.0	1	null	3	246.25	1	0.0	1	1013.55	1	40.488146	18.053571
1807	2024-03-16 06:00:00	12	torchiarolo	9.61	1	93.83	1	0.0	1	null	3	251.56	1	0.0	1	1013.55	1	40.488146	18.053571
1808	2024-03-16 07:00:00	12	torchiarolo	9.82	1	90.44	1	0.0	1	null	3	259.55	1	44.26	1	1013.7	1	40.488146	18.053571
1809	2024-03-16 08:00:00	12	torchiarolo	12.57	1	79.32	1	0.0	1	null	3	251.93	1	172.33	1	1014.11	1	40.488146	18.053571
1810	2024-03-16 09:00:00	12	torchiarolo	17.69	1	63.0	1	0.0	1	0.81	1	279.03	1	415.66	1	1014.31	1	40.488146	18.053571
1811	2024-03-16 10:00:00	12	torchiarolo	19.94	1	60.83	1	0.0	1	1.52	1	323.62	1	531.27	1	1014.32	1	40.488146	18.053571
1812	2024-03-16 11:00:00	12	torchiarolo	19.95	1	61.14	1	0.0	1	1.55	1	324.99	1	410.35	1	1014.49	1	40.488146	18.053571
1813	2024-03-16 12:00:00	12	torchiarolo	19.66	1	60.29	1	0.0	1	1.56	1	335.86	1	467.34	1	1014.53	1	40.488146	18.053571
1814	2024-03-16 13:00:00	12	torchiarolo	20.37	1	58.29	1	0.0	1	2.35	1	0.36	1	526.76	1	1014.21	1	40.488146	18.053571
1815	2024-03-16 14:00:00	12	torchiarolo	20.19	1	60.55	1	0.0	1	3.25	1	14.94	1	521.01	1	1013.69	1	40.488146	18.053571
1816	2024-03-16 15:00:00	12	torchiarolo	18.57	1	65.47	1	0.0	1	2.81	1	16.23	1	338.84	1	1013.47	1	40.488146	18.053571
1817	2024-03-16 16:00:00	12	torchiarolo	17.17	1	70.76	1	0.0	1	2.36	1	14.26	1	206.24	1	1013.14	1	40.488146	18.053571
1818	2024-03-16 17:00:00	12	torchiarolo	16.15	1	76.14	1	0.0	1	1.83	1	17.66	1	87.29	1	1012.84	1	40.488146	18.053571
1819	2024-03-16 18:00:00	12	torchiarolo	15.33	1	82.04	1	0.0	1	0.98	1	1.95	1	19.28	1	1013.11	1	40.488146	18.053571
1820	2024-03-16 19:00:00	12	torchiarolo	14.44	1	86.33	1	0.0	1	0.62	1	13.24	1	0.0	1	1013.24	1	40.488146	18.053571
1821	2024-03-16 20:00:00	12	torchiarolo	13.97	1	88.5	1	0.0	1	0.33	1	303.14	1	0.0	1	1013.71	1	40.488146	18.053571
1822	2024-03-16 21:00:00	12	torchiarolo	13.88	1	89.84	1	0.0	1	1.05	1	292.48	1	0.0	1	1014.11	1	40.488146	18.053571
1823	2024-03-16 22:00:00	12	torchiarolo	13.76	1	92.05	1	0.4	1	1.2	1	267.7	1	0.0	1	1014.47	1	40.488146	18.053571
1824	2024-03-16 23:00:00	12	torchiarolo	13.23	1	91.66	1	0.0	1	0.79	1	305.65	1	0.0	1	1014.64	1	40.488146	18.053571
1825	2024-03-17 00:00:00	12	torchiarolo	12.77	1	89.23	1	0.0	1	0.93	1	260.31	1	0.0	1	1014.39	1	40.488146	18.053571
1826	2024-03-17 01:00:00	12	torchiarolo	12.26	1	89.88	1	0.0	1	0.79	1	306.39	1	0.0	1	1014.28	1	40.488146	18.053571
1827	2024-03-17 02:00:00	12	torchiarolo	12.08	1	88.57	1	0.0	1	1.25	1	312.78	1	0.0	1	1014.28	1	40.488146	18.053571
1828	2024-03-17 03:00:00	12	torchiarolo	11.92	1	87.03	1	0.0	1	0.66	1	288.4	1	0.0	1	1014.26	1	40.488146	18.053571
1829	2024-03-17 04:00:00	12	torchiarolo	11.49	1	89.21	1	0.0	1	0.43	1	307.37	1	0.0	1	1013.92	1	40.488146	18.053571
1830	2024-03-17 05:00:00	12	torchiarolo	12.09	1	92.18	1	0.0	1	0.98	1	330.1	1	0.0	1	1013.92	1	40.488146	18.053571
1831	2024-03-17 06:00:00	12	torchiarolo	12.66	1	92.72	1	0.0	1	1.99	1	348.92	1	0.0	1	1014.15	1	40.488146	18.053571
1832	2024-03-17 07:00:00	12	torchiarolo	13.58	1	89.52	1	0.0	1	2.68	1	353.14	1	12.35	1	1014.59	1	40.488146	18.053571
1833	2024-03-17 08:00:00	12	torchiarolo	14.42	1	84.89	1	0.0	1	2.69	1	0.65	1	70.73	1	1014.96	1	40.488146	18.053571
1834	2024-03-17 09:00:00	12	torchiarolo	15.47	1	79.73	1	0.0	1	3.45	1	0.67	1	166.71	1	1015.64	1	40.488146	18.053571
1835	2024-03-17 10:00:00	12	torchiarolo	16.74	1	73.25	1	0.0	1	3.88	1	358.67	1	306.94	1	1015.75	1	40.488146	18.053571
1836	2024-03-17 11:00:00	12	torchiarolo	17.38	1	68.22	1	0.0	1	4.25	1	349.23	1	438.19	1	1015.79	1	40.488146	18.053571
1837	2024-03-17 12:00:00	12	torchiarolo	18.68	1	64.72	1	0.0	1	4.36	1	349.25	1	541.1	1	1016.11	1	40.488146	18.053571
1838	2024-03-17 13:00:00	12	torchiarolo	19.16	1	63.56	1	0.0	1	4.28	1	351.3	1	600.03	1	1016.02	1	40.488146	18.053571
1839	2024-03-17 14:00:00	12	torchiarolo	19.61	1	61.02	1	0.0	1	3.94	1	335.75	1	493.79	1	1015.66	1	40.488146	18.053571
1840	2024-03-17 15:00:00	12	torchiarolo	18.77	1	64.08	1	0.0	1	3.96	1	335.7	1	327.13	1	1015.12	1	40.488146	18.053571
1841	2024-03-17 16:00:00	12	torchiarolo	18.25	1	63.72	1	0.0	1	4.37	1	332.59	1	318.33	1	1014.59	1	40.488146	18.053571
1842	2024-03-17 17:00:00	12	torchiarolo	17.15	1	68.4	1	0.0	1	4.32	1	332.14	1	204.15	1	1014.35	1	40.488146	18.053571
1843	2024-03-17 18:00:00	12	torchiarolo	15.14	1	77.82	1	0.0	1	3.16	1	336.62	1	40.55	1	1014.53	1	40.488146	18.053571
1844	2024-03-17 19:00:00	12	torchiarolo	13.63	1	85.92	1	0.0	1	2.03	1	335.77	1	0.0	5	1014.76	1	40.488146	18.053571
1845	2024-03-17 20:00:00	12	torchiarolo	12.7	1	90.35	1	0.0	1	1.28	1	336.29	1	0.0	1	1015.07	1	40.488146	18.053571
1846	2024-03-17 21:00:00	12	torchiarolo	12.0	1	92.76	1	0.0	1	0.3	1	308.4	1	0.0	1	1015.38	1	40.488146	18.053571
1847	2024-03-17 22:00:00	12	torchiarolo	11.55	1	94.54	1	0.0	1	0.25	1	271.28	1	0.0	1	1015.38	1	40.488146	18.053571
1848	2024-03-17 23:00:00	12	torchiarolo	11.23	1	95.59	1	0.0	1	0.93	1	263.79	1	0.0	1	1015.02	1	40.488146	18.053571
1849	2024-03-18 00:00:00	12	torchiarolo	10.85	1	96.45	1	0.0	1	1.14	1	261.66	1	0.0	1	1014.94	1	40.488146	18.053571
1850	2024-03-18 01:00:00	12	torchiarolo	10.57	1	97.04	1	0.0	1	0.33	1	261.39	1	0.0	1	1014.87	1	40.488146	18.053571
1851	2024-03-18 02:00:00	12	torchiarolo	9.95	1	97.13	1	0.0	1	0.9	1	250.34	1	0.0	1	1014.27	1	40.488146	18.053571
1852	2024-03-18 03:00:00	12	torchiarolo	9.21	1	97.25	1	0.0	1	1.64	1	251.88	1	0.0	1	1013.91	1	40.488146	18.053571
1853	2024-03-18 04:00:00	12	torchiarolo	9.3	1	97.61	1	0.0	1	0.64	1	252.12	1	0.0	1	1013.31	1	40.488146	18.053571
1854	2024-03-18 05:00:00	12	torchiarolo	9.17	1	97.63	1	0.0	1	0.89	1	250.44	1	0.0	1	1013.12	1	40.488146	18.053571
1855	2024-03-18 06:00:00	12	torchiarolo	8.78	1	97.13	1	0.0	1	0.79	1	240.15	1	0.0	5	1012.82	1	40.488146	18.053571
1856	2024-03-18 07:00:00	12	torchiarolo	9.07	1	93.89	1	0.0	1	1.1	1	247.34	1	39.1	1	1012.99	1	40.488146	18.053571
1857	2024-03-18 08:00:00	12	torchiarolo	14.02	1	72.12	1	0.0	1	0.33	1	255.55	1	233.43	1	1013.1	1	40.488146	18.053571
1858	2024-03-18 09:00:00	12	torchiarolo	20.18	1	53.03	1	0.2	1	null	3	255.33	1	435.97	1	1012.9	1	40.488146	18.053571
1859	2024-03-18 10:00:00	12	torchiarolo	22.19	1	41.86	1	0.0	1	0.21	1	250.5	1	598.39	1	1012.74	1	40.488146	18.053571
1860	2024-03-18 11:00:00	12	torchiarolo	22.52	1	41.59	1	0.0	1	1.46	1	235.49	1	717.16	1	1012.27	1	40.488146	18.053571
1861	2024-03-18 12:00:00	12	torchiarolo	22.88	1	40.59	1	0.0	1	1.98	1	235.77	1	768.22	1	1011.73	1	40.488146	18.053571
1862	2024-03-18 13:00:00	12	torchiarolo	23.66	1	42.54	1	0.0	1	2.19	1	212.4	1	731.49	1	1011.02	1	40.488146	18.053571
1863	2024-03-18 14:00:00	12	torchiarolo	23.62	1	42.32	1	0.0	1	2.44	1	208.03	1	520.33	1	1010.1	1	40.488146	18.053571
1864	2024-03-18 15:00:00	12	torchiarolo	22.44	1	44.19	1	0.0	1	2.64	1	222.16	1	444.32	1	1009.62	1	40.488146	18.053571
1865	2024-03-18 16:00:00	12	torchiarolo	20.91	1	51.48	1	0.0	1	3.16	1	219.6	1	320.07	1	1009.34	1	40.488146	18.053571
1866	2024-03-18 17:00:00	12	torchiarolo	18.34	1	59.79	1	0.0	1	2.9	1	224.79	1	129.21	1	1008.93	1	40.488146	18.053571
1867	2024-03-18 18:00:00	12	torchiarolo	17.2	1	62.29	1	0.0	1	1.64	1	217.52	1	30.9	1	1008.71	1	40.488146	18.053571
1868	2024-03-18 19:00:00	12	torchiarolo	16.4	1	67.47	1	0.0	1	0.92	1	233.07	1	0.0	1	1008.52	1	40.488146	18.053571
1869	2024-03-18 20:00:00	12	torchiarolo	15.93	1	72.6	1	0.0	1	1.54	1	209.11	1	0.0	1	1008.41	1	40.488146	18.053571
1870	2024-03-18 21:00:00	12	torchiarolo	15.66	1	74.41	1	0.0	1	2.06	1	219.9	1	0.0	1	1008.42	1	40.488146	18.053571
1871	2024-03-18 22:00:00	12	torchiarolo	15.28	1	84.65	1	0.0	1	1.46	1	250.59	1	0.0	1	1008.42	1	40.488146	18.053571
1872	2024-03-18 23:00:00	12	torchiarolo	14.58	1	86.82	1	0.6	1	0.65	1	320.65	1	0.0	1	1008.37	1	40.488146	18.053571
1873	2024-03-19 00:00:00	12	torchiarolo	13.53	1	88.62	1	1.2	1	null	3	351.21	1	0.0	1	1007.84	1	40.488146	18.053571
1874	2024-03-19 01:00:00	12	torchiarolo	13.02	1	91.87	1	1.8	1	0.49	1	331.91	1	0.0	1	1007.69	1	40.488146	18.053571
1875	2024-03-19 02:00:00	12	torchiarolo	12.7	1	94.17	1	1.8	1	0.2	1	317.36	1	0.0	1	1007.33	1	40.488146	18.053571
1876	2024-03-19 03:00:00	12	torchiarolo	12.75	1	95.88	1	1.8	1	0.49	1	274.35	1	0.0	1	1006.78	1	40.488146	18.053571
1877	2024-03-19 04:00:00	12	torchiarolo	12.76	1	97.02	1	0.8	1	0.15	1	247.49	1	0.0	1	1006.28	1	40.488146	18.053571
1878	2024-03-19 05:00:00	12	torchiarolo	12.67	1	97.73	1	1.0	1	0.03	1	221.65	1	0.0	1	1006.06	1	40.488146	18.053571
1879	2024-03-19 06:00:00	12	torchiarolo	12.61	1	98.24	1	0.0	1	0.04	1	217.28	1	0.0	1	1005.86	1	40.488146	18.053571
1880	2024-03-19 07:00:00	12	torchiarolo	12.58	1	98.6	1	0.2	1	null	3	251.67	1	8.79	1	1006.14	1	40.488146	18.053571
1881	2024-03-19 08:00:00	12	torchiarolo	12.69	1	98.71	1	0.4	1	1.26	1	268.92	1	37.98	1	1006.46	1	40.488146	18.053571
1882	2024-03-19 09:00:00	12	torchiarolo	14.07	1	97.92	1	0.0	1	1.66	1	289.29	1	239.57	1	1006.78	1	40.488146	18.053571
1883	2024-03-19 10:00:00	12	torchiarolo	15.06	1	92.44	1	0.0	1	3.03	1	321.56	1	243.37	1	1006.98	1	40.488146	18.053571
1884	2024-03-19 11:00:00	12	torchiarolo	16.47	1	77.9	1	0.0	1	4.57	1	340.17	1	372.64	1	1007.3	1	40.488146	18.053571
1885	2024-03-19 12:00:00	12	torchiarolo	16.34	1	73.25	1	0.0	1	4.42	1	348.63	1	336.31	1	1007.67	1	40.488146	18.053571
1886	2024-03-19 13:00:00	12	torchiarolo	17.26	1	69.56	1	0.0	1	4.63	1	355.59	1	505.7	1	1007.74	1	40.488146	18.053571
1887	2024-03-19 14:00:00	12	torchiarolo	17.66	1	68.16	1	0.0	1	5.19	1	357.64	1	551.7	1	1007.85	1	40.488146	18.053571
1888	2024-03-19 15:00:00	12	torchiarolo	17.14	1	68.06	1	0.0	1	4.94	1	3.27	1	390.88	1	1008.29	1	40.488146	18.053571
1889	2024-03-19 16:00:00	12	torchiarolo	17.09	1	65.73	1	0.0	1	4.65	1	2.76	1	397.23	1	1008.42	1	40.488146	18.053571
1890	2024-03-19 17:00:00	12	torchiarolo	16.59	1	66.52	1	0.0	1	4.47	1	343.19	1	232.99	1	1008.58	1	40.488146	18.053571
1891	2024-03-19 18:00:00	12	torchiarolo	14.57	1	74.41	1	0.0	1	3.14	1	336.86	1	46.36	1	1008.96	1	40.488146	18.053571
1892	2024-03-19 19:00:00	12	torchiarolo	13.16	1	82.18	1	0.0	1	1.85	1	326.54	1	0.0	5	1009.29	1	40.488146	18.053571
1893	2024-03-19 20:00:00	12	torchiarolo	12.45	1	84.47	1	0.0	1	2.32	1	322.85	1	0.0	1	1009.97	1	40.488146	18.053571
1894	2024-03-19 21:00:00	12	torchiarolo	12.12	1	88.14	1	0.0	1	1.61	1	300.68	1	0.0	1	1010.42	1	40.488146	18.053571
1895	2024-03-19 22:00:00	12	torchiarolo	11.52	1	91.52	1	0.0	1	1.49	1	292.34	1	0.0	1	1010.62	1	40.488146	18.053571
1896	2024-03-19 23:00:00	12	torchiarolo	11.52	1	90.26	1	0.0	1	2.06	1	295.26	1	0.0	1	1010.62	1	40.488146	18.053571
1897	2024-03-20 00:00:00	12	torchiarolo	11.49	1	89.34	1	0.0	1	1.52	1	300.29	1	0.0	1	1010.75	1	40.488146	18.053571
1898	2024-03-20 01:00:00	12	torchiarolo	11.45	1	89.86	1	0.0	1	1.43	1	314.03	1	0.0	1	1011.0	1	40.488146	18.053571
1899	2024-03-20 02:00:00	12	torchiarolo	11.42	1	81.24	1	0.0	1	2.31	1	4.96	1	0.0	1	1011.07	1	40.488146	18.053571
1900	2024-03-20 03:00:00	12	torchiarolo	12.03	1	65.08	1	0.0	1	2.79	1	39.86	1	0.0	1	1010.99	1	40.488146	18.053571
1901	2024-03-20 04:00:00	12	torchiarolo	11.65	1	59.65	1	0.0	1	3.5	1	35.47	1	0.0	1	1011.24	1	40.488146	18.053571
1902	2024-03-20 05:00:00	12	torchiarolo	11.02	1	57.1	1	0.0	1	3.1	1	28.03	1	0.0	1	1011.97	1	40.488146	18.053571
1903	2024-03-20 06:00:00	12	torchiarolo	10.52	1	56.7	1	0.0	1	2.84	1	24.33	1	0.0	5	1012.6	1	40.488146	18.053571
1904	2024-03-20 07:00:00	12	torchiarolo	11.2	1	52.38	1	0.0	1	2.98	1	14.51	1	64.77	1	1013.27	1	40.488146	18.053571
1905	2024-03-20 08:00:00	12	torchiarolo	14.17	1	46.72	1	0.0	1	4.16	1	15.93	1	271.45	1	1013.86	1	40.488146	18.053571
1906	2024-03-20 09:00:00	12	torchiarolo	15.51	1	45.65	1	0.0	1	4.58	1	18.77	1	478.46	1	1014.5	1	40.488146	18.053571
1907	2024-03-20 10:00:00	12	torchiarolo	16.37	1	43.1	1	0.0	1	4.79	1	15.63	1	647.75	1	1015.22	1	40.488146	18.053571
1908	2024-03-20 11:00:00	12	torchiarolo	16.53	1	43.5	1	0.0	1	4.64	1	15.43	1	763.68	1	1015.57	1	40.488146	18.053571
1909	2024-03-20 12:00:00	12	torchiarolo	16.99	1	41.8	1	0.0	1	4.76	1	5.2	1	826.84	1	1015.82	1	40.488146	18.053571
1910	2024-03-20 13:00:00	12	torchiarolo	17.29	1	38.49	1	0.0	1	4.84	1	7.8	1	827.81	1	1015.75	1	40.488146	18.053571
1911	2024-03-20 14:00:00	12	torchiarolo	17.51	1	38.15	1	0.0	1	5.16	1	8.26	1	546.64	1	1015.73	1	40.488146	18.053571
1912	2024-03-20 15:00:00	12	torchiarolo	17.7	1	40.75	1	0.0	1	4.83	1	4.96	1	627.54	1	1015.76	1	40.488146	18.053571
1913	2024-03-20 16:00:00	12	torchiarolo	17.48	1	40.88	1	0.0	1	4.57	1	349.94	1	454.76	1	1015.75	1	40.488146	18.053571
1914	2024-03-20 17:00:00	12	torchiarolo	15.58	1	44.89	1	0.0	1	3.4	1	340.9	1	234.16	1	1015.75	1	40.488146	18.053571
1915	2024-03-20 18:00:00	12	torchiarolo	13.51	1	54.48	1	0.0	1	2.98	1	337.05	1	51.65	1	1015.96	1	40.488146	18.053571
1916	2024-03-20 19:00:00	12	torchiarolo	11.69	1	62.49	1	0.0	1	1.7	1	331.4	1	0.0	5	1016.16	1	40.488146	18.053571
1917	2024-03-20 20:00:00	12	torchiarolo	10.22	1	68.5	1	0.0	1	1.29	1	312.49	1	0.0	1	1016.61	1	40.488146	18.053571
1918	2024-03-20 21:00:00	12	torchiarolo	9.62	1	73.43	1	0.0	1	1.06	1	296.1	1	0.0	1	1017.13	1	40.488146	18.053571
1919	2024-03-20 22:00:00	12	torchiarolo	9.25	1	76.21	1	0.0	1	1.11	1	288.08	1	0.0	1	1017.23	1	40.488146	18.053571
1920	2024-03-20 23:00:00	12	torchiarolo	8.43	1	80.62	1	0.0	1	1.12	1	287.38	1	0.0	1	1017.43	1	40.488146	18.053571
1921	2024-03-21 00:00:00	12	torchiarolo	8.0	1	82.75	1	0.0	1	1.54	1	277.32	1	0.0	1	1017.58	1	40.488146	18.053571
1922	2024-03-21 01:00:00	12	torchiarolo	7.63	1	85.39	1	0.0	1	0.53	1	271.98	1	0.0	1	1017.6	1	40.488146	18.053571
1923	2024-03-21 02:00:00	12	torchiarolo	7.25	1	86.3	1	0.0	1	1.39	1	282.0	1	0.0	1	1017.61	1	40.488146	18.053571
1924	2024-03-21 03:00:00	12	torchiarolo	7.49	1	85.6	1	0.0	1	1.35	1	291.55	1	0.0	1	1017.31	1	40.488146	18.053571
1925	2024-03-21 04:00:00	12	torchiarolo	7.28	1	85.22	1	0.0	1	0.72	1	262.83	1	0.0	1	1017.23	1	40.488146	18.053571
1926	2024-03-21 05:00:00	12	torchiarolo	6.62	1	87.44	1	0.0	1	1.38	1	252.02	1	0.0	1	1017.63	1	40.488146	18.053571
1927	2024-03-21 06:00:00	12	torchiarolo	6.45	1	87.77	1	0.0	1	0.8	1	262.03	1	0.0	5	1017.88	1	40.488146	18.053571
1928	2024-03-21 07:00:00	12	torchiarolo	7.81	1	82.69	1	0.0	1	0.99	1	263.71	1	70.29	1	1017.91	1	40.488146	18.053571
1929	2024-03-21 08:00:00	12	torchiarolo	13.91	1	63.28	1	0.0	1	1.11	1	289.56	1	274.47	1	1018.06	1	40.488146	18.053571
1930	2024-03-21 09:00:00	12	torchiarolo	18.09	1	53.56	1	0.0	1	1.16	1	291.35	1	473.76	1	1018.47	1	40.488146	18.053571
1931	2024-03-21 10:00:00	12	torchiarolo	19.88	1	47.77	1	0.0	1	1.28	1	299.5	1	638.79	1	1018.68	1	40.488146	18.053571
1932	2024-03-21 11:00:00	12	torchiarolo	20.27	1	40.98	1	0.0	1	1.18	1	255.7	1	755.38	1	1018.58	1	40.488146	18.053571
1933	2024-03-21 12:00:00	12	torchiarolo	21.13	1	39.63	1	0.0	1	2.03	1	355.34	1	806.71	1	1018.25	1	40.488146	18.053571
1934	2024-03-21 13:00:00	12	torchiarolo	20.24	1	48.64	1	0.0	1	2.67	1	19.48	1	808.51	1	1017.91	1	40.488146	18.053571
1935	2024-03-21 14:00:00	12	torchiarolo	20.44	1	43.44	1	0.0	1	2.15	1	16.11	1	592.77	1	1017.37	1	40.488146	18.053571
1936	2024-03-21 15:00:00	12	torchiarolo	21.33	1	35.19	1	0.0	1	1.8	1	11.62	1	622.47	1	1016.59	1	40.488146	18.053571
1937	2024-03-21 16:00:00	12	torchiarolo	20.51	1	32.31	1	0.0	1	1.24	1	42.77	1	456.25	1	1015.9	1	40.488146	18.053571
1938	2024-03-21 17:00:00	12	torchiarolo	18.33	1	41.62	1	0.0	1	1.4	1	58.31	1	249.88	1	1015.4	1	40.488146	18.053571
1939	2024-03-21 18:00:00	12	torchiarolo	15.14	1	51.68	1	0.0	1	0.44	1	88.64	1	50.93	1	1014.84	1	40.488146	18.053571
1940	2024-03-21 19:00:00	12	torchiarolo	13.85	1	53.75	1	0.0	1	0.07	1	133.43	1	0.0	5	1014.65	1	40.488146	18.053571
1941	2024-03-21 20:00:00	12	torchiarolo	13.07	1	57.55	1	0.0	1	0.3	1	204.81	1	0.0	1	1014.66	1	40.488146	18.053571
1942	2024-03-21 21:00:00	12	torchiarolo	12.56	1	66.89	1	0.0	1	0.12	1	226.43	1	0.0	1	1014.65	1	40.488146	18.053571
1943	2024-03-21 22:00:00	12	torchiarolo	11.78	1	71.85	1	0.0	1	0.05	1	205.72	1	0.0	1	1014.62	1	40.488146	18.053571
1944	2024-03-21 23:00:00	12	torchiarolo	11.2	1	75.01	1	0.0	1	0.31	1	202.17	1	0.0	1	1014.13	1	40.488146	18.053571
1945	2024-03-22 00:00:00	12	torchiarolo	9.96	1	81.37	1	0.0	1	0.29	1	225.71	1	0.0	1	1013.79	1	40.488146	18.053571
1946	2024-03-22 01:00:00	12	torchiarolo	9.77	1	83.08	1	0.0	1	1.16	1	218.86	1	0.0	1	1013.38	1	40.488146	18.053571
1947	2024-03-22 02:00:00	12	torchiarolo	9.48	1	85.65	1	0.0	1	1.01	1	219.11	1	0.0	1	1012.82	1	40.488146	18.053571
1948	2024-03-22 03:00:00	12	torchiarolo	9.19	1	85.99	1	0.0	1	1.05	1	229.58	1	0.0	1	1012.25	1	40.488146	18.053571
1949	2024-03-22 04:00:00	12	torchiarolo	8.6	1	86.01	1	0.0	1	1.5	1	251.28	1	0.0	1	1011.97	1	40.488146	18.053571
1950	2024-03-22 05:00:00	12	torchiarolo	8.64	1	82.27	1	0.0	1	1.05	1	267.54	1	0.0	1	1011.73	1	40.488146	18.053571
1951	2024-03-22 06:00:00	12	torchiarolo	8.88	1	81.82	1	0.0	1	0.56	1	301.4	1	0.0	5	1011.97	1	40.488146	18.053571
1952	2024-03-22 07:00:00	12	torchiarolo	9.39	1	86.7	1	0.0	1	0.42	1	288.7	1	37.81	1	1012.13	1	40.488146	18.053571
1953	2024-03-22 08:00:00	12	torchiarolo	12.53	1	83.07	1	0.0	1	0.8	1	2.22	1	154.04	1	1012.12	1	40.488146	18.053571
1954	2024-03-22 09:00:00	12	torchiarolo	15.89	1	72.82	1	0.0	1	1.4	1	14.02	1	305.99	1	1012.54	1	40.488146	18.053571
1955	2024-03-22 10:00:00	12	torchiarolo	16.63	1	71.9	1	0.0	1	2.14	1	56.77	1	333.8	1	1013.0	1	40.488146	18.053571
1956	2024-03-22 11:00:00	12	torchiarolo	16.53	1	69.96	1	0.0	1	2.49	1	15.59	1	284.29	1	1013.02	1	40.488146	18.053571
1957	2024-03-22 12:00:00	12	torchiarolo	17.02	1	66.25	1	0.0	1	3.16	1	13.33	1	475.33	1	1012.73	1	40.488146	18.053571
1958	2024-03-22 13:00:00	12	torchiarolo	18.37	1	61.24	1	0.0	1	4.42	1	359.16	1	609.74	1	1012.43	1	40.488146	18.053571
1959	2024-03-22 14:00:00	12	torchiarolo	19.01	1	59.67	1	0.0	1	4.27	1	14.13	1	620.35	1	1012.08	1	40.488146	18.053571
1960	2024-03-22 15:00:00	12	torchiarolo	18.93	1	61.27	1	0.0	1	4.32	1	4.41	1	493.97	1	1011.72	1	40.488146	18.053571
1961	2024-03-22 16:00:00	12	torchiarolo	18.64	1	62.54	1	0.0	1	3.92	1	350.02	1	384.05	1	1011.32	1	40.488146	18.053571
1962	2024-03-22 17:00:00	12	torchiarolo	17.67	1	65.12	1	0.0	1	3.88	1	343.47	1	247.48	1	1010.99	1	40.488146	18.053571
1963	2024-03-22 18:00:00	12	torchiarolo	15.39	1	73.47	1	0.0	1	3.51	1	334.87	1	52.98	1	1010.99	1	40.488146	18.053571
1964	2024-03-22 19:00:00	12	torchiarolo	13.93	1	83.85	1	0.0	1	2.24	1	324.66	1	0.0	5	1011.0	1	40.488146	18.053571
1965	2024-03-22 20:00:00	12	torchiarolo	12.94	1	89.58	1	0.0	1	1.48	1	322.17	1	0.0	1	1011.3	1	40.488146	18.053571
1966	2024-03-22 21:00:00	12	torchiarolo	12.39	1	92.59	1	0.0	1	0.6	1	324.0	1	0.0	1	1011.36	1	40.488146	18.053571
1967	2024-03-22 22:00:00	12	torchiarolo	11.84	1	94.24	1	0.0	1	0.61	1	306.13	1	0.0	1	1011.47	1	40.488146	18.053571
1968	2024-03-22 23:00:00	12	torchiarolo	11.37	1	95.47	1	0.0	1	0.38	1	283.25	1	0.0	1	1011.72	1	40.488146	18.053571
1969	2024-03-23 00:00:00	12	torchiarolo	11.02	1	96.59	1	0.0	1	0.74	1	316.62	1	0.0	1	1011.7	1	40.488146	18.053571
1970	2024-03-23 01:00:00	12	torchiarolo	11.13	1	97.6	1	0.0	1	1.26	1	319.47	1	0.0	1	1011.39	1	40.488146	18.053571
1971	2024-03-23 02:00:00	12	torchiarolo	10.89	1	98.03	1	0.0	1	1.03	1	324.46	1	0.0	1	1011.36	1	40.488146	18.053571
1972	2024-03-23 03:00:00	12	torchiarolo	10.43	1	98.37	1	0.0	1	0.51	1	313.7	1	0.0	1	1011.28	1	40.488146	18.053571
1973	2024-03-23 04:00:00	12	torchiarolo	10.15	1	98.72	1	0.0	1	0.31	1	299.34	1	0.0	1	1011.35	1	40.488146	18.053571
1974	2024-03-23 05:00:00	12	torchiarolo	9.82	1	98.88	1	0.0	1	0.03	1	324.24	1	0.0	1	1011.28	1	40.488146	18.053571
1975	2024-03-23 06:00:00	12	torchiarolo	9.56	1	99.09	1	0.0	1	0.35	1	285.35	1	0.0	5	1011.15	1	40.488146	18.053571
1976	2024-03-23 07:00:00	12	torchiarolo	10.08	1	98.69	1	0.2	1	null	3	234.53	1	50.31	1	1011.69	1	40.488146	18.053571
1977	2024-03-23 08:00:00	12	torchiarolo	14.41	1	88.95	1	0.0	1	0.5	1	320.06	1	258.29	1	1011.69	1	40.488146	18.053571
1978	2024-03-23 09:00:00	12	torchiarolo	19.64	1	62.5	1	0.0	1	0.72	1	344.26	1	446.48	1	1012.0	1	40.488146	18.053571
1979	2024-03-23 10:00:00	12	torchiarolo	20.14	1	59.42	1	0.0	1	1.06	1	155.13	1	533.21	1	1012.18	1	40.488146	18.053571
1980	2024-03-23 11:00:00	12	torchiarolo	21.2	1	54.01	1	0.0	1	2.02	1	183.39	1	736.16	1	1011.97	1	40.488146	18.053571
1981	2024-03-23 12:00:00	12	torchiarolo	21.58	1	49.97	1	0.0	1	2.31	1	232.21	1	642.4	1	1011.72	1	40.488146	18.053571
1982	2024-03-23 13:00:00	12	torchiarolo	22.53	1	44.25	1	0.0	1	2.67	1	236.47	1	802.12	1	1011.26	1	40.488146	18.053571
1983	2024-03-23 14:00:00	12	torchiarolo	23.21	1	38.65	1	0.0	1	2.82	1	229.63	1	594.39	1	1010.6	1	40.488146	18.053571
1984	2024-03-23 15:00:00	12	torchiarolo	23.11	1	38.46	1	0.0	1	2.89	1	217.84	1	608.04	1	1010.03	1	40.488146	18.053571
1985	2024-03-23 16:00:00	12	torchiarolo	22.02	1	42.86	1	0.0	1	2.94	1	212.14	1	433.88	1	1009.65	1	40.488146	18.053571
1986	2024-03-23 17:00:00	12	torchiarolo	20.05	1	50.45	1	0.0	1	2.76	1	206.39	1	245.53	1	1009.34	1	40.488146	18.053571
1987	2024-03-23 18:00:00	12	torchiarolo	17.51	1	53.65	1	0.0	1	2.54	1	207.24	1	54.93	1	1009.15	1	40.488146	18.053571
1988	2024-03-23 19:00:00	12	torchiarolo	15.66	1	63.83	1	0.0	1	1.97	1	216.38	1	0.0	5	1009.14	1	40.488146	18.053571
1989	2024-03-23 20:00:00	12	torchiarolo	14.28	1	78.82	1	0.0	1	1.94	1	203.91	1	0.0	1	1009.02	1	40.488146	18.053571
1990	2024-03-23 21:00:00	12	torchiarolo	13.81	1	82.64	1	0.0	1	2.08	1	193.86	1	0.0	1	1008.86	1	40.488146	18.053571
1991	2024-03-23 22:00:00	12	torchiarolo	13.47	1	84.89	1	0.0	1	1.65	1	188.26	1	0.0	1	1008.49	1	40.488146	18.053571
1992	2024-03-23 23:00:00	12	torchiarolo	13.57	1	87.19	1	0.0	1	2.26	1	197.84	1	0.0	1	1008.11	1	40.488146	18.053571
1993	2024-03-24 00:00:00	12	torchiarolo	13.57	1	89.12	1	0.0	1	2.46	1	193.58	1	0.0	1	1007.7	1	40.488146	18.053571
1994	2024-03-24 01:00:00	12	torchiarolo	13.51	1	89.74	1	0.0	1	2.36	1	199.98	1	0.0	1	1007.24	1	40.488146	18.053571
1995	2024-03-24 02:00:00	12	torchiarolo	13.06	1	90.27	1	0.0	1	1.9	1	193.02	1	0.0	1	1006.81	1	40.488146	18.053571
1996	2024-03-24 03:00:00	12	torchiarolo	12.62	1	92.25	1	0.0	1	2.2	1	190.58	1	0.0	1	1006.5	1	40.488146	18.053571
1997	2024-03-24 04:00:00	12	torchiarolo	12.1	1	92.98	1	0.0	1	1.99	1	183.73	1	0.0	1	1006.12	1	40.488146	18.053571
1998	2024-03-24 05:00:00	12	torchiarolo	11.87	1	93.81	1	0.0	1	1.91	1	180.06	1	0.0	1	1005.75	1	40.488146	18.053571
1999	2024-03-24 06:00:00	12	torchiarolo	11.52	1	94.42	1	0.0	1	1.51	1	183.13	1	0.0	5	1005.46	1	40.488146	18.053571
2000	2024-03-24 07:00:00	12	torchiarolo	12.79	1	90.22	1	0.0	1	1.81	1	191.5	1	73.64	1	1005.46	1	40.488146	18.053571
2001	2024-03-24 08:00:00	12	torchiarolo	17.07	1	72.51	1	0.0	1	2.1	1	212.29	1	282.29	1	1005.49	1	40.488146	18.053571
2002	2024-03-24 09:00:00	12	torchiarolo	18.63	1	63.56	1	0.0	1	3.79	1	222.93	1	468.19	1	1005.53	1	40.488146	18.053571
2003	2024-03-24 10:00:00	12	torchiarolo	19.68	1	56.47	1	0.0	1	4.55	1	223.95	1	616.27	1	1005.51	1	40.488146	18.053571
2004	2024-03-24 11:00:00	12	torchiarolo	20.04	1	52.57	1	0.0	1	4.29	1	213.83	1	730.81	1	1005.55	1	40.488146	18.053571
2005	2024-03-24 12:00:00	12	torchiarolo	20.97	1	49.93	1	0.0	1	3.97	1	216.05	1	669.0	1	1005.44	1	40.488146	18.053571
2006	2024-03-24 13:00:00	12	torchiarolo	20.18	1	51.67	1	0.0	1	3.95	1	221.18	1	429.59	1	1004.64	1	40.488146	18.053571
2007	2024-03-24 14:00:00	12	torchiarolo	21.58	1	46.12	1	0.0	1	4.35	1	222.01	1	585.79	1	1003.6	1	40.488146	18.053571
2008	2024-03-24 15:00:00	12	torchiarolo	21.41	1	41.87	1	0.0	1	4.15	1	213.49	1	434.47	1	1002.62	1	40.488146	18.053571
2009	2024-03-24 16:00:00	12	torchiarolo	22.04	1	38.84	1	0.0	1	4.03	1	205.91	1	445.64	1	1001.88	1	40.488146	18.053571
2010	2024-03-24 17:00:00	12	torchiarolo	20.69	1	46.05	1	0.0	1	4.02	1	210.49	1	254.83	1	1001.34	1	40.488146	18.053571
2011	2024-03-24 18:00:00	12	torchiarolo	18.31	1	56.15	1	0.0	1	3.81	1	210.9	1	51.05	1	1000.83	1	40.488146	18.053571
2012	2024-03-24 19:00:00	12	torchiarolo	16.85	1	64.43	1	0.0	1	2.96	1	213.77	1	0.0	5	1000.4	1	40.488146	18.053571
2013	2024-03-24 20:00:00	12	torchiarolo	16.0	1	66.65	1	0.0	1	2.68	1	233.92	1	0.0	1	1000.55	1	40.488146	18.053571
2014	2024-03-24 21:00:00	12	torchiarolo	15.38	1	70.69	1	0.0	1	2.58	1	244.25	1	0.0	1	1000.77	1	40.488146	18.053571
2015	2024-03-24 22:00:00	12	torchiarolo	14.38	1	75.5	1	0.0	1	1.1	1	251.35	1	0.0	1	1001.1	1	40.488146	18.053571
2016	2024-03-24 23:00:00	12	torchiarolo	13.02	1	79.64	1	0.0	1	0.51	1	274.92	1	0.0	1	1001.11	1	40.488146	18.053571
2017	2024-03-25 00:00:00	12	torchiarolo	12.31	1	80.08	1	0.0	1	1.07	1	329.78	1	0.0	1	1001.21	1	40.488146	18.053571
2018	2024-03-25 01:00:00	12	torchiarolo	12.71	1	83.41	1	0.0	1	0.06	1	297.96	1	0.0	1	1001.24	1	40.488146	18.053571
2019	2024-03-25 02:00:00	12	torchiarolo	12.86	1	84.59	1	0.0	1	0.02	1	322.89	1	0.0	1	1001.09	1	40.488146	18.053571
2020	2024-03-25 03:00:00	12	torchiarolo	12.84	1	84.35	1	0.0	1	0.58	1	324.5	1	0.0	1	1000.73	1	40.488146	18.053571
2021	2024-03-25 04:00:00	12	torchiarolo	12.67	1	82.51	1	0.0	1	0.99	1	330.87	1	0.0	1	1000.73	1	40.488146	18.053571
2022	2024-03-25 05:00:00	12	torchiarolo	11.55	1	86.42	1	0.0	1	0.18	1	326.35	1	0.0	1	1000.73	1	40.488146	18.053571
2023	2024-03-25 06:00:00	12	torchiarolo	10.1	1	88.63	1	0.0	1	0.31	1	284.23	1	0.0	5	1001.07	1	40.488146	18.053571
2024	2024-03-25 07:00:00	12	torchiarolo	11.07	1	81.95	1	0.0	1	1.25	1	270.63	1	81.87	1	1001.76	1	40.488146	18.053571
2025	2024-03-25 08:00:00	12	torchiarolo	15.75	1	61.77	1	0.0	1	2.36	1	327.42	1	292.93	1	1002.65	1	40.488146	18.053571
2026	2024-03-25 09:00:00	12	torchiarolo	18.21	1	53.12	1	0.0	1	2.9	1	330.46	1	489.55	1	1003.46	1	40.488146	18.053571
2027	2024-03-25 10:00:00	12	torchiarolo	18.96	1	49.86	1	0.0	1	4.33	1	335.2	1	660.05	1	1004.2	1	40.488146	18.053571
2028	2024-03-25 11:00:00	12	torchiarolo	19.12	1	48.37	1	0.0	1	4.39	1	333.07	1	732.03	1	1004.74	1	40.488146	18.053571
2029	2024-03-25 12:00:00	12	torchiarolo	19.5	1	45.1	1	0.0	1	3.98	1	334.45	1	725.31	1	1004.86	1	40.488146	18.053571
2030	2024-03-25 13:00:00	12	torchiarolo	20.57	1	40.4	1	0.0	1	3.84	1	335.22	1	832.89	1	1005.13	1	40.488146	18.053571
2031	2024-03-25 14:00:00	12	torchiarolo	20.82	1	38.42	1	0.0	1	3.82	1	335.66	1	582.28	1	1004.95	1	40.488146	18.053571
2032	2024-03-25 15:00:00	12	torchiarolo	18.73	1	45.42	1	0.0	1	3.83	1	355.73	1	491.61	1	1005.01	1	40.488146	18.053571
2033	2024-03-25 16:00:00	12	torchiarolo	18.52	1	42.86	1	0.0	1	3.55	1	14.37	1	417.47	1	1004.89	1	40.488146	18.053571
2034	2024-03-25 17:00:00	12	torchiarolo	16.22	1	47.89	1	0.0	1	2.28	1	21.37	1	141.17	1	1004.48	1	40.488146	18.053571
2035	2024-03-25 18:00:00	12	torchiarolo	14.49	1	52.29	1	0.0	1	0.2	1	11.47	1	31.67	1	1005.03	1	40.488146	18.053571
2036	2024-03-25 19:00:00	12	torchiarolo	12.94	1	60.15	1	0.0	1	0.07	1	35.14	1	0.0	5	1004.52	1	40.488146	18.053571
2037	2024-03-25 20:00:00	12	torchiarolo	12.61	1	61.62	1	0.0	1	0.05	1	19.83	1	0.0	1	1004.77	1	40.488146	18.053571
2038	2024-03-25 21:00:00	12	torchiarolo	12.74	1	60.41	1	0.0	1	0.02	1	157.49	1	0.0	1	1005.11	1	40.488146	18.053571
2039	2024-03-25 22:00:00	12	torchiarolo	12.88	1	62.55	1	0.0	1	null	3	106.88	1	0.0	1	1004.97	1	40.488146	18.053571
2040	2024-03-25 23:00:00	12	torchiarolo	12.53	1	62.08	1	0.0	1	0.11	1	209.92	1	0.0	1	1005.42	1	40.488146	18.053571
2041	2024-03-26 00:00:00	12	torchiarolo	12.41	1	64.28	1	0.0	1	0.63	1	212.16	1	0.0	1	1005.33	1	40.488146	18.053571
2042	2024-03-26 01:00:00	12	torchiarolo	11.97	1	68.66	1	0.0	1	0.03	1	98.86	1	0.0	1	1004.86	1	40.488146	18.053571
2043	2024-03-26 02:00:00	12	torchiarolo	11.97	1	69.27	1	0.0	1	0.08	1	172.3	1	0.0	1	1004.91	1	40.488146	18.053571
2044	2024-03-26 03:00:00	12	torchiarolo	12.31	1	69.39	1	0.0	1	0.9	1	137.72	1	0.0	1	1004.26	1	40.488146	18.053571
2045	2024-03-26 04:00:00	12	torchiarolo	12.07	1	74.25	1	0.0	1	1.31	1	132.79	1	0.0	1	1003.41	1	40.488146	18.053571
2046	2024-03-26 05:00:00	12	torchiarolo	12.3	1	73.6	1	0.0	1	1.55	1	145.56	1	0.0	1	1003.05	1	40.488146	18.053571
2047	2024-03-26 06:00:00	12	torchiarolo	12.7	1	70.99	1	0.0	1	1.85	1	137.14	1	0.0	5	1002.96	1	40.488146	18.053571
2048	2024-03-26 07:00:00	12	torchiarolo	13.02	1	69.01	1	0.0	1	2.01	1	135.34	1	18.5	1	1001.93	1	40.488146	18.053571
2049	2024-03-26 08:00:00	12	torchiarolo	13.66	1	67.23	1	0.0	1	2.03	1	132.32	1	40.29	1	1001.52	1	40.488146	18.053571
2050	2024-03-26 09:00:00	12	torchiarolo	14.02	1	72.32	1	0.0	1	1.32	1	145.64	1	34.6	1	1002.07	1	40.488146	18.053571
2051	2024-03-26 10:00:00	12	torchiarolo	14.03	1	77.8	1	0.2	1	1.1	1	127.16	1	41.94	1	1001.6	1	40.488146	18.053571
2052	2024-03-26 11:00:00	12	torchiarolo	14.93	1	79.15	1	0.0	1	2.2	1	132.68	1	107.17	1	1000.91	1	40.488146	18.053571
2053	2024-03-26 12:00:00	12	torchiarolo	16.13	1	73.71	1	0.0	1	3.7	1	130.71	1	151.3	1	999.54	1	40.488146	18.053571
2054	2024-03-26 13:00:00	12	torchiarolo	17.11	1	69.76	1	0.0	1	4.78	1	132.94	1	185.76	1	998.27	1	40.488146	18.053571
2055	2024-03-26 14:00:00	12	torchiarolo	17.22	1	70.56	1	0.0	1	5.25	1	137.13	1	132.05	1	996.73	1	40.488146	18.053571
2056	2024-03-26 15:00:00	12	torchiarolo	17.58	1	72.48	1	0.0	1	4.94	1	139.5	1	140.05	1	995.27	1	40.488146	18.053571
2057	2024-03-26 16:00:00	12	torchiarolo	17.55	1	76.84	1	0.0	1	4.63	1	155.8	1	93.29	1	994.56	1	40.488146	18.053571
2058	2024-03-26 17:00:00	12	torchiarolo	17.49	1	78.21	1	0.0	1	4.39	1	164.16	1	52.87	1	994.34	1	40.488146	18.053571
2059	2024-03-26 18:00:00	12	torchiarolo	17.04	1	82.49	1	0.2	1	3.32	1	169.47	1	47.88	1	994.51	1	40.488146	18.053571
2060	2024-03-26 19:00:00	12	torchiarolo	16.37	1	82.65	1	0.0	1	2.83	1	162.51	1	0.0	5	994.69	1	40.488146	18.053571
2061	2024-03-26 20:00:00	12	torchiarolo	16.31	1	81.29	1	0.0	1	3.92	1	184.63	1	0.0	1	995.23	1	40.488146	18.053571
2062	2024-03-26 21:00:00	12	torchiarolo	16.92	1	77.63	1	0.0	1	4.46	1	188.29	1	0.0	1	996.0	1	40.488146	18.053571
2063	2024-03-26 22:00:00	12	torchiarolo	16.72	1	80.05	1	0.0	1	3.8	1	185.19	1	0.0	1	996.51	1	40.488146	18.053571
2064	2024-03-26 23:00:00	12	torchiarolo	16.66	1	81.33	1	0.0	1	2.99	1	182.26	1	0.0	1	996.69	1	40.488146	18.053571
2065	2024-03-27 00:00:00	12	torchiarolo	16.18	1	84.04	1	0.0	1	1.86	1	170.08	1	0.0	1	996.34	1	40.488146	18.053571
2066	2024-03-27 01:00:00	12	torchiarolo	16.0	1	86.79	1	0.0	1	1.59	1	138.62	1	0.0	1	996.33	1	40.488146	18.053571
2067	2024-03-27 02:00:00	12	torchiarolo	16.03	1	88.68	1	0.0	1	1.69	1	154.4	1	0.0	1	996.32	1	40.488146	18.053571
2068	2024-03-27 03:00:00	12	torchiarolo	16.18	1	89.85	1	0.0	1	1.74	1	172.75	1	0.0	1	996.34	1	40.488146	18.053571
2069	2024-03-27 04:00:00	12	torchiarolo	16.2	1	90.29	1	0.0	1	2.09	1	177.4	1	0.0	1	996.34	1	40.488146	18.053571
2070	2024-03-27 05:00:00	12	torchiarolo	16.21	1	90.29	1	0.0	1	1.21	1	166.36	1	0.0	1	996.52	1	40.488146	18.053571
2071	2024-03-27 06:00:00	12	torchiarolo	16.3	1	90.26	1	0.0	1	1.94	1	167.65	1	0.0	5	996.52	1	40.488146	18.053571
2072	2024-03-27 07:00:00	12	torchiarolo	16.52	1	88.98	1	0.0	1	2.6	1	176.92	1	38.12	1	996.21	1	40.488146	18.053571
2073	2024-03-27 08:00:00	12	torchiarolo	17.33	1	84.81	1	0.0	1	2.66	1	176.56	1	98.79	1	996.27	1	40.488146	18.053571
2074	2024-03-27 09:00:00	12	torchiarolo	18.47	1	79.41	1	0.0	1	3.16	1	162.21	1	207.75	1	996.17	1	40.488146	18.053571
2075	2024-03-27 10:00:00	12	torchiarolo	20.6	1	69.02	1	0.0	1	4.15	1	151.03	1	482.99	1	995.97	1	40.488146	18.053571
2076	2024-03-27 11:00:00	12	torchiarolo	22.55	1	63.65	1	0.0	1	4.34	1	159.45	1	626.98	1	996.04	1	40.488146	18.053571
2077	2024-03-27 12:00:00	12	torchiarolo	23.14	1	60.4	1	0.0	1	4.62	1	150.15	1	667.13	1	996.09	1	40.488146	18.053571
2078	2024-03-27 13:00:00	12	torchiarolo	23.45	1	58.52	1	0.0	1	5.07	1	162.77	1	621.87	1	995.93	1	40.488146	18.053571
2079	2024-03-27 14:00:00	12	torchiarolo	23.66	1	55.97	1	0.0	1	4.85	1	158.08	1	525.9	1	995.16	1	40.488146	18.053571
2080	2024-03-27 15:00:00	12	torchiarolo	23.37	1	55.24	1	0.0	1	5.01	1	153.98	1	430.18	1	994.55	1	40.488146	18.053571
2081	2024-03-27 16:00:00	12	torchiarolo	22.43	1	55.6	1	0.0	1	4.6	1	161.52	1	247.39	1	993.66	1	40.488146	18.053571
2082	2024-03-27 17:00:00	12	torchiarolo	20.56	1	63.37	1	0.0	1	4.83	1	154.46	1	117.46	1	992.64	1	40.488146	18.053571
2083	2024-03-27 18:00:00	12	torchiarolo	18.99	1	71.31	1	0.0	1	4.62	1	152.47	1	32.09	1	991.79	1	40.488146	18.053571
2084	2024-03-27 19:00:00	12	torchiarolo	18.2	1	74.99	1	0.0	1	4.69	1	175.6	1	0.0	5	991.7	1	40.488146	18.053571
2085	2024-03-27 20:00:00	12	torchiarolo	18.2	1	75.43	1	0.0	1	4.44	1	198.54	1	0.0	1	993.67	1	40.488146	18.053571
2086	2024-03-27 21:00:00	12	torchiarolo	17.16	1	67.03	1	0.0	1	3.86	1	219.08	1	0.0	1	995.58	1	40.488146	18.053571
2087	2024-03-27 22:00:00	12	torchiarolo	16.44	1	59.29	1	0.0	1	3.27	1	263.04	1	0.0	1	996.6	1	40.488146	18.053571
2088	2024-03-27 23:00:00	12	torchiarolo	15.53	1	67.11	1	0.0	1	1.09	1	220.45	1	0.0	1	997.7	1	40.488146	18.053571
2089	2024-03-28 00:00:00	12	torchiarolo	15.21	1	58.19	1	0.0	1	2.24	1	237.81	1	0.0	1	998.88	1	40.488146	18.053571
2090	2024-03-28 01:00:00	12	torchiarolo	13.8	1	66.02	1	0.0	1	1.82	1	263.03	1	0.0	1	999.9	1	40.488146	18.053571
2091	2024-03-28 02:00:00	12	torchiarolo	12.93	1	67.98	1	0.0	1	2.23	1	225.1	1	0.0	1	1000.88	1	40.488146	18.053571
2092	2024-03-28 03:00:00	12	torchiarolo	11.62	1	71.11	1	0.0	1	0.97	1	245.41	1	0.0	1	1001.62	1	40.488146	18.053571
2093	2024-03-28 04:00:00	12	torchiarolo	11.56	1	69.27	1	0.0	1	1.58	1	227.54	1	0.0	1	1002.19	1	40.488146	18.053571
2094	2024-03-28 05:00:00	12	torchiarolo	11.49	1	66.09	1	0.0	1	1.41	1	228.6	1	0.0	1	1003.22	1	40.488146	18.053571
2095	2024-03-28 06:00:00	12	torchiarolo	10.99	1	71.69	1	0.0	1	1.16	1	205.05	1	0.0	5	1004.35	1	40.488146	18.053571
2096	2024-03-28 07:00:00	12	torchiarolo	12.49	1	73.02	1	0.0	1	0.72	1	175.55	1	97.8	1	1005.43	1	40.488146	18.053571
2097	2024-03-28 08:00:00	12	torchiarolo	17.76	1	57.98	1	0.0	1	1.23	1	176.11	1	308.08	1	1006.37	1	40.488146	18.053571
2098	2024-03-28 09:00:00	12	torchiarolo	20.42	1	50.97	1	0.0	1	2.17	1	201.59	1	503.58	1	1006.96	1	40.488146	18.053571
2099	2024-03-28 10:00:00	12	torchiarolo	21.23	1	47.18	1	0.0	1	3.29	1	200.47	1	625.12	1	1007.16	1	40.488146	18.053571
2100	2024-03-28 11:00:00	12	torchiarolo	21.18	1	45.25	1	0.0	1	4.01	1	226.54	1	759.04	1	1008.0	1	40.488146	18.053571
2101	2024-03-28 12:00:00	12	torchiarolo	21.7	1	39.97	1	0.0	1	4.19	1	240.83	1	826.31	1	1008.58	1	40.488146	18.053571
2102	2024-03-28 13:00:00	12	torchiarolo	23.02	1	35.94	1	0.0	1	3.95	1	230.16	1	757.95	1	1008.62	1	40.488146	18.053571
2103	2024-03-28 14:00:00	12	torchiarolo	22.96	1	40.24	1	0.0	1	4.11	1	223.04	1	646.44	1	1008.74	1	40.488146	18.053571
2104	2024-03-28 15:00:00	12	torchiarolo	22.77	1	40.3	1	0.0	1	4.04	1	225.52	1	638.91	1	1009.0	1	40.488146	18.053571
2105	2024-03-28 16:00:00	12	torchiarolo	22.58	1	39.93	1	0.0	1	4.05	1	220.93	1	474.24	1	1009.02	1	40.488146	18.053571
2106	2024-03-28 17:00:00	12	torchiarolo	20.69	1	42.04	1	0.0	1	4.14	1	220.48	1	290.88	1	1009.24	1	40.488146	18.053571
2107	2024-03-28 18:00:00	12	torchiarolo	18.71	1	42.8	1	0.0	1	2.54	1	206.75	1	32.66	1	1009.82	1	40.488146	18.053571
2108	2024-03-28 19:00:00	12	torchiarolo	17.16	1	52.66	1	0.0	1	1.77	1	197.98	1	0.0	5	1010.18	1	40.488146	18.053571
2109	2024-03-28 20:00:00	12	torchiarolo	15.77	1	57.49	1	0.0	1	1.48	1	166.57	1	0.0	1	1010.49	1	40.488146	18.053571
2110	2024-03-28 21:00:00	12	torchiarolo	15.08	1	59.8	1	0.0	1	1.64	1	171.69	1	0.0	1	1010.71	1	40.488146	18.053571
2111	2024-03-28 22:00:00	12	torchiarolo	14.39	1	70.59	1	0.0	1	1.63	1	138.77	1	0.0	1	1011.18	1	40.488146	18.053571
2112	2024-03-28 23:00:00	12	torchiarolo	13.77	1	80.19	1	0.0	1	2.26	1	183.54	1	0.0	1	1011.58	1	40.488146	18.053571
2113	2024-03-29 00:00:00	12	torchiarolo	13.99	1	79.91	1	0.0	1	2.17	1	186.21	1	0.0	1	1011.93	1	40.488146	18.053571
2114	2024-03-29 01:00:00	12	torchiarolo	13.48	1	83.99	1	0.0	1	1.97	1	180.81	1	0.0	1	1012.1	1	40.488146	18.053571
2115	2024-03-29 02:00:00	12	torchiarolo	13.08	1	85.42	1	0.0	1	1.22	1	173.01	1	0.0	1	1012.48	1	40.488146	18.053571
2116	2024-03-29 03:00:00	12	torchiarolo	12.6	1	86.95	1	0.0	1	1.08	1	196.32	1	0.0	1	1012.82	1	40.488146	18.053571
2117	2024-03-29 04:00:00	12	torchiarolo	12.48	1	89.28	1	0.0	1	1.17	1	182.59	1	0.0	1	1012.84	1	40.488146	18.053571
2118	2024-03-29 05:00:00	12	torchiarolo	12.24	1	90.77	1	0.0	1	0.26	1	161.92	1	0.0	1	1012.94	1	40.488146	18.053571
2119	2024-03-29 06:00:00	12	torchiarolo	12.28	1	89.85	1	0.0	1	1.02	1	182.94	1	0.0	5	1013.17	1	40.488146	18.053571
2120	2024-03-29 07:00:00	12	torchiarolo	12.92	1	86.33	1	0.0	1	0.29	1	183.43	1	80.58	1	1013.85	1	40.488146	18.053571
2121	2024-03-29 08:00:00	12	torchiarolo	17.88	1	70.35	1	0.0	1	1.52	1	186.9	1	265.22	1	1013.92	1	40.488146	18.053571
2122	2024-03-29 09:00:00	12	torchiarolo	20.64	1	58.45	1	0.0	1	1.32	1	178.13	1	371.64	1	1014.42	1	40.488146	18.053571
2123	2024-03-29 10:00:00	12	torchiarolo	23.46	1	47.04	1	0.0	1	1.17	1	197.6	1	550.48	1	1014.93	1	40.488146	18.053571
2124	2024-03-29 11:00:00	12	torchiarolo	26.05	1	34.02	1	0.0	1	1.14	1	198.65	1	715.44	1	1014.95	1	40.488146	18.053571
2125	2024-03-29 12:00:00	12	torchiarolo	26.74	1	32.63	1	0.0	1	1.16	1	171.76	1	660.54	1	1014.5	1	40.488146	18.053571
2126	2024-03-29 13:00:00	12	torchiarolo	24.88	1	49.9	1	0.0	1	3.51	1	121.71	1	553.26	1	1014.22	1	40.488146	18.053571
2127	2024-03-29 14:00:00	12	torchiarolo	25.4	1	42.11	1	0.0	1	3.61	1	124.39	1	646.72	1	1013.69	1	40.488146	18.053571
2128	2024-03-29 15:00:00	12	torchiarolo	26.1	1	34.12	1	0.0	1	3.12	1	126.73	1	628.71	1	1013.3	1	40.488146	18.053571
2129	2024-03-29 16:00:00	12	torchiarolo	26.06	1	32.64	1	0.0	1	2.99	1	147.11	1	461.66	1	1012.99	1	40.488146	18.053571
2130	2024-03-29 17:00:00	12	torchiarolo	24.55	1	35.17	1	0.0	1	2.87	1	159.94	1	276.49	1	1012.82	1	40.488146	18.053571
2131	2024-03-29 18:00:00	12	torchiarolo	null	6	null	6	null	6	null	6	null	6	null	6	null	6	40.488146	18.053571
2132	2024-03-29 19:00:00	12	torchiarolo	null	6	null	6	null	6	null	6	null	6	null	6	null	6	40.488146	18.053571
2133	2024-03-29 20:00:00	12	torchiarolo	null	6	null	6	null	6	null	6	null	6	null	6	null	6	40.488146	18.053571
2134	2024-03-29 21:00:00	12	torchiarolo	null	6	null	6	null	6	null	6	null	6	null	6	null	6	40.488146	18.053571
2135	2024-03-29 22:00:00	12	torchiarolo	null	6	null	6	null	6	null	6	null	6	null	6	null	6	40.488146	18.053571
2136	2024-03-29 23:00:00	12	torchiarolo	null	6	null	6	null	6	null	6	null	6	null	6	null	6	40.488146	18.053571
2137	2024-03-30 00:00:00	12	torchiarolo	null	6	null	6	null	6	null	6	null	6	null	6	null	6	40.488146	18.053571
2138	2024-03-30 01:00:00	12	torchiarolo	null	6	null	6	null	6	null	6	null	6	null	6	null	6	40.488146	18.053571
2139	2024-03-30 02:00:00	12	torchiarolo	null	6	null	6	null	6	null	6	null	6	null	6	null	6	40.488146	18.053571
2140	2024-03-30 03:00:00	12	torchiarolo	null	6	null	6	null	6	null	6	null	6	null	6	null	6	40.488146	18.053571
2141	2024-03-30 04:00:00	12	torchiarolo	null	6	null	6	null	6	null	6	null	6	null	6	null	6	40.488146	18.053571
2142	2024-03-30 05:00:00	12	torchiarolo	null	6	null	6	null	6	null	6	null	6	null	6	null	6	40.488146	18.053571
2143	2024-03-30 06:00:00	12	torchiarolo	null	6	null	6	null	6	null	6	null	6	null	6	null	6	40.488146	18.053571
2144	2024-03-30 07:00:00	12	torchiarolo	null	6	null	6	null	6	null	6	null	6	null	6	null	6	40.488146	18.053571
2145	2024-03-30 08:00:00	12	torchiarolo	null	6	null	6	null	6	null	6	null	6	null	6	null	6	40.488146	18.053571
2146	2024-03-30 09:00:00	12	torchiarolo	null	6	null	6	null	6	null	6	null	6	null	6	null	6	40.488146	18.053571
2147	2024-03-30 10:00:00	12	torchiarolo	null	6	null	6	null	6	null	6	null	6	null	6	null	6	40.488146	18.053571
2148	2024-03-30 11:00:00	12	torchiarolo	null	6	null	6	null	6	null	6	null	6	null	6	null	6	40.488146	18.053571
2149	2024-03-30 12:00:00	12	torchiarolo	null	6	null	6	null	6	null	6	null	6	null	6	null	6	40.488146	18.053571
2150	2024-03-30 13:00:00	12	torchiarolo	null	6	null	6	null	6	null	6	null	6	null	6	null	6	40.488146	18.053571
2151	2024-03-30 14:00:00	12	torchiarolo	null	6	null	6	null	6	null	6	null	6	null	6	null	6	40.488146	18.053571
2152	2024-03-30 15:00:00	12	torchiarolo	null	6	null	6	null	6	null	6	null	6	null	6	null	6	40.488146	18.053571
2153	2024-03-30 16:00:00	12	torchiarolo	null	6	null	6	null	6	null	6	null	6	null	6	null	6	40.488146	18.053571
2154	2024-03-30 17:00:00	12	torchiarolo	null	6	null	6	null	6	null	6	null	6	null	6	null	6	40.488146	18.053571
2155	2024-03-30 18:00:00	12	torchiarolo	null	6	null	6	null	6	null	6	null	6	null	6	null	6	40.488146	18.053571
2156	2024-03-30 19:00:00	12	torchiarolo	null	6	null	6	null	6	null	6	null	6	null	6	null	6	40.488146	18.053571
2157	2024-03-30 20:00:00	12	torchiarolo	null	6	null	6	null	6	null	6	null	6	null	6	null	6	40.488146	18.053571
2158	2024-03-30 21:00:00	12	torchiarolo	null	6	null	6	null	6	null	6	null	6	null	6	null	6	40.488146	18.053571
2159	2024-03-30 22:00:00	12	torchiarolo	null	6	null	6	null	6	null	6	null	6	null	6	null	6	40.488146	18.053571
2160	2024-03-30 23:00:00	12	torchiarolo	null	6	null	6	null	6	null	6	null	6	null	6	null	6	40.488146	18.053571
2161	2024-03-31 00:00:00	12	torchiarolo	null	6	null	6	null	6	null	6	null	6	null	6	null	6	40.488146	18.053571
2162	2024-03-31 01:00:00	12	torchiarolo	null	6	null	6	null	6	null	6	null	6	null	6	null	6	40.488146	18.053571
2163	2024-03-31 03:00:00	12	torchiarolo	null	6	null	6	null	6	null	6	null	6	null	6	null	6	40.488146	18.053571
2164	2024-03-31 03:00:00	12	torchiarolo	null	6	null	6	null	6	null	6	null	6	null	6	null	6	40.488146	18.053571
2165	2024-03-31 04:00:00	12	torchiarolo	null	6	null	6	null	6	null	6	null	6	null	6	null	6	40.488146	18.053571
2166	2024-03-31 05:00:00	12	torchiarolo	null	6	null	6	null	6	null	6	null	6	null	6	null	6	40.488146	18.053571
2167	2024-03-31 06:00:00	12	torchiarolo	null	6	null	6	null	6	null	6	null	6	null	6	null	6	40.488146	18.053571
2168	2024-03-31 07:00:00	12	torchiarolo	null	6	null	6	null	6	null	6	null	6	null	6	null	6	40.488146	18.053571
2169	2024-03-31 08:00:00	12	torchiarolo	null	6	null	6	null	6	null	6	null	6	null	6	null	6	40.488146	18.053571
2170	2024-03-31 09:00:00	12	torchiarolo	null	6	null	6	null	6	null	6	null	6	null	6	null	6	40.488146	18.053571
2171	2024-03-31 10:00:00	12	torchiarolo	null	6	null	6	null	6	null	6	null	6	null	6	null	6	40.488146	18.053571
2172	2024-03-31 11:00:00	12	torchiarolo	null	6	null	6	null	6	null	6	null	6	null	6	null	6	40.488146	18.053571
2173	2024-03-31 12:00:00	12	torchiarolo	null	6	null	6	null	6	null	6	null	6	null	6	null	6	40.488146	18.053571
2174	2024-03-31 13:00:00	12	torchiarolo	null	6	null	6	null	6	null	6	null	6	null	6	null	6	40.488146	18.053571
2175	2024-03-31 14:00:00	12	torchiarolo	null	6	null	6	null	6	null	6	null	6	null	6	null	6	40.488146	18.053571
2176	2024-03-31 15:00:00	12	torchiarolo	null	6	null	6	null	6	null	6	null	6	null	6	null	6	40.488146	18.053571
2177	2024-03-31 16:00:00	12	torchiarolo	null	6	null	6	null	6	null	6	null	6	null	6	null	6	40.488146	18.053571
2178	2024-03-31 17:00:00	12	torchiarolo	null	6	null	6	null	6	null	6	null	6	null	6	null	6	40.488146	18.053571
2179	2024-03-31 18:00:00	12	torchiarolo	null	6	null	6	null	6	null	6	null	6	null	6	null	6	40.488146	18.053571
2180	2024-03-31 19:00:00	12	torchiarolo	null	6	null	6	null	6	null	6	null	6	null	6	null	6	40.488146	18.053571
2181	2024-03-31 20:00:00	12	torchiarolo	null	6	null	6	null	6	null	6	null	6	null	6	null	6	40.488146	18.053571
2182	2024-03-31 21:00:00	12	torchiarolo	null	6	null	6	null	6	null	6	null	6	null	6	null	6	40.488146	18.053571
2183	2024-03-31 22:00:00	12	torchiarolo	null	6	null	6	null	6	null	6	null	6	null	6	null	6	40.488146	18.053571
2184	2024-03-31 23:00:00	12	torchiarolo	null	6	null	6	null	6	null	6	null	6	null	6	null	6	40.488146	18.053571
2185	2024-04-01 00:00:00	12	torchiarolo	null	6	null	6	0.0	5	null	6	null	6	null	6	null	6	40.488146	18.053571
2186	2024-04-01 01:00:00	12	torchiarolo	null	6	null	6	0.0	5	null	6	null	6	null	6	null	6	40.488146	18.053571
2187	2024-04-01 02:00:00	12	torchiarolo	null	6	null	6	0.0	5	null	6	null	6	null	6	null	6	40.488146	18.053571
2188	2024-04-01 03:00:00	12	torchiarolo	null	6	null	6	0.0	5	null	6	null	6	null	6	null	6	40.488146	18.053571
2189	2024-04-01 04:00:00	12	torchiarolo	null	6	null	6	0.0	5	null	6	null	6	null	6	null	6	40.488146	18.053571
2190	2024-04-01 05:00:00	12	torchiarolo	null	6	null	6	0.0	5	null	6	null	6	null	6	null	6	40.488146	18.053571
2191	2024-04-01 06:00:00	12	torchiarolo	null	6	null	6	0.0	5	null	6	null	6	null	6	null	6	40.488146	18.053571
2192	2024-04-01 07:00:00	12	torchiarolo	null	6	null	6	0.0	5	null	6	null	6	null	6	null	6	40.488146	18.053571
2193	2024-04-01 08:00:00	12	torchiarolo	null	6	null	6	0.0	5	null	6	null	6	null	6	null	6	40.488146	18.053571
2194	2024-04-01 09:00:00	12	torchiarolo	null	6	null	6	0.0	5	null	6	null	6	null	6	null	6	40.488146	18.053571
2195	2024-04-01 10:00:00	12	torchiarolo	null	6	null	6	0.0	5	null	6	null	6	null	6	null	6	40.488146	18.053571
2196	2024-04-01 11:00:00	12	torchiarolo	null	6	null	6	0.0	5	null	6	null	6	null	6	null	6	40.488146	18.053571
2197	2024-04-01 12:00:00	12	torchiarolo	null	6	null	6	0.0	5	null	6	null	6	null	6	null	6	40.488146	18.053571
2198	2024-04-01 13:00:00	12	torchiarolo	null	6	null	6	0.0	5	null	6	null	6	null	6	null	6	40.488146	18.053571
2199	2024-04-01 14:00:00	12	torchiarolo	null	6	null	6	0.0	5	null	6	null	6	null	6	null	6	40.488146	18.053571
2200	2024-04-01 15:00:00	12	torchiarolo	null	6	null	6	0.0	5	null	6	null	6	null	6	null	6	40.488146	18.053571
2201	2024-04-01 16:00:00	12	torchiarolo	null	6	null	6	0.0	5	null	6	null	6	null	6	null	6	40.488146	18.053571
2202	2024-04-01 17:00:00	12	torchiarolo	null	6	null	6	0.0	5	null	6	null	6	null	6	null	6	40.488146	18.053571
2203	2024-04-01 18:00:00	12	torchiarolo	null	6	null	6	0.0	5	null	6	null	6	null	6	null	6	40.488146	18.053571
2204	2024-04-01 19:00:00	12	torchiarolo	null	6	null	6	0.0	5	null	6	null	6	null	6	null	6	40.488146	18.053571
2205	2024-04-01 20:00:00	12	torchiarolo	null	6	null	6	0.0	5	null	6	null	6	null	6	null	6	40.488146	18.053571
2206	2024-04-01 21:00:00	12	torchiarolo	null	6	null	6	0.0	5	null	6	null	6	null	6	null	6	40.488146	18.053571
2207	2024-04-01 22:00:00	12	torchiarolo	null	6	null	6	0.0	5	null	6	null	6	null	6	null	6	40.488146	18.053571
2208	2024-04-01 23:00:00	12	torchiarolo	null	6	null	6	0.0	5	null	6	null	6	null	6	null	6	40.488146	18.053571
2209	2024-04-02 00:00:00	12	torchiarolo	null	6	null	6	0.0	5	null	6	null	6	null	6	null	6	40.488146	18.053571
2210	2024-04-02 01:00:00	12	torchiarolo	null	6	null	6	0.0	5	null	6	null	6	null	6	null	6	40.488146	18.053571
2211	2024-04-02 02:00:00	12	torchiarolo	null	6	null	6	0.0	5	null	6	null	6	null	6	null	6	40.488146	18.053571
2212	2024-04-02 03:00:00	12	torchiarolo	null	6	null	6	0.0	5	null	6	null	6	null	6	null	6	40.488146	18.053571
2213	2024-04-02 04:00:00	12	torchiarolo	null	6	null	6	0.0	5	null	6	null	6	null	6	null	6	40.488146	18.053571
2214	2024-04-02 05:00:00	12	torchiarolo	null	6	null	6	0.0	5	null	6	null	6	null	6	null	6	40.488146	18.053571
2215	2024-04-02 06:00:00	12	torchiarolo	null	6	null	6	0.0	5	null	6	null	6	null	6	null	6	40.488146	18.053571
2216	2024-04-02 07:00:00	12	torchiarolo	null	6	null	6	0.0	5	null	6	null	6	null	6	null	6	40.488146	18.053571
2217	2024-04-02 08:00:00	12	torchiarolo	null	6	null	6	0.0	5	null	6	null	6	null	6	null	6	40.488146	18.053571
2218	2024-04-02 09:00:00	12	torchiarolo	null	6	null	6	0.0	5	null	6	null	6	null	6	null	6	40.488146	18.053571
2219	2024-04-02 10:00:00	12	torchiarolo	22.09	1	46.73	1	0.0	1	0.99	1	289.36	1	633.15	1	1011.99	1	40.488146	18.053571
2220	2024-04-02 11:00:00	12	torchiarolo	23.79	1	37.38	1	0.0	1	1.01	1	242.02	1	775.97	1	1012.22	1	40.488146	18.053571
2221	2024-04-02 12:00:00	12	torchiarolo	23.76	1	35.79	1	0.0	1	2.06	1	40.17	1	813.16	1	1012.1	1	40.488146	18.053571
2222	2024-04-02 13:00:00	12	torchiarolo	22.12	1	37.82	1	0.0	1	2.92	1	42.5	1	759.21	1	1011.8	1	40.488146	18.053571
2223	2024-04-02 14:00:00	12	torchiarolo	21.87	1	40.66	1	0.0	1	3.0	1	63.57	1	670.53	1	1011.73	1	40.488146	18.053571
2224	2024-04-02 15:00:00	12	torchiarolo	21.04	1	43.03	1	0.0	1	3.31	1	67.66	1	660.24	1	1011.89	1	40.488146	18.053571
2225	2024-04-02 16:00:00	12	torchiarolo	20.58	1	44.86	1	0.0	1	2.94	1	70.89	1	486.33	1	1011.87	1	40.488146	18.053571
2226	2024-04-02 17:00:00	12	torchiarolo	19.32	1	47.36	1	0.0	1	2.39	1	69.4	1	263.51	1	1012.07	1	40.488146	18.053571
2227	2024-04-02 18:00:00	12	torchiarolo	17.37	1	55.08	1	0.0	1	1.8	1	99.71	1	83.77	1	1012.09	1	40.488146	18.053571
2228	2024-04-02 19:00:00	12	torchiarolo	16.55	1	59.28	1	0.0	1	1.53	1	133.16	1	0.0	5	1012.09	1	40.488146	18.053571
2229	2024-04-02 20:00:00	12	torchiarolo	15.75	1	60.67	1	0.0	1	1.33	1	178.39	1	0.0	1	1012.44	1	40.488146	18.053571
2230	2024-04-02 21:00:00	12	torchiarolo	14.41	1	64.62	1	0.0	1	0.16	1	null	3	0.0	1	1012.87	1	40.488146	18.053571
2231	2024-04-02 22:00:00	12	torchiarolo	13.19	1	70.28	1	0.0	1	0.01	1	243.79	1	0.0	1	1013.14	1	40.488146	18.053571
2232	2024-04-02 23:00:00	12	torchiarolo	12.91	1	69.38	1	0.0	1	1.01	1	254.04	1	0.0	1	1013.42	1	40.488146	18.053571
2233	2024-04-03 00:00:00	12	torchiarolo	11.99	1	71.63	1	0.0	1	1.2	1	263.9	1	0.0	1	1013.65	1	40.488146	18.053571
2234	2024-04-03 01:00:00	12	torchiarolo	11.87	1	69.85	1	0.0	1	1.39	1	267.26	1	0.0	1	1013.51	1	40.488146	18.053571
2235	2024-04-03 02:00:00	12	torchiarolo	11.74	1	70.56	1	0.0	1	0.87	1	260.77	1	0.0	1	1013.16	1	40.488146	18.053571
2236	2024-04-03 03:00:00	12	torchiarolo	10.79	1	72.95	1	0.0	1	0.58	1	275.59	1	0.0	1	1013.09	1	40.488146	18.053571
2237	2024-04-03 04:00:00	12	torchiarolo	10.23	1	74.11	1	0.0	1	0.17	1	275.72	1	0.0	1	1013.0	1	40.488146	18.053571
2238	2024-04-03 05:00:00	12	torchiarolo	9.89	1	74.7	1	0.0	1	1.01	1	283.09	1	0.0	1	1012.82	1	40.488146	18.053571
2239	2024-04-03 06:00:00	12	torchiarolo	9.56	1	75.96	1	0.0	1	0.36	1	296.05	1	6.55	1	1012.81	1	40.488146	18.053571
2240	2024-04-03 07:00:00	12	torchiarolo	11.58	1	71.18	1	0.0	1	0.15	1	261.88	1	109.3	1	1012.99	1	40.488146	18.053571
2241	2024-04-03 08:00:00	12	torchiarolo	18.23	1	60.57	1	0.0	1	0.08	1	291.65	1	348.6	1	1013.35	1	40.488146	18.053571
2242	2024-04-03 09:00:00	12	torchiarolo	19.97	1	55.65	1	0.0	1	1.29	1	70.26	1	529.7	1	1013.59	1	40.488146	18.053571
2243	2024-04-03 10:00:00	12	torchiarolo	21.31	1	46.52	1	0.0	1	0.65	1	69.5	1	689.79	1	1013.92	1	40.488146	18.053571
2244	2024-04-03 11:00:00	12	torchiarolo	22.25	1	41.5	1	0.0	1	1.35	1	54.78	1	792.68	1	1013.89	1	40.488146	18.053571
2245	2024-04-03 12:00:00	12	torchiarolo	21.45	1	42.68	1	0.0	1	1.92	1	80.99	1	792.2	1	1013.56	1	40.488146	18.053571
2246	2024-04-03 13:00:00	12	torchiarolo	21.34	1	45.23	1	0.0	1	1.99	1	64.44	1	569.54	1	1013.31	1	40.488146	18.053571
2247	2024-04-03 14:00:00	12	torchiarolo	20.84	1	44.03	1	0.0	1	2.67	1	68.25	1	493.07	1	1012.85	1	40.488146	18.053571
2248	2024-04-03 15:00:00	12	torchiarolo	21.42	1	37.77	1	0.0	1	2.18	1	78.08	1	560.48	1	1012.65	1	40.488146	18.053571
2249	2024-04-03 16:00:00	12	torchiarolo	20.42	1	44.54	1	0.0	1	2.2	1	70.37	1	258.41	1	1012.45	1	40.488146	18.053571
2250	2024-04-03 17:00:00	12	torchiarolo	19.07	1	51.84	1	0.0	1	2.57	1	104.54	1	283.06	1	1012.15	1	40.488146	18.053571
2251	2024-04-03 18:00:00	12	torchiarolo	17.3	1	54.89	1	0.0	1	1.93	1	101.73	1	43.8	1	1012.0	1	40.488146	18.053571
2252	2024-04-03 19:00:00	12	torchiarolo	16.23	1	59.82	1	0.0	1	0.85	1	126.77	1	7.08	1	1012.07	1	40.488146	18.053571
2253	2024-04-03 20:00:00	12	torchiarolo	15.2	1	59.85	1	0.0	1	0.38	1	164.06	1	0.0	1	1012.58	1	40.488146	18.053571
2254	2024-04-03 21:00:00	12	torchiarolo	14.53	1	58.55	1	0.0	1	0.21	1	186.75	1	0.0	1	1012.82	1	40.488146	18.053571
2255	2024-04-03 22:00:00	12	torchiarolo	14.11	1	58.5	1	0.0	1	0.21	1	222.2	1	0.0	1	1012.86	1	40.488146	18.053571
2256	2024-04-03 23:00:00	12	torchiarolo	13.08	1	66.73	1	0.0	1	0.75	1	242.47	1	0.0	1	1013.18	1	40.488146	18.053571
2257	2024-04-04 00:00:00	12	torchiarolo	12.86	1	72.8	1	0.0	1	1.0	1	224.69	1	0.0	1	1013.2	1	40.488146	18.053571
2258	2024-04-04 01:00:00	12	torchiarolo	12.31	1	78.02	1	0.0	1	1.46	1	229.95	1	0.0	1	1013.19	1	40.488146	18.053571
2259	2024-04-04 02:00:00	12	torchiarolo	11.56	1	79.82	1	0.0	1	1.41	1	240.52	1	0.0	1	1013.07	1	40.488146	18.053571
2260	2024-04-04 03:00:00	12	torchiarolo	11.06	1	79.93	1	0.0	1	1.02	1	247.93	1	0.0	1	1013.04	1	40.488146	18.053571
2261	2024-04-04 04:00:00	12	torchiarolo	11.03	1	78.73	1	0.0	1	0.34	1	241.51	1	0.0	1	1013.0	1	40.488146	18.053571
2262	2024-04-04 05:00:00	12	torchiarolo	10.7	1	71.95	1	0.0	1	1.21	1	243.02	1	0.0	1	1013.19	1	40.488146	18.053571
2263	2024-04-04 06:00:00	12	torchiarolo	10.17	1	68.96	1	0.0	1	0.71	1	247.08	1	5.44	1	1013.24	1	40.488146	18.053571
2264	2024-04-04 07:00:00	12	torchiarolo	12.82	1	60.21	1	0.0	1	0.72	1	265.7	1	134.18	1	1013.77	1	40.488146	18.053571
2265	2024-04-04 08:00:00	12	torchiarolo	18.51	1	48.79	1	0.0	1	2.05	1	312.26	1	343.57	1	1014.27	1	40.488146	18.053571
2266	2024-04-04 09:00:00	12	torchiarolo	20.52	1	48.08	1	0.0	1	3.62	1	336.57	1	533.07	1	1014.92	1	40.488146	18.053571
2267	2024-04-04 10:00:00	12	torchiarolo	22.02	1	47.5	1	0.0	1	3.7	1	336.29	1	680.7	1	1015.3	1	40.488146	18.053571
2268	2024-04-04 11:00:00	12	torchiarolo	22.5	1	47.38	1	0.0	1	3.83	1	338.84	1	786.98	1	1015.38	1	40.488146	18.053571
2269	2024-04-04 12:00:00	12	torchiarolo	23.11	1	44.62	1	0.0	1	3.73	1	342.77	1	855.07	1	1015.47	1	40.488146	18.053571
2270	2024-04-04 13:00:00	12	torchiarolo	24.11	1	41.83	1	0.0	1	3.62	1	340.4	1	755.78	1	1015.63	1	40.488146	18.053571
2271	2024-04-04 14:00:00	12	torchiarolo	24.02	1	41.96	1	0.0	1	3.64	1	347.24	1	725.14	1	1015.38	1	40.488146	18.053571
2272	2024-04-04 15:00:00	12	torchiarolo	23.87	1	40.44	1	0.0	1	3.48	1	354.71	1	668.95	1	1015.13	1	40.488146	18.053571
2273	2024-04-04 16:00:00	12	torchiarolo	22.77	1	47.02	1	0.0	1	3.51	1	1.58	1	492.57	1	1015.05	1	40.488146	18.053571
2274	2024-04-04 17:00:00	12	torchiarolo	20.02	1	64.0	1	0.0	1	3.01	1	15.96	1	301.83	1	1015.47	1	40.488146	18.053571
2275	2024-04-04 18:00:00	12	torchiarolo	17.18	1	72.45	1	0.0	1	2.11	1	17.42	1	93.52	1	1015.47	1	40.488146	18.053571
2276	2024-04-04 19:00:00	12	torchiarolo	15.55	1	83.67	1	0.0	1	0.38	1	7.66	1	0.0	5	1015.46	1	40.488146	18.053571
2277	2024-04-04 20:00:00	12	torchiarolo	14.32	1	88.26	1	0.0	1	0.14	1	297.6	1	0.0	1	1015.95	1	40.488146	18.053571
2278	2024-04-04 21:00:00	12	torchiarolo	13.55	1	87.93	1	0.0	1	0.57	1	270.32	1	0.0	1	1016.22	1	40.488146	18.053571
2279	2024-04-04 22:00:00	12	torchiarolo	12.84	1	88.51	1	0.0	1	0.64	1	278.43	1	0.0	1	1016.48	1	40.488146	18.053571
2280	2024-04-04 23:00:00	12	torchiarolo	12.32	1	88.55	1	0.0	1	0.31	1	271.44	1	0.0	1	1016.59	1	40.488146	18.053571
2281	2024-04-05 00:00:00	12	torchiarolo	11.67	1	82.72	1	0.0	1	0.08	1	292.17	1	0.0	1	1016.85	1	40.488146	18.053571
2282	2024-04-05 01:00:00	12	torchiarolo	11.26	1	80.61	1	0.0	1	null	3	115.57	1	0.0	1	1016.83	1	40.488146	18.053571
2283	2024-04-05 02:00:00	12	torchiarolo	10.66	1	80.93	1	0.0	1	0.76	1	246.54	1	0.0	1	1016.53	1	40.488146	18.053571
2284	2024-04-05 03:00:00	12	torchiarolo	10.29	1	79.45	1	0.0	1	0.22	1	269.56	1	0.0	1	1016.64	1	40.488146	18.053571
2285	2024-04-05 04:00:00	12	torchiarolo	10.04	1	77.26	1	0.0	1	null	3	265.71	1	0.0	1	1016.85	1	40.488146	18.053571
2286	2024-04-05 05:00:00	12	torchiarolo	10.23	1	74.96	1	0.0	1	null	3	252.66	1	0.0	1	1016.9	1	40.488146	18.053571
2287	2024-04-05 06:00:00	12	torchiarolo	10.38	1	72.68	1	0.0	1	null	3	234.13	1	6.27	1	1017.19	1	40.488146	18.053571
2288	2024-04-05 07:00:00	12	torchiarolo	12.93	1	65.02	1	0.0	1	null	3	255.3	1	138.8	1	1017.74	1	40.488146	18.053571
2289	2024-04-05 08:00:00	12	torchiarolo	19.25	1	52.13	1	0.0	1	null	3	272.08	1	345.57	1	1018.04	1	40.488146	18.053571
2290	2024-04-05 09:00:00	12	torchiarolo	23.96	1	34.36	1	0.0	1	0.3	1	359.59	1	533.64	1	1018.65	1	40.488146	18.053571
2291	2024-04-05 10:00:00	12	torchiarolo	23.83	1	32.31	1	0.0	1	1.78	1	19.63	1	686.44	1	1019.05	1	40.488146	18.053571
2292	2024-04-05 11:00:00	12	torchiarolo	24.03	1	38.27	1	0.0	1	2.34	1	16.01	1	765.37	1	1019.22	1	40.488146	18.053571
2293	2024-04-05 12:00:00	12	torchiarolo	23.09	1	47.09	1	0.0	1	2.86	1	14.39	1	810.07	1	1019.34	1	40.488146	18.053571
2294	2024-04-05 13:00:00	12	torchiarolo	22.94	1	47.52	1	0.0	1	2.27	1	22.73	1	740.48	1	1019.05	1	40.488146	18.053571
2295	2024-04-05 14:00:00	12	torchiarolo	23.83	1	39.1	1	0.0	1	2.17	1	10.64	1	581.7	1	1018.83	1	40.488146	18.053571
2296	2024-04-05 15:00:00	12	torchiarolo	23.52	1	38.88	1	0.0	1	2.73	1	18.13	1	583.71	1	1018.45	1	40.488146	18.053571
2297	2024-04-05 16:00:00	12	torchiarolo	22.97	1	39.2	1	0.0	1	2.81	1	15.79	1	413.75	1	1018.31	1	40.488146	18.053571
2298	2024-04-05 17:00:00	12	torchiarolo	20.69	1	46.81	1	0.0	1	2.26	1	16.6	1	234.12	1	1018.21	1	40.488146	18.053571
2299	2024-04-05 18:00:00	12	torchiarolo	18.46	1	54.59	1	0.0	1	1.97	1	14.23	1	93.98	1	1018.0	1	40.488146	18.053571
2300	2024-04-05 19:00:00	12	torchiarolo	16.42	1	65.88	1	0.0	1	0.19	1	4.62	1	0.0	5	1017.97	1	40.488146	18.053571
2301	2024-04-05 20:00:00	12	torchiarolo	15.01	1	71.3	1	0.0	1	0.77	1	311.97	1	0.0	1	1018.17	1	40.488146	18.053571
2302	2024-04-05 21:00:00	12	torchiarolo	14.29	1	72.54	1	0.0	1	1.02	1	281.3	1	0.0	1	1018.32	1	40.488146	18.053571
2303	2024-04-05 22:00:00	12	torchiarolo	13.76	1	72.3	1	0.0	1	1.15	1	278.96	1	0.0	1	1018.38	1	40.488146	18.053571
2304	2024-04-05 23:00:00	12	torchiarolo	13.15	1	68.45	1	0.0	1	0.15	1	270.37	1	0.0	1	1018.51	1	40.488146	18.053571
2305	2024-04-06 00:00:00	12	torchiarolo	12.88	1	66.28	1	0.0	1	0.27	1	256.31	1	0.0	1	1018.26	1	40.488146	18.053571
2306	2024-04-06 01:00:00	12	torchiarolo	11.7	1	71.42	1	0.0	1	0.59	1	128.38	1	0.0	5	1018.29	1	40.488146	18.053571
2307	2024-04-06 02:00:00	12	torchiarolo	11.46	1	72.54	1	0.0	1	0.02	1	249.68	1	0.0	1	1018.31	1	40.488146	18.053571
2308	2024-04-06 03:00:00	12	torchiarolo	11.05	1	72.57	1	0.0	1	0.42	1	239.37	1	0.0	1	1018.04	1	40.488146	18.053571
2309	2024-04-06 04:00:00	12	torchiarolo	10.99	1	72.63	1	0.0	1	0.74	1	250.81	1	0.0	1	1017.95	1	40.488146	18.053571
2310	2024-04-06 05:00:00	12	torchiarolo	10.79	1	75.1	1	0.0	1	0.92	1	255.73	1	0.0	1	1017.95	1	40.488146	18.053571
2311	2024-04-06 06:00:00	12	torchiarolo	10.56	1	78.87	1	0.0	1	1.51	1	261.56	1	8.24	1	1018.54	1	40.488146	18.053571
2312	2024-04-06 07:00:00	12	torchiarolo	13.19	1	74.56	1	0.0	1	1.19	1	267.94	1	142.58	1	1019.06	1	40.488146	18.053571
2313	2024-04-06 08:00:00	12	torchiarolo	20.59	1	52.27	1	0.0	1	1.54	1	332.0	1	355.87	1	1019.58	1	40.488146	18.053571
2314	2024-04-06 09:00:00	12	torchiarolo	23.39	1	40.87	1	0.0	1	2.56	1	343.08	1	530.79	1	1020.33	1	40.488146	18.053571
2315	2024-04-06 10:00:00	12	torchiarolo	24.29	1	37.82	1	0.0	1	3.0	1	357.88	1	681.01	1	1020.53	1	40.488146	18.053571
2316	2024-04-06 11:00:00	12	torchiarolo	24.3	1	37.59	1	0.0	1	2.96	1	16.36	1	755.89	1	1020.7	1	40.488146	18.053571
2317	2024-04-06 12:00:00	12	torchiarolo	24.08	1	37.81	1	0.0	1	2.83	1	16.86	1	841.73	1	1020.86	1	40.488146	18.053571
2318	2024-04-06 13:00:00	12	torchiarolo	null	6	null	6	0.0	5	null	6	null	6	null	6	null	6	40.488146	18.053571
2319	2024-04-06 14:00:00	12	torchiarolo	null	6	null	6	0.0	5	null	6	null	6	null	6	null	6	40.488146	18.053571
2320	2024-04-06 15:00:00	12	torchiarolo	null	6	null	6	0.0	5	null	6	null	6	null	6	null	6	40.488146	18.053571
2321	2024-04-06 16:00:00	12	torchiarolo	null	6	null	6	0.0	5	null	6	null	6	null	6	null	6	40.488146	18.053571
2322	2024-04-06 17:00:00	12	torchiarolo	null	6	null	6	0.0	5	null	6	null	6	null	6	null	6	40.488146	18.053571
2323	2024-04-06 18:00:00	12	torchiarolo	null	6	null	6	0.0	5	null	6	null	6	null	6	null	6	40.488146	18.053571
2324	2024-04-06 19:00:00	12	torchiarolo	null	6	null	6	0.0	5	null	6	null	6	null	6	null	6	40.488146	18.053571
2325	2024-04-06 20:00:00	12	torchiarolo	null	6	null	6	0.0	5	null	6	null	6	null	6	null	6	40.488146	18.053571
2326	2024-04-06 21:00:00	12	torchiarolo	null	6	null	6	0.0	5	null	6	null	6	null	6	null	6	40.488146	18.053571
2327	2024-04-06 22:00:00	12	torchiarolo	null	6	null	6	0.0	5	null	6	null	6	null	6	null	6	40.488146	18.053571
2328	2024-04-06 23:00:00	12	torchiarolo	null	6	null	6	0.0	5	null	6	null	6	null	6	null	6	40.488146	18.053571
2329	2024-04-07 00:00:00	12	torchiarolo	null	6	null	6	0.0	5	null	6	null	6	null	6	null	6	40.488146	18.053571
2330	2024-04-07 01:00:00	12	torchiarolo	null	6	null	6	0.0	5	null	6	null	6	null	6	null	6	40.488146	18.053571
2331	2024-04-07 02:00:00	12	torchiarolo	null	6	null	6	0.0	5	null	6	null	6	null	6	null	6	40.488146	18.053571
2332	2024-04-07 03:00:00	12	torchiarolo	null	6	null	6	0.0	5	null	6	null	6	null	6	null	6	40.488146	18.053571
2333	2024-04-07 04:00:00	12	torchiarolo	null	6	null	6	0.0	5	null	6	null	6	null	6	null	6	40.488146	18.053571
2334	2024-04-07 05:00:00	12	torchiarolo	null	6	null	6	0.0	5	null	6	null	6	null	6	null	6	40.488146	18.053571
2335	2024-04-07 06:00:00	12	torchiarolo	null	6	null	6	0.0	5	null	6	null	6	null	6	null	6	40.488146	18.053571
2336	2024-04-07 07:00:00	12	torchiarolo	null	6	null	6	0.0	5	null	6	null	6	null	6	null	6	40.488146	18.053571
2337	2024-04-07 08:00:00	12	torchiarolo	null	6	null	6	0.0	5	null	6	null	6	null	6	null	6	40.488146	18.053571
2338	2024-04-07 09:00:00	12	torchiarolo	null	6	null	6	0.0	5	null	6	null	6	null	6	null	6	40.488146	18.053571
2339	2024-04-07 10:00:00	12	torchiarolo	null	6	null	6	0.0	5	null	6	null	6	null	6	null	6	40.488146	18.053571
2340	2024-04-07 11:00:00	12	torchiarolo	null	6	null	6	0.0	5	null	6	null	6	null	6	null	6	40.488146	18.053571
2341	2024-04-07 12:00:00	12	torchiarolo	null	6	null	6	0.0	5	null	6	null	6	null	6	null	6	40.488146	18.053571
2342	2024-04-07 13:00:00	12	torchiarolo	null	6	null	6	0.0	5	null	6	null	6	null	6	null	6	40.488146	18.053571
2343	2024-04-07 14:00:00	12	torchiarolo	null	6	null	6	0.0	5	null	6	null	6	null	6	null	6	40.488146	18.053571
2344	2024-04-07 15:00:00	12	torchiarolo	null	6	null	6	0.0	5	null	6	null	6	null	6	null	6	40.488146	18.053571
2345	2024-04-07 16:00:00	12	torchiarolo	null	6	null	6	0.0	5	null	6	null	6	null	6	null	6	40.488146	18.053571
2346	2024-04-07 17:00:00	12	torchiarolo	null	6	null	6	0.0	5	null	6	null	6	null	6	null	6	40.488146	18.053571
2347	2024-04-07 18:00:00	12	torchiarolo	null	6	null	6	0.0	5	null	6	null	6	null	6	null	6	40.488146	18.053571
2348	2024-04-07 19:00:00	12	torchiarolo	null	6	null	6	0.0	5	null	6	null	6	null	6	null	6	40.488146	18.053571
2349	2024-04-07 20:00:00	12	torchiarolo	null	6	null	6	0.0	5	null	6	null	6	null	6	null	6	40.488146	18.053571
2350	2024-04-07 21:00:00	12	torchiarolo	null	6	null	6	0.0	5	null	6	null	6	null	6	null	6	40.488146	18.053571
2351	2024-04-07 22:00:00	12	torchiarolo	null	6	null	6	0.0	5	null	6	null	6	null	6	null	6	40.488146	18.053571
2352	2024-04-07 23:00:00	12	torchiarolo	null	6	null	6	0.0	5	null	6	null	6	null	6	null	6	40.488146	18.053571
2353	2024-04-08 00:00:00	12	torchiarolo	null	6	null	6	0.0	5	null	6	null	6	null	6	null	6	40.488146	18.053571
2354	2024-04-08 01:00:00	12	torchiarolo	null	6	null	6	0.0	5	null	6	null	6	null	6	null	6	40.488146	18.053571
2355	2024-04-08 02:00:00	12	torchiarolo	null	6	null	6	0.0	5	null	6	null	6	null	6	null	6	40.488146	18.053571
2356	2024-04-08 03:00:00	12	torchiarolo	null	6	null	6	0.0	5	null	6	null	6	null	6	null	6	40.488146	18.053571
2357	2024-04-08 04:00:00	12	torchiarolo	null	6	null	6	0.0	5	null	6	null	6	null	6	null	6	40.488146	18.053571
2358	2024-04-08 05:00:00	12	torchiarolo	null	6	null	6	0.0	5	null	6	null	6	null	6	null	6	40.488146	18.053571
2359	2024-04-08 06:00:00	12	torchiarolo	null	6	null	6	0.0	5	null	6	null	6	null	6	null	6	40.488146	18.053571
2360	2024-04-08 07:00:00	12	torchiarolo	null	6	null	6	0.0	5	null	6	null	6	null	6	null	6	40.488146	18.053571
2361	2024-04-08 08:00:00	12	torchiarolo	null	6	null	6	0.0	5	null	6	null	6	null	6	null	6	40.488146	18.053571
2362	2024-04-08 09:00:00	12	torchiarolo	null	6	null	6	0.0	5	null	6	null	6	null	6	null	6	40.488146	18.053571
2363	2024-04-08 10:00:00	12	torchiarolo	null	6	null	6	0.0	5	null	6	null	6	null	6	null	6	40.488146	18.053571
2364	2024-04-08 11:00:00	12	torchiarolo	null	6	null	6	0.0	5	null	6	null	6	null	6	null	6	40.488146	18.053571
2365	2024-04-08 12:00:00	12	torchiarolo	null	6	null	6	0.0	5	null	6	null	6	null	6	null	6	40.488146	18.053571
2366	2024-04-08 13:00:00	12	torchiarolo	null	6	null	6	0.0	5	null	6	null	6	null	6	null	6	40.488146	18.053571
2367	2024-04-08 14:00:00	12	torchiarolo	null	6	null	6	0.0	5	null	6	null	6	null	6	null	6	40.488146	18.053571
2368	2024-04-08 15:00:00	12	torchiarolo	null	6	null	6	0.0	5	null	6	null	6	null	6	null	6	40.488146	18.053571
2369	2024-04-08 16:00:00	12	torchiarolo	27.69	1	30.99	1	0.0	1	2.65	1	221.23	1	498.52	1	1013.35	1	40.488146	18.053571
2370	2024-04-08 17:00:00	12	torchiarolo	25.62	1	33.72	1	0.0	1	2.4	1	221.89	1	319.35	1	1013.19	1	40.488146	18.053571
2371	2024-04-08 18:00:00	12	torchiarolo	22.45	1	41.44	1	0.0	1	2.25	1	233.73	1	78.85	1	1013.1	1	40.488146	18.053571
2372	2024-04-08 19:00:00	12	torchiarolo	20.03	1	52.15	1	0.0	1	0.96	1	228.24	1	0.0	5	1012.82	1	40.488146	18.053571
2373	2024-04-08 20:00:00	12	torchiarolo	18.01	1	63.0	1	0.0	1	0.82	1	233.4	1	0.0	1	1012.84	1	40.488146	18.053571
2374	2024-04-08 21:00:00	12	torchiarolo	17.21	1	72.48	1	0.0	1	1.65	1	222.17	1	0.0	1	1013.19	1	40.488146	18.053571
2375	2024-04-08 22:00:00	12	torchiarolo	16.54	1	78.19	1	0.0	1	1.53	1	215.04	1	0.0	1	1013.28	1	40.488146	18.053571
2376	2024-04-08 23:00:00	12	torchiarolo	15.92	1	78.37	1	0.0	1	1.29	1	197.0	1	0.0	1	1013.53	1	40.488146	18.053571
2377	2024-04-09 00:00:00	12	torchiarolo	15.81	1	73.54	1	0.0	1	1.57	1	195.56	1	0.0	1	1013.19	1	40.488146	18.053571
2378	2024-04-09 01:00:00	12	torchiarolo	15.52	1	73.57	1	0.0	1	1.49	1	199.7	1	0.0	1	1012.9	1	40.488146	18.053571
2379	2024-04-09 02:00:00	12	torchiarolo	14.96	1	74.62	1	0.0	1	1.05	1	206.69	1	0.0	1	1012.81	1	40.488146	18.053571
2380	2024-04-09 03:00:00	12	torchiarolo	14.6	1	75.61	1	0.0	1	1.34	1	198.11	1	0.0	1	1012.46	1	40.488146	18.053571
2381	2024-04-09 04:00:00	12	torchiarolo	14.15	1	76.68	1	0.0	1	0.18	1	193.21	1	0.0	1	1012.45	1	40.488146	18.053571
2382	2024-04-09 05:00:00	12	torchiarolo	13.33	1	79.91	1	0.0	1	null	3	193.63	1	0.0	1	1012.36	1	40.488146	18.053571
2383	2024-04-09 06:00:00	12	torchiarolo	13.3	1	78.63	1	0.0	1	0.29	1	183.15	1	8.43	1	1012.57	1	40.488146	18.053571
2384	2024-04-09 07:00:00	12	torchiarolo	15.3	1	69.63	1	0.0	1	0.03	1	142.09	1	155.58	1	1012.82	1	40.488146	18.053571
2385	2024-04-09 08:00:00	12	torchiarolo	21.49	1	50.95	1	0.0	1	0.15	1	168.65	1	377.31	1	1012.82	1	40.488146	18.053571
2386	2024-04-09 09:00:00	12	torchiarolo	25.32	1	35.48	1	0.0	1	2.2	1	190.59	1	560.62	1	1012.89	1	40.488146	18.053571
2387	2024-04-09 10:00:00	12	torchiarolo	26.97	1	27.79	1	0.0	1	2.56	1	195.6	1	718.72	1	1013.05	1	40.488146	18.053571
2388	2024-04-09 11:00:00	12	torchiarolo	27.32	1	22.55	1	0.0	1	2.73	1	208.94	1	766.75	1	1012.85	1	40.488146	18.053571
2389	2024-04-09 12:00:00	12	torchiarolo	27.98	1	19.8	1	0.0	1	2.43	1	202.9	1	875.23	1	1012.84	1	40.488146	18.053571
2390	2024-04-09 13:00:00	12	torchiarolo	28.5	1	18.01	1	0.0	1	2.61	1	214.73	1	741.03	1	1012.64	1	40.488146	18.053571
2391	2024-04-09 14:00:00	12	torchiarolo	28.32	1	19.65	1	0.0	1	3.25	1	226.23	1	779.16	1	1012.11	1	40.488146	18.053571
2392	2024-04-09 15:00:00	12	torchiarolo	27.87	1	19.4	1	0.0	1	3.32	1	219.6	1	677.85	1	1011.67	1	40.488146	18.053571
2393	2024-04-09 16:00:00	12	torchiarolo	27.43	1	21.29	1	0.0	1	3.37	1	217.75	1	528.2	1	1011.25	1	40.488146	18.053571
2394	2024-04-09 17:00:00	12	torchiarolo	25.66	1	25.48	1	0.0	1	2.6	1	212.08	1	319.35	1	1010.99	1	40.488146	18.053571
2395	2024-04-09 18:00:00	12	torchiarolo	22.96	1	28.5	1	0.0	1	2.54	1	206.68	1	116.51	1	1010.86	1	40.488146	18.053571
2396	2024-04-09 19:00:00	12	torchiarolo	20.39	1	36.21	1	0.0	1	1.56	1	215.33	1	5.14	1	1010.97	1	40.488146	18.053571
2397	2024-04-09 20:00:00	12	torchiarolo	18.41	1	49.73	1	0.0	1	2.06	1	207.16	1	0.0	1	1010.99	1	40.488146	18.053571
2398	2024-04-09 21:00:00	12	torchiarolo	17.28	1	56.58	1	0.0	1	1.93	1	200.3	1	0.0	1	1011.2	1	40.488146	18.053571
2399	2024-04-09 22:00:00	12	torchiarolo	16.55	1	60.24	1	0.0	1	1.75	1	205.18	1	0.0	1	1010.99	1	40.488146	18.053571
2400	2024-04-09 23:00:00	12	torchiarolo	15.77	1	64.87	1	0.0	1	0.3	1	150.01	1	0.0	1	1010.99	1	40.488146	18.053571
2401	2024-04-10 00:00:00	12	torchiarolo	14.17	1	69.71	1	0.0	1	null	3	129.05	1	0.0	1	1010.97	1	40.488146	18.053571
2402	2024-04-10 01:00:00	12	torchiarolo	13.27	1	72.54	1	0.0	1	0.49	1	141.49	1	0.0	1	1010.52	1	40.488146	18.053571
2403	2024-04-10 02:00:00	12	torchiarolo	12.64	1	76.43	1	0.0	1	0.15	1	144.11	1	0.0	1	1010.02	1	40.488146	18.053571
2404	2024-04-10 03:00:00	12	torchiarolo	13.31	1	85.93	1	0.0	1	0.62	1	201.05	1	0.0	1	1010.13	1	40.488146	18.053571
2405	2024-04-10 04:00:00	12	torchiarolo	14.61	1	89.46	1	0.0	1	1.31	1	166.91	1	0.0	1	1009.64	1	40.488146	18.053571
2406	2024-04-10 05:00:00	12	torchiarolo	14.23	1	91.3	1	0.0	1	0.31	1	152.73	1	0.0	1	1009.66	1	40.488146	18.053571
2407	2024-04-10 06:00:00	12	torchiarolo	13.2	1	93.16	1	0.0	1	0.18	1	122.12	1	17.6	1	1009.85	1	40.488146	18.053571
2408	2024-04-10 07:00:00	12	torchiarolo	15.22	1	88.57	1	0.0	1	0.17	1	153.96	1	130.55	1	1010.0	1	40.488146	18.053571
2409	2024-04-10 08:00:00	12	torchiarolo	19.11	1	74.19	1	0.0	1	1.1	1	172.0	1	286.15	1	1010.12	1	40.488146	18.053571
2410	2024-04-10 09:00:00	12	torchiarolo	21.06	1	67.06	1	0.0	1	1.34	1	195.68	1	403.73	1	1010.42	1	40.488146	18.053571
2411	2024-04-10 10:00:00	12	torchiarolo	23.42	1	59.72	1	0.0	1	2.14	1	193.01	1	552.59	1	1010.87	1	40.488146	18.053571
2412	2024-04-10 11:00:00	12	torchiarolo	25.76	1	48.26	1	0.0	1	2.0	1	188.21	1	723.6	1	1010.98	1	40.488146	18.053571
2413	2024-04-10 12:00:00	12	torchiarolo	26.57	1	43.84	1	0.0	1	1.55	1	213.41	1	693.37	1	1010.75	1	40.488146	18.053571
2414	2024-04-10 13:00:00	12	torchiarolo	27.62	1	39.81	1	0.0	1	1.8	1	191.36	1	635.34	1	1010.92	1	40.488146	18.053571
2415	2024-04-10 14:00:00	12	torchiarolo	27.65	1	39.84	1	0.0	1	1.1	1	213.43	1	659.66	1	1010.85	1	40.488146	18.053571
2416	2024-04-10 15:00:00	12	torchiarolo	28.15	1	40.79	1	0.0	1	2.2	1	220.82	1	556.98	1	1010.62	1	40.488146	18.053571
2417	2024-04-10 16:00:00	12	torchiarolo	26.85	1	43.84	1	0.0	1	2.7	1	232.05	1	391.37	1	1010.98	1	40.488146	18.053571
2418	2024-04-10 17:00:00	12	torchiarolo	25.02	1	42.49	1	0.0	1	2.57	1	338.03	1	225.64	1	1011.3	1	40.488146	18.053571
2419	2024-04-10 18:00:00	12	torchiarolo	22.89	1	40.49	1	0.0	1	2.21	1	332.56	1	126.33	1	1011.55	1	40.488146	18.053571
2420	2024-04-10 19:00:00	12	torchiarolo	20.7	1	46.02	1	0.0	1	1.11	1	326.51	1	9.4	1	1012.11	1	40.488146	18.053571
2421	2024-04-10 20:00:00	12	torchiarolo	18.61	1	54.94	1	0.0	1	0.14	1	307.73	1	0.0	1	1012.89	1	40.488146	18.053571
2422	2024-04-10 21:00:00	12	torchiarolo	17.16	1	65.88	1	0.0	1	0.08	1	325.27	1	0.0	1	1013.67	1	40.488146	18.053571
2423	2024-04-10 22:00:00	12	torchiarolo	16.61	1	69.78	1	0.0	1	0.45	1	353.04	1	0.0	1	1013.91	1	40.488146	18.053571
2424	2024-04-10 23:00:00	12	torchiarolo	16.54	1	68.36	1	0.0	1	0.62	1	342.56	1	0.0	1	1014.07	1	40.488146	18.053571
2425	2024-04-11 00:00:00	12	torchiarolo	15.88	1	72.52	1	0.0	1	0.68	1	335.62	1	0.0	1	1014.33	1	40.488146	18.053571
2426	2024-04-11 01:00:00	12	torchiarolo	15.01	1	74.11	1	0.0	1	1.37	1	327.12	1	0.0	1	1014.35	1	40.488146	18.053571
2427	2024-04-11 02:00:00	12	torchiarolo	14.23	1	73.43	1	0.0	1	0.95	1	331.64	1	0.0	1	1014.28	1	40.488146	18.053571
2428	2024-04-11 03:00:00	12	torchiarolo	14.07	1	74.02	1	0.0	1	1.31	1	336.34	1	0.0	1	1014.29	1	40.488146	18.053571
2429	2024-04-11 04:00:00	12	torchiarolo	14.84	1	77.35	1	0.0	1	2.27	1	340.8	1	0.0	1	1014.06	1	40.488146	18.053571
2430	2024-04-11 05:00:00	12	torchiarolo	14.93	1	69.07	1	0.0	1	2.25	1	339.74	1	0.0	1	1014.19	1	40.488146	18.053571
2431	2024-04-11 06:00:00	12	torchiarolo	14.78	1	73.64	1	0.0	1	1.96	1	342.95	1	8.54	1	1014.87	1	40.488146	18.053571
2432	2024-04-11 07:00:00	12	torchiarolo	16.41	1	79.84	1	0.0	1	3.13	1	349.36	1	85.34	1	1015.51	1	40.488146	18.053571
2433	2024-04-11 08:00:00	12	torchiarolo	19.5	1	71.29	1	0.0	1	4.17	1	351.0	1	360.23	1	1015.75	1	40.488146	18.053571
2434	2024-04-11 09:00:00	12	torchiarolo	21.23	1	62.66	1	0.0	1	4.94	1	349.33	1	540.33	1	1016.18	1	40.488146	18.053571
2435	2024-04-11 10:00:00	12	torchiarolo	21.85	1	61.42	1	0.0	1	5.07	1	350.34	1	681.25	1	1016.92	1	40.488146	18.053571
2436	2024-04-11 11:00:00	12	torchiarolo	21.65	1	62.56	1	0.0	1	5.25	1	349.0	1	611.27	1	1017.24	1	40.488146	18.053571
2437	2024-04-11 12:00:00	12	torchiarolo	21.62	1	63.72	1	0.0	1	4.96	1	349.26	1	533.16	1	1017.3	1	40.488146	18.053571
2438	2024-04-11 13:00:00	12	torchiarolo	20.93	1	64.21	1	0.0	1	4.76	1	336.96	1	418.07	1	1017.38	1	40.488146	18.053571
2439	2024-04-11 14:00:00	12	torchiarolo	20.76	1	66.16	1	0.0	1	4.92	1	339.61	1	404.27	1	1017.19	1	40.488146	18.053571
2440	2024-04-11 15:00:00	12	torchiarolo	21.21	1	64.2	1	0.0	1	4.96	1	337.26	1	430.42	1	1016.9	1	40.488146	18.053571
2441	2024-04-11 16:00:00	12	torchiarolo	21.49	1	60.17	1	0.0	1	4.87	1	336.93	1	392.14	1	1016.85	1	40.488146	18.053571
2442	2024-04-11 17:00:00	12	torchiarolo	21.11	1	60.84	1	0.0	1	4.66	1	336.94	1	266.27	1	1016.85	1	40.488146	18.053571
2443	2024-04-11 18:00:00	12	torchiarolo	18.86	1	68.33	1	0.0	1	3.38	1	334.22	1	52.57	1	1016.93	1	40.488146	18.053571
2444	2024-04-11 19:00:00	12	torchiarolo	17.31	1	76.22	1	0.0	1	3.98	1	328.65	1	0.0	5	1016.93	1	40.488146	18.053571
2445	2024-04-11 20:00:00	12	torchiarolo	16.7	1	80.82	1	0.0	1	3.84	1	336.79	1	0.0	1	1017.44	1	40.488146	18.053571
2446	2024-04-11 21:00:00	12	torchiarolo	16.46	1	80.46	1	0.0	1	3.39	1	336.6	1	0.0	1	1017.98	1	40.488146	18.053571
2447	2024-04-11 22:00:00	12	torchiarolo	16.16	1	81.68	1	0.0	1	2.92	1	336.27	1	0.0	1	1018.36	1	40.488146	18.053571
2448	2024-04-11 23:00:00	12	torchiarolo	16.34	1	78.44	1	0.0	1	3.89	1	332.98	1	0.0	1	1018.88	1	40.488146	18.053571
2449	2024-04-12 00:00:00	12	torchiarolo	16.42	1	78.28	1	0.0	1	4.24	1	329.08	1	0.0	1	1018.95	1	40.488146	18.053571
2450	2024-04-12 01:00:00	12	torchiarolo	16.36	1	76.37	1	0.0	1	3.61	1	328.08	1	0.0	1	1018.68	1	40.488146	18.053571
2451	2024-04-12 02:00:00	12	torchiarolo	15.96	1	74.15	1	0.0	1	2.86	1	328.72	1	0.0	1	1018.47	1	40.488146	18.053571
2452	2024-04-12 03:00:00	12	torchiarolo	15.87	1	70.76	1	0.0	1	3.23	1	328.7	1	0.0	1	1018.32	1	40.488146	18.053571
2453	2024-04-12 04:00:00	12	torchiarolo	15.62	1	72.49	1	0.0	1	2.9	1	336.62	1	0.0	1	1018.45	1	40.488146	18.053571
2454	2024-04-12 05:00:00	12	torchiarolo	15.36	1	76.04	1	0.0	1	3.45	1	341.13	1	0.0	1	1018.68	1	40.488146	18.053571
2455	2024-04-12 06:00:00	12	torchiarolo	15.32	1	77.12	1	0.0	1	3.87	1	337.33	1	15.33	1	1018.76	1	40.488146	18.053571
2456	2024-04-12 07:00:00	12	torchiarolo	17.36	1	71.65	1	0.0	1	4.39	1	341.6	1	160.64	1	1019.08	1	40.488146	18.053571
2457	2024-04-12 08:00:00	12	torchiarolo	20.23	1	64.38	1	0.0	1	4.79	1	342.11	1	367.03	1	1019.4	1	40.488146	18.053571
2458	2024-04-12 09:00:00	12	torchiarolo	22.17	1	58.92	1	0.0	1	4.84	1	350.91	1	549.48	1	1019.68	1	40.488146	18.053571
2459	2024-04-12 10:00:00	12	torchiarolo	23.57	1	55.29	1	0.0	1	4.81	1	340.28	1	695.06	1	1019.85	1	40.488146	18.053571
2460	2024-04-12 11:00:00	12	torchiarolo	24.15	1	53.06	1	0.0	1	5.17	1	348.65	1	794.25	1	1020.03	1	40.488146	18.053571
2461	2024-04-12 12:00:00	12	torchiarolo	24.26	1	50.88	1	0.0	1	5.07	1	344.46	1	851.01	1	1019.79	1	40.488146	18.053571
2462	2024-04-12 13:00:00	12	torchiarolo	25.14	1	47.61	1	0.0	1	4.95	1	347.43	1	722.0	1	1019.82	1	40.488146	18.053571
2463	2024-04-12 14:00:00	12	torchiarolo	25.43	1	44.02	1	0.0	1	5.07	1	350.04	1	778.09	1	1019.6	1	40.488146	18.053571
2464	2024-04-12 15:00:00	12	torchiarolo	25.35	1	43.19	1	0.0	1	5.13	1	349.79	1	672.49	1	1019.14	1	40.488146	18.053571
2465	2024-04-12 16:00:00	12	torchiarolo	24.87	1	45.76	1	0.0	1	4.88	1	341.89	1	500.8	1	1018.74	1	40.488146	18.053571
2466	2024-04-12 17:00:00	12	torchiarolo	22.92	1	51.35	1	0.0	1	4.89	1	342.47	1	313.39	1	1018.43	1	40.488146	18.053571
2467	2024-04-12 18:00:00	12	torchiarolo	20.51	1	57.53	1	0.0	1	4.28	1	340.64	1	113.47	1	1018.26	1	40.488146	18.053571
2468	2024-04-12 19:00:00	12	torchiarolo	18.68	1	65.64	1	0.0	1	3.49	1	341.64	1	7.13	1	1017.95	1	40.488146	18.053571
2469	2024-04-12 20:00:00	12	torchiarolo	17.36	1	73.54	1	0.0	1	2.98	1	341.44	1	0.0	1	1018.18	1	40.488146	18.053571
2470	2024-04-12 21:00:00	12	torchiarolo	16.71	1	78.42	1	0.0	1	2.86	1	333.05	1	0.0	1	1018.45	1	40.488146	18.053571
2471	2024-04-12 22:00:00	12	torchiarolo	16.39	1	78.44	1	0.0	1	2.71	1	334.05	1	0.0	1	1018.85	1	40.488146	18.053571
2472	2024-04-12 23:00:00	12	torchiarolo	16.16	1	74.81	1	0.0	1	2.37	1	328.51	1	0.0	1	1019.05	1	40.488146	18.053571
2473	2024-04-13 00:00:00	12	torchiarolo	16.18	1	73.69	1	0.0	1	3.01	1	330.08	1	0.0	1	1019.05	1	40.488146	18.053571
2474	2024-04-13 01:00:00	12	torchiarolo	16.54	1	69.73	1	0.0	1	3.22	1	327.52	1	0.0	1	1019.05	1	40.488146	18.053571
2475	2024-04-13 02:00:00	12	torchiarolo	16.77	1	66.23	1	0.0	1	3.04	1	326.46	1	0.0	1	1018.75	1	40.488146	18.053571
2476	2024-04-13 03:00:00	12	torchiarolo	16.77	1	63.62	1	0.0	1	3.05	1	326.94	1	0.0	1	1018.67	1	40.488146	18.053571
2477	2024-04-13 04:00:00	12	torchiarolo	16.83	1	62.33	1	0.0	1	2.82	1	326.36	1	0.0	1	1018.35	1	40.488146	18.053571
2478	2024-04-13 05:00:00	12	torchiarolo	16.9	1	61.53	1	0.0	1	2.69	1	331.63	1	0.0	1	1018.44	1	40.488146	18.053571
2479	2024-04-13 06:00:00	12	torchiarolo	17.23	1	59.13	1	0.0	1	3.19	1	333.83	1	16.57	1	1018.72	1	40.488146	18.053571
2480	2024-04-13 07:00:00	12	torchiarolo	19.45	1	54.3	1	0.0	1	3.64	1	341.73	1	159.45	1	1019.12	1	40.488146	18.053571
2481	2024-04-13 08:00:00	12	torchiarolo	21.8	1	49.3	1	0.0	1	4.8	1	341.42	1	364.19	1	1019.62	1	40.488146	18.053571
2482	2024-04-13 09:00:00	12	torchiarolo	23.05	1	48.64	1	0.0	1	5.01	1	340.28	1	543.12	1	1020.09	1	40.488146	18.053571
2483	2024-04-13 10:00:00	12	torchiarolo	24.09	1	48.3	1	0.0	1	4.86	1	340.37	1	685.74	1	1020.16	1	40.488146	18.053571
2484	2024-04-13 11:00:00	12	torchiarolo	24.67	1	48.12	1	0.0	1	4.77	1	343.12	1	785.82	1	1020.22	1	40.488146	18.053571
2485	2024-04-13 12:00:00	12	torchiarolo	24.69	1	48.44	1	0.0	1	4.95	1	349.05	1	846.18	1	1020.15	1	40.488146	18.053571
2486	2024-04-13 13:00:00	12	torchiarolo	25.4	1	47.43	1	0.0	1	4.7	1	345.18	1	717.99	1	1020.03	1	40.488146	18.053571
2487	2024-04-13 14:00:00	12	torchiarolo	25.75	1	47.53	1	0.0	1	4.68	1	348.46	1	772.3	1	1019.58	1	40.488146	18.053571
2488	2024-04-13 15:00:00	12	torchiarolo	25.53	1	48.23	1	0.0	1	4.43	1	349.4	1	664.75	1	1019.11	1	40.488146	18.053571
2489	2024-04-13 16:00:00	12	torchiarolo	25.1	1	48.53	1	0.0	1	4.39	1	344.74	1	489.49	1	1018.69	1	40.488146	18.053571
2490	2024-04-13 17:00:00	12	torchiarolo	23.77	1	51.28	1	0.0	1	3.76	1	341.29	1	303.01	1	1018.31	1	40.488146	18.053571
2491	2024-04-13 18:00:00	12	torchiarolo	20.97	1	59.19	1	0.0	1	3.03	1	342.15	1	109.62	1	1018.0	1	40.488146	18.053571
2492	2024-04-13 19:00:00	12	torchiarolo	18.93	1	67.11	1	0.0	1	2.5	1	340.86	1	6.37	1	1017.95	1	40.488146	18.053571
2493	2024-04-13 20:00:00	12	torchiarolo	17.36	1	74.68	1	0.0	1	1.01	1	328.48	1	0.0	1	1018.01	1	40.488146	18.053571
2494	2024-04-13 21:00:00	12	torchiarolo	16.49	1	76.1	1	0.0	1	1.11	1	339.97	1	0.0	1	1018.42	1	40.488146	18.053571
2495	2024-04-13 22:00:00	12	torchiarolo	16.87	1	72.46	1	0.0	1	1.68	1	341.6	1	0.0	1	1018.68	1	40.488146	18.053571
2496	2024-04-13 23:00:00	12	torchiarolo	16.47	1	73.28	1	0.0	1	1.48	1	337.19	1	0.0	1	1018.66	1	40.488146	18.053571
2497	2024-04-14 00:00:00	12	torchiarolo	15.6	1	74.98	1	0.0	1	0.48	1	351.48	1	0.0	1	1018.34	1	40.488146	18.053571
2498	2024-04-14 01:00:00	12	torchiarolo	14.88	1	76.12	1	0.0	1	0.24	1	315.49	1	0.0	1	1018.25	1	40.488146	18.053571
2499	2024-04-14 02:00:00	12	torchiarolo	14.63	1	75.94	1	0.0	1	0.49	1	320.72	1	0.0	1	1017.95	1	40.488146	18.053571
2500	2024-04-14 03:00:00	12	torchiarolo	14.91	1	72.97	1	0.0	1	0.47	1	328.61	1	0.0	1	1017.94	1	40.488146	18.053571
2501	2024-04-14 04:00:00	12	torchiarolo	14.54	1	73.9	1	0.0	1	0.66	1	259.62	1	0.0	1	1017.81	1	40.488146	18.053571
2502	2024-04-14 05:00:00	12	torchiarolo	13.72	1	74.76	1	0.0	1	0.61	1	267.06	1	0.0	1	1017.93	1	40.488146	18.053571
2503	2024-04-14 06:00:00	12	torchiarolo	13.51	1	74.14	1	0.0	1	0.73	1	270.33	1	18.3	1	1018.1	1	40.488146	18.053571
2504	2024-04-14 07:00:00	12	torchiarolo	17.79	1	59.76	1	0.0	1	0.53	1	289.11	1	166.15	1	1018.37	1	40.488146	18.053571
2505	2024-04-14 08:00:00	12	torchiarolo	23.15	1	48.29	1	0.0	1	2.76	1	342.73	1	371.86	1	1018.33	1	40.488146	18.053571
2506	2024-04-14 09:00:00	12	torchiarolo	24.79	1	40.6	1	0.0	1	4.31	1	349.78	1	555.35	1	1018.65	1	40.488146	18.053571
2507	2024-04-14 10:00:00	12	torchiarolo	25.75	1	38.14	1	0.0	1	4.22	1	343.18	1	696.75	1	1019.16	1	40.488146	18.053571
2508	2024-04-14 11:00:00	12	torchiarolo	26.7	1	35.88	1	0.0	1	4.33	1	343.37	1	797.56	1	1019.36	1	40.488146	18.053571
2509	2024-04-14 12:00:00	12	torchiarolo	27.09	1	34.58	1	0.0	1	4.17	1	343.24	1	857.18	1	1019.06	1	40.488146	18.053571
2510	2024-04-14 13:00:00	12	torchiarolo	28.16	1	32.17	1	0.0	1	3.5	1	338.02	1	724.92	1	1018.87	1	40.488146	18.053571
2511	2024-04-14 14:00:00	12	torchiarolo	29.1	1	31.05	1	0.0	1	3.28	1	342.24	1	779.58	1	1018.23	1	40.488146	18.053571
2512	2024-04-14 15:00:00	12	torchiarolo	28.24	1	36.51	1	0.0	1	2.98	1	11.11	1	676.46	1	1017.47	1	40.488146	18.053571
2513	2024-04-14 16:00:00	12	torchiarolo	27.42	1	36.42	1	0.0	1	2.96	1	350.05	1	506.65	1	1017.22	1	40.488146	18.053571
2514	2024-04-14 17:00:00	12	torchiarolo	26.18	1	39.08	1	0.0	1	1.95	1	355.07	1	315.44	1	1017.02	1	40.488146	18.053571
2515	2024-04-14 18:00:00	12	torchiarolo	22.55	1	55.53	1	0.0	1	0.49	1	14.31	1	113.96	1	1016.66	1	40.488146	18.053571
2516	2024-04-14 19:00:00	12	torchiarolo	19.88	1	68.17	1	0.0	1	0.01	1	66.06	1	6.63	1	1016.21	1	40.488146	18.053571
2517	2024-04-14 20:00:00	12	torchiarolo	17.79	1	76.28	1	0.0	1	null	3	13.54	1	0.0	1	1016.29	1	40.488146	18.053571
2518	2024-04-14 21:00:00	12	torchiarolo	17.05	1	78.04	1	0.0	1	null	3	1.85	1	0.0	1	1016.49	1	40.488146	18.053571
2519	2024-04-14 22:00:00	12	torchiarolo	16.32	1	79.35	1	0.0	1	null	3	241.69	1	0.0	1	1016.52	1	40.488146	18.053571
2520	2024-04-14 23:00:00	12	torchiarolo	15.98	1	80.54	1	0.0	1	0.15	1	179.27	1	0.0	1	1016.46	1	40.488146	18.053571
2521	2024-04-15 00:00:00	12	torchiarolo	15.28	1	79.31	1	0.0	1	0.76	1	237.75	1	0.0	1	1016.03	1	40.488146	18.053571
2522	2024-04-15 01:00:00	12	torchiarolo	14.59	1	80.69	1	0.0	1	null	3	211.08	1	0.0	1	1015.39	1	40.488146	18.053571
2523	2024-04-15 02:00:00	12	torchiarolo	15.11	1	77.58	1	0.0	1	0.38	1	218.53	1	0.0	1	1015.02	1	40.488146	18.053571
2524	2024-04-15 03:00:00	12	torchiarolo	15.09	1	77.56	1	0.0	1	1.35	1	223.55	1	0.0	1	1014.73	1	40.488146	18.053571
2525	2024-04-15 04:00:00	12	torchiarolo	14.74	1	81.61	1	0.0	1	0.5	1	224.81	1	0.0	1	1014.12	1	40.488146	18.053571
2526	2024-04-15 05:00:00	12	torchiarolo	14.48	1	81.85	1	0.0	1	0.36	1	233.37	1	0.0	1	1013.92	1	40.488146	18.053571
2527	2024-04-15 06:00:00	12	torchiarolo	14.58	1	80.51	1	0.0	1	0.6	1	225.89	1	27.35	1	1013.92	1	40.488146	18.053571
2528	2024-04-15 07:00:00	12	torchiarolo	17.94	1	68.81	1	0.0	1	0.03	1	219.52	1	180.39	1	1013.85	1	40.488146	18.053571
2529	2024-04-15 08:00:00	12	torchiarolo	22.48	1	56.1	1	0.0	1	0.02	1	214.05	1	231.9	1	1013.9	1	40.488146	18.053571
2530	2024-04-15 09:00:00	12	torchiarolo	25.47	1	41.73	1	0.0	1	0.09	1	215.71	1	477.61	1	1013.92	1	40.488146	18.053571
2531	2024-04-15 10:00:00	12	torchiarolo	30.98	1	28.09	1	0.0	1	0.87	1	185.51	1	694.95	1	1013.92	1	40.488146	18.053571
2532	2024-04-15 11:00:00	12	torchiarolo	31.65	1	25.84	1	0.0	1	2.57	1	202.59	1	776.91	1	1013.75	1	40.488146	18.053571
2533	2024-04-15 12:00:00	12	torchiarolo	30.46	1	27.06	1	0.0	1	3.06	1	218.45	1	857.52	1	1013.36	1	40.488146	18.053571
2534	2024-04-15 13:00:00	12	torchiarolo	30.42	1	25.16	1	0.0	1	2.42	1	203.32	1	521.34	1	1012.51	1	40.488146	18.053571
2535	2024-04-15 14:00:00	12	torchiarolo	31.39	1	23.2	1	0.0	1	2.43	1	209.35	1	607.46	1	1011.78	1	40.488146	18.053571
2536	2024-04-15 15:00:00	12	torchiarolo	29.98	1	26.28	1	0.0	1	3.04	1	229.06	1	433.82	1	1011.08	1	40.488146	18.053571
2537	2024-04-15 16:00:00	12	torchiarolo	28.02	1	26.42	1	0.0	1	3.22	1	209.46	1	341.84	1	1010.46	1	40.488146	18.053571
2538	2024-04-15 17:00:00	12	torchiarolo	27.2	1	24.08	1	0.0	1	2.47	1	206.95	1	208.44	1	1009.81	1	40.488146	18.053571
2539	2024-04-15 18:00:00	12	torchiarolo	24.89	1	25.14	1	0.0	1	2.58	1	206.45	1	75.48	1	1009.61	1	40.488146	18.053571
2540	2024-04-15 19:00:00	12	torchiarolo	22.72	1	30.81	1	0.0	1	1.71	1	205.9	1	5.38	1	1009.48	1	40.488146	18.053571
2541	2024-04-15 20:00:00	12	torchiarolo	21.65	1	33.92	1	0.0	1	2.09	1	192.54	1	0.0	1	1009.15	1	40.488146	18.053571
2542	2024-04-15 21:00:00	12	torchiarolo	21.14	1	38.46	1	0.0	1	1.89	1	201.3	1	0.0	1	1008.79	1	40.488146	18.053571
2543	2024-04-15 22:00:00	12	torchiarolo	20.61	1	48.44	1	0.0	1	1.58	1	196.67	1	0.0	1	1008.42	1	40.488146	18.053571
2544	2024-04-15 23:00:00	12	torchiarolo	20.13	1	54.13	1	0.0	1	1.63	1	198.63	1	0.0	1	1007.87	1	40.488146	18.053571
2545	2024-04-16 00:00:00	12	torchiarolo	19.94	1	57.96	1	0.0	1	1.55	1	198.54	1	0.0	1	1007.38	1	40.488146	18.053571
2546	2024-04-16 01:00:00	12	torchiarolo	19.56	1	63.41	1	0.0	1	0.17	1	185.56	1	0.0	1	1006.85	1	40.488146	18.053571
2547	2024-04-16 02:00:00	12	torchiarolo	19.4	1	66.04	1	0.0	1	0.74	1	182.99	1	0.0	1	1006.22	1	40.488146	18.053571
2548	2024-04-16 03:00:00	12	torchiarolo	19.28	1	67.1	1	0.0	1	0.05	1	132.01	1	0.0	1	1005.21	1	40.488146	18.053571
2549	2024-04-16 04:00:00	12	torchiarolo	19.25	1	66.25	1	0.0	1	1.19	1	151.33	1	0.0	1	1004.51	1	40.488146	18.053571
2550	2024-04-16 05:00:00	12	torchiarolo	19.75	1	62.97	1	0.0	1	1.77	1	164.78	1	0.0	1	1004.15	1	40.488146	18.053571
2551	2024-04-16 06:00:00	12	torchiarolo	19.46	1	67.81	1	0.0	1	1.98	1	172.17	1	9.18	1	1003.54	1	40.488146	18.053571
2552	2024-04-16 07:00:00	12	torchiarolo	19.43	1	66.55	1	0.0	1	2.56	1	182.34	1	61.13	1	1003.34	1	40.488146	18.053571
2553	2024-04-16 08:00:00	12	torchiarolo	21.33	1	55.19	1	0.0	1	2.47	1	183.67	1	182.34	1	1002.93	1	40.488146	18.053571
2554	2024-04-16 09:00:00	12	torchiarolo	23.31	1	48.07	1	0.0	1	2.45	1	188.55	1	298.67	1	1002.72	1	40.488146	18.053571
2555	2024-04-16 10:00:00	12	torchiarolo	23.86	1	45.64	1	0.0	1	3.59	1	179.59	1	265.86	1	1002.86	1	40.488146	18.053571
2556	2024-04-16 11:00:00	12	torchiarolo	23.74	1	50.24	1	0.0	1	3.62	1	193.8	1	279.48	1	1002.79	1	40.488146	18.053571
2557	2024-04-16 12:00:00	12	torchiarolo	23.66	1	49.32	1	0.0	1	4.95	1	212.0	1	222.56	1	1002.62	1	40.488146	18.053571
2558	2024-04-16 13:00:00	12	torchiarolo	22.92	1	52.03	1	0.0	1	5.08	1	213.46	1	176.17	1	1002.57	1	40.488146	18.053571
2559	2024-04-16 14:00:00	12	torchiarolo	21.58	1	58.24	1	0.0	1	4.8	1	217.15	1	120.96	1	1002.51	1	40.488146	18.053571
2560	2024-04-16 15:00:00	12	torchiarolo	20.19	1	66.94	1	0.0	1	3.27	1	223.59	1	69.68	1	1001.81	1	40.488146	18.053571
2561	2024-04-16 16:00:00	12	torchiarolo	19.83	1	70.98	1	0.0	1	1.23	1	226.69	1	68.39	1	1000.74	1	40.488146	18.053571
2562	2024-04-16 17:00:00	12	torchiarolo	20.13	1	68.46	1	0.0	1	0.86	1	183.45	1	57.0	1	1000.64	1	40.488146	18.053571
2563	2024-04-16 18:00:00	12	torchiarolo	19.93	1	67.33	1	0.0	1	1.86	1	192.72	1	36.96	1	1000.68	1	40.488146	18.053571
2564	2024-04-16 19:00:00	12	torchiarolo	18.67	1	75.29	1	0.0	1	0.75	1	196.91	1	0.0	5	999.9	1	40.488146	18.053571
2565	2024-04-16 20:00:00	12	torchiarolo	17.89	1	77.64	1	0.0	1	1.62	1	188.86	1	0.0	1	999.62	1	40.488146	18.053571
2566	2024-04-16 21:00:00	12	torchiarolo	17.68	1	76.09	1	0.0	1	1.45	1	194.91	1	0.0	1	999.63	1	40.488146	18.053571
2567	2024-04-16 22:00:00	12	torchiarolo	17.21	1	81.87	1	0.2	1	0.27	1	220.23	1	0.0	1	999.32	1	40.488146	18.053571
2568	2024-04-16 23:00:00	12	torchiarolo	16.57	1	87.12	1	0.4	1	0.13	1	203.72	1	0.0	1	998.84	1	40.488146	18.053571
2569	2024-04-17 00:00:00	12	torchiarolo	16.17	1	89.7	1	0.0	1	null	3	230.58	1	0.0	1	998.06	1	40.488146	18.053571
2570	2024-04-17 01:00:00	12	torchiarolo	16.16	1	90.28	1	0.2	1	0.89	1	215.04	1	0.0	1	997.37	1	40.488146	18.053571
2571	2024-04-17 02:00:00	12	torchiarolo	16.38	1	91.4	1	0.0	1	1.83	1	197.82	1	0.0	1	996.27	1	40.488146	18.053571
2572	2024-04-17 03:00:00	12	torchiarolo	16.34	1	90.58	1	0.0	1	1.67	1	202.58	1	0.0	1	995.54	1	40.488146	18.053571
2573	2024-04-17 04:00:00	12	torchiarolo	16.38	1	91.73	1	0.2	1	1.2	1	180.45	1	0.0	1	995.02	1	40.488146	18.053571
2574	2024-04-17 05:00:00	12	torchiarolo	16.31	1	92.56	1	0.0	1	0.6	1	187.92	1	0.0	1	994.95	1	40.488146	18.053571
2575	2024-04-17 06:00:00	12	torchiarolo	16.33	1	90.22	1	0.0	1	1.17	1	211.95	1	0.0	5	994.87	1	40.488146	18.053571
2576	2024-04-17 07:00:00	12	torchiarolo	17.05	1	83.3	1	0.0	1	2.15	1	220.85	1	49.52	1	994.87	1	40.488146	18.053571
2577	2024-04-17 08:00:00	12	torchiarolo	17.97	1	81.64	1	0.0	1	2.38	1	219.59	1	172.79	1	994.87	1	40.488146	18.053571
2578	2024-04-17 09:00:00	12	torchiarolo	18.31	1	72.63	1	0.0	1	3.29	1	331.66	1	91.61	1	995.29	1	40.488146	18.053571
2579	2024-04-17 10:00:00	12	torchiarolo	16.35	1	78.35	1	0.4	1	3.31	1	336.23	1	208.29	1	995.99	1	40.488146	18.053571
2580	2024-04-17 11:00:00	12	torchiarolo	18.3	1	70.93	1	0.0	1	2.06	1	359.02	1	530.99	1	996.17	1	40.488146	18.053571
2581	2024-04-17 12:00:00	12	torchiarolo	20.34	1	60.11	1	0.0	1	2.19	1	15.55	1	553.62	1	996.06	1	40.488146	18.053571
2582	2024-04-17 13:00:00	12	torchiarolo	17.66	1	72.28	1	0.2	1	3.44	1	14.31	1	165.99	1	996.12	1	40.488146	18.053571
2583	2024-04-17 14:00:00	12	torchiarolo	17.83	1	67.28	1	0.0	1	3.57	1	5.87	1	260.48	1	996.34	1	40.488146	18.053571
2584	2024-04-17 15:00:00	12	torchiarolo	16.29	1	75.38	1	1.2	1	2.85	1	352.1	1	110.5	1	996.63	1	40.488146	18.053571
2585	2024-04-17 16:00:00	12	torchiarolo	14.65	1	88.28	1	1.6	1	1.42	1	16.03	1	85.17	1	996.68	1	40.488146	18.053571
2586	2024-04-17 17:00:00	12	torchiarolo	14.04	1	90.5	1	2.2	1	0.89	1	352.77	1	34.2	1	996.99	1	40.488146	18.053571
2587	2024-04-17 18:00:00	12	torchiarolo	13.62	1	93.48	1	1.2	1	0.01	1	348.7	1	21.81	1	997.44	1	40.488146	18.053571
2588	2024-04-17 19:00:00	12	torchiarolo	12.85	1	94.59	1	2.8	1	1.69	1	328.71	1	0.0	5	998.3	1	40.488146	18.053571
2589	2024-04-17 20:00:00	12	torchiarolo	12.22	1	95.75	1	0.8	1	0.94	1	342.93	1	0.0	1	999.07	1	40.488146	18.053571
2590	2024-04-17 21:00:00	12	torchiarolo	11.92	1	96.52	1	0.4	1	1.14	1	311.67	1	0.0	1	999.54	1	40.488146	18.053571
2591	2024-04-17 22:00:00	12	torchiarolo	11.02	1	95.72	1	0.0	1	1.53	1	278.03	1	0.0	5	999.63	1	40.488146	18.053571
2592	2024-04-17 23:00:00	12	torchiarolo	10.3	1	94.39	1	0.0	1	0.58	1	284.47	1	0.0	1	999.5	1	40.488146	18.053571
2593	2024-04-18 00:00:00	12	torchiarolo	10.08	1	95.26	1	0.0	1	0.04	1	255.94	1	0.0	1	999.76	1	40.488146	18.053571
2594	2024-04-18 01:00:00	12	torchiarolo	9.63	1	92.47	1	0.0	1	0.9	1	234.97	1	0.0	1	1000.0	1	40.488146	18.053571
2595	2024-04-18 02:00:00	12	torchiarolo	9.16	1	89.95	1	0.0	1	1.05	1	232.28	1	0.0	1	1000.0	1	40.488146	18.053571
2596	2024-04-18 03:00:00	12	torchiarolo	8.66	1	90.28	1	0.0	1	1.26	1	250.97	1	0.0	1	1000.0	1	40.488146	18.053571
2597	2024-04-18 04:00:00	12	torchiarolo	8.38	1	88.54	1	0.0	1	0.87	1	247.54	1	0.0	1	1000.02	1	40.488146	18.053571
2598	2024-04-18 05:00:00	12	torchiarolo	8.2	1	86.29	1	0.0	1	1.24	1	246.98	1	0.0	1	1000.0	1	40.488146	18.053571
2599	2024-04-18 06:00:00	12	torchiarolo	8.06	1	86.04	1	0.0	1	1.39	1	250.29	1	27.31	1	1000.44	1	40.488146	18.053571
2600	2024-04-18 07:00:00	12	torchiarolo	12.4	1	71.15	1	0.0	1	1.52	1	256.26	1	205.53	1	1001.17	1	40.488146	18.053571
2601	2024-04-18 08:00:00	12	torchiarolo	17.23	1	57.78	1	0.0	1	0.55	1	261.33	1	420.4	1	1001.48	1	40.488146	18.053571
2602	2024-04-18 09:00:00	12	torchiarolo	20.57	1	47.14	1	0.0	1	0.61	1	278.75	1	608.54	1	1001.82	1	40.488146	18.053571
2603	2024-04-18 10:00:00	12	torchiarolo	20.78	1	38.16	1	0.0	1	0.39	1	242.13	1	500.02	1	1002.37	1	40.488146	18.053571
2604	2024-04-18 11:00:00	12	torchiarolo	16.99	1	49.85	1	0.2	1	0.92	1	30.99	1	84.92	1	1002.63	1	40.488146	18.053571
2605	2024-04-18 12:00:00	12	torchiarolo	14.73	1	71.03	1	0.8	1	1.41	1	48.95	1	135.69	1	1002.87	1	40.488146	18.053571
2606	2024-04-18 13:00:00	12	torchiarolo	15.22	1	73.38	1	0.0	1	0.5	1	102.54	1	359.34	1	1002.85	1	40.488146	18.053571
2607	2024-04-18 14:00:00	12	torchiarolo	16.05	1	62.58	1	0.4	1	1.66	1	74.8	1	155.82	1	1002.65	1	40.488146	18.053571
2608	2024-04-18 15:00:00	12	torchiarolo	12.08	1	86.77	1	1.8	1	0.87	1	12.13	1	76.05	1	1003.41	1	40.488146	18.053571
2609	2024-04-18 16:00:00	12	torchiarolo	11.91	1	92.1	1	0.2	1	0.38	1	51.65	1	108.42	1	1003.6	1	40.488146	18.053571
2610	2024-04-18 17:00:00	12	torchiarolo	12.05	1	90.4	1	0.0	1	1.26	1	17.06	1	117.03	1	1003.98	1	40.488146	18.053571
2611	2024-04-18 18:00:00	12	torchiarolo	11.89	1	86.34	1	0.0	1	1.14	1	19.03	1	60.23	1	1004.03	1	40.488146	18.053571
2612	2024-04-18 19:00:00	12	torchiarolo	11.46	1	85.84	1	0.0	1	null	3	101.67	1	6.27	1	1004.29	1	40.488146	18.053571
2613	2024-04-18 20:00:00	12	torchiarolo	11.79	1	83.22	1	0.0	1	0.45	1	137.5	1	0.0	1	1004.57	1	40.488146	18.053571
2614	2024-04-18 21:00:00	12	torchiarolo	11.3	1	78.99	1	0.0	1	1.39	1	171.33	1	0.0	1	1004.79	1	40.488146	18.053571
2615	2024-04-18 22:00:00	12	torchiarolo	10.57	1	81.99	1	0.0	1	0.67	1	205.86	1	0.0	1	1005.08	1	40.488146	18.053571
2616	2024-04-18 23:00:00	12	torchiarolo	9.75	1	85.38	1	0.0	1	0.49	1	239.65	1	0.0	1	1005.12	1	40.488146	18.053571
2617	2024-04-19 00:00:00	12	torchiarolo	8.85	1	88.9	1	0.0	1	0.15	1	249.16	1	0.0	1	1005.24	1	40.488146	18.053571
2618	2024-04-19 01:00:00	12	torchiarolo	8.3	1	90.4	1	0.0	1	0.13	1	256.75	1	0.0	1	1004.9	1	40.488146	18.053571
2619	2024-04-19 02:00:00	12	torchiarolo	8.07	1	90.95	1	0.0	1	0.01	1	236.03	1	0.0	1	1004.39	1	40.488146	18.053571
2620	2024-04-19 03:00:00	12	torchiarolo	7.66	1	92.16	1	0.0	1	null	3	260.23	1	0.0	1	1004.37	1	40.488146	18.053571
2621	2024-04-19 04:00:00	12	torchiarolo	7.98	1	93.35	1	0.0	1	null	3	225.62	1	0.0	1	1004.07	1	40.488146	18.053571
2622	2024-04-19 05:00:00	12	torchiarolo	8.33	1	93.53	1	0.0	1	null	3	219.29	1	0.0	1	1003.7	1	40.488146	18.053571
2623	2024-04-19 06:00:00	12	torchiarolo	8.45	1	92.88	1	0.0	1	0.02	1	250.98	1	14.14	1	1003.55	1	40.488146	18.053571
2624	2024-04-19 07:00:00	12	torchiarolo	9.82	1	92.05	1	0.2	1	null	3	174.68	1	39.19	1	1003.48	1	40.488146	18.053571
2625	2024-04-19 08:00:00	12	torchiarolo	10.61	1	91.29	1	3.6	1	0.89	1	162.29	1	10.63	1	1003.53	1	40.488146	18.053571
2626	2024-04-19 09:00:00	12	torchiarolo	9.94	1	93.67	1	5.4	1	1.23	1	226.53	1	40.7	1	1003.85	1	40.488146	18.053571
2627	2024-04-19 10:00:00	12	torchiarolo	10.27	1	95.37	1	3.6	1	null	3	194.95	1	70.51	1	1003.91	1	40.488146	18.053571
2628	2024-04-19 11:00:00	12	torchiarolo	10.54	1	95.93	1	1.4	1	0.51	1	7.64	1	175.54	1	1003.66	1	40.488146	18.053571
2629	2024-04-19 12:00:00	12	torchiarolo	11.89	1	94.67	1	0.2	1	2.52	1	6.87	1	338.81	1	1003.23	1	40.488146	18.053571
2630	2024-04-19 13:00:00	12	torchiarolo	12.29	1	91.27	1	0.0	1	2.49	1	13.94	1	218.93	1	1002.72	1	40.488146	18.053571
2631	2024-04-19 14:00:00	12	torchiarolo	12.6	1	84.06	1	0.0	1	2.82	1	15.8	1	162.72	1	1002.41	1	40.488146	18.053571
2632	2024-04-19 15:00:00	12	torchiarolo	12.5	1	78.61	1	0.0	1	2.43	1	34.33	1	107.71	1	1001.85	1	40.488146	18.053571
2633	2024-04-19 16:00:00	12	torchiarolo	12.88	1	72.96	1	0.0	1	2.63	1	23.55	1	101.38	1	1001.83	1	40.488146	18.053571
2634	2024-04-19 17:00:00	12	torchiarolo	12.71	1	77.13	1	0.0	1	3.12	1	9.54	1	83.94	1	1002.0	1	40.488146	18.053571
2635	2024-04-19 18:00:00	12	torchiarolo	12.62	1	76.42	1	0.4	1	2.76	1	341.59	1	37.14	1	1002.42	1	40.488146	18.053571
2636	2024-04-19 19:00:00	12	torchiarolo	13.17	1	72.41	1	0.0	1	4.06	1	344.32	1	19.51	1	1002.56	1	40.488146	18.053571
2637	2024-04-19 20:00:00	12	torchiarolo	13.73	1	57.57	1	0.0	1	5.47	1	350.16	1	0.0	1	1003.04	1	40.488146	18.053571
2638	2024-04-19 21:00:00	12	torchiarolo	13.23	1	59.16	1	0.0	1	4.47	1	339.51	1	0.0	1	1003.74	1	40.488146	18.053571
2639	2024-04-19 22:00:00	12	torchiarolo	12.82	1	59.31	1	0.0	1	4.19	1	335.94	1	0.0	1	1004.03	1	40.488146	18.053571
2640	2024-04-19 23:00:00	12	torchiarolo	12.64	1	61.92	1	0.0	1	4.28	1	335.34	1	0.0	1	1004.24	1	40.488146	18.053571
2641	2024-04-20 00:00:00	12	torchiarolo	12.13	1	66.49	1	0.0	1	3.01	1	326.28	1	0.0	1	1004.69	1	40.488146	18.053571
2642	2024-04-20 01:00:00	12	torchiarolo	10.99	1	71.11	1	0.0	1	2.08	1	305.67	1	0.0	1	1004.6	1	40.488146	18.053571
2643	2024-04-20 02:00:00	12	torchiarolo	9.71	1	73.12	1	0.0	1	2.18	1	304.2	1	0.0	1	1004.19	1	40.488146	18.053571
2644	2024-04-20 03:00:00	12	torchiarolo	9.35	1	72.37	1	0.0	1	2.27	1	296.85	1	0.0	1	1004.31	1	40.488146	18.053571
2645	2024-04-20 04:00:00	12	torchiarolo	8.8	1	73.21	1	0.0	1	1.44	1	308.4	1	0.0	1	1004.03	1	40.488146	18.053571
2646	2024-04-20 05:00:00	12	torchiarolo	8.15	1	73.57	1	0.0	1	1.57	1	291.34	1	0.0	1	1004.0	1	40.488146	18.053571
2647	2024-04-20 06:00:00	12	torchiarolo	7.32	1	74.96	1	0.0	1	1.59	1	262.66	1	32.89	1	1004.12	1	40.488146	18.053571
2648	2024-04-20 07:00:00	12	torchiarolo	12.09	1	55.8	1	0.0	1	1.03	1	259.39	1	220.06	1	1004.4	1	40.488146	18.053571
2649	2024-04-20 08:00:00	12	torchiarolo	16.86	1	46.75	1	0.0	1	1.78	1	284.56	1	443.08	1	1004.62	1	40.488146	18.053571
2650	2024-04-20 09:00:00	12	torchiarolo	20.22	1	37.53	1	0.0	1	0.57	1	332.26	1	638.44	1	1004.69	1	40.488146	18.053571
2651	2024-04-20 10:00:00	12	torchiarolo	21.54	1	24.47	1	0.0	1	0.54	1	258.64	1	795.65	1	1004.89	1	40.488146	18.053571
2652	2024-04-20 11:00:00	12	torchiarolo	21.87	1	23.25	1	0.0	1	0.85	1	267.48	1	892.94	1	1005.05	1	40.488146	18.053571
2653	2024-04-20 12:00:00	12	torchiarolo	20.83	1	33.59	1	0.0	1	0.4	1	null	3	826.38	1	1004.86	1	40.488146	18.053571
2654	2024-04-20 13:00:00	12	torchiarolo	19.68	1	38.73	1	0.0	1	1.52	1	61.58	1	678.94	1	1004.43	1	40.488146	18.053571
2655	2024-04-20 14:00:00	12	torchiarolo	17.74	1	44.82	1	0.0	1	2.42	1	65.81	1	235.35	1	1004.61	1	40.488146	18.053571
2656	2024-04-20 15:00:00	12	torchiarolo	17.72	1	44.31	1	0.0	1	2.45	1	91.18	1	527.57	1	1004.21	1	40.488146	18.053571
2657	2024-04-20 16:00:00	12	torchiarolo	18.28	1	42.24	1	0.0	1	2.3	1	90.49	1	300.85	1	1004.03	1	40.488146	18.053571
2658	2024-04-20 17:00:00	12	torchiarolo	16.77	1	53.0	1	0.0	1	2.79	1	98.48	1	95.56	1	1003.77	1	40.488146	18.053571
2659	2024-04-20 18:00:00	12	torchiarolo	15.98	1	60.26	1	0.2	1	0.27	1	335.75	1	27.5	1	1003.64	1	40.488146	18.053571
2660	2024-04-20 19:00:00	12	torchiarolo	13.34	1	79.7	1	0.6	1	0.19	1	348.1	1	0.0	5	1003.86	1	40.488146	18.053571
2661	2024-04-20 20:00:00	12	torchiarolo	12.48	1	86.9	1	0.0	1	0.02	1	98.84	1	0.0	1	1003.92	1	40.488146	18.053571
2662	2024-04-20 21:00:00	12	torchiarolo	12.71	1	88.9	1	0.0	1	0.7	1	148.89	1	0.0	1	1004.03	1	40.488146	18.053571
2663	2024-04-20 22:00:00	12	torchiarolo	12.91	1	86.52	1	0.0	1	0.69	1	171.37	1	0.0	1	1003.74	1	40.488146	18.053571
2664	2024-04-20 23:00:00	12	torchiarolo	12.26	1	84.29	1	0.0	1	0.28	1	196.09	1	0.0	1	1003.31	1	40.488146	18.053571
2665	2024-04-21 00:00:00	12	torchiarolo	12.25	1	80.27	1	0.0	1	0.55	1	220.37	1	0.0	1	1003.27	1	40.488146	18.053571
2666	2024-04-21 01:00:00	12	torchiarolo	12.09	1	79.49	1	0.0	1	1.26	1	222.25	1	0.0	1	1002.68	1	40.488146	18.053571
2667	2024-04-21 02:00:00	12	torchiarolo	11.8	1	79.79	1	0.0	1	0.78	1	245.82	1	0.0	1	1002.16	1	40.488146	18.053571
2668	2024-04-21 03:00:00	12	torchiarolo	11.85	1	79.71	1	0.0	1	0.32	1	211.55	1	0.0	1	1001.65	1	40.488146	18.053571
2669	2024-04-21 04:00:00	12	torchiarolo	11.94	1	80.69	1	0.0	1	0.2	1	243.54	1	0.0	1	1001.27	1	40.488146	18.053571
2670	2024-04-21 05:00:00	12	torchiarolo	11.71	1	84.11	1	0.2	1	1.1	1	265.43	1	0.0	1	1001.4	1	40.488146	18.053571
2671	2024-04-21 06:00:00	12	torchiarolo	11.25	1	86.96	1	2.4	1	0.72	1	276.1	1	0.0	5	1001.71	1	40.488146	18.053571
2672	2024-04-21 07:00:00	12	torchiarolo	10.65	1	91.07	1	3.6	1	1.64	1	241.13	1	13.93	1	1002.0	1	40.488146	18.053571
2673	2024-04-21 08:00:00	12	torchiarolo	10.79	1	93.76	1	0.6	1	0.66	1	274.26	1	89.44	1	1002.17	1	40.488146	18.053571
2674	2024-04-21 09:00:00	12	torchiarolo	13.26	1	94.4	1	0.0	1	0.92	1	313.98	1	401.68	1	1002.43	1	40.488146	18.053571
2675	2024-04-21 10:00:00	12	torchiarolo	17.47	1	76.94	1	0.0	1	1.66	1	335.21	1	702.3	1	1002.57	1	40.488146	18.053571
2676	2024-04-21 11:00:00	12	torchiarolo	18.58	1	58.27	1	0.0	1	1.92	1	263.83	1	570.82	1	1002.94	1	40.488146	18.053571
2677	2024-04-21 12:00:00	12	torchiarolo	19.24	1	52.34	1	0.0	1	1.38	1	345.53	1	659.77	1	1003.31	1	40.488146	18.053571
2678	2024-04-21 13:00:00	12	torchiarolo	19.6	1	45.21	1	0.0	1	3.04	1	285.4	1	567.98	1	1003.76	1	40.488146	18.053571
2679	2024-04-21 14:00:00	12	torchiarolo	17.5	1	53.18	1	0.0	1	4.57	1	325.94	1	568.7	1	1004.56	1	40.488146	18.053571
2680	2024-04-21 15:00:00	12	torchiarolo	18.02	1	51.11	1	0.0	1	4.94	1	327.88	1	470.89	1	1005.12	1	40.488146	18.053571
2681	2024-04-21 16:00:00	12	torchiarolo	16.97	1	53.18	1	0.0	1	5.13	1	329.37	1	417.15	1	1005.76	1	40.488146	18.053571
2682	2024-04-21 17:00:00	12	torchiarolo	16.51	1	52.38	1	0.0	1	5.03	1	334.04	1	328.61	1	1006.3	1	40.488146	18.053571
2683	2024-04-21 18:00:00	12	torchiarolo	14.53	1	54.61	1	0.0	1	4.68	1	335.82	1	137.98	1	1006.64	1	40.488146	18.053571
2684	2024-04-21 19:00:00	12	torchiarolo	13.12	1	62.56	1	0.0	1	2.77	1	336.28	1	9.68	1	1007.4	1	40.488146	18.053571
2685	2024-04-21 20:00:00	12	torchiarolo	11.71	1	69.59	1	0.0	1	0.31	1	329.61	1	0.0	1	1008.18	1	40.488146	18.053571
2686	2024-04-21 21:00:00	12	torchiarolo	10.74	1	74.18	1	0.0	1	null	3	268.68	1	0.0	1	1008.92	1	40.488146	18.053571
2687	2024-04-21 22:00:00	12	torchiarolo	10.18	1	77.82	1	0.0	1	null	3	269.31	1	0.0	1	1009.5	1	40.488146	18.053571
2688	2024-04-21 23:00:00	12	torchiarolo	9.6	1	80.08	1	0.0	1	null	3	262.4	1	0.0	1	1009.68	1	40.488146	18.053571
2689	2024-04-22 00:00:00	12	torchiarolo	9.12	1	82.79	1	0.0	1	null	3	252.21	1	0.0	1	1009.89	1	40.488146	18.053571
2690	2024-04-22 01:00:00	12	torchiarolo	8.64	1	85.21	1	0.0	1	0.01	1	252.06	1	0.0	1	1009.89	1	40.488146	18.053571
2691	2024-04-22 02:00:00	12	torchiarolo	8.2	1	85.98	1	0.0	1	0.1	1	230.16	1	0.0	1	1009.6	1	40.488146	18.053571
2692	2024-04-22 03:00:00	12	torchiarolo	7.88	1	86.69	1	0.0	1	0.17	1	230.84	1	0.0	1	1009.38	1	40.488146	18.053571
2693	2024-04-22 04:00:00	12	torchiarolo	7.24	1	88.64	1	0.0	1	0.15	1	252.31	1	0.0	1	1008.92	1	40.488146	18.053571
2694	2024-04-22 05:00:00	12	torchiarolo	7.35	1	89.67	1	0.0	1	0.01	1	257.41	1	0.0	1	1008.53	1	40.488146	18.053571
2695	2024-04-22 06:00:00	12	torchiarolo	7.59	1	89.43	1	0.0	1	null	3	289.1	1	30.33	1	1008.42	1	40.488146	18.053571
2696	2024-04-22 07:00:00	12	torchiarolo	11.64	1	79.11	1	0.0	1	null	3	303.55	1	186.86	1	1008.42	1	40.488146	18.053571
2697	2024-04-22 08:00:00	12	torchiarolo	16.11	1	62.82	1	0.0	1	1.06	1	75.15	1	363.38	1	1008.42	1	40.488146	18.053571
2698	2024-04-22 09:00:00	12	torchiarolo	17.8	1	55.91	1	0.0	1	1.63	1	79.88	1	624.85	1	1008.42	1	40.488146	18.053571
2699	2024-04-22 10:00:00	12	torchiarolo	18.96	1	52.85	1	0.0	1	1.6	1	65.73	1	790.41	1	1008.61	1	40.488146	18.053571
2700	2024-04-22 11:00:00	12	torchiarolo	19.23	1	52.49	1	0.0	1	1.62	1	74.71	1	856.13	1	1008.66	1	40.488146	18.053571
2701	2024-04-22 12:00:00	12	torchiarolo	18.67	1	52.81	1	0.0	1	1.18	1	76.37	1	728.32	1	1008.42	1	40.488146	18.053571
2702	2024-04-22 13:00:00	12	torchiarolo	18.9	1	53.85	1	0.0	1	2.09	1	63.56	1	681.63	1	1008.27	1	40.488146	18.053571
2703	2024-04-22 14:00:00	12	torchiarolo	18.81	1	56.72	1	0.0	1	2.02	1	64.65	1	526.55	1	1007.86	1	40.488146	18.053571
2704	2024-04-22 15:00:00	12	torchiarolo	19.03	1	57.57	1	0.0	1	2.1	1	70.28	1	692.09	1	1007.41	1	40.488146	18.053571
2705	2024-04-22 16:00:00	12	torchiarolo	18.73	1	56.6	1	0.0	1	2.75	1	80.39	1	564.73	1	1007.2	1	40.488146	18.053571
2706	2024-04-22 17:00:00	12	torchiarolo	18.11	1	55.89	1	0.0	1	1.9	1	75.11	1	352.04	1	1006.63	1	40.488146	18.053571
2707	2024-04-22 18:00:00	12	torchiarolo	16.35	1	59.39	1	0.0	1	2.19	1	87.92	1	143.81	1	1006.21	1	40.488146	18.053571
2708	2024-04-22 19:00:00	12	torchiarolo	15.61	1	62.34	1	0.0	1	1.62	1	94.4	1	18.91	1	1005.87	1	40.488146	18.053571
2709	2024-04-22 20:00:00	12	torchiarolo	14.7	1	64.82	1	0.0	1	0.78	1	112.44	1	0.0	1	1005.86	1	40.488146	18.053571
2710	2024-04-22 21:00:00	12	torchiarolo	14.18	1	67.67	1	0.0	1	0.02	1	95.48	1	0.0	1	1005.75	1	40.488146	18.053571
2711	2024-04-22 22:00:00	12	torchiarolo	14.23	1	71.03	1	0.0	1	0.01	1	93.23	1	0.0	1	1005.13	1	40.488146	18.053571
2712	2024-04-22 23:00:00	12	torchiarolo	14.55	1	73.26	1	0.0	1	null	3	43.51	1	0.0	1	1004.71	1	40.488146	18.053571
2713	2024-04-23 00:00:00	12	torchiarolo	14.61	1	74.22	1	0.0	1	null	3	46.09	1	0.0	1	1004.4	1	40.488146	18.053571
2714	2024-04-23 01:00:00	12	torchiarolo	14.92	1	75.53	1	0.0	1	0.02	1	23.81	1	0.0	1	1003.96	1	40.488146	18.053571
2715	2024-04-23 02:00:00	12	torchiarolo	15.18	1	76.59	1	0.0	1	null	3	62.67	1	0.0	1	1003.61	1	40.488146	18.053571
2716	2024-04-23 03:00:00	12	torchiarolo	15.07	1	79.76	1	0.0	1	null	3	317.85	1	0.0	1	1002.9	1	40.488146	18.053571
2717	2024-04-23 04:00:00	12	torchiarolo	14.67	1	83.17	1	0.0	1	0.04	1	322.51	1	0.0	1	1002.23	1	40.488146	18.053571
2718	2024-04-23 05:00:00	12	torchiarolo	14.36	1	85.33	1	0.0	1	0.03	1	352.21	1	0.0	1	1001.62	1	40.488146	18.053571
2719	2024-04-23 06:00:00	12	torchiarolo	14.47	1	89.76	1	0.6	1	0.05	1	336.74	1	6.24	1	1001.36	1	40.488146	18.053571
2720	2024-04-23 07:00:00	12	torchiarolo	14.95	1	93.65	1	1.0	1	0.74	1	4.83	1	11.75	1	1000.43	1	40.488146	18.053571
2721	2024-04-23 08:00:00	12	torchiarolo	14.36	1	93.56	1	0.4	1	1.41	1	14.59	1	29.19	1	1000.2	1	40.488146	18.053571
2722	2024-04-23 09:00:00	12	torchiarolo	14.49	1	92.76	1	0.0	1	1.67	1	5.0	1	73.74	1	1000.01	1	40.488146	18.053571
2723	2024-04-23 10:00:00	12	torchiarolo	14.9	1	92.06	1	0.0	1	2.03	1	348.72	1	65.88	1	1000.14	1	40.488146	18.053571
2724	2024-04-23 11:00:00	12	torchiarolo	14.8	1	91.82	1	0.0	1	3.41	1	335.86	1	85.98	1	999.79	1	40.488146	18.053571
2725	2024-04-23 12:00:00	12	torchiarolo	14.65	1	90.68	1	0.0	1	3.09	1	334.09	1	70.41	1	999.62	1	40.488146	18.053571
2726	2024-04-23 13:00:00	12	torchiarolo	14.04	1	92.89	1	0.6	1	2.9	1	319.35	1	84.76	1	999.44	1	40.488146	18.053571
2727	2024-04-23 14:00:00	12	torchiarolo	14.0	1	95.39	1	1.2	1	2.4	1	332.12	1	84.3	1	999.47	1	40.488146	18.053571
2728	2024-04-23 15:00:00	12	torchiarolo	14.34	1	95.65	1	0.2	1	2.3	1	1.59	1	110.14	1	999.07	1	40.488146	18.053571
2729	2024-04-23 16:00:00	12	torchiarolo	14.66	1	94.55	1	0.0	1	1.74	1	336.75	1	145.91	1	999.07	1	40.488146	18.053571
2730	2024-04-23 17:00:00	12	torchiarolo	16.75	1	84.35	1	0.0	1	0.69	1	11.36	1	360.77	1	999.25	1	40.488146	18.053571
2731	2024-04-23 18:00:00	12	torchiarolo	16.08	1	78.86	1	0.0	1	0.09	1	7.21	1	114.56	1	999.86	1	40.488146	18.053571
2732	2024-04-23 19:00:00	12	torchiarolo	14.71	1	81.26	1	0.0	1	null	3	96.77	1	11.88	1	1000.52	1	40.488146	18.053571
2733	2024-04-23 20:00:00	12	torchiarolo	13.9	1	83.58	1	0.0	1	null	3	113.87	1	0.0	1	1001.34	1	40.488146	18.053571
2734	2024-04-23 21:00:00	12	torchiarolo	13.4	1	87.12	1	0.0	1	0.01	1	193.06	1	0.0	1	1001.89	1	40.488146	18.053571
2735	2024-04-23 22:00:00	12	torchiarolo	13.33	1	87.97	1	0.0	1	null	3	200.38	1	0.0	1	1002.34	1	40.488146	18.053571
2736	2024-04-23 23:00:00	12	torchiarolo	12.17	1	89.4	1	0.0	1	null	3	338.52	1	0.0	1	1002.69	1	40.488146	18.053571
2737	2024-04-24 00:00:00	12	torchiarolo	12.13	1	92.23	1	0.0	1	0.11	1	326.1	1	0.0	1	1003.39	1	40.488146	18.053571
2738	2024-04-24 01:00:00	12	torchiarolo	10.96	1	79.94	1	0.0	1	0.52	1	277.54	1	0.0	1	1003.65	1	40.488146	18.053571
2739	2024-04-24 02:00:00	12	torchiarolo	9.5	1	80.42	1	0.0	1	null	3	314.41	1	0.0	1	1003.77	1	40.488146	18.053571
2740	2024-04-24 03:00:00	12	torchiarolo	8.76	1	83.89	1	0.0	1	0.04	1	210.62	1	0.0	1	1003.96	1	40.488146	18.053571
2741	2024-04-24 04:00:00	12	torchiarolo	9.07	1	76.15	1	0.0	1	0.02	1	218.98	1	0.0	1	1003.95	1	40.488146	18.053571
2742	2024-04-24 05:00:00	12	torchiarolo	8.61	1	75.05	1	0.0	1	0.01	1	221.65	1	0.0	5	1003.95	1	40.488146	18.053571
2743	2024-04-24 06:00:00	12	torchiarolo	8.74	1	73.0	1	0.0	1	0.06	1	213.96	1	42.36	1	1004.03	1	40.488146	18.053571
2744	2024-04-24 07:00:00	12	torchiarolo	13.86	1	58.68	1	0.0	1	0.04	1	185.47	1	235.15	1	1004.03	1	40.488146	18.053571
2745	2024-04-24 08:00:00	12	torchiarolo	18.2	1	46.86	1	0.0	1	0.02	1	176.5	1	410.85	1	1004.1	1	40.488146	18.053571
2746	2024-04-24 09:00:00	12	torchiarolo	18.69	1	45.78	1	0.0	1	0.62	1	204.81	1	525.61	1	1004.37	1	40.488146	18.053571
2747	2024-04-24 10:00:00	12	torchiarolo	20.18	1	42.71	1	0.0	1	1.56	1	217.95	1	747.78	1	1004.31	1	40.488146	18.053571
2748	2024-04-24 11:00:00	12	torchiarolo	20.94	1	33.98	1	0.0	1	1.84	1	238.05	1	745.19	1	1003.91	1	40.488146	18.053571
2749	2024-04-24 12:00:00	12	torchiarolo	20.05	1	33.28	1	0.0	1	2.69	1	231.72	1	487.48	1	1003.66	1	40.488146	18.053571
2750	2024-04-24 13:00:00	12	torchiarolo	20.8	1	34.06	1	0.0	1	2.54	1	211.09	1	594.58	1	1003.56	1	40.488146	18.053571
2751	2024-04-24 14:00:00	12	torchiarolo	20.26	1	36.6	1	0.0	1	2.11	1	232.9	1	421.49	1	1003.37	1	40.488146	18.053571
2752	2024-04-24 15:00:00	12	torchiarolo	19.45	1	38.14	1	0.0	1	1.93	1	234.29	1	229.09	1	1002.73	1	40.488146	18.053571
2753	2024-04-24 16:00:00	12	torchiarolo	17.89	1	42.92	1	0.0	1	1.77	1	236.46	1	103.7	1	1002.35	1	40.488146	18.053571
2754	2024-04-24 17:00:00	12	torchiarolo	17.4	1	44.88	1	0.0	1	1.37	1	210.89	1	108.04	1	1001.96	1	40.488146	18.053571
2755	2024-04-24 18:00:00	12	torchiarolo	16.73	1	48.31	1	0.0	1	2.11	1	212.57	1	40.89	1	1001.82	1	40.488146	18.053571
2756	2024-04-24 19:00:00	12	torchiarolo	15.89	1	55.55	1	0.0	1	1.22	1	188.26	1	0.0	5	1001.83	1	40.488146	18.053571
2757	2024-04-24 20:00:00	12	torchiarolo	15.38	1	55.09	1	0.0	1	1.14	1	194.52	1	0.0	1	1001.95	1	40.488146	18.053571
2758	2024-04-24 21:00:00	12	torchiarolo	14.85	1	54.16	1	0.0	1	0.78	1	200.01	1	0.0	1	1002.07	1	40.488146	18.053571
2759	2024-04-24 22:00:00	12	torchiarolo	14.37	1	60.23	1	0.0	1	0.37	1	196.17	1	0.0	1	1001.91	1	40.488146	18.053571
2760	2024-04-24 23:00:00	12	torchiarolo	14.13	1	63.81	1	0.0	1	0.33	1	244.39	1	0.0	1	1001.83	1	40.488146	18.053571
2761	2024-04-25 00:00:00	12	torchiarolo	13.7	1	65.55	1	0.0	1	null	3	260.19	1	0.0	1	1001.51	1	40.488146	18.053571
2762	2024-04-25 01:00:00	12	torchiarolo	13.24	1	69.37	1	0.0	1	0.23	1	278.94	1	0.0	1	1001.28	1	40.488146	18.053571
2763	2024-04-25 02:00:00	12	torchiarolo	12.96	1	72.95	1	0.0	1	0.55	1	326.52	1	0.0	1	1001.25	1	40.488146	18.053571
2764	2024-04-25 03:00:00	12	torchiarolo	11.99	1	75.56	1	0.0	1	0.77	1	287.09	1	0.0	1	1001.03	1	40.488146	18.053571
2765	2024-04-25 04:00:00	12	torchiarolo	11.55	1	70.53	1	0.0	1	0.5	1	292.1	1	0.0	1	1001.11	1	40.488146	18.053571
2766	2024-04-25 05:00:00	12	torchiarolo	11.03	1	64.46	1	0.0	1	1.15	1	296.98	1	0.0	5	1001.13	1	40.488146	18.053571
2767	2024-04-25 06:00:00	12	torchiarolo	10.05	1	64.44	1	0.0	1	0.69	1	296.2	1	15.13	1	1001.58	1	40.488146	18.053571
2768	2024-04-25 07:00:00	12	torchiarolo	12.14	1	59.34	1	0.0	1	0.55	1	285.3	1	204.4	1	1002.0	1	40.488146	18.053571
2769	2024-04-25 08:00:00	12	torchiarolo	17.65	1	45.76	1	0.0	1	2.32	1	320.75	1	453.82	1	1002.47	1	40.488146	18.053571
2770	2024-04-25 09:00:00	12	torchiarolo	19.3	1	41.87	1	0.0	1	2.57	1	333.31	1	637.36	1	1002.78	1	40.488146	18.053571
2771	2024-04-25 10:00:00	12	torchiarolo	20.67	1	36.24	1	0.0	1	1.51	1	325.51	1	788.71	1	1002.93	1	40.488146	18.053571
2772	2024-04-25 11:00:00	12	torchiarolo	21.28	1	32.8	1	0.0	1	1.15	1	251.92	1	752.72	1	1003.02	1	40.488146	18.053571
2773	2024-04-25 12:00:00	12	torchiarolo	17.93	1	45.6	1	0.0	1	1.7	1	60.15	1	381.75	1	1003.21	1	40.488146	18.053571
2774	2024-04-25 13:00:00	12	torchiarolo	17.35	1	47.28	1	0.0	1	1.86	1	65.92	1	406.28	1	1003.27	1	40.488146	18.053571
2775	2024-04-25 14:00:00	12	torchiarolo	18.68	1	45.72	1	0.0	1	1.85	1	64.34	1	753.19	1	1003.3	1	40.488146	18.053571
2776	2024-04-25 15:00:00	12	torchiarolo	19.11	1	45.81	1	0.0	1	1.45	1	72.8	1	559.71	1	1003.29	1	40.488146	18.053571
2777	2024-04-25 16:00:00	12	torchiarolo	18.6	1	49.57	1	0.0	1	2.02	1	77.99	1	314.78	1	1003.34	1	40.488146	18.053571
2778	2024-04-25 17:00:00	12	torchiarolo	17.1	1	56.67	1	0.0	1	2.75	1	102.27	1	180.01	1	1003.57	1	40.488146	18.053571
2779	2024-04-25 18:00:00	12	torchiarolo	16.63	1	51.99	1	0.0	1	0.97	1	231.78	1	49.57	1	1003.99	1	40.488146	18.053571
2780	2024-04-25 19:00:00	12	torchiarolo	16.36	1	53.5	1	0.0	1	1.06	1	217.37	1	14.16	1	1004.3	1	40.488146	18.053571
2781	2024-04-25 20:00:00	12	torchiarolo	15.49	1	58.87	1	0.0	1	0.13	1	187.55	1	0.0	1	1004.9	1	40.488146	18.053571
2782	2024-04-25 21:00:00	12	torchiarolo	14.35	1	64.19	1	0.0	1	0.03	1	157.67	1	0.0	1	1005.4	1	40.488146	18.053571
2783	2024-04-25 22:00:00	12	torchiarolo	13.58	1	68.63	1	0.0	1	0.03	1	188.66	1	0.0	1	1005.8	1	40.488146	18.053571
2784	2024-04-25 23:00:00	12	torchiarolo	13.18	1	71.4	1	0.0	1	0.1	1	188.64	1	0.0	1	1005.81	1	40.488146	18.053571
2785	2024-04-26 00:00:00	12	torchiarolo	12.86	1	74.49	1	0.0	1	0.01	1	200.82	1	0.0	1	1005.89	1	40.488146	18.053571
2786	2024-04-26 01:00:00	12	torchiarolo	11.95	1	79.62	1	0.0	1	null	3	329.31	1	0.0	1	1006.21	1	40.488146	18.053571
2787	2024-04-26 02:00:00	12	torchiarolo	11.23	1	83.22	1	0.0	1	null	3	169.88	1	0.0	1	1005.97	1	40.488146	18.053571
2788	2024-04-26 03:00:00	12	torchiarolo	10.38	1	85.28	1	0.0	1	null	3	192.79	1	0.0	1	1006.23	1	40.488146	18.053571
2789	2024-04-26 04:00:00	12	torchiarolo	9.6	1	87.31	1	0.0	1	0.03	1	259.04	1	0.0	1	1006.55	1	40.488146	18.053571
2790	2024-04-26 05:00:00	12	torchiarolo	9.34	1	87.59	1	0.0	1	null	3	265.02	1	0.0	5	1006.64	1	40.488146	18.053571
2791	2024-04-26 06:00:00	12	torchiarolo	9.55	1	85.89	1	0.0	1	0.01	1	276.37	1	49.01	1	1007.13	1	40.488146	18.053571
2792	2024-04-26 07:00:00	12	torchiarolo	15.49	1	63.26	1	0.0	1	0.01	1	310.6	1	239.67	1	1007.47	1	40.488146	18.053571
2793	2024-04-26 08:00:00	12	torchiarolo	20.5	1	51.66	1	0.0	1	0.86	1	336.81	1	424.98	1	1007.96	1	40.488146	18.053571
2794	2024-04-26 09:00:00	12	torchiarolo	20.72	1	52.83	1	0.0	1	1.22	1	354.12	1	492.84	1	1008.48	1	40.488146	18.053571
2795	2024-04-26 10:00:00	12	torchiarolo	21.32	1	50.93	1	0.0	1	1.11	1	8.25	1	668.32	1	1009.01	1	40.488146	18.053571
2796	2024-04-26 11:00:00	12	torchiarolo	21.17	1	51.38	1	0.0	1	1.4	1	8.81	1	606.87	1	1009.26	1	40.488146	18.053571
2797	2024-04-26 12:00:00	12	torchiarolo	18.52	1	60.69	1	0.0	1	2.5	1	66.71	1	362.6	1	1009.41	1	40.488146	18.053571
2798	2024-04-26 13:00:00	12	torchiarolo	18.79	1	59.39	1	0.0	1	1.48	1	74.28	1	289.69	1	1009.16	1	40.488146	18.053571
2799	2024-04-26 14:00:00	12	torchiarolo	19.74	1	55.31	1	0.0	1	2.21	1	88.51	1	389.14	1	1009.16	1	40.488146	18.053571
2800	2024-04-26 15:00:00	12	torchiarolo	19.81	1	56.05	1	0.0	1	1.58	1	64.63	1	273.17	1	1008.93	1	40.488146	18.053571
2801	2024-04-26 16:00:00	12	torchiarolo	22.31	1	37.28	1	0.0	1	0.87	1	233.66	1	537.81	1	1008.96	1	40.488146	18.053571
2802	2024-04-26 17:00:00	12	torchiarolo	22.45	1	31.87	1	0.0	1	1.25	1	227.96	1	360.06	1	1009.12	1	40.488146	18.053571
2803	2024-04-26 18:00:00	12	torchiarolo	18.9	1	42.2	1	0.0	1	1.1	1	232.8	1	84.31	1	1009.16	1	40.488146	18.053571
2804	2024-04-26 19:00:00	12	torchiarolo	16.93	1	52.78	1	0.0	1	0.59	1	227.98	1	11.21	1	1009.16	1	40.488146	18.053571
2805	2024-04-26 20:00:00	12	torchiarolo	15.89	1	61.71	1	0.0	1	0.43	1	220.07	1	0.0	1	1009.63	1	40.488146	18.053571
2806	2024-04-26 21:00:00	12	torchiarolo	15.47	1	65.26	1	0.0	1	0.33	1	205.9	1	0.0	1	1010.04	1	40.488146	18.053571
2807	2024-04-26 22:00:00	12	torchiarolo	15.3	1	66.24	1	0.0	1	0.3	1	214.42	1	0.0	1	1010.23	1	40.488146	18.053571
2808	2024-04-26 23:00:00	12	torchiarolo	15.07	1	68.08	1	0.0	1	0.02	1	207.58	1	0.0	1	1010.24	1	40.488146	18.053571
2809	2024-04-27 00:00:00	12	torchiarolo	14.68	1	71.0	1	0.0	1	null	3	158.48	1	0.0	1	1010.26	1	40.488146	18.053571
2810	2024-04-27 01:00:00	12	torchiarolo	13.83	1	75.15	1	0.0	1	null	3	135.02	1	0.0	1	1010.0	1	40.488146	18.053571
2811	2024-04-27 02:00:00	12	torchiarolo	13.49	1	77.01	1	0.0	1	null	3	133.15	1	0.0	1	1009.58	1	40.488146	18.053571
2812	2024-04-27 03:00:00	12	torchiarolo	13.14	1	78.42	1	0.0	1	null	3	138.26	1	0.0	1	1009.54	1	40.488146	18.053571
2813	2024-04-27 04:00:00	12	torchiarolo	12.28	1	81.55	1	0.0	1	null	3	141.07	1	0.0	1	1009.5	1	40.488146	18.053571
2814	2024-04-27 05:00:00	12	torchiarolo	11.79	1	83.25	1	0.0	1	0.07	1	154.62	1	0.0	5	1009.79	1	40.488146	18.053571
2815	2024-04-27 06:00:00	12	torchiarolo	11.91	1	81.65	1	0.0	1	0.03	1	232.9	1	45.91	1	1010.62	1	40.488146	18.053571
2816	2024-04-27 07:00:00	12	torchiarolo	16.09	1	68.75	1	0.0	1	0.01	1	235.17	1	225.35	1	1011.27	1	40.488146	18.053571
2817	2024-04-27 08:00:00	12	torchiarolo	20.76	1	54.24	1	0.0	1	0.03	1	195.26	1	439.23	1	1011.7	1	40.488146	18.053571
2818	2024-04-27 09:00:00	12	torchiarolo	22.74	1	43.29	1	0.0	1	0.07	1	162.4	1	613.22	1	1012.02	1	40.488146	18.053571
2819	2024-04-27 10:00:00	12	torchiarolo	23.8	1	41.66	1	0.0	1	0.41	1	null	3	760.74	1	1012.09	1	40.488146	18.053571
2820	2024-04-27 11:00:00	12	torchiarolo	22.49	1	47.24	1	0.0	1	1.74	1	67.31	1	858.92	1	1012.41	1	40.488146	18.053571
2821	2024-04-27 12:00:00	12	torchiarolo	21.99	1	47.47	1	0.0	1	2.36	1	67.88	1	920.13	1	1012.46	1	40.488146	18.053571
2822	2024-04-27 13:00:00	12	torchiarolo	21.76	1	49.59	1	0.0	1	3.09	1	64.55	1	787.91	1	1012.46	1	40.488146	18.053571
2823	2024-04-27 14:00:00	12	torchiarolo	21.56	1	50.66	1	0.0	1	3.23	1	70.4	1	836.9	1	1012.58	1	40.488146	18.053571
2824	2024-04-27 15:00:00	12	torchiarolo	21.78	1	50.4	1	0.0	1	2.84	1	70.17	1	720.88	1	1012.46	1	40.488146	18.053571
2825	2024-04-27 16:00:00	12	torchiarolo	21.87	1	47.95	1	0.0	1	2.53	1	69.31	1	561.94	1	1012.39	1	40.488146	18.053571
2826	2024-04-27 17:00:00	12	torchiarolo	21.57	1	45.75	1	0.0	1	1.32	1	65.89	1	367.34	1	1012.42	1	40.488146	18.053571
2827	2024-04-27 18:00:00	12	torchiarolo	19.17	1	52.9	1	0.0	1	0.97	1	72.63	1	151.93	1	1012.45	1	40.488146	18.053571
2828	2024-04-27 19:00:00	12	torchiarolo	17.51	1	58.87	1	0.0	1	0.05	1	73.34	1	12.77	1	1012.42	1	40.488146	18.053571
2829	2024-04-27 20:00:00	12	torchiarolo	16.18	1	68.8	1	0.0	1	null	3	72.03	1	0.0	1	1012.41	1	40.488146	18.053571
2830	2024-04-27 21:00:00	12	torchiarolo	15.03	1	76.35	1	0.0	1	null	3	359.01	1	0.0	1	1012.95	1	40.488146	18.053571
2831	2024-04-27 22:00:00	12	torchiarolo	14.28	1	78.33	1	0.0	1	null	3	257.78	1	0.0	1	1013.19	1	40.488146	18.053571
2832	2024-04-27 23:00:00	12	torchiarolo	13.59	1	80.42	1	0.0	1	null	3	265.61	1	0.0	1	1013.25	1	40.488146	18.053571
2833	2024-04-28 00:00:00	12	torchiarolo	12.91	1	81.89	1	0.0	1	0.03	1	270.64	1	0.0	1	1013.39	1	40.488146	18.053571
2834	2024-04-28 01:00:00	12	torchiarolo	12.38	1	85.63	1	0.0	1	0.01	1	277.95	1	0.0	1	1013.21	1	40.488146	18.053571
2835	2024-04-28 02:00:00	12	torchiarolo	11.82	1	87.22	1	0.0	1	0.12	1	291.14	1	0.0	1	1012.88	1	40.488146	18.053571
2836	2024-04-28 03:00:00	12	torchiarolo	11.33	1	87.25	1	0.0	1	0.01	1	294.77	1	0.0	1	1013.04	1	40.488146	18.053571
2837	2024-04-28 04:00:00	12	torchiarolo	10.9	1	87.73	1	0.0	1	null	3	272.41	1	0.0	1	1013.18	1	40.488146	18.053571
2838	2024-04-28 05:00:00	12	torchiarolo	10.72	1	89.26	1	0.0	1	0.17	1	292.5	1	0.0	5	1013.19	1	40.488146	18.053571
2839	2024-04-28 06:00:00	12	torchiarolo	11.75	1	92.21	1	0.0	1	0.16	1	322.72	1	52.93	1	1013.38	1	40.488146	18.053571
2840	2024-04-28 07:00:00	12	torchiarolo	17.68	1	77.32	1	0.0	1	0.53	1	341.96	1	245.99	1	1013.9	1	40.488146	18.053571
2841	2024-04-28 08:00:00	12	torchiarolo	21.66	1	61.33	1	0.0	1	1.52	1	14.24	1	469.67	1	1014.17	1	40.488146	18.053571
2842	2024-04-28 09:00:00	12	torchiarolo	22.87	1	48.4	1	0.0	1	2.04	1	13.81	1	639.25	1	1014.42	1	40.488146	18.053571
2843	2024-04-28 10:00:00	12	torchiarolo	23.22	1	42.01	1	0.0	1	1.93	1	31.04	1	784.47	1	1014.9	1	40.488146	18.053571
2844	2024-04-28 11:00:00	12	torchiarolo	23.09	1	39.17	1	0.0	1	2.25	1	58.96	1	878.46	1	1015.02	1	40.488146	18.053571
2845	2024-04-28 12:00:00	12	torchiarolo	23.08	1	44.67	1	0.0	1	2.05	1	30.21	1	935.86	1	1014.92	1	40.488146	18.053571
2846	2024-04-28 13:00:00	12	torchiarolo	23.56	1	45.86	1	0.0	1	1.4	1	49.0	1	788.69	1	1014.58	1	40.488146	18.053571
2847	2024-04-28 14:00:00	12	torchiarolo	24.19	1	44.97	1	0.0	1	1.71	1	47.78	1	847.44	1	1014.18	1	40.488146	18.053571
2848	2024-04-28 15:00:00	12	torchiarolo	25.54	1	43.7	1	0.0	1	1.11	1	10.61	1	728.34	1	1013.88	1	40.488146	18.053571
2849	2024-04-28 16:00:00	12	torchiarolo	25.81	1	39.44	1	0.0	1	1.54	1	18.18	1	570.3	1	1013.49	1	40.488146	18.053571
2850	2024-04-28 17:00:00	12	torchiarolo	24.38	1	41.36	1	0.0	1	1.02	1	15.22	1	374.6	1	1013.34	1	40.488146	18.053571
2851	2024-04-28 18:00:00	12	torchiarolo	21.2	1	49.7	1	0.0	1	0.38	1	14.69	1	159.66	1	1013.09	1	40.488146	18.053571
2852	2024-04-28 19:00:00	12	torchiarolo	18.87	1	59.34	1	0.0	1	0.04	1	22.0	1	11.27	1	1012.81	1	40.488146	18.053571
2853	2024-04-28 20:00:00	12	torchiarolo	16.93	1	78.93	1	0.0	1	null	3	73.15	1	0.0	1	1012.85	1	40.488146	18.053571
2854	2024-04-28 21:00:00	12	torchiarolo	16.32	1	84.97	1	0.0	1	null	3	107.89	1	0.0	1	1013.5	1	40.488146	18.053571
2855	2024-04-28 22:00:00	12	torchiarolo	15.58	1	85.15	1	0.0	1	null	3	251.45	1	0.0	1	1013.92	1	40.488146	18.053571
2856	2024-04-28 23:00:00	12	torchiarolo	14.63	1	87.81	1	0.0	1	null	3	272.83	1	0.0	1	1013.87	1	40.488146	18.053571
2857	2024-04-29 00:00:00	12	torchiarolo	13.93	1	89.22	1	0.0	1	0.04	1	262.69	1	0.0	1	1013.92	1	40.488146	18.053571
2858	2024-04-29 01:00:00	12	torchiarolo	13.52	1	89.29	1	0.0	1	null	3	284.48	1	0.0	1	1013.85	1	40.488146	18.053571
2859	2024-04-29 02:00:00	12	torchiarolo	12.98	1	90.78	1	0.0	1	0.08	1	290.74	1	0.0	1	1013.49	1	40.488146	18.053571
2860	2024-04-29 03:00:00	12	torchiarolo	13.02	1	91.44	1	0.0	1	0.07	1	301.05	1	0.0	1	1013.41	1	40.488146	18.053571
2861	2024-04-29 04:00:00	12	torchiarolo	12.95	1	91.52	1	0.0	1	0.2	1	265.82	1	0.0	1	1013.34	1	40.488146	18.053571
2862	2024-04-29 05:00:00	12	torchiarolo	12.71	1	89.85	1	0.0	1	0.05	1	276.57	1	0.0	5	1013.5	1	40.488146	18.053571
2863	2024-04-29 06:00:00	12	torchiarolo	12.84	1	88.58	1	0.0	1	0.08	1	290.41	1	54.41	1	1013.77	1	40.488146	18.053571
2864	2024-04-29 07:00:00	12	torchiarolo	18.64	1	71.62	1	0.0	1	0.56	1	334.83	1	243.72	1	1014.13	1	40.488146	18.053571
2865	2024-04-29 08:00:00	12	torchiarolo	22.77	1	59.24	1	0.0	1	1.37	1	356.2	1	460.36	1	1014.49	1	40.488146	18.053571
2866	2024-04-29 09:00:00	12	torchiarolo	24.37	1	48.95	1	0.0	1	2.53	1	3.94	1	625.02	1	1014.73	1	40.488146	18.053571
2867	2024-04-29 10:00:00	12	torchiarolo	25.03	1	45.35	1	0.0	1	2.29	1	18.41	1	770.72	1	1015.21	1	40.488146	18.053571
2868	2024-04-29 11:00:00	12	torchiarolo	24.92	1	45.61	1	0.0	1	3.28	1	16.44	1	870.93	1	1015.38	1	40.488146	18.053571
2869	2024-04-29 12:00:00	12	torchiarolo	25.18	1	45.17	1	0.0	1	2.85	1	13.83	1	922.85	1	1015.38	1	40.488146	18.053571
2870	2024-04-29 13:00:00	12	torchiarolo	25.71	1	44.87	1	0.0	1	3.06	1	10.83	1	782.41	1	1015.18	1	40.488146	18.053571
2871	2024-04-29 14:00:00	12	torchiarolo	26.28	1	46.42	1	0.0	1	3.07	1	14.24	1	844.28	1	1014.78	1	40.488146	18.053571
2872	2024-04-29 15:00:00	12	torchiarolo	26.06	1	51.0	1	0.0	1	2.48	1	20.49	1	724.13	1	1014.55	1	40.488146	18.053571
2873	2024-04-29 16:00:00	12	torchiarolo	26.17	1	52.19	1	0.0	1	1.54	1	13.61	1	564.3	1	1014.28	1	40.488146	18.053571
2874	2024-04-29 17:00:00	12	torchiarolo	25.9	1	48.43	1	0.0	1	0.78	1	359.91	1	365.56	1	1014.28	1	40.488146	18.053571
2875	2024-04-29 18:00:00	12	torchiarolo	22.06	1	64.19	1	0.0	1	1.01	1	11.61	1	160.71	1	1014.22	1	40.488146	18.053571
2876	2024-04-29 19:00:00	12	torchiarolo	19.68	1	73.26	1	0.0	1	1.33	1	357.11	1	11.89	1	1013.86	1	40.488146	18.053571
2877	2024-04-29 20:00:00	12	torchiarolo	17.71	1	81.37	1	0.0	1	0.33	1	337.51	1	0.0	1	1014.24	1	40.488146	18.053571
2878	2024-04-29 21:00:00	12	torchiarolo	16.45	1	86.17	1	0.0	1	null	3	310.91	1	0.0	1	1014.55	1	40.488146	18.053571
2879	2024-04-29 22:00:00	12	torchiarolo	15.88	1	89.37	1	0.0	1	null	3	284.95	1	0.0	1	1014.65	1	40.488146	18.053571
2880	2024-04-29 23:00:00	12	torchiarolo	15.5	1	91.31	1	0.0	1	null	3	273.12	1	0.0	1	1014.65	1	40.488146	18.053571
2881	2024-04-30 00:00:00	12	torchiarolo	15.09	1	92.54	1	0.0	1	null	3	270.69	1	0.0	1	1014.73	1	40.488146	18.053571
2882	2024-04-30 01:00:00	12	torchiarolo	14.51	1	93.41	1	0.0	1	0.03	1	287.69	1	0.0	1	1014.05	1	40.488146	18.053571
2883	2024-04-30 02:00:00	12	torchiarolo	14.13	1	93.22	1	0.0	1	null	3	277.35	1	0.0	1	1013.7	1	40.488146	18.053571
2884	2024-04-30 03:00:00	12	torchiarolo	13.62	1	91.13	1	0.0	1	0.01	1	283.51	1	0.0	1	1013.55	1	40.488146	18.053571
2885	2024-04-30 04:00:00	12	torchiarolo	12.93	1	87.58	1	0.0	1	0.06	1	296.22	1	0.0	1	1013.16	1	40.488146	18.053571
2886	2024-04-30 05:00:00	12	torchiarolo	12.79	1	84.74	1	0.0	1	0.05	1	301.44	1	0.0	5	1012.91	1	40.488146	18.053571
2887	2024-04-30 06:00:00	12	torchiarolo	13.48	1	86.05	1	0.0	1	0.03	1	308.46	1	56.92	1	1013.12	1	40.488146	18.053571
2888	2024-04-30 07:00:00	12	torchiarolo	18.97	1	72.66	1	0.0	1	0.84	1	329.17	1	242.51	1	1013.19	1	40.488146	18.053571
2889	2024-04-30 08:00:00	12	torchiarolo	22.67	1	61.59	1	0.0	1	1.98	1	348.37	1	457.08	1	1013.58	1	40.488146	18.053571
2890	2024-04-30 09:00:00	12	torchiarolo	24.89	1	55.86	1	0.0	1	1.61	1	344.51	1	626.29	1	1013.92	1	40.488146	18.053571
2891	2024-04-30 10:00:00	12	torchiarolo	26.76	1	49.72	1	0.0	1	1.27	1	353.68	1	765.04	1	1013.92	1	40.488146	18.053571
2892	2024-04-30 11:00:00	12	torchiarolo	27.47	1	45.85	1	0.0	1	1.28	1	8.29	1	847.77	1	1013.9	1	40.488146	18.053571
2893	2024-04-30 12:00:00	12	torchiarolo	26.78	1	50.9	1	0.0	1	2.53	1	18.88	1	896.7	1	1013.58	1	40.488146	18.053571
2894	2024-04-30 13:00:00	12	torchiarolo	26.07	1	50.11	1	0.0	1	2.27	1	21.06	1	764.68	1	1012.99	1	40.488146	18.053571
2895	2024-04-30 14:00:00	12	torchiarolo	25.53	1	52.72	1	0.0	1	1.22	1	42.57	1	778.68	1	1012.71	1	40.488146	18.053571
2896	2024-04-30 15:00:00	12	torchiarolo	25.45	1	50.01	1	0.0	1	1.09	1	51.59	1	628.34	1	1012.14	1	40.488146	18.053571
2897	2024-04-30 16:00:00	12	torchiarolo	25.93	1	44.44	1	0.0	1	1.02	1	65.08	1	509.05	1	1011.45	1	40.488146	18.053571
2898	2024-04-30 17:00:00	12	torchiarolo	25.03	1	46.98	1	0.0	1	0.29	1	79.46	1	341.55	1	1011.28	1	40.488146	18.053571
2899	2024-04-30 18:00:00	12	torchiarolo	22.44	1	57.9	1	0.0	1	0.01	1	71.41	1	83.1	1	1010.75	1	40.488146	18.053571
2900	2024-04-30 19:00:00	12	torchiarolo	21.59	1	51.45	1	0.0	1	0.22	1	248.74	1	15.39	1	1010.33	1	40.488146	18.053571
2901	2024-04-30 20:00:00	12	torchiarolo	19.85	1	68.93	1	0.0	1	0.06	1	181.11	1	0.0	1	1010.45	1	40.488146	18.053571
2902	2024-04-30 21:00:00	12	torchiarolo	19.53	1	63.79	1	0.0	1	0.04	1	224.41	1	0.0	1	1010.54	1	40.488146	18.053571
2903	2024-04-30 22:00:00	12	torchiarolo	18.78	1	67.99	1	0.0	1	0.01	1	230.43	1	0.0	1	1010.26	1	40.488146	18.053571
2904	2024-04-30 23:00:00	12	torchiarolo	18.08	1	70.26	1	0.0	1	null	3	208.5	1	0.0	1	1010.3	1	40.488146	18.053571
2905	2024-05-01 00:00:00	12	torchiarolo	16.92	1	75.93	1	0.0	1	null	3	45.07	1	0.0	1	1009.96	1	40.488146	18.053571
2906	2024-05-01 01:00:00	12	torchiarolo	16.15	1	76.48	1	0.0	1	null	3	120.02	1	0.0	1	1009.3	1	40.488146	18.053571
2907	2024-05-01 02:00:00	12	torchiarolo	15.92	1	74.41	1	0.0	1	null	3	128.43	1	0.0	1	1008.79	1	40.488146	18.053571
2908	2024-05-01 03:00:00	12	torchiarolo	16.6	1	67.17	1	0.0	1	0.2	1	166.39	1	0.0	1	1008.71	1	40.488146	18.053571
2909	2024-05-01 04:00:00	12	torchiarolo	16.86	1	74.48	1	0.0	1	0.14	1	179.1	1	0.0	1	1008.36	1	40.488146	18.053571
2910	2024-05-01 05:00:00	12	torchiarolo	17.19	1	77.74	1	0.0	1	0.02	1	139.08	1	0.0	5	1008.03	1	40.488146	18.053571
2911	2024-05-01 06:00:00	12	torchiarolo	17.61	1	75.66	1	0.0	1	0.03	1	171.97	1	56.69	1	1008.11	1	40.488146	18.053571
2912	2024-05-01 07:00:00	12	torchiarolo	19.96	1	67.37	1	0.0	1	0.98	1	160.79	1	127.73	1	1008.42	1	40.488146	18.053571
2913	2024-05-01 08:00:00	12	torchiarolo	20.44	1	60.41	1	0.0	1	1.7	1	168.25	1	147.68	1	1008.43	1	40.488146	18.053571
2914	2024-05-01 09:00:00	12	torchiarolo	23.42	1	46.21	1	0.0	1	2.84	1	168.13	1	555.33	1	1008.09	1	40.488146	18.053571
2915	2024-05-01 10:00:00	12	torchiarolo	26.39	1	36.05	1	0.0	1	3.28	1	168.84	1	762.85	1	1007.83	1	40.488146	18.053571
2916	2024-05-01 11:00:00	12	torchiarolo	27.8	1	29.53	1	0.0	1	4.09	1	179.08	1	854.36	1	1007.69	1	40.488146	18.053571
2917	2024-05-01 12:00:00	12	torchiarolo	27.97	1	29.43	1	0.0	1	4.42	1	189.88	1	880.59	1	1007.91	1	40.488146	18.053571
2918	2024-05-01 13:00:00	12	torchiarolo	28.1	1	32.47	1	0.0	1	4.33	1	183.05	1	791.41	1	1007.75	1	40.488146	18.053571
2919	2024-05-01 14:00:00	12	torchiarolo	27.11	1	35.28	1	0.0	1	4.46	1	187.07	1	543.25	1	1007.69	1	40.488146	18.053571
2920	2024-05-01 15:00:00	12	torchiarolo	25.34	1	47.62	1	0.0	1	3.59	1	194.88	1	465.3	1	1007.17	1	40.488146	18.053571
2921	2024-05-01 16:00:00	12	torchiarolo	26.81	1	42.15	1	0.0	1	4.14	1	183.86	1	518.54	1	1006.86	1	40.488146	18.053571
2922	2024-05-01 17:00:00	12	torchiarolo	25.72	1	47.25	1	0.0	1	3.21	1	183.34	1	193.32	1	1006.79	1	40.488146	18.053571
2923	2024-05-01 18:00:00	12	torchiarolo	22.05	1	67.47	1	0.0	1	2.81	1	186.52	1	14.55	1	1006.9	1	40.488146	18.053571
2924	2024-05-01 19:00:00	12	torchiarolo	20.24	1	74.2	1	0.0	1	1.98	1	167.07	1	0.0	5	1006.92	1	40.488146	18.053571
2925	2024-05-01 20:00:00	12	torchiarolo	19.55	1	79.77	1	0.8	1	1.06	1	180.4	1	0.0	1	1007.23	1	40.488146	18.053571
2926	2024-05-01 21:00:00	12	torchiarolo	18.78	1	89.72	1	0.0	1	1.67	1	200.36	1	0.0	1	1007.84	1	40.488146	18.053571
2927	2024-05-01 22:00:00	12	torchiarolo	18.58	1	90.11	1	0.2	1	2.62	1	194.17	1	0.0	1	1007.78	1	40.488146	18.053571
2928	2024-05-01 23:00:00	12	torchiarolo	18.31	1	92.08	1	0.2	1	2.62	2	195.72	1	0.0	1	1007.7	1	40.488146	18.053571
2929	2024-05-02 00:00:00	12	torchiarolo	17.99	1	93.86	1	2.2	1	2.63	1	188.49	1	0.0	1	1007.59	1	40.488146	18.053571
2930	2024-05-02 01:00:00	12	torchiarolo	17.86	1	96.03	1	0.8	1	2.4	1	193.59	1	0.0	1	1007.63	1	40.488146	18.053571
2931	2024-05-02 02:00:00	12	torchiarolo	17.8	1	97.13	1	0.6	1	1.91	1	192.72	1	0.0	1	1007.23	1	40.488146	18.053571
2932	2024-05-02 03:00:00	12	torchiarolo	17.58	1	97.73	1	0.4	1	0.47	1	180.13	1	0.0	1	1006.9	1	40.488146	18.053571
2933	2024-05-02 04:00:00	12	torchiarolo	17.08	1	98.01	1	0.0	1	0.27	1	181.62	1	0.0	1	1006.97	1	40.488146	18.053571
2934	2024-05-02 05:00:00	12	torchiarolo	16.72	1	98.18	1	0.0	1	0.01	1	272.36	1	0.0	5	1007.05	1	40.488146	18.053571
2935	2024-05-02 06:00:00	12	torchiarolo	16.69	1	98.48	1	0.0	1	null	3	146.83	1	6.51	1	1007.59	1	40.488146	18.053571
2936	2024-05-02 07:00:00	12	torchiarolo	17.62	1	98.41	1	0.0	1	0.02	1	177.07	1	160.98	1	1007.69	1	40.488146	18.053571
2937	2024-05-02 08:00:00	12	torchiarolo	21.06	1	84.75	1	0.0	1	0.06	1	224.6	1	441.77	1	1007.44	1	40.488146	18.053571
2938	2024-05-02 09:00:00	12	torchiarolo	24.62	1	57.94	1	0.0	1	null	3	215.01	1	571.2	1	1007.42	1	40.488146	18.053571
2939	2024-05-02 10:00:00	12	torchiarolo	25.27	1	52.26	1	0.0	1	0.37	1	224.75	1	681.7	1	1007.75	1	40.488146	18.053571
2940	2024-05-02 11:00:00	12	torchiarolo	24.93	1	48.95	1	0.0	1	0.85	1	216.05	1	741.52	1	1008.02	1	40.488146	18.053571
2941	2024-05-02 12:00:00	12	torchiarolo	25.99	1	41.27	1	0.0	1	1.19	1	244.4	1	773.25	1	1007.64	1	40.488146	18.053571
2942	2024-05-02 13:00:00	12	torchiarolo	26.31	1	38.31	1	0.0	1	1.56	1	251.83	1	616.42	1	1007.36	1	40.488146	18.053571
2943	2024-05-02 14:00:00	12	torchiarolo	26.89	1	35.52	1	0.0	1	2.21	1	216.64	1	855.02	1	1007.28	1	40.488146	18.053571
2944	2024-05-02 15:00:00	12	torchiarolo	26.92	1	37.78	1	0.0	1	2.95	1	222.89	1	736.98	1	1007.11	1	40.488146	18.053571
2945	2024-05-02 16:00:00	12	torchiarolo	26.66	1	37.11	1	0.0	1	3.11	1	233.47	1	571.28	1	1006.91	1	40.488146	18.053571
2946	2024-05-02 17:00:00	12	torchiarolo	24.9	1	44.42	1	0.0	1	4.01	1	230.03	1	364.9	1	1006.56	1	40.488146	18.053571
2947	2024-05-02 18:00:00	12	torchiarolo	22.13	1	52.24	1	0.0	1	4.0	1	227.02	1	121.36	1	1006.57	1	40.488146	18.053571
2948	2024-05-02 19:00:00	12	torchiarolo	20.32	1	62.79	1	0.0	1	3.76	1	222.92	1	10.75	1	1006.75	1	40.488146	18.053571
2949	2024-05-02 20:00:00	12	torchiarolo	17.52	1	76.01	1	0.0	1	3.25	1	328.21	1	0.0	5	1008.0	1	40.488146	18.053571
2950	2024-05-02 21:00:00	12	torchiarolo	16.41	1	83.03	1	0.0	1	0.04	1	181.73	1	0.0	1	1008.13	1	40.488146	18.053571
2951	2024-05-02 22:00:00	12	torchiarolo	16.31	1	81.49	1	0.0	1	0.21	1	181.53	1	0.0	1	1007.79	1	40.488146	18.053571
2952	2024-05-02 23:00:00	12	torchiarolo	15.59	1	83.74	1	0.0	1	0.59	1	195.11	1	0.0	1	1007.92	1	40.488146	18.053571
2953	2024-05-03 00:00:00	12	torchiarolo	14.68	1	86.89	1	0.0	1	0.34	1	240.3	1	0.0	1	1007.66	1	40.488146	18.053571
2954	2024-05-03 01:00:00	12	torchiarolo	14.23	1	81.93	1	0.0	1	0.42	1	240.93	1	0.0	1	1007.3	1	40.488146	18.053571
2955	2024-05-03 02:00:00	12	torchiarolo	13.2	1	78.07	1	0.0	1	0.32	1	265.04	1	0.0	1	1006.84	1	40.488146	18.053571
2956	2024-05-03 03:00:00	12	torchiarolo	13.82	1	65.6	1	0.0	1	2.15	1	255.74	1	0.0	1	1006.74	1	40.488146	18.053571
2957	2024-05-03 04:00:00	12	torchiarolo	13.4	1	67.21	1	0.0	1	0.8	1	251.18	1	0.0	1	1006.58	1	40.488146	18.053571
2958	2024-05-03 05:00:00	12	torchiarolo	12.93	1	68.75	1	0.0	1	0.64	1	254.13	1	0.0	5	1006.24	1	40.488146	18.053571
2959	2024-05-03 06:00:00	12	torchiarolo	13.59	1	67.59	1	0.0	1	1.41	1	244.76	1	67.41	1	1006.24	1	40.488146	18.053571
2960	2024-05-03 07:00:00	12	torchiarolo	18.09	1	54.54	1	0.0	1	2.75	1	258.36	1	268.9	1	1006.75	1	40.488146	18.053571
2961	2024-05-03 08:00:00	12	torchiarolo	20.39	1	44.8	1	0.0	1	3.58	1	270.1	1	490.43	1	1007.29	1	40.488146	18.053571
2962	2024-05-03 09:00:00	12	torchiarolo	22.3	1	38.11	1	0.0	1	3.39	1	271.96	1	665.94	1	1007.63	1	40.488146	18.053571
2963	2024-05-03 10:00:00	12	torchiarolo	23.34	1	34.02	1	0.0	1	2.89	1	277.47	1	796.55	1	1007.7	1	40.488146	18.053571
2964	2024-05-03 11:00:00	12	torchiarolo	23.82	1	32.51	1	0.0	1	1.94	1	318.37	1	694.83	1	1007.7	1	40.488146	18.053571
2965	2024-05-03 12:00:00	12	torchiarolo	22.02	1	43.5	1	0.0	1	3.84	1	15.07	1	804.86	1	1007.65	1	40.488146	18.053571
2966	2024-05-03 13:00:00	12	torchiarolo	21.32	1	45.45	1	0.0	1	3.54	1	10.3	1	509.65	1	1007.61	1	40.488146	18.053571
2967	2024-05-03 14:00:00	12	torchiarolo	20.26	1	49.42	1	0.0	1	2.02	1	10.32	1	196.77	1	1007.4	1	40.488146	18.053571
2968	2024-05-03 15:00:00	12	torchiarolo	19.58	1	51.64	1	0.0	1	1.05	1	71.87	1	344.37	1	1007.2	1	40.488146	18.053571
2969	2024-05-03 16:00:00	12	torchiarolo	20.08	1	50.48	1	0.0	1	0.71	1	66.18	1	360.79	1	1006.96	1	40.488146	18.053571
2970	2024-05-03 17:00:00	12	torchiarolo	19.62	1	53.61	1	0.0	1	1.36	1	45.96	1	178.71	1	1006.91	1	40.488146	18.053571
2971	2024-05-03 18:00:00	12	torchiarolo	16.02	1	79.02	1	2.2	1	1.87	1	5.21	1	22.24	1	1007.25	1	40.488146	18.053571
2972	2024-05-03 19:00:00	12	torchiarolo	13.87	1	91.19	1	1.2	1	0.3	1	75.63	1	5.24	1	1007.51	1	40.488146	18.053571
2973	2024-05-03 20:00:00	12	torchiarolo	13.52	1	93.7	1	0.0	1	null	3	342.49	1	0.0	1	1007.65	1	40.488146	18.053571
2974	2024-05-03 21:00:00	12	torchiarolo	13.69	1	95.38	1	0.0	1	0.01	1	228.61	1	0.0	1	1007.8	1	40.488146	18.053571
2975	2024-05-03 22:00:00	12	torchiarolo	13.35	1	95.88	1	1.4	1	0.35	1	221.25	1	0.0	1	1007.72	1	40.488146	18.053571
2976	2024-05-03 23:00:00	12	torchiarolo	13.05	1	96.55	1	0.0	1	null	3	212.12	1	0.0	1	1007.35	1	40.488146	18.053571
2977	2024-05-04 00:00:00	12	torchiarolo	12.95	1	96.35	1	0.0	1	0.26	1	225.89	1	0.0	1	1007.05	1	40.488146	18.053571
2978	2024-05-04 01:00:00	12	torchiarolo	12.16	1	96.41	1	0.0	1	0.23	1	251.74	1	0.0	1	1006.77	1	40.488146	18.053571
2979	2024-05-04 02:00:00	12	torchiarolo	11.61	1	96.06	1	0.0	1	0.81	1	283.47	1	0.0	1	1006.53	1	40.488146	18.053571
2980	2024-05-04 03:00:00	12	torchiarolo	11.6	1	96.33	1	0.0	1	0.2	1	269.14	1	0.0	1	1006.14	1	40.488146	18.053571
2981	2024-05-04 04:00:00	12	torchiarolo	11.5	1	96.58	1	0.0	1	0.82	1	270.84	1	0.0	1	1006.09	1	40.488146	18.053571
2982	2024-05-04 05:00:00	12	torchiarolo	11.08	1	95.89	1	0.0	1	0.68	1	280.65	1	0.0	5	1006.41	1	40.488146	18.053571
2983	2024-05-04 06:00:00	12	torchiarolo	11.23	1	95.49	1	0.0	1	1.56	1	274.05	1	65.67	1	1006.88	1	40.488146	18.053571
2984	2024-05-04 07:00:00	12	torchiarolo	16.01	1	79.0	1	0.0	1	1.13	1	292.41	1	267.5	1	1006.96	1	40.488146	18.053571
2985	2024-05-04 08:00:00	12	torchiarolo	20.03	1	60.27	1	0.0	1	2.42	1	315.93	1	486.11	1	1007.32	1	40.488146	18.053571
2986	2024-05-04 09:00:00	12	torchiarolo	20.87	1	53.57	1	0.0	1	4.37	1	329.39	1	675.55	1	1007.78	1	40.488146	18.053571
2987	2024-05-04 10:00:00	12	torchiarolo	21.57	1	50.31	1	0.0	1	4.77	1	330.04	1	786.65	1	1008.06	1	40.488146	18.053571
2988	2024-05-04 11:00:00	12	torchiarolo	21.5	1	49.55	1	0.0	1	4.9	1	329.47	1	784.39	1	1008.06	1	40.488146	18.053571
2989	2024-05-04 12:00:00	12	torchiarolo	21.35	1	49.96	1	0.0	1	5.44	1	336.88	1	788.23	1	1008.29	1	40.488146	18.053571
2990	2024-05-04 13:00:00	12	torchiarolo	21.57	1	49.96	1	0.0	1	5.62	1	340.18	1	764.61	1	1008.39	1	40.488146	18.053571
2991	2024-05-04 14:00:00	12	torchiarolo	22.31	1	49.48	1	0.0	1	5.52	1	331.83	1	871.02	1	1008.38	1	40.488146	18.053571
2992	2024-05-04 15:00:00	12	torchiarolo	22.39	1	49.64	1	0.0	1	5.85	1	334.64	1	747.68	1	1008.43	1	40.488146	18.053571
2993	2024-05-04 16:00:00	12	torchiarolo	22.2	1	51.55	1	0.0	1	5.82	1	335.82	1	582.41	1	1008.42	1	40.488146	18.053571
2994	2024-05-04 17:00:00	12	torchiarolo	21.42	1	52.59	1	0.0	1	5.49	1	340.51	1	377.52	1	1008.7	1	40.488146	18.053571
2995	2024-05-04 18:00:00	12	torchiarolo	19.01	1	60.67	1	0.0	1	5.25	1	333.54	1	174.76	1	1008.79	1	40.488146	18.053571
2996	2024-05-04 19:00:00	12	torchiarolo	17.42	1	69.82	1	0.0	1	3.59	1	334.26	1	17.32	1	1008.88	1	40.488146	18.053571
2997	2024-05-04 20:00:00	12	torchiarolo	16.27	1	79.06	1	0.0	1	3.34	1	346.92	1	0.0	1	1009.18	1	40.488146	18.053571
2998	2024-05-04 21:00:00	12	torchiarolo	15.75	1	83.52	1	0.0	1	2.82	1	340.12	1	0.0	1	1009.71	1	40.488146	18.053571
2999	2024-05-04 22:00:00	12	torchiarolo	15.58	1	85.82	1	0.0	1	2.62	1	334.62	1	0.0	1	1010.05	1	40.488146	18.053571
3000	2024-05-04 23:00:00	12	torchiarolo	15.26	1	87.47	1	0.0	1	1.79	1	334.22	1	0.0	1	1010.54	1	40.488146	18.053571
3001	2024-05-05 00:00:00	12	torchiarolo	15.16	1	88.84	1	0.0	1	1.83	1	339.62	1	0.0	1	1010.5	1	40.488146	18.053571
3002	2024-05-05 01:00:00	12	torchiarolo	14.84	1	90.4	1	0.0	1	1.73	1	331.7	1	0.0	1	1010.41	1	40.488146	18.053571
3003	2024-05-05 02:00:00	12	torchiarolo	14.99	1	91.2	1	0.0	1	2.58	1	333.02	1	0.0	1	1010.25	1	40.488146	18.053571
3004	2024-05-05 03:00:00	12	torchiarolo	14.65	1	90.88	1	0.0	1	2.33	1	326.07	1	0.0	1	1010.24	1	40.488146	18.053571
3005	2024-05-05 04:00:00	12	torchiarolo	13.95	1	90.79	1	0.0	1	1.43	1	330.91	1	0.0	1	1010.26	1	40.488146	18.053571
3006	2024-05-05 05:00:00	12	torchiarolo	13.48	1	91.41	1	0.0	1	1.14	1	332.48	1	0.0	5	1010.4	1	40.488146	18.053571
3007	2024-05-05 06:00:00	12	torchiarolo	13.96	1	88.49	1	0.0	1	1.19	1	328.27	1	67.17	1	1010.84	1	40.488146	18.053571
3008	2024-05-05 07:00:00	12	torchiarolo	18.42	1	70.17	1	0.0	1	2.13	1	330.97	1	257.77	1	1011.24	1	40.488146	18.053571
3009	2024-05-05 08:00:00	12	torchiarolo	21.26	1	63.22	1	0.0	1	3.5	1	346.15	1	470.69	1	1011.84	1	40.488146	18.053571
3010	2024-05-05 09:00:00	12	torchiarolo	22.88	1	53.92	1	0.0	1	3.5	1	350.11	1	658.59	1	1012.09	1	40.488146	18.053571
3011	2024-05-05 10:00:00	12	torchiarolo	23.95	1	50.17	1	0.0	1	3.27	1	343.72	1	793.13	1	1012.32	1	40.488146	18.053571
3012	2024-05-05 11:00:00	12	torchiarolo	23.85	1	56.07	1	0.0	1	3.06	1	18.26	1	895.05	1	1012.52	1	40.488146	18.053571
3013	2024-05-05 12:00:00	12	torchiarolo	23.13	1	56.1	1	0.0	1	3.4	1	16.22	1	942.27	1	1012.45	1	40.488146	18.053571
3014	2024-05-05 13:00:00	12	torchiarolo	23.69	1	53.92	1	0.0	1	2.96	1	15.3	1	817.15	1	1012.38	1	40.488146	18.053571
3015	2024-05-05 14:00:00	12	torchiarolo	24.13	1	53.08	1	0.0	1	2.71	1	17.89	1	864.12	1	1012.2	1	40.488146	18.053571
3016	2024-05-05 15:00:00	12	torchiarolo	23.9	1	55.15	1	0.0	1	2.1	1	50.46	1	741.57	1	1011.89	1	40.488146	18.053571
3017	2024-05-05 16:00:00	12	torchiarolo	22.81	1	59.86	1	0.0	1	2.29	1	59.1	1	579.27	1	1011.43	1	40.488146	18.053571
3018	2024-05-05 17:00:00	12	torchiarolo	22.45	1	61.58	1	0.0	1	0.81	1	54.0	1	374.15	1	1011.14	1	40.488146	18.053571
3019	2024-05-05 18:00:00	12	torchiarolo	19.84	1	69.72	1	0.0	1	0.49	1	68.09	1	174.87	1	1010.99	1	40.488146	18.053571
3020	2024-05-05 19:00:00	12	torchiarolo	18.59	1	74.72	1	0.0	1	0.02	1	91.65	1	19.67	1	1010.99	1	40.488146	18.053571
3021	2024-05-05 20:00:00	12	torchiarolo	17.54	1	80.39	1	0.0	1	null	3	106.86	1	0.0	1	1011.12	1	40.488146	18.053571
3022	2024-05-05 21:00:00	12	torchiarolo	17.22	1	77.4	1	0.0	1	null	3	223.72	1	0.0	1	1011.36	1	40.488146	18.053571
3023	2024-05-05 22:00:00	12	torchiarolo	16.86	1	75.96	1	0.0	1	0.05	1	206.27	1	0.0	1	1011.7	1	40.488146	18.053571
3024	2024-05-05 23:00:00	12	torchiarolo	16.28	1	77.31	1	0.0	1	0.01	1	218.29	1	0.0	1	1011.45	1	40.488146	18.053571
3025	2024-05-06 00:00:00	12	torchiarolo	15.08	1	81.11	1	0.0	1	null	3	124.01	1	0.0	1	1011.14	1	40.488146	18.053571
3026	2024-05-06 01:00:00	12	torchiarolo	14.48	1	84.03	1	0.0	1	null	3	200.7	1	0.0	1	1010.69	1	40.488146	18.053571
3027	2024-05-06 02:00:00	12	torchiarolo	13.76	1	84.86	1	0.0	1	null	3	222.01	1	0.0	1	1010.26	1	40.488146	18.053571
3028	2024-05-06 03:00:00	12	torchiarolo	14.23	1	86.02	1	0.0	1	0.06	1	214.42	1	0.0	1	1010.26	1	40.488146	18.053571
3029	2024-05-06 04:00:00	12	torchiarolo	14.37	1	85.74	1	0.0	1	0.06	1	203.45	1	0.0	1	1010.21	1	40.488146	18.053571
3030	2024-05-06 05:00:00	12	torchiarolo	14.34	1	85.01	1	0.0	1	0.01	1	221.95	1	0.0	5	1010.26	1	40.488146	18.053571
3031	2024-05-06 06:00:00	12	torchiarolo	14.84	1	83.6	1	0.0	1	null	3	221.78	1	71.87	1	1010.5	1	40.488146	18.053571
3032	2024-05-06 07:00:00	12	torchiarolo	18.61	1	71.69	1	0.0	1	null	3	112.5	1	259.57	1	1010.88	1	40.488146	18.053571
3033	2024-05-06 08:00:00	12	torchiarolo	22.71	1	59.83	1	0.0	1	0.07	1	170.21	1	476.85	1	1011.15	1	40.488146	18.053571
3034	2024-05-06 09:00:00	12	torchiarolo	25.83	1	39.58	1	0.0	1	0.7	1	175.17	1	641.51	1	1011.55	1	40.488146	18.053571
3035	2024-05-06 10:00:00	12	torchiarolo	26.88	1	37.12	1	0.0	1	1.45	1	172.59	1	785.74	1	1011.61	1	40.488146	18.053571
3036	2024-05-06 11:00:00	12	torchiarolo	27.9	1	30.85	1	0.0	1	1.28	1	187.87	1	884.09	1	1011.25	1	40.488146	18.053571
3037	2024-05-06 12:00:00	12	torchiarolo	28.13	1	32.57	1	0.0	1	1.74	1	196.5	1	913.68	1	1010.99	1	40.488146	18.053571
3038	2024-05-06 13:00:00	12	torchiarolo	28.19	1	36.84	1	0.0	1	2.86	1	226.26	1	836.88	1	1010.8	1	40.488146	18.053571
3039	2024-05-06 14:00:00	12	torchiarolo	29.03	1	31.05	1	0.0	1	2.87	1	195.53	1	856.2	1	1010.53	1	40.488146	18.053571
3040	2024-05-06 15:00:00	12	torchiarolo	28.82	1	31.3	1	0.0	1	2.5	1	200.6	1	663.77	1	1010.26	1	40.488146	18.053571
3041	2024-05-06 16:00:00	12	torchiarolo	27.2	1	36.05	1	0.0	1	3.39	1	222.76	1	507.12	1	1010.31	1	40.488146	18.053571
3042	2024-05-06 17:00:00	12	torchiarolo	25.18	1	39.0	1	0.0	1	3.2	1	227.07	1	328.78	1	1010.62	1	40.488146	18.053571
3043	2024-05-06 18:00:00	12	torchiarolo	23.02	1	45.98	1	0.0	1	2.34	1	217.22	1	187.19	1	1010.62	1	40.488146	18.053571
3044	2024-05-06 19:00:00	12	torchiarolo	21.58	1	52.43	1	0.0	1	1.05	1	206.84	1	23.41	1	1010.72	1	40.488146	18.053571
3045	2024-05-06 20:00:00	12	torchiarolo	19.75	1	56.0	1	0.0	1	0.11	1	189.2	1	0.0	1	1010.65	1	40.488146	18.053571
3046	2024-05-06 21:00:00	12	torchiarolo	18.51	1	60.61	1	0.0	1	0.08	1	210.85	1	0.0	1	1011.23	1	40.488146	18.053571
3047	2024-05-06 22:00:00	12	torchiarolo	17.38	1	70.43	1	0.0	1	0.52	1	183.26	1	0.0	1	1011.0	1	40.488146	18.053571
3048	2024-05-06 23:00:00	12	torchiarolo	16.63	1	79.56	1	0.0	1	0.4	1	180.32	1	0.0	1	1010.97	1	40.488146	18.053571
3049	2024-05-07 00:00:00	12	torchiarolo	16.06	1	84.11	1	0.0	1	0.52	1	190.8	1	0.0	1	1010.67	1	40.488146	18.053571
3050	2024-05-07 01:00:00	12	torchiarolo	15.57	1	86.93	1	0.0	1	0.74	1	182.94	1	0.0	1	1010.3	1	40.488146	18.053571
3051	2024-05-07 02:00:00	12	torchiarolo	15.19	1	88.91	1	0.0	1	0.28	1	183.21	1	0.0	1	1009.96	1	40.488146	18.053571
3052	2024-05-07 03:00:00	12	torchiarolo	14.61	1	90.29	1	0.0	1	0.15	1	149.18	1	0.0	1	1009.53	1	40.488146	18.053571
3053	2024-05-07 04:00:00	12	torchiarolo	14.09	1	92.22	1	0.0	1	0.01	1	143.26	1	0.0	1	1009.52	1	40.488146	18.053571
3054	2024-05-07 05:00:00	12	torchiarolo	13.9	1	93.24	1	0.0	1	0.04	1	137.85	1	0.0	5	1009.47	1	40.488146	18.053571
3055	2024-05-07 06:00:00	12	torchiarolo	15.38	1	90.26	1	0.0	1	0.22	1	135.32	1	99.69	1	1009.57	1	40.488146	18.053571
3056	2024-05-07 07:00:00	12	torchiarolo	18.62	1	78.36	1	0.0	1	0.73	1	167.13	1	196.03	1	1009.8	1	40.488146	18.053571
3057	2024-05-07 08:00:00	12	torchiarolo	20.68	1	69.46	1	0.0	1	2.21	1	165.28	1	348.65	1	1009.86	1	40.488146	18.053571
3058	2024-05-07 09:00:00	12	torchiarolo	22.66	1	62.18	1	0.0	1	2.34	1	179.26	1	484.55	1	1009.89	1	40.488146	18.053571
3059	2024-05-07 10:00:00	12	torchiarolo	24.55	1	55.58	1	0.0	1	2.01	1	197.68	1	614.31	1	1009.92	1	40.488146	18.053571
3060	2024-05-07 11:00:00	12	torchiarolo	25.43	1	53.13	1	0.0	1	2.93	1	205.86	1	674.15	1	1010.24	1	40.488146	18.053571
3061	2024-05-07 12:00:00	12	torchiarolo	25.02	1	54.6	1	0.0	1	3.05	1	194.48	1	666.09	1	1009.99	1	40.488146	18.053571
3062	2024-05-07 13:00:00	12	torchiarolo	26.2	1	51.71	1	0.0	1	2.87	1	205.6	1	716.61	1	1009.54	1	40.488146	18.053571
3063	2024-05-07 14:00:00	12	torchiarolo	27.35	1	48.81	1	0.0	1	2.91	1	197.56	1	794.29	1	1009.49	1	40.488146	18.053571
3064	2024-05-07 15:00:00	12	torchiarolo	27.64	1	45.38	1	0.0	1	2.56	1	204.49	1	694.01	1	1008.94	1	40.488146	18.053571
3065	2024-05-07 16:00:00	12	torchiarolo	27.73	1	41.12	1	0.0	1	2.49	1	192.11	1	428.28	1	1008.66	1	40.488146	18.053571
3066	2024-05-07 17:00:00	12	torchiarolo	26.33	1	46.17	1	0.0	1	2.59	1	204.44	1	275.62	1	1009.05	1	40.488146	18.053571
3067	2024-05-07 18:00:00	12	torchiarolo	22.4	1	58.46	1	0.0	1	3.4	1	213.48	1	97.78	1	1009.18	1	40.488146	18.053571
3068	2024-05-07 19:00:00	12	torchiarolo	20.59	1	63.98	1	0.0	1	2.08	1	191.74	1	17.43	1	1009.15	1	40.488146	18.053571
3069	2024-05-07 20:00:00	12	torchiarolo	19.58	1	68.74	1	0.0	1	1.27	1	188.25	1	0.0	1	1009.15	1	40.488146	18.053571
3070	2024-05-07 21:00:00	12	torchiarolo	18.83	1	74.35	1	0.0	1	0.31	1	165.11	1	0.0	1	1009.16	1	40.488146	18.053571
3071	2024-05-07 22:00:00	12	torchiarolo	18.11	1	78.71	1	0.0	1	0.36	1	147.22	1	0.0	1	1009.02	1	40.488146	18.053571
3072	2024-05-07 23:00:00	12	torchiarolo	18.05	1	81.75	1	0.0	1	0.92	1	182.49	1	0.0	1	1009.14	1	40.488146	18.053571
3073	2024-05-08 00:00:00	12	torchiarolo	17.97	1	83.62	1	0.0	1	0.61	1	213.72	1	0.0	1	1009.52	1	40.488146	18.053571
3074	2024-05-08 01:00:00	12	torchiarolo	17.76	1	85.5	1	0.0	1	0.03	1	211.99	1	0.0	1	1009.44	1	40.488146	18.053571
3075	2024-05-08 02:00:00	12	torchiarolo	17.73	1	86.73	1	0.0	1	0.03	1	189.25	1	0.0	1	1008.85	1	40.488146	18.053571
3076	2024-05-08 03:00:00	12	torchiarolo	16.98	1	88.62	1	0.0	1	null	3	187.28	1	0.0	1	1008.71	1	40.488146	18.053571
3077	2024-05-08 04:00:00	12	torchiarolo	16.19	1	91.11	1	0.0	1	null	3	282.73	1	0.0	1	1008.48	1	40.488146	18.053571
3078	2024-05-08 05:00:00	12	torchiarolo	15.77	1	93.35	1	0.0	1	null	3	116.72	1	0.0	5	1008.33	1	40.488146	18.053571
3079	2024-05-08 06:00:00	12	torchiarolo	16.57	1	93.95	1	0.0	1	null	3	123.13	1	30.96	1	1008.42	1	40.488146	18.053571
3080	2024-05-08 07:00:00	12	torchiarolo	18.12	1	91.56	1	0.0	1	0.05	1	63.97	1	158.95	1	1008.5	1	40.488146	18.053571
3081	2024-05-08 08:00:00	12	torchiarolo	20.98	1	75.89	1	0.0	1	0.95	1	60.91	1	390.55	1	1008.91	1	40.488146	18.053571
3082	2024-05-08 09:00:00	12	torchiarolo	22.58	1	69.8	1	0.0	1	1.73	1	69.81	1	583.61	1	1009.2	1	40.488146	18.053571
3083	2024-05-08 10:00:00	12	torchiarolo	23.48	1	65.72	1	0.0	1	0.84	1	84.97	1	718.53	1	1009.52	1	40.488146	18.053571
3084	2024-05-08 11:00:00	12	torchiarolo	24.31	1	63.33	1	0.0	1	1.09	1	80.53	1	837.78	1	1009.41	1	40.488146	18.053571
3085	2024-05-08 12:00:00	12	torchiarolo	24.54	1	61.38	1	0.0	1	1.59	1	69.03	1	876.81	1	1009.02	1	40.488146	18.053571
3086	2024-05-08 13:00:00	12	torchiarolo	24.82	1	58.95	1	0.0	1	1.84	1	53.12	1	796.46	1	1008.62	1	40.488146	18.053571
3087	2024-05-08 14:00:00	12	torchiarolo	25.62	1	56.29	1	0.0	1	2.35	1	25.05	1	831.13	1	1008.23	1	40.488146	18.053571
3088	2024-05-08 15:00:00	12	torchiarolo	24.79	1	60.34	1	0.0	1	3.59	1	16.67	1	669.58	1	1007.7	1	40.488146	18.053571
3089	2024-05-08 16:00:00	12	torchiarolo	23.75	1	64.43	1	0.0	1	3.98	1	15.0	1	508.19	1	1007.65	1	40.488146	18.053571
3090	2024-05-08 17:00:00	12	torchiarolo	22.47	1	69.59	1	0.0	1	3.23	1	16.31	1	311.21	1	1007.43	1	40.488146	18.053571
3091	2024-05-08 18:00:00	12	torchiarolo	20.55	1	76.31	1	0.0	1	1.51	1	19.65	1	112.32	1	1007.33	1	40.488146	18.053571
3092	2024-05-08 19:00:00	12	torchiarolo	19.22	1	81.55	1	0.0	1	0.66	1	13.57	1	22.05	1	1007.37	1	40.488146	18.053571
3093	2024-05-08 20:00:00	12	torchiarolo	18.47	1	85.6	1	0.0	1	0.03	1	340.47	1	0.0	1	1007.33	1	40.488146	18.053571
3094	2024-05-08 21:00:00	12	torchiarolo	17.93	1	87.5	1	0.0	1	0.03	1	347.64	1	0.0	1	1007.98	1	40.488146	18.053571
3095	2024-05-08 22:00:00	12	torchiarolo	17.73	1	88.3	1	0.0	1	0.16	1	357.14	1	0.0	1	1008.07	1	40.488146	18.053571
3096	2024-05-08 23:00:00	12	torchiarolo	18.07	1	87.88	1	0.2	1	2.67	1	354.81	1	0.0	1	1008.19	1	40.488146	18.053571
3097	2024-05-09 00:00:00	12	torchiarolo	17.84	1	91.4	1	0.0	1	3.9	1	346.75	1	0.0	1	1007.33	1	40.488146	18.053571
3098	2024-05-09 01:00:00	12	torchiarolo	17.69	1	92.81	1	0.0	1	3.78	1	350.43	1	0.0	1	1006.96	1	40.488146	18.053571
3099	2024-05-09 02:00:00	12	torchiarolo	17.71	1	92.35	1	0.0	1	3.71	1	343.62	1	0.0	1	1006.49	1	40.488146	18.053571
3100	2024-05-09 03:00:00	12	torchiarolo	17.68	1	91.73	1	0.0	1	3.44	1	343.18	1	0.0	1	1006.45	1	40.488146	18.053571
3101	2024-05-09 04:00:00	12	torchiarolo	17.64	1	91.02	1	0.0	1	3.65	1	345.61	1	0.0	1	1006.37	1	40.488146	18.053571
3102	2024-05-09 05:00:00	12	torchiarolo	17.52	1	91.05	1	0.0	1	2.92	1	350.04	1	0.0	5	1006.62	1	40.488146	18.053571
3103	2024-05-09 06:00:00	12	torchiarolo	17.56	1	89.54	1	0.0	1	3.22	1	349.56	1	25.21	1	1007.06	1	40.488146	18.053571
3104	2024-05-09 07:00:00	12	torchiarolo	18.29	1	86.18	1	0.0	1	3.64	1	350.39	1	86.16	1	1007.52	1	40.488146	18.053571
3105	2024-05-09 08:00:00	12	torchiarolo	18.57	1	84.9	1	0.0	1	3.46	1	342.97	1	66.25	1	1007.57	1	40.488146	18.053571
3106	2024-05-09 09:00:00	12	torchiarolo	19.3	1	81.6	1	0.0	1	4.16	1	350.83	1	222.53	1	1007.19	1	40.488146	18.053571
3107	2024-05-09 10:00:00	12	torchiarolo	21.98	1	69.19	1	0.0	1	4.18	1	341.89	1	504.13	1	1006.96	1	40.488146	18.053571
3108	2024-05-09 11:00:00	12	torchiarolo	22.58	1	68.72	1	0.0	1	4.34	1	349.52	1	425.56	1	1007.7	1	40.488146	18.053571
3109	2024-05-09 12:00:00	12	torchiarolo	22.79	1	67.02	1	0.0	1	3.75	1	332.64	1	571.34	1	1007.35	1	40.488146	18.053571
3110	2024-05-09 13:00:00	12	torchiarolo	25.02	1	55.57	1	0.0	1	3.67	1	337.04	1	743.11	1	1007.01	1	40.488146	18.053571
3111	2024-05-09 14:00:00	12	torchiarolo	26.17	1	49.08	1	0.0	1	4.34	1	359.77	1	807.8	1	1006.76	1	40.488146	18.053571
3112	2024-05-09 15:00:00	12	torchiarolo	24.41	1	57.05	1	0.0	1	4.88	1	4.36	1	514.81	1	1006.26	1	40.488146	18.053571
3113	2024-05-09 16:00:00	12	torchiarolo	23.71	1	58.37	1	0.0	1	4.83	1	357.3	1	494.32	1	1005.89	1	40.488146	18.053571
3114	2024-05-09 17:00:00	12	torchiarolo	23.11	1	59.38	1	0.0	1	4.64	1	351.08	1	288.83	1	1005.83	1	40.488146	18.053571
3115	2024-05-09 18:00:00	12	torchiarolo	21.68	1	64.04	1	0.0	1	3.72	1	350.34	1	123.8	1	1005.74	1	40.488146	18.053571
3116	2024-05-09 19:00:00	12	torchiarolo	20.91	1	63.16	1	0.0	1	3.09	1	340.1	1	27.75	1	1006.32	1	40.488146	18.053571
3117	2024-05-09 20:00:00	12	torchiarolo	20.24	1	63.81	1	0.0	1	2.51	1	339.41	1	0.0	5	1006.64	1	40.488146	18.053571
3118	2024-05-09 21:00:00	12	torchiarolo	19.8	1	71.91	1	0.0	1	2.27	1	345.97	1	0.0	1	1007.2	1	40.488146	18.053571
3119	2024-05-09 22:00:00	12	torchiarolo	19.25	1	79.27	1	0.0	1	0.17	1	316.99	1	0.0	1	1007.18	1	40.488146	18.053571
3120	2024-05-09 23:00:00	12	torchiarolo	19.05	1	79.99	1	0.0	1	0.66	1	324.6	1	0.0	1	1006.94	1	40.488146	18.053571
3121	2024-05-10 00:00:00	12	torchiarolo	18.91	1	80.04	1	0.0	1	0.02	1	160.02	1	0.0	1	1007.33	1	40.488146	18.053571
3122	2024-05-10 01:00:00	12	torchiarolo	18.72	1	80.5	1	0.0	1	0.06	1	261.27	1	0.0	1	1007.21	1	40.488146	18.053571
3123	2024-05-10 02:00:00	12	torchiarolo	18.13	1	82.65	1	0.0	1	0.1	1	272.28	1	0.0	1	1006.99	1	40.488146	18.053571
3124	2024-05-10 03:00:00	12	torchiarolo	17.67	1	84.2	1	0.0	1	null	3	289.56	1	0.0	1	1006.94	1	40.488146	18.053571
3125	2024-05-10 04:00:00	12	torchiarolo	17.64	1	87.34	1	0.0	1	0.06	1	336.05	1	0.0	1	1006.88	1	40.488146	18.053571
3126	2024-05-10 05:00:00	12	torchiarolo	17.37	1	88.85	1	0.0	1	0.11	1	335.71	1	0.0	5	1006.83	1	40.488146	18.053571
3127	2024-05-10 06:00:00	12	torchiarolo	17.51	1	88.18	1	0.0	1	0.27	1	332.35	1	62.31	1	1007.14	1	40.488146	18.053571
3128	2024-05-10 07:00:00	12	torchiarolo	21.47	1	70.17	1	0.0	1	2.36	1	5.33	1	261.89	1	1007.59	1	40.488146	18.053571
3129	2024-05-10 08:00:00	12	torchiarolo	23.46	1	60.11	1	0.0	1	3.79	1	13.95	1	472.03	1	1008.13	1	40.488146	18.053571
3130	2024-05-10 09:00:00	12	torchiarolo	24.3	1	54.76	1	0.0	1	4.33	1	14.09	1	666.01	1	1008.6	1	40.488146	18.053571
3131	2024-05-10 10:00:00	12	torchiarolo	24.71	1	50.89	1	0.0	1	5.08	1	4.86	1	815.34	1	1009.06	1	40.488146	18.053571
3132	2024-05-10 11:00:00	12	torchiarolo	24.63	1	49.73	1	0.0	1	5.46	1	13.58	1	888.86	1	1008.9	1	40.488146	18.053571
3133	2024-05-10 12:00:00	12	torchiarolo	25.05	1	46.81	1	0.0	1	4.94	1	8.59	1	919.45	1	1008.99	1	40.488146	18.053571
3134	2024-05-10 13:00:00	12	torchiarolo	25.68	1	48.74	1	0.0	1	4.63	1	14.67	1	816.98	1	1009.11	1	40.488146	18.053571
3135	2024-05-10 14:00:00	12	torchiarolo	26.12	1	40.89	1	0.0	1	4.94	1	341.87	1	812.87	1	1008.67	1	40.488146	18.053571
3136	2024-05-10 15:00:00	12	torchiarolo	26.36	1	37.51	1	0.0	1	5.05	1	343.59	1	680.2	1	1008.21	1	40.488146	18.053571
3137	2024-05-10 16:00:00	12	torchiarolo	25.51	1	43.74	1	0.0	1	5.21	1	347.8	1	510.96	1	1008.32	1	40.488146	18.053571
3138	2024-05-10 17:00:00	12	torchiarolo	22.77	1	53.97	1	0.0	1	5.08	1	343.73	1	265.19	1	1008.28	1	40.488146	18.053571
3139	2024-05-10 18:00:00	12	torchiarolo	22.08	1	51.51	1	0.0	1	5.08	1	343.93	1	190.41	1	1008.06	1	40.488146	18.053571
3140	2024-05-10 19:00:00	12	torchiarolo	20.19	1	62.16	1	0.0	1	4.31	1	337.28	1	22.69	1	1008.06	1	40.488146	18.053571
3141	2024-05-10 20:00:00	12	torchiarolo	18.98	1	73.7	1	0.0	1	3.32	1	335.78	1	0.0	5	1008.22	1	40.488146	18.053571
3142	2024-05-10 21:00:00	12	torchiarolo	18.48	1	79.98	1	0.0	1	3.02	1	332.54	1	0.0	1	1008.68	1	40.488146	18.053571
3143	2024-05-10 22:00:00	12	torchiarolo	17.6	1	84.38	1	0.0	1	1.31	1	324.89	1	0.0	1	1008.78	1	40.488146	18.053571
3144	2024-05-10 23:00:00	12	torchiarolo	17.06	1	86.88	1	0.0	1	2.29	1	330.6	1	0.0	1	1008.78	1	40.488146	18.053571
3145	2024-05-11 00:00:00	12	torchiarolo	16.98	1	86.64	1	0.0	1	2.5	1	327.8	1	0.0	1	1008.52	1	40.488146	18.053571
3146	2024-05-11 01:00:00	12	torchiarolo	16.94	1	85.4	1	0.0	1	2.35	1	326.16	1	0.0	1	1008.23	1	40.488146	18.053571
3147	2024-05-11 02:00:00	12	torchiarolo	16.74	1	87.22	1	0.0	1	1.09	1	323.65	1	0.0	1	1008.06	1	40.488146	18.053571
3148	2024-05-11 03:00:00	12	torchiarolo	16.64	1	89.6	1	0.0	1	0.3	1	325.67	1	0.0	1	1007.99	1	40.488146	18.053571
3149	2024-05-11 04:00:00	12	torchiarolo	16.45	1	86.65	1	0.0	1	0.47	1	319.9	1	0.0	1	1007.86	1	40.488146	18.053571
3150	2024-05-11 05:00:00	12	torchiarolo	16.03	1	82.53	1	0.0	1	0.62	1	323.9	1	0.0	5	1007.99	1	40.488146	18.053571
3151	2024-05-11 06:00:00	12	torchiarolo	17.1	1	75.58	1	0.0	1	0.48	1	330.03	1	105.35	1	1008.32	1	40.488146	18.053571
3152	2024-05-11 07:00:00	12	torchiarolo	19.9	1	62.45	1	0.0	1	2.98	1	4.52	1	165.71	1	1008.65	1	40.488146	18.053571
3153	2024-05-11 08:00:00	12	torchiarolo	22.28	1	54.19	1	0.0	1	4.7	1	14.57	1	506.62	1	1009.07	1	40.488146	18.053571
3154	2024-05-11 09:00:00	12	torchiarolo	23.21	1	51.03	1	0.0	1	4.97	1	16.75	1	673.31	1	1009.58	1	40.488146	18.053571
3155	2024-05-11 10:00:00	12	torchiarolo	23.63	1	47.76	1	0.0	1	5.28	1	5.6	1	802.95	1	1010.17	1	40.488146	18.053571
3156	2024-05-11 11:00:00	12	torchiarolo	24.11	1	43.18	1	0.0	1	5.17	1	353.72	1	900.52	1	1010.59	1	40.488146	18.053571
3157	2024-05-11 12:00:00	12	torchiarolo	23.79	1	45.27	1	0.0	1	5.2	1	13.32	1	945.29	1	1010.7	1	40.488146	18.053571
3158	2024-05-11 13:00:00	12	torchiarolo	23.97	1	42.95	1	0.0	1	5.31	1	12.74	1	829.93	1	1010.96	1	40.488146	18.053571
3159	2024-05-11 14:00:00	12	torchiarolo	24.78	1	38.84	1	0.0	1	4.6	1	14.78	1	878.55	1	1011.17	1	40.488146	18.053571
3160	2024-05-11 15:00:00	12	torchiarolo	25.4	1	38.1	1	0.0	1	4.56	1	4.0	1	753.98	1	1011.66	1	40.488146	18.053571
3161	2024-05-11 16:00:00	12	torchiarolo	25.81	1	34.38	1	0.0	1	3.96	1	3.57	1	595.02	1	1011.88	1	40.488146	18.053571
3162	2024-05-11 17:00:00	12	torchiarolo	24.78	1	35.6	1	0.0	1	3.51	1	13.44	1	397.51	1	1012.09	1	40.488146	18.053571
3163	2024-05-11 18:00:00	12	torchiarolo	21.99	1	46.34	1	0.0	1	2.51	1	13.83	1	194.64	1	1012.33	1	40.488146	18.053571
3164	2024-05-11 19:00:00	12	torchiarolo	20.31	1	52.01	1	0.0	1	1.03	1	347.78	1	20.55	1	1012.73	1	40.488146	18.053571
3165	2024-05-11 20:00:00	12	torchiarolo	18.51	1	62.0	1	0.0	1	0.01	1	321.24	1	0.0	5	1013.02	1	40.488146	18.053571
3166	2024-05-11 21:00:00	12	torchiarolo	17.23	1	73.96	1	0.0	1	0.03	1	308.91	1	0.0	1	1013.7	1	40.488146	18.053571
3167	2024-05-11 22:00:00	12	torchiarolo	16.19	1	80.44	1	0.0	1	0.07	1	290.19	1	0.0	1	1014.14	1	40.488146	18.053571
3168	2024-05-11 23:00:00	12	torchiarolo	15.83	1	80.07	1	0.0	1	0.02	1	280.5	1	0.0	1	1014.16	1	40.488146	18.053571
3169	2024-05-12 00:00:00	12	torchiarolo	15.49	1	83.71	1	0.0	1	0.03	1	281.38	1	0.0	1	1014.16	1	40.488146	18.053571
3170	2024-05-12 01:00:00	12	torchiarolo	15.05	1	86.78	1	0.0	1	0.05	1	281.92	1	0.0	1	1013.82	1	40.488146	18.053571
3171	2024-05-12 02:00:00	12	torchiarolo	14.67	1	87.58	1	0.0	1	0.01	1	291.48	1	0.0	1	1013.55	1	40.488146	18.053571
3172	2024-05-12 03:00:00	12	torchiarolo	14.35	1	85.86	1	0.0	1	null	3	275.81	1	0.0	1	1013.73	1	40.488146	18.053571
3173	2024-05-12 04:00:00	12	torchiarolo	13.93	1	83.76	1	0.0	1	0.01	1	278.43	1	0.0	1	1013.79	1	40.488146	18.053571
3174	2024-05-12 05:00:00	12	torchiarolo	13.54	1	80.8	1	0.0	1	null	3	271.83	1	0.0	5	1013.91	1	40.488146	18.053571
3175	2024-05-12 06:00:00	12	torchiarolo	14.76	1	74.16	1	0.0	1	0.34	1	261.26	1	83.49	1	1013.98	1	40.488146	18.053571
3176	2024-05-12 07:00:00	12	torchiarolo	null	6	null	6	null	6	null	6	null	6	null	6	null	6	40.488146	18.053571
3177	2024-05-12 08:00:00	12	torchiarolo	null	6	null	6	null	6	null	6	null	6	null	6	null	6	40.488146	18.053571
3178	2024-05-12 09:00:00	12	torchiarolo	null	6	null	6	null	6	null	6	null	6	null	6	null	6	40.488146	18.053571
3179	2024-05-12 10:00:00	12	torchiarolo	null	6	null	6	null	6	null	6	null	6	null	6	null	6	40.488146	18.053571
3180	2024-05-12 11:00:00	12	torchiarolo	null	6	null	6	null	6	null	6	null	6	null	6	null	6	40.488146	18.053571
3181	2024-05-12 12:00:00	12	torchiarolo	null	6	null	6	null	6	null	6	null	6	null	6	null	6	40.488146	18.053571
3182	2024-05-12 13:00:00	12	torchiarolo	null	6	null	6	null	6	null	6	null	6	null	6	null	6	40.488146	18.053571
3183	2024-05-12 14:00:00	12	torchiarolo	null	6	null	6	null	6	null	6	null	6	null	6	null	6	40.488146	18.053571
3184	2024-05-12 15:00:00	12	torchiarolo	null	6	null	6	null	6	null	6	null	6	null	6	null	6	40.488146	18.053571
3185	2024-05-12 16:00:00	12	torchiarolo	null	6	null	6	null	6	null	6	null	6	null	6	null	6	40.488146	18.053571
3186	2024-05-12 17:00:00	12	torchiarolo	null	6	null	6	null	6	null	6	null	6	null	6	null	6	40.488146	18.053571
3187	2024-05-12 18:00:00	12	torchiarolo	null	6	null	6	null	6	null	6	null	6	null	6	null	6	40.488146	18.053571
3188	2024-05-12 19:00:00	12	torchiarolo	null	6	null	6	null	6	null	6	null	6	null	6	null	6	40.488146	18.053571
3189	2024-05-12 20:00:00	12	torchiarolo	null	6	null	6	null	6	null	6	null	6	null	6	null	6	40.488146	18.053571
3190	2024-05-12 21:00:00	12	torchiarolo	null	6	null	6	null	6	null	6	null	6	null	6	null	6	40.488146	18.053571
3191	2024-05-12 22:00:00	12	torchiarolo	null	6	null	6	null	6	null	6	null	6	null	6	null	6	40.488146	18.053571
3192	2024-05-12 23:00:00	12	torchiarolo	null	6	null	6	null	6	null	6	null	6	null	6	null	6	40.488146	18.053571
3193	2024-05-13 00:00:00	12	torchiarolo	null	6	null	6	null	6	null	6	null	6	null	6	null	6	40.488146	18.053571
3194	2024-05-13 01:00:00	12	torchiarolo	null	6	null	6	null	6	null	6	null	6	null	6	null	6	40.488146	18.053571
3195	2024-05-13 02:00:00	12	torchiarolo	null	6	null	6	null	6	null	6	null	6	null	6	null	6	40.488146	18.053571
3196	2024-05-13 03:00:00	12	torchiarolo	null	6	null	6	null	6	null	6	null	6	null	6	null	6	40.488146	18.053571
3197	2024-05-13 04:00:00	12	torchiarolo	null	6	null	6	null	6	null	6	null	6	null	6	null	6	40.488146	18.053571
3198	2024-05-13 05:00:00	12	torchiarolo	null	6	null	6	null	6	null	6	null	6	null	6	null	6	40.488146	18.053571
3199	2024-05-13 06:00:00	12	torchiarolo	null	6	null	6	null	6	null	6	null	6	null	6	null	6	40.488146	18.053571
3200	2024-05-13 07:00:00	12	torchiarolo	null	6	null	6	null	6	null	6	null	6	null	6	null	6	40.488146	18.053571
3201	2024-05-13 08:00:00	12	torchiarolo	null	6	null	6	null	6	null	6	null	6	null	6	null	6	40.488146	18.053571
3202	2024-05-13 09:00:00	12	torchiarolo	null	6	null	6	null	6	null	6	null	6	null	6	null	6	40.488146	18.053571
3203	2024-05-13 10:00:00	12	torchiarolo	null	6	null	6	null	6	null	6	null	6	null	6	null	6	40.488146	18.053571
3204	2024-05-13 11:00:00	12	torchiarolo	null	6	null	6	null	6	null	6	null	6	null	6	null	6	40.488146	18.053571
3205	2024-05-13 12:00:00	12	torchiarolo	null	6	null	6	null	6	null	6	null	6	null	6	null	6	40.488146	18.053571
3206	2024-05-13 13:00:00	12	torchiarolo	null	6	null	6	null	6	null	6	null	6	null	6	null	6	40.488146	18.053571
3207	2024-05-13 14:00:00	12	torchiarolo	null	6	null	6	null	6	null	6	null	6	null	6	null	6	40.488146	18.053571
3208	2024-05-13 15:00:00	12	torchiarolo	null	6	null	6	null	6	null	6	null	6	null	6	null	6	40.488146	18.053571
3209	2024-05-13 16:00:00	12	torchiarolo	null	6	null	6	null	6	null	6	null	6	null	6	null	6	40.488146	18.053571
3210	2024-05-13 17:00:00	12	torchiarolo	null	6	null	6	null	6	null	6	null	6	null	6	null	6	40.488146	18.053571
3211	2024-05-13 18:00:00	12	torchiarolo	null	6	null	6	null	6	null	6	null	6	null	6	null	6	40.488146	18.053571
3212	2024-05-13 19:00:00	12	torchiarolo	null	6	null	6	null	6	null	6	null	6	null	6	null	6	40.488146	18.053571
3213	2024-05-13 20:00:00	12	torchiarolo	null	6	null	6	null	6	null	6	null	6	null	6	null	6	40.488146	18.053571
3214	2024-05-13 21:00:00	12	torchiarolo	null	6	null	6	null	6	null	6	null	6	null	6	null	6	40.488146	18.053571
3215	2024-05-13 22:00:00	12	torchiarolo	null	6	null	6	null	6	null	6	null	6	null	6	null	6	40.488146	18.053571
3216	2024-05-13 23:00:00	12	torchiarolo	null	6	null	6	null	6	null	6	null	6	null	6	null	6	40.488146	18.053571
3217	2024-05-14 00:00:00	12	torchiarolo	null	6	null	6	null	6	null	6	null	6	null	6	null	6	40.488146	18.053571
3218	2024-05-14 01:00:00	12	torchiarolo	null	6	null	6	null	6	null	6	null	6	null	6	null	6	40.488146	18.053571
3219	2024-05-14 02:00:00	12	torchiarolo	null	6	null	6	null	6	null	6	null	6	null	6	null	6	40.488146	18.053571
3220	2024-05-14 03:00:00	12	torchiarolo	null	6	null	6	null	6	null	6	null	6	null	6	null	6	40.488146	18.053571
3221	2024-05-14 04:00:00	12	torchiarolo	null	6	null	6	null	6	null	6	null	6	null	6	null	6	40.488146	18.053571
3222	2024-05-14 05:00:00	12	torchiarolo	null	6	null	6	null	6	null	6	null	6	null	6	null	6	40.488146	18.053571
3223	2024-05-14 06:00:00	12	torchiarolo	null	6	null	6	null	6	null	6	null	6	null	6	null	6	40.488146	18.053571
3224	2024-05-14 07:00:00	12	torchiarolo	null	6	null	6	null	6	null	6	null	6	null	6	null	6	40.488146	18.053571
3225	2024-05-14 08:00:00	12	torchiarolo	null	6	null	6	null	6	null	6	null	6	null	6	null	6	40.488146	18.053571
3226	2024-05-14 09:00:00	12	torchiarolo	null	6	null	6	null	6	null	6	null	6	null	6	null	6	40.488146	18.053571
3227	2024-05-14 10:00:00	12	torchiarolo	null	6	null	6	null	6	null	6	null	6	null	6	null	6	40.488146	18.053571
3228	2024-05-14 11:00:00	12	torchiarolo	null	6	null	6	null	6	null	6	null	6	null	6	null	6	40.488146	18.053571
3229	2024-05-14 12:00:00	12	torchiarolo	25.23	1	51.45	1	0.0	1	3.87	1	176.93	1	519.91	1	1006.59	1	40.488146	18.053571
3230	2024-05-14 13:00:00	12	torchiarolo	24.58	1	50.53	1	0.0	1	3.71	1	179.9	1	273.19	1	1006.31	1	40.488146	18.053571
3231	2024-05-14 14:00:00	12	torchiarolo	25.16	1	48.89	1	0.0	1	3.18	1	191.95	1	399.73	1	1006.01	1	40.488146	18.053571
3232	2024-05-14 15:00:00	12	torchiarolo	25.98	1	50.59	1	0.0	1	4.33	1	199.7	1	568.43	1	1005.85	1	40.488146	18.053571
3233	2024-05-14 16:00:00	12	torchiarolo	24.43	1	55.15	1	0.0	1	4.17	1	188.39	1	290.8	1	1005.72	1	40.488146	18.053571
3234	2024-05-14 17:00:00	12	torchiarolo	23.02	1	57.31	1	0.0	1	3.89	1	182.54	1	101.74	1	1005.86	1	40.488146	18.053571
3235	2024-05-14 18:00:00	12	torchiarolo	21.8	1	62.19	1	0.0	1	3.67	1	181.89	1	71.22	1	1006.03	1	40.488146	18.053571
3236	2024-05-14 19:00:00	12	torchiarolo	20.67	1	64.65	1	0.0	1	3.39	1	184.98	1	21.16	1	1006.37	1	40.488146	18.053571
3237	2024-05-14 20:00:00	12	torchiarolo	19.96	1	68.36	1	0.0	1	2.35	1	168.89	1	0.0	1	1006.78	1	40.488146	18.053571
3238	2024-05-14 21:00:00	12	torchiarolo	19.26	1	72.89	1	0.0	1	1.45	1	159.32	1	0.0	1	1007.36	1	40.488146	18.053571
3239	2024-05-14 22:00:00	12	torchiarolo	18.41	1	77.23	1	0.0	1	1.57	1	155.46	1	0.0	1	1007.69	1	40.488146	18.053571
3240	2024-05-14 23:00:00	12	torchiarolo	18.36	1	77.17	1	0.0	1	1.8	1	151.92	1	0.0	1	1007.42	1	40.488146	18.053571
3241	2024-05-15 00:00:00	12	torchiarolo	18.49	1	75.91	1	0.0	1	2.0	1	153.35	1	0.0	1	1006.98	1	40.488146	18.053571
3242	2024-05-15 01:00:00	12	torchiarolo	18.63	1	75.28	1	0.0	1	1.3	1	175.59	1	0.0	1	1006.71	1	40.488146	18.053571
3243	2024-05-15 02:00:00	12	torchiarolo	18.73	1	76.41	1	0.0	1	1.09	1	165.45	1	0.0	1	1006.59	1	40.488146	18.053571
3244	2024-05-15 03:00:00	12	torchiarolo	18.55	1	78.2	1	0.0	1	1.13	1	163.34	1	0.0	1	1006.49	1	40.488146	18.053571
3245	2024-05-15 04:00:00	12	torchiarolo	18.75	1	77.51	1	0.0	1	1.09	1	150.5	1	0.0	1	1006.37	1	40.488146	18.053571
3246	2024-05-15 05:00:00	12	torchiarolo	18.81	1	77.49	1	0.0	1	1.82	1	156.49	1	0.0	5	1006.23	1	40.488146	18.053571
3247	2024-05-15 06:00:00	12	torchiarolo	18.91	1	77.19	1	0.0	1	2.08	1	153.71	1	15.56	1	1006.6	1	40.488146	18.053571
3248	2024-05-15 07:00:00	12	torchiarolo	19.34	1	75.67	1	0.0	1	2.25	1	153.29	1	59.2	1	1006.96	1	40.488146	18.053571
3249	2024-05-15 08:00:00	12	torchiarolo	20.03	1	71.72	1	0.0	1	2.58	1	167.84	1	106.14	1	1007.28	1	40.488146	18.053571
3250	2024-05-15 09:00:00	12	torchiarolo	20.91	1	66.45	1	0.0	1	2.61	1	166.69	1	162.19	1	1007.39	1	40.488146	18.053571
3251	2024-05-15 10:00:00	12	torchiarolo	22.02	1	62.48	1	0.0	1	3.1	1	139.52	1	304.82	1	1007.62	1	40.488146	18.053571
3252	2024-05-15 11:00:00	12	torchiarolo	23.15	1	58.5	1	0.0	1	3.02	1	148.56	1	322.88	1	1007.69	1	40.488146	18.053571
3253	2024-05-15 12:00:00	12	torchiarolo	22.62	1	60.4	1	0.0	1	2.57	1	153.99	1	176.2	1	1007.69	1	40.488146	18.053571
3254	2024-05-15 13:00:00	12	torchiarolo	23.06	1	58.35	1	0.0	1	2.96	1	151.57	1	227.99	1	1007.6	1	40.488146	18.053571
3255	2024-05-15 14:00:00	12	torchiarolo	22.78	1	58.53	1	0.0	1	2.81	1	151.33	1	180.2	1	1007.45	1	40.488146	18.053571
3256	2024-05-15 15:00:00	12	torchiarolo	23.09	1	56.42	1	0.0	1	2.87	1	150.99	1	221.83	1	1007.06	1	40.488146	18.053571
3257	2024-05-15 16:00:00	12	torchiarolo	23.76	1	52.84	1	0.0	1	2.67	1	161.2	1	205.56	1	1006.76	1	40.488146	18.053571
3258	2024-05-15 17:00:00	12	torchiarolo	23.47	1	54.89	1	0.0	1	2.84	1	168.56	1	231.03	1	1006.78	1	40.488146	18.053571
3259	2024-05-15 18:00:00	12	torchiarolo	22.2	1	60.39	1	0.0	1	2.61	1	157.15	1	136.65	1	1006.69	1	40.488146	18.053571
3260	2024-05-15 19:00:00	12	torchiarolo	20.94	1	65.75	1	0.0	1	2.02	1	160.12	1	26.13	1	1006.82	1	40.488146	18.053571
3261	2024-05-15 20:00:00	12	torchiarolo	19.59	1	71.05	1	0.0	1	0.86	1	143.92	1	0.0	1	1006.51	1	40.488146	18.053571
3262	2024-05-15 21:00:00	12	torchiarolo	19.07	1	73.34	1	0.0	1	0.56	1	162.49	1	0.0	1	1006.83	1	40.488146	18.053571
3263	2024-05-15 22:00:00	12	torchiarolo	18.64	1	75.6	1	0.0	1	0.8	1	191.89	1	0.0	1	1007.53	1	40.488146	18.053571
3264	2024-05-15 23:00:00	12	torchiarolo	18.59	1	79.96	1	0.4	1	0.8	1	174.9	1	0.0	1	1007.37	1	40.488146	18.053571
3265	2024-05-16 00:00:00	12	torchiarolo	17.86	1	88.93	1	0.2	1	0.3	1	138.14	1	0.0	1	1007.1	1	40.488146	18.053571
3266	2024-05-16 01:00:00	12	torchiarolo	18.16	1	89.6	1	0.0	1	0.97	1	134.27	1	0.0	1	1007.26	1	40.488146	18.053571
3267	2024-05-16 02:00:00	12	torchiarolo	18.43	1	88.77	1	0.0	1	2.27	1	169.72	1	0.0	1	1006.15	1	40.488146	18.053571
3268	2024-05-16 03:00:00	12	torchiarolo	18.76	1	86.81	1	0.0	1	1.53	1	161.95	1	0.0	1	1006.02	1	40.488146	18.053571
3269	2024-05-16 04:00:00	12	torchiarolo	19.19	1	84.32	1	0.0	1	2.95	1	173.6	1	0.0	1	1005.97	1	40.488146	18.053571
3270	2024-05-16 05:00:00	12	torchiarolo	19.39	1	81.32	1	0.0	1	3.56	1	166.7	1	0.0	5	1005.85	1	40.488146	18.053571
3271	2024-05-16 06:00:00	12	torchiarolo	19.69	1	77.82	1	0.0	1	3.14	1	150.55	1	42.19	1	1005.92	1	40.488146	18.053571
3272	2024-05-16 07:00:00	12	torchiarolo	20.41	1	69.63	1	0.0	1	3.26	1	156.83	1	110.78	1	1006.18	1	40.488146	18.053571
3273	2024-05-16 08:00:00	12	torchiarolo	21.5	1	63.32	1	0.0	1	3.93	1	156.87	1	209.93	1	1006.06	1	40.488146	18.053571
3274	2024-05-16 09:00:00	12	torchiarolo	22.69	1	57.98	1	0.0	1	4.55	1	145.57	1	272.27	1	1005.19	1	40.488146	18.053571
3275	2024-05-16 10:00:00	12	torchiarolo	23.8	1	51.14	1	0.0	1	4.47	1	145.96	1	317.8	1	1004.29	1	40.488146	18.053571
3276	2024-05-16 11:00:00	12	torchiarolo	24.19	1	52.04	1	0.0	1	4.51	1	138.42	1	459.06	1	1003.29	1	40.488146	18.053571
3277	2024-05-16 12:00:00	12	torchiarolo	27.52	1	44.78	1	0.0	1	2.05	1	203.61	1	741.96	1	1003.83	1	40.488146	18.053571
3278	2024-05-16 13:00:00	12	torchiarolo	28.88	1	38.22	1	0.0	1	4.79	1	189.83	1	768.58	1	1004.05	1	40.488146	18.053571
3279	2024-05-16 14:00:00	12	torchiarolo	28.34	1	38.32	1	0.0	1	5.53	1	186.87	1	794.05	1	1003.89	1	40.488146	18.053571
3280	2024-05-16 15:00:00	12	torchiarolo	27.57	1	40.27	1	0.0	1	5.41	1	183.64	1	455.35	1	1002.87	1	40.488146	18.053571
3281	2024-05-16 16:00:00	12	torchiarolo	26.34	1	42.68	1	0.0	1	4.9	1	187.65	1	264.6	1	1002.45	1	40.488146	18.053571
3282	2024-05-16 17:00:00	12	torchiarolo	25.7	1	45.1	1	0.0	1	4.55	1	180.69	1	175.06	1	1002.36	1	40.488146	18.053571
3283	2024-05-16 18:00:00	12	torchiarolo	24.14	1	53.16	1	0.0	1	4.14	1	174.21	1	75.26	1	1002.92	1	40.488146	18.053571
3284	2024-05-16 19:00:00	12	torchiarolo	22.75	1	60.74	1	0.0	1	3.48	1	170.6	1	18.06	1	1003.46	1	40.488146	18.053571
3285	2024-05-16 20:00:00	12	torchiarolo	21.66	1	65.86	1	0.0	1	2.83	1	156.82	1	0.0	5	1003.79	1	40.488146	18.053571
3286	2024-05-16 21:00:00	12	torchiarolo	20.9	1	70.63	1	0.0	1	3.69	1	166.79	1	0.0	1	1004.12	1	40.488146	18.053571
3287	2024-05-16 22:00:00	12	torchiarolo	20.59	1	73.28	1	0.0	1	3.31	1	174.65	1	0.0	1	1004.61	1	40.488146	18.053571
3288	2024-05-16 23:00:00	12	torchiarolo	20.26	1	75.45	1	0.0	1	2.68	1	173.4	1	0.0	1	1004.62	1	40.488146	18.053571
3289	2024-05-17 00:00:00	12	torchiarolo	19.79	1	78.17	1	0.0	1	1.81	1	163.16	1	0.0	1	1004.81	1	40.488146	18.053571
3290	2024-05-17 01:00:00	12	torchiarolo	19.45	1	80.39	1	0.0	1	1.86	1	170.74	1	0.0	1	1005.09	1	40.488146	18.053571
3291	2024-05-17 02:00:00	12	torchiarolo	19.08	1	81.83	1	0.0	1	0.57	1	159.89	1	0.0	1	1005.01	1	40.488146	18.053571
3292	2024-05-17 03:00:00	12	torchiarolo	18.61	1	83.3	1	0.0	1	0.08	1	162.71	1	0.0	1	1005.36	1	40.488146	18.053571
3293	2024-05-17 04:00:00	12	torchiarolo	18.49	1	83.54	1	0.0	1	0.97	1	177.25	1	0.0	1	1005.2	1	40.488146	18.053571
3294	2024-05-17 05:00:00	12	torchiarolo	18.6	1	84.45	1	0.0	1	0.2	1	175.9	1	11.86	1	1005.17	1	40.488146	18.053571
3295	2024-05-17 06:00:00	12	torchiarolo	19.45	1	82.51	1	0.0	1	0.29	1	190.2	1	83.68	1	1005.6	1	40.488146	18.053571
3296	2024-05-17 07:00:00	12	torchiarolo	21.64	1	75.48	1	0.0	1	1.33	1	221.85	1	245.0	1	1006.09	1	40.488146	18.053571
3297	2024-05-17 08:00:00	12	torchiarolo	24.5	1	66.41	1	0.0	1	0.69	1	254.05	1	393.33	1	1006.79	1	40.488146	18.053571
3298	2024-05-17 09:00:00	12	torchiarolo	26.45	1	59.53	1	0.0	1	0.5	1	213.19	1	633.21	1	1007.16	1	40.488146	18.053571
3299	2024-05-17 10:00:00	12	torchiarolo	28.98	1	47.76	1	0.0	1	0.19	1	204.88	1	779.74	1	1007.67	1	40.488146	18.053571
3300	2024-05-17 11:00:00	12	torchiarolo	29.89	1	38.68	1	0.0	1	1.61	1	50.71	1	866.27	1	1007.65	1	40.488146	18.053571
3301	2024-05-17 12:00:00	12	torchiarolo	28.78	1	40.4	1	0.0	1	3.0	1	64.04	1	900.88	1	1007.8	1	40.488146	18.053571
3302	2024-05-17 13:00:00	12	torchiarolo	27.53	1	47.57	1	0.0	1	3.61	1	74.31	1	802.88	1	1008.06	1	40.488146	18.053571
3303	2024-05-17 14:00:00	12	torchiarolo	27.42	1	52.12	1	0.0	1	3.31	1	76.02	1	816.94	1	1008.08	1	40.488146	18.053571
3304	2024-05-17 15:00:00	12	torchiarolo	27.71	1	52.36	1	0.0	1	2.93	1	83.55	1	686.12	1	1008.1	1	40.488146	18.053571
3305	2024-05-17 16:00:00	12	torchiarolo	27.06	1	60.77	1	0.0	1	2.25	1	63.94	1	518.22	1	1008.0	1	40.488146	18.053571
3306	2024-05-17 17:00:00	12	torchiarolo	26.69	1	62.39	1	0.0	1	1.46	1	25.5	1	341.57	1	1007.52	1	40.488146	18.053571
3307	2024-05-17 18:00:00	12	torchiarolo	25.05	1	66.47	1	0.0	1	0.09	1	11.72	1	155.43	1	1007.49	1	40.488146	18.053571
3308	2024-05-17 19:00:00	12	torchiarolo	24.03	1	69.17	1	0.0	1	0.5	1	261.14	1	26.6	1	1008.0	1	40.488146	18.053571
3309	2024-05-17 20:00:00	12	torchiarolo	22.22	1	74.78	1	0.0	1	1.36	1	234.2	1	0.0	5	1008.76	1	40.488146	18.053571
3310	2024-05-17 21:00:00	12	torchiarolo	21.01	1	80.03	1	0.0	1	0.53	1	232.75	1	0.0	1	1009.38	1	40.488146	18.053571
3311	2024-05-17 22:00:00	12	torchiarolo	20.19	1	84.64	1	0.0	1	null	3	146.03	1	0.0	1	1009.36	1	40.488146	18.053571
3312	2024-05-17 23:00:00	12	torchiarolo	19.17	1	86.77	1	0.0	1	null	3	64.77	1	0.0	1	1009.51	1	40.488146	18.053571
3313	2024-05-18 00:00:00	12	torchiarolo	18.76	1	88.73	1	0.0	1	0.05	1	172.87	1	0.0	1	1009.38	1	40.488146	18.053571
3314	2024-05-18 01:00:00	12	torchiarolo	17.91	1	90.0	1	0.0	1	null	3	124.5	1	0.0	1	1008.84	1	40.488146	18.053571
3315	2024-05-18 02:00:00	12	torchiarolo	17.64	1	91.82	1	0.0	1	0.09	1	158.34	1	0.0	1	1008.62	1	40.488146	18.053571
3316	2024-05-18 03:00:00	12	torchiarolo	17.94	1	92.1	1	0.0	1	0.03	1	183.06	1	0.0	1	1008.42	1	40.488146	18.053571
3317	2024-05-18 04:00:00	12	torchiarolo	17.53	1	92.52	1	0.0	1	0.01	1	210.06	1	0.0	1	1008.34	1	40.488146	18.053571
3318	2024-05-18 05:00:00	12	torchiarolo	16.89	1	92.69	1	0.0	1	null	3	90.52	1	8.94	1	1008.39	1	40.488146	18.053571
3319	2024-05-18 06:00:00	12	torchiarolo	16.82	1	93.54	1	0.0	1	null	3	109.49	1	79.39	1	1008.89	1	40.488146	18.053571
3320	2024-05-18 07:00:00	12	torchiarolo	19.78	1	84.43	1	0.0	1	0.01	1	162.41	1	230.2	1	1008.99	1	40.488146	18.053571
3321	2024-05-18 08:00:00	12	torchiarolo	24.08	1	67.18	1	0.0	1	0.28	1	175.6	1	384.67	1	1009.23	1	40.488146	18.053571
3322	2024-05-18 09:00:00	12	torchiarolo	27.37	1	55.32	1	0.0	1	0.39	1	189.25	1	546.11	1	1009.5	1	40.488146	18.053571
3323	2024-05-18 10:00:00	12	torchiarolo	28.95	1	50.28	1	0.0	1	1.66	1	172.59	1	594.72	1	1009.07	1	40.488146	18.053571
3324	2024-05-18 11:00:00	12	torchiarolo	29.54	1	45.83	1	0.0	1	2.59	1	178.26	1	662.45	1	1009.22	1	40.488146	18.053571
3325	2024-05-18 12:00:00	12	torchiarolo	31.34	1	39.7	1	0.0	1	2.37	1	174.23	1	749.44	1	1008.75	1	40.488146	18.053571
3326	2024-05-18 13:00:00	12	torchiarolo	32.65	1	38.47	1	0.0	1	0.62	1	196.08	1	697.07	1	1008.24	1	40.488146	18.053571
3327	2024-05-18 14:00:00	12	torchiarolo	32.9	1	40.62	1	0.0	1	1.72	1	233.4	1	675.65	1	1007.7	1	40.488146	18.053571
3328	2024-05-18 15:00:00	12	torchiarolo	30.22	1	49.64	1	0.0	1	2.35	1	227.94	1	525.34	1	1007.43	1	40.488146	18.053571
3329	2024-05-18 16:00:00	12	torchiarolo	27.44	1	58.29	1	0.0	1	3.88	1	219.95	1	311.42	1	1007.56	1	40.488146	18.053571
3330	2024-05-18 17:00:00	12	torchiarolo	24.61	1	66.1	1	0.0	1	3.59	1	219.77	1	83.92	1	1007.92	1	40.488146	18.053571
3331	2024-05-18 18:00:00	12	torchiarolo	22.17	1	83.87	1	1.4	1	1.33	1	286.81	1	21.41	1	1008.79	1	40.488146	18.053571
3332	2024-05-18 19:00:00	12	torchiarolo	20.34	1	90.97	1	0.0	1	3.29	1	333.99	1	5.74	1	1008.42	1	40.488146	18.053571
3333	2024-05-18 20:00:00	12	torchiarolo	19.44	1	93.27	1	0.8	1	2.28	1	322.49	1	0.0	1	1009.11	1	40.488146	18.053571
3334	2024-05-18 21:00:00	12	torchiarolo	19.33	1	95.18	1	4.2	1	0.83	1	350.86	1	0.0	1	1009.39	1	40.488146	18.053571
3335	2024-05-18 22:00:00	12	torchiarolo	19.44	1	96.53	1	1.0	1	0.07	1	354.31	1	0.0	1	1008.87	1	40.488146	18.053571
3336	2024-05-18 23:00:00	12	torchiarolo	19.34	1	97.3	1	0.2	1	null	3	76.65	1	0.0	1	1007.74	1	40.488146	18.053571
3337	2024-05-19 00:00:00	12	torchiarolo	19.33	1	97.9	1	0.0	1	null	3	279.17	1	0.0	1	1007.57	1	40.488146	18.053571
3338	2024-05-19 01:00:00	12	torchiarolo	19.32	1	98.14	1	0.0	1	null	3	290.05	1	0.0	1	1007.28	1	40.488146	18.053571
3339	2024-05-19 02:00:00	12	torchiarolo	19.09	1	98.29	1	0.0	1	null	3	285.93	1	0.0	1	1006.76	1	40.488146	18.053571
3340	2024-05-19 03:00:00	12	torchiarolo	18.78	1	98.47	1	0.0	1	0.03	1	288.11	1	0.0	1	1006.36	1	40.488146	18.053571
3341	2024-05-19 04:00:00	12	torchiarolo	18.5	1	98.61	1	0.0	1	0.1	1	318.64	1	0.0	1	1006.21	1	40.488146	18.053571
3342	2024-05-19 05:00:00	12	torchiarolo	18.29	1	98.71	1	0.0	1	null	3	334.21	1	0.0	5	1006.56	1	40.488146	18.053571
3343	2024-05-19 06:00:00	12	torchiarolo	18.41	1	98.8	1	0.0	1	0.05	1	325.01	1	30.16	1	1006.97	1	40.488146	18.053571
3344	2024-05-19 07:00:00	12	torchiarolo	19.18	1	98.76	1	0.0	1	null	3	345.86	1	114.79	1	1007.47	1	40.488146	18.053571
3345	2024-05-19 08:00:00	12	torchiarolo	20.16	1	97.03	1	0.0	1	0.24	1	15.67	1	191.0	1	1007.84	1	40.488146	18.053571
3346	2024-05-19 09:00:00	12	torchiarolo	21.18	1	91.23	1	0.0	1	0.31	1	16.32	1	213.84	1	1008.1	1	40.488146	18.053571
3347	2024-05-19 10:00:00	12	torchiarolo	22.82	1	76.34	1	0.0	1	0.44	1	359.6	1	247.79	1	1008.33	1	40.488146	18.053571
3348	2024-05-19 11:00:00	12	torchiarolo	24.25	1	68.31	1	0.0	1	0.88	1	11.52	1	480.36	1	1008.29	1	40.488146	18.053571
3349	2024-05-19 12:00:00	12	torchiarolo	25.84	1	63.34	1	0.0	1	1.3	1	16.26	1	760.26	1	1008.03	1	40.488146	18.053571
3350	2024-05-19 13:00:00	12	torchiarolo	25.57	1	63.06	1	0.0	1	1.45	1	61.91	1	805.55	1	1007.49	1	40.488146	18.053571
3351	2024-05-19 14:00:00	12	torchiarolo	26.69	1	60.62	1	0.0	1	0.46	1	83.71	1	790.75	1	1007.35	1	40.488146	18.053571
3352	2024-05-19 15:00:00	12	torchiarolo	27.44	1	60.05	1	0.0	1	1.05	1	62.52	1	641.57	1	1007.03	1	40.488146	18.053571
3353	2024-05-19 16:00:00	12	torchiarolo	26.85	1	63.23	1	0.0	1	0.75	1	62.05	1	450.93	1	1006.85	1	40.488146	18.053571
3354	2024-05-19 17:00:00	12	torchiarolo	25.2	1	68.12	1	0.0	1	0.35	1	79.72	1	178.91	1	1006.43	1	40.488146	18.053571
3355	2024-05-19 18:00:00	12	torchiarolo	24.58	1	67.56	1	0.0	1	0.38	1	211.69	1	75.41	1	1006.01	1	40.488146	18.053571
3356	2024-05-19 19:00:00	12	torchiarolo	23.03	1	75.36	1	0.0	1	null	3	71.54	1	17.4	1	1005.3	1	40.488146	18.053571
3357	2024-05-19 20:00:00	12	torchiarolo	21.88	1	82.19	1	0.0	1	null	3	13.34	1	0.0	1	1005.28	1	40.488146	18.053571
3358	2024-05-19 21:00:00	12	torchiarolo	21.37	1	86.5	1	0.0	1	0.09	1	357.74	1	0.0	1	1005.71	1	40.488146	18.053571
3359	2024-05-19 22:00:00	12	torchiarolo	20.53	1	89.8	1	0.0	1	0.01	1	79.21	1	0.0	1	1005.81	1	40.488146	18.053571
3360	2024-05-19 23:00:00	12	torchiarolo	20.31	1	92.34	1	0.0	1	null	3	342.06	1	0.0	1	1006.23	1	40.488146	18.053571
3361	2024-05-20 00:00:00	12	torchiarolo	20.28	1	92.76	1	0.0	1	null	3	81.16	1	0.0	1	1006.23	1	40.488146	18.053571
3362	2024-05-20 01:00:00	12	torchiarolo	19.95	1	92.6	1	0.0	1	null	3	96.45	1	0.0	1	1006.04	1	40.488146	18.053571
3363	2024-05-20 02:00:00	12	torchiarolo	19.35	1	93.48	1	0.0	1	null	3	215.88	1	0.0	1	1005.83	1	40.488146	18.053571
3364	2024-05-20 03:00:00	12	torchiarolo	18.62	1	94.15	1	0.0	1	null	3	231.82	1	0.0	1	1005.86	1	40.488146	18.053571
3365	2024-05-20 04:00:00	12	torchiarolo	18.62	1	95.31	1	0.0	1	null	3	254.26	1	0.0	1	1005.86	1	40.488146	18.053571
3366	2024-05-20 05:00:00	12	torchiarolo	18.4	1	95.93	1	0.0	1	null	3	295.4	1	0.0	5	1006.18	1	40.488146	18.053571
3367	2024-05-20 06:00:00	12	torchiarolo	18.88	1	96.6	1	0.0	1	null	3	6.99	1	44.65	1	1006.27	1	40.488146	18.053571
3368	2024-05-20 07:00:00	12	torchiarolo	20.15	1	95.81	1	0.0	1	0.06	1	42.32	1	109.28	1	1006.56	1	40.488146	18.053571
3369	2024-05-20 08:00:00	12	torchiarolo	21.34	1	88.33	1	0.0	1	0.16	1	39.11	1	229.28	1	1006.98	1	40.488146	18.053571
3370	2024-05-20 09:00:00	12	torchiarolo	23.05	1	77.99	1	0.0	1	0.45	1	65.19	1	373.53	1	1006.98	1	40.488146	18.053571
3371	2024-05-20 10:00:00	12	torchiarolo	25.37	1	69.69	1	0.0	1	1.28	1	71.81	1	728.15	1	1006.95	1	40.488146	18.053571
3372	2024-05-20 11:00:00	12	torchiarolo	25.89	1	68.77	1	0.0	1	2.47	1	56.59	1	791.34	1	1006.84	1	40.488146	18.053571
3373	2024-05-20 12:00:00	12	torchiarolo	26.36	1	65.15	1	0.0	1	2.12	1	69.84	1	877.03	1	1006.67	1	40.488146	18.053571
3374	2024-05-20 13:00:00	12	torchiarolo	27.17	1	62.06	1	0.0	1	2.27	1	70.7	1	797.6	1	1006.6	1	40.488146	18.053571
3375	2024-05-20 14:00:00	12	torchiarolo	27.34	1	61.13	1	0.0	1	2.32	1	69.15	1	700.47	1	1006.33	1	40.488146	18.053571
3376	2024-05-20 15:00:00	12	torchiarolo	26.36	1	63.14	1	0.0	1	1.31	1	83.86	1	476.18	1	1005.84	1	40.488146	18.053571
3377	2024-05-20 16:00:00	12	torchiarolo	27.48	1	62.04	1	0.0	1	0.54	1	66.95	1	484.41	1	1005.34	1	40.488146	18.053571
3378	2024-05-20 17:00:00	12	torchiarolo	26.79	1	62.32	1	0.0	1	1.01	1	67.3	1	302.71	1	1004.95	1	40.488146	18.053571
3379	2024-05-20 18:00:00	12	torchiarolo	25.08	1	68.1	1	0.0	1	0.18	1	57.73	1	132.86	1	1004.76	1	40.488146	18.053571
3380	2024-05-20 19:00:00	12	torchiarolo	24.17	1	71.69	1	0.0	1	null	3	354.48	1	34.35	1	1004.71	1	40.488146	18.053571
3381	2024-05-20 20:00:00	12	torchiarolo	22.61	1	76.9	1	0.0	1	null	3	329.21	1	0.0	5	1004.48	1	40.488146	18.053571
3382	2024-05-20 21:00:00	12	torchiarolo	21.48	1	81.14	1	0.0	1	null	3	12.1	1	0.0	1	1004.76	1	40.488146	18.053571
3383	2024-05-20 22:00:00	12	torchiarolo	20.8	1	86.01	1	0.0	1	null	3	89.07	1	0.0	1	1004.33	1	40.488146	18.053571
3384	2024-05-20 23:00:00	12	torchiarolo	20.65	1	86.93	1	0.0	1	null	3	91.66	1	0.0	1	1004.07	1	40.488146	18.053571
3385	2024-05-21 00:00:00	12	torchiarolo	20.12	1	82.14	1	0.0	1	0.03	1	135.86	1	0.0	1	1004.03	1	40.488146	18.053571
3386	2024-05-21 01:00:00	12	torchiarolo	19.77	1	85.0	1	0.0	1	0.01	1	133.43	1	0.0	1	1003.53	1	40.488146	18.053571
3387	2024-05-21 02:00:00	12	torchiarolo	19.57	1	85.48	1	0.0	1	0.24	1	157.73	1	0.0	1	1003.12	1	40.488146	18.053571
3388	2024-05-21 03:00:00	12	torchiarolo	20.16	1	79.5	1	0.0	1	0.82	1	174.13	1	0.0	1	1003.2	1	40.488146	18.053571
3389	2024-05-21 04:00:00	12	torchiarolo	20.16	1	79.65	1	0.0	1	0.5	1	157.3	1	0.0	1	1002.75	1	40.488146	18.053571
3390	2024-05-21 05:00:00	12	torchiarolo	19.33	1	82.86	1	0.0	1	0.57	1	132.45	1	7.42	1	1002.53	1	40.488146	18.053571
3391	2024-05-21 06:00:00	12	torchiarolo	20.88	1	78.19	1	0.0	1	1.44	1	145.06	1	90.84	1	1002.48	1	40.488146	18.053571
3392	2024-05-21 07:00:00	12	torchiarolo	23.57	1	71.04	1	0.0	1	2.52	1	176.94	1	232.3	1	1003.02	1	40.488146	18.053571
3393	2024-05-21 08:00:00	12	torchiarolo	24.95	1	66.42	1	0.0	1	3.21	1	186.69	1	368.93	1	1003.35	1	40.488146	18.053571
3394	2024-05-21 09:00:00	12	torchiarolo	27.57	1	56.38	1	0.0	1	2.98	1	184.85	1	610.03	1	1003.41	1	40.488146	18.053571
3395	2024-05-21 10:00:00	12	torchiarolo	29.35	1	48.4	1	0.0	1	1.83	1	223.89	1	733.19	1	1004.04	1	40.488146	18.053571
3396	2024-05-21 11:00:00	12	torchiarolo	30.37	1	45.17	1	0.0	1	1.63	1	236.31	1	794.99	1	1004.72	1	40.488146	18.053571
3397	2024-05-21 12:00:00	12	torchiarolo	30.72	1	44.18	1	0.0	1	1.61	1	215.31	1	831.33	1	1004.76	1	40.488146	18.053571
3398	2024-05-21 13:00:00	12	torchiarolo	31.23	1	42.63	1	0.0	1	2.8	1	227.92	1	765.39	1	1004.77	1	40.488146	18.053571
3399	2024-05-21 14:00:00	12	torchiarolo	31.57	1	41.24	1	0.0	1	3.13	1	226.01	1	756.96	1	1005.01	1	40.488146	18.053571
3400	2024-05-21 15:00:00	12	torchiarolo	31.33	1	38.8	1	0.0	1	4.11	1	227.03	1	691.81	1	1004.76	1	40.488146	18.053571
3401	2024-05-21 16:00:00	12	torchiarolo	30.34	1	41.41	1	0.0	1	4.11	1	222.98	1	546.43	1	1004.88	1	40.488146	18.053571
3402	2024-05-21 17:00:00	12	torchiarolo	29.26	1	43.02	1	0.0	1	3.8	1	221.26	1	372.5	1	1004.76	1	40.488146	18.053571
3403	2024-05-21 18:00:00	12	torchiarolo	27.1	1	43.6	1	0.0	1	3.87	1	229.23	1	180.97	1	1004.88	1	40.488146	18.053571
3404	2024-05-21 19:00:00	12	torchiarolo	26.0	1	45.69	1	0.0	1	2.6	1	227.37	1	32.84	1	1005.08	1	40.488146	18.053571
3405	2024-05-21 20:00:00	12	torchiarolo	24.09	1	52.65	1	0.0	1	2.29	1	223.36	1	0.0	5	1005.3	1	40.488146	18.053571
3406	2024-05-21 21:00:00	12	torchiarolo	22.47	1	63.43	1	0.0	1	2.13	1	223.91	1	0.0	1	1005.96	1	40.488146	18.053571
3407	2024-05-21 22:00:00	12	torchiarolo	21.55	1	68.55	1	0.0	1	0.92	1	232.28	1	0.0	1	1006.35	1	40.488146	18.053571
3408	2024-05-21 23:00:00	12	torchiarolo	21.16	1	68.05	1	0.0	1	0.06	1	240.7	1	0.0	1	1006.91	1	40.488146	18.053571
3409	2024-05-22 00:00:00	12	torchiarolo	21.09	1	62.36	1	0.0	1	0.14	1	250.93	1	0.0	1	1006.96	1	40.488146	18.053571
3410	2024-05-22 01:00:00	12	torchiarolo	20.9	1	54.36	1	0.0	1	0.6	1	273.5	1	0.0	1	1006.95	1	40.488146	18.053571
3411	2024-05-22 02:00:00	12	torchiarolo	20.18	1	52.57	1	0.0	1	1.05	1	268.27	1	0.0	1	1006.95	1	40.488146	18.053571
3412	2024-05-22 03:00:00	12	torchiarolo	18.99	1	56.81	1	0.0	1	0.03	1	267.27	1	0.0	1	1006.93	1	40.488146	18.053571
3413	2024-05-22 04:00:00	12	torchiarolo	18.11	1	57.62	1	0.0	1	0.26	1	253.74	1	0.0	1	1006.98	1	40.488146	18.053571
3414	2024-05-22 05:00:00	12	torchiarolo	17.39	1	58.06	1	0.0	1	0.18	1	273.5	1	8.89	1	1007.12	1	40.488146	18.053571
3415	2024-05-22 06:00:00	12	torchiarolo	18.95	1	54.82	1	0.0	1	0.09	1	221.49	1	123.12	1	1007.68	1	40.488146	18.053571
3416	2024-05-22 07:00:00	12	torchiarolo	23.0	1	45.36	1	0.0	1	1.29	1	251.87	1	330.22	1	1007.93	1	40.488146	18.053571
3417	2024-05-22 08:00:00	12	torchiarolo	26.33	1	37.3	1	0.0	1	2.29	1	267.42	1	527.49	1	1008.21	1	40.488146	18.053571
3418	2024-05-22 09:00:00	12	torchiarolo	28.63	1	31.53	1	0.0	1	1.93	1	276.09	1	705.55	1	1008.41	1	40.488146	18.053571
3419	2024-05-22 10:00:00	12	torchiarolo	27.63	1	34.87	1	0.0	1	1.88	1	38.45	1	709.5	1	1008.54	1	40.488146	18.053571
3420	2024-05-22 11:00:00	12	torchiarolo	26.69	1	38.91	1	0.0	1	2.57	1	19.96	1	805.01	1	1008.79	1	40.488146	18.053571
3421	2024-05-22 12:00:00	12	torchiarolo	27.21	1	40.29	1	0.0	1	2.62	1	19.23	1	793.09	1	1008.79	1	40.488146	18.053571
3422	2024-05-22 13:00:00	12	torchiarolo	27.51	1	39.55	1	0.0	1	2.63	1	42.7	1	784.87	1	1008.76	1	40.488146	18.053571
3423	2024-05-22 14:00:00	12	torchiarolo	27.71	1	38.39	1	0.0	1	2.93	1	15.14	1	677.49	1	1008.77	1	40.488146	18.053571
3424	2024-05-22 15:00:00	12	torchiarolo	26.52	1	39.85	1	0.0	1	2.62	1	17.41	1	502.46	1	1008.48	1	40.488146	18.053571
3425	2024-05-22 16:00:00	12	torchiarolo	27.33	1	38.58	1	0.0	1	2.13	1	24.79	1	486.27	1	1008.47	1	40.488146	18.053571
3426	2024-05-22 17:00:00	12	torchiarolo	25.13	1	44.92	1	0.0	1	1.34	1	70.16	1	379.38	1	1008.48	1	40.488146	18.053571
3427	2024-05-22 18:00:00	12	torchiarolo	23.68	1	46.37	1	0.0	1	0.41	1	41.75	1	107.28	1	1008.29	1	40.488146	18.053571
3428	2024-05-22 19:00:00	12	torchiarolo	22.4	1	52.41	1	0.0	1	0.25	1	86.39	1	34.74	1	1008.29	1	40.488146	18.053571
3429	2024-05-22 20:00:00	12	torchiarolo	21.2	1	56.61	1	0.0	1	0.02	1	358.77	1	0.0	5	1008.65	1	40.488146	18.053571
3430	2024-05-22 21:00:00	12	torchiarolo	19.96	1	62.88	1	0.0	1	null	3	332.61	1	0.0	1	1009.12	1	40.488146	18.053571
3431	2024-05-22 22:00:00	12	torchiarolo	19.09	1	72.24	1	0.0	1	null	3	278.22	1	0.0	1	1009.71	1	40.488146	18.053571
3432	2024-05-22 23:00:00	12	torchiarolo	18.6	1	72.32	1	0.0	1	null	3	260.91	1	0.0	1	1009.91	1	40.488146	18.053571
3433	2024-05-23 00:00:00	12	torchiarolo	18.04	1	73.22	1	0.0	1	0.06	1	265.04	1	0.0	1	1009.89	1	40.488146	18.053571
3434	2024-05-23 01:00:00	12	torchiarolo	17.03	1	79.01	1	0.0	1	0.01	1	267.93	1	0.0	1	1009.89	1	40.488146	18.053571
3435	2024-05-23 02:00:00	12	torchiarolo	16.81	1	74.65	1	0.0	1	0.15	1	276.12	1	0.0	1	1009.62	1	40.488146	18.053571
3436	2024-05-23 03:00:00	12	torchiarolo	16.77	1	67.76	1	0.0	1	0.46	1	277.38	1	0.0	1	1009.84	1	40.488146	18.053571
3437	2024-05-23 04:00:00	12	torchiarolo	16.4	1	66.84	1	0.0	1	0.18	1	273.65	1	0.0	1	1010.05	1	40.488146	18.053571
3438	2024-05-23 05:00:00	12	torchiarolo	16.08	1	67.4	1	0.0	1	0.19	1	274.34	1	6.99	1	1010.25	1	40.488146	18.053571
3439	2024-05-23 06:00:00	12	torchiarolo	18.93	1	59.03	1	0.0	1	0.38	1	301.61	1	129.02	1	1010.43	1	40.488146	18.053571
3440	2024-05-23 07:00:00	12	torchiarolo	24.08	1	48.18	1	0.0	1	0.91	1	320.53	1	321.91	1	1010.85	1	40.488146	18.053571
3441	2024-05-23 08:00:00	12	torchiarolo	25.83	1	49.58	1	0.0	1	2.3	1	342.05	1	516.21	1	1011.25	1	40.488146	18.053571
3442	2024-05-23 09:00:00	12	torchiarolo	26.98	1	48.69	1	0.0	1	2.38	1	340.75	1	697.86	1	1011.35	1	40.488146	18.053571
3443	2024-05-23 10:00:00	12	torchiarolo	27.85	1	47.5	1	0.0	1	3.2	1	0.45	1	800.05	1	1011.54	1	40.488146	18.053571
3444	2024-05-23 11:00:00	12	torchiarolo	27.41	1	44.69	1	0.0	1	2.83	1	16.71	1	938.58	1	1012.14	1	40.488146	18.053571
3445	2024-05-23 12:00:00	12	torchiarolo	27.1	1	41.17	1	0.0	1	2.47	1	9.11	1	964.75	1	1012.5	1	40.488146	18.053571
3446	2024-05-23 13:00:00	12	torchiarolo	27.1	1	42.97	1	0.0	1	2.25	1	20.28	1	844.13	1	1012.82	1	40.488146	18.053571
3447	2024-05-23 14:00:00	12	torchiarolo	27.05	1	42.11	1	0.0	1	2.65	1	33.17	1	874.85	1	1012.75	1	40.488146	18.053571
3448	2024-05-23 15:00:00	12	torchiarolo	26.73	1	41.78	1	0.0	1	2.76	1	57.91	1	765.18	1	1012.63	1	40.488146	18.053571
3449	2024-05-23 16:00:00	12	torchiarolo	26.55	1	41.35	1	0.0	1	2.1	1	54.16	1	589.46	1	1012.23	1	40.488146	18.053571
3450	2024-05-23 17:00:00	12	torchiarolo	25.94	1	42.62	1	0.0	1	1.05	1	61.84	1	400.72	1	1011.99	1	40.488146	18.053571
3451	2024-05-23 18:00:00	12	torchiarolo	23.74	1	49.94	1	0.0	1	0.7	1	71.82	1	185.82	1	1011.71	1	40.488146	18.053571
3452	2024-05-23 19:00:00	12	torchiarolo	22.15	1	60.52	1	0.0	1	0.08	1	64.75	1	27.18	1	1011.72	1	40.488146	18.053571
3453	2024-05-23 20:00:00	12	torchiarolo	20.41	1	75.57	1	0.0	1	null	3	83.34	1	0.0	5	1011.72	1	40.488146	18.053571
3454	2024-05-23 21:00:00	12	torchiarolo	19.9	1	76.36	1	0.0	1	0.01	1	135.68	1	0.0	1	1012.15	1	40.488146	18.053571
3455	2024-05-23 22:00:00	12	torchiarolo	19.61	1	78.03	1	0.0	1	null	3	142.88	1	0.0	1	1012.46	1	40.488146	18.053571
3456	2024-05-23 23:00:00	12	torchiarolo	19.19	1	73.68	1	0.0	1	0.02	1	221.67	1	0.0	1	1012.55	1	40.488146	18.053571
3457	2024-05-24 00:00:00	12	torchiarolo	18.79	1	75.84	1	0.0	1	0.01	1	212.98	1	0.0	1	1012.44	1	40.488146	18.053571
3458	2024-05-24 01:00:00	12	torchiarolo	18.45	1	76.73	1	0.0	1	null	3	241.65	1	0.0	1	1012.08	1	40.488146	18.053571
3459	2024-05-24 02:00:00	12	torchiarolo	17.01	1	80.99	1	0.0	1	0.07	1	67.64	1	0.0	1	1011.85	1	40.488146	18.053571
3460	2024-05-24 03:00:00	12	torchiarolo	15.95	1	85.35	1	0.0	1	null	3	242.4	1	0.0	1	1011.72	1	40.488146	18.053571
3461	2024-05-24 04:00:00	12	torchiarolo	16.32	1	82.49	1	0.0	1	null	3	235.65	1	0.0	1	1011.72	1	40.488146	18.053571
3462	2024-05-24 05:00:00	12	torchiarolo	16.38	1	82.04	1	0.0	1	null	3	231.91	1	9.35	1	1011.79	1	40.488146	18.053571
3463	2024-05-24 06:00:00	12	torchiarolo	18.62	1	74.1	1	0.0	1	0.01	1	252.93	1	127.48	1	1012.21	1	40.488146	18.053571
3464	2024-05-24 07:00:00	12	torchiarolo	23.46	1	59.15	1	0.0	1	0.03	1	86.52	1	317.3	1	1012.58	1	40.488146	18.053571
3465	2024-05-24 08:00:00	12	torchiarolo	26.64	1	50.21	1	0.0	1	0.45	1	17.28	1	511.17	1	1013.12	1	40.488146	18.053571
3466	2024-05-24 09:00:00	12	torchiarolo	28.06	1	44.87	1	0.0	1	0.43	1	23.12	1	686.26	1	1013.19	1	40.488146	18.053571
3467	2024-05-24 10:00:00	12	torchiarolo	27.78	1	47.39	1	0.0	1	1.29	1	45.75	1	815.86	1	1013.47	1	40.488146	18.053571
3468	2024-05-24 11:00:00	12	torchiarolo	27.24	1	44.15	1	0.0	1	2.54	1	40.12	1	912.39	1	1013.92	1	40.488146	18.053571
3469	2024-05-24 12:00:00	12	torchiarolo	26.11	1	51.39	1	0.0	1	2.87	1	47.94	1	882.52	1	1013.92	1	40.488146	18.053571
3470	2024-05-24 13:00:00	12	torchiarolo	25.61	1	53.47	1	0.0	1	3.51	1	68.98	1	809.7	1	1013.73	1	40.488146	18.053571
3471	2024-05-24 14:00:00	12	torchiarolo	25.25	1	49.27	1	0.0	1	3.0	1	69.91	1	522.34	1	1013.48	1	40.488146	18.053571
3472	2024-05-24 15:00:00	12	torchiarolo	24.64	1	46.56	1	0.0	1	1.89	1	82.91	1	452.7	1	1012.92	1	40.488146	18.053571
3473	2024-05-24 16:00:00	12	torchiarolo	27.23	1	36.88	1	0.0	1	1.12	1	50.35	1	560.36	1	1012.64	1	40.488146	18.053571
3474	2024-05-24 17:00:00	12	torchiarolo	25.53	1	42.09	1	0.0	1	0.49	1	65.63	1	182.82	1	1012.55	1	40.488146	18.053571
3475	2024-05-24 18:00:00	12	torchiarolo	23.55	1	47.16	1	0.0	1	0.09	1	66.74	1	83.79	1	1012.33	1	40.488146	18.053571
3476	2024-05-24 19:00:00	12	torchiarolo	22.61	1	52.46	1	0.0	1	0.03	1	15.08	1	25.72	1	1012.14	1	40.488146	18.053571
3477	2024-05-24 20:00:00	12	torchiarolo	21.32	1	55.73	1	0.0	1	null	3	285.25	1	0.0	5	1012.11	1	40.488146	18.053571
3478	2024-05-24 21:00:00	12	torchiarolo	20.47	1	54.77	1	0.0	1	null	3	273.69	1	0.0	1	1012.39	1	40.488146	18.053571
3479	2024-05-24 22:00:00	12	torchiarolo	19.38	1	58.9	1	0.0	1	null	3	276.25	1	0.0	1	1012.47	1	40.488146	18.053571
3480	2024-05-24 23:00:00	12	torchiarolo	18.5	1	60.91	1	0.0	1	null	3	335.92	1	0.0	1	1012.39	1	40.488146	18.053571
3481	2024-05-25 00:00:00	12	torchiarolo	17.65	1	62.76	1	0.0	1	null	3	273.91	1	0.0	1	1012.01	1	40.488146	18.053571
3482	2024-05-25 01:00:00	12	torchiarolo	17.19	1	67.49	1	0.0	1	null	3	271.54	1	0.0	1	1011.7	1	40.488146	18.053571
3483	2024-05-25 02:00:00	12	torchiarolo	16.88	1	75.9	1	0.0	1	0.03	1	277.87	1	0.0	1	1011.35	1	40.488146	18.053571
3484	2024-05-25 03:00:00	12	torchiarolo	16.39	1	82.86	1	0.0	1	0.07	1	282.59	1	0.0	1	1010.99	1	40.488146	18.053571
3485	2024-05-25 04:00:00	12	torchiarolo	16.01	1	86.39	1	0.0	1	0.1	1	279.07	1	0.0	1	1010.67	1	40.488146	18.053571
3486	2024-05-25 05:00:00	12	torchiarolo	15.73	1	88.01	1	0.0	1	null	3	312.92	1	12.2	1	1010.39	1	40.488146	18.053571
3487	2024-05-25 06:00:00	12	torchiarolo	18.54	1	81.56	1	0.0	1	0.17	1	324.8	1	135.05	1	1010.55	1	40.488146	18.053571
3488	2024-05-25 07:00:00	12	torchiarolo	23.8	1	66.21	1	0.0	1	0.66	1	342.41	1	307.77	1	1010.26	1	40.488146	18.053571
3489	2024-05-25 08:00:00	12	torchiarolo	25.99	1	49.13	1	0.0	1	2.06	1	15.06	1	472.21	1	1010.27	1	40.488146	18.053571
3490	2024-05-25 09:00:00	12	torchiarolo	26.95	1	41.98	1	0.0	1	1.77	1	14.55	1	580.73	1	1010.14	1	40.488146	18.053571
3491	2024-05-25 10:00:00	12	torchiarolo	27.95	1	38.22	1	0.0	1	2.56	1	15.0	1	810.9	1	1010.18	1	40.488146	18.053571
3492	2024-05-25 11:00:00	12	torchiarolo	28.65	1	33.1	1	0.0	1	2.69	1	14.68	1	942.86	1	1010.12	1	40.488146	18.053571
3493	2024-05-25 12:00:00	12	torchiarolo	27.83	1	40.47	1	0.0	1	3.11	1	17.95	1	798.87	1	1009.9	1	40.488146	18.053571
3494	2024-05-25 13:00:00	12	torchiarolo	27.37	1	43.27	1	0.0	1	2.89	1	16.76	1	736.24	1	1009.89	1	40.488146	18.053571
3495	2024-05-25 14:00:00	12	torchiarolo	27.6	1	40.34	1	0.0	1	2.99	1	14.39	1	618.38	1	1009.88	1	40.488146	18.053571
3496	2024-05-25 15:00:00	12	torchiarolo	26.77	1	42.74	1	0.0	1	2.87	1	6.55	1	330.44	1	1009.46	1	40.488146	18.053571
3497	2024-05-25 16:00:00	12	torchiarolo	25.29	1	47.72	1	0.0	1	3.13	1	346.5	1	173.55	1	1009.04	1	40.488146	18.053571
3498	2024-05-25 17:00:00	12	torchiarolo	23.66	1	57.47	1	0.0	1	3.77	1	331.5	1	113.22	1	1008.79	1	40.488146	18.053571
3499	2024-05-25 18:00:00	12	torchiarolo	22.49	1	54.91	1	0.0	1	3.34	1	334.21	1	47.27	1	1008.82	1	40.488146	18.053571
3500	2024-05-25 19:00:00	12	torchiarolo	21.62	1	59.12	1	0.0	1	2.32	1	336.1	1	12.28	1	1009.15	1	40.488146	18.053571
3501	2024-05-25 20:00:00	12	torchiarolo	20.95	1	66.08	1	0.0	1	1.68	1	335.15	1	0.0	5	1009.35	1	40.488146	18.053571
3502	2024-05-25 21:00:00	12	torchiarolo	20.29	1	64.77	1	0.0	1	0.86	1	330.49	1	0.0	1	1009.58	1	40.488146	18.053571
3503	2024-05-25 22:00:00	12	torchiarolo	19.93	1	63.49	1	0.0	1	0.08	1	317.82	1	0.0	1	1009.84	1	40.488146	18.053571
3504	2024-05-25 23:00:00	12	torchiarolo	19.71	1	60.64	1	0.0	1	0.33	1	274.91	1	0.0	1	1009.85	1	40.488146	18.053571
3505	2024-05-26 00:00:00	12	torchiarolo	19.37	1	60.53	1	0.0	1	0.25	1	279.36	1	0.0	1	1009.75	1	40.488146	18.053571
3506	2024-05-26 01:00:00	12	torchiarolo	18.75	1	63.97	1	0.0	1	0.08	1	299.74	1	0.0	1	1009.52	1	40.488146	18.053571
3507	2024-05-26 02:00:00	12	torchiarolo	18.33	1	68.35	1	0.0	1	null	3	280.25	1	0.0	1	1009.5	1	40.488146	18.053571
3508	2024-05-26 03:00:00	12	torchiarolo	17.78	1	69.27	1	0.0	1	0.03	1	328.96	1	0.0	1	1008.95	1	40.488146	18.053571
3509	2024-05-26 04:00:00	12	torchiarolo	17.65	1	67.23	1	0.0	1	0.01	1	281.98	1	0.0	1	1008.73	1	40.488146	18.053571
3510	2024-05-26 05:00:00	12	torchiarolo	17.73	1	67.86	1	0.0	1	null	3	285.01	1	0.0	5	1008.67	1	40.488146	18.053571
3511	2024-05-26 06:00:00	12	torchiarolo	19.48	1	63.72	1	0.0	1	null	3	268.51	1	103.1	1	1008.85	1	40.488146	18.053571
3512	2024-05-26 07:00:00	12	torchiarolo	23.49	1	59.06	1	0.0	1	0.85	1	18.74	1	332.58	1	1009.17	1	40.488146	18.053571
3513	2024-05-26 08:00:00	12	torchiarolo	25.1	1	54.76	1	0.0	1	2.36	1	17.25	1	553.56	1	1009.66	1	40.488146	18.053571
3514	2024-05-26 09:00:00	12	torchiarolo	24.08	1	56.16	1	0.0	1	3.49	1	6.77	1	504.04	1	1009.99	1	40.488146	18.053571
3515	2024-05-26 10:00:00	12	torchiarolo	25.59	1	51.96	1	0.0	1	3.77	1	15.17	1	787.19	1	1010.34	1	40.488146	18.053571
3516	2024-05-26 11:00:00	12	torchiarolo	24.76	1	56.26	1	0.0	1	3.16	1	15.75	1	631.74	1	1010.62	1	40.488146	18.053571
3517	2024-05-26 12:00:00	12	torchiarolo	24.27	1	55.45	1	0.0	1	3.64	1	15.46	1	460.61	1	1010.94	1	40.488146	18.053571
3518	2024-05-26 13:00:00	12	torchiarolo	23.36	1	61.19	1	0.0	1	3.89	1	7.06	1	343.03	1	1011.17	1	40.488146	18.053571
3519	2024-05-26 14:00:00	12	torchiarolo	23.98	1	60.38	1	0.0	1	3.73	1	359.27	1	730.14	1	1011.08	1	40.488146	18.053571
3520	2024-05-26 15:00:00	12	torchiarolo	24.68	1	54.64	1	0.0	1	2.96	1	15.31	1	466.91	1	1010.74	1	40.488146	18.053571
3521	2024-05-26 16:00:00	12	torchiarolo	24.11	1	55.36	1	0.0	1	3.03	1	17.18	1	366.57	1	1010.62	1	40.488146	18.053571
3522	2024-05-26 17:00:00	12	torchiarolo	24.63	1	53.5	1	0.0	1	3.51	1	15.49	1	467.95	1	1010.65	1	40.488146	18.053571
3523	2024-05-26 18:00:00	12	torchiarolo	22.53	1	60.71	1	0.0	1	3.08	1	9.3	1	196.85	1	1010.91	1	40.488146	18.053571
3524	2024-05-26 19:00:00	12	torchiarolo	20.95	1	66.18	1	0.0	1	2.27	1	4.89	1	40.67	1	1011.01	1	40.488146	18.053571
3525	2024-05-26 20:00:00	12	torchiarolo	19.46	1	75.08	1	0.0	1	0.28	1	353.92	1	0.0	5	1011.4	1	40.488146	18.053571
3526	2024-05-26 21:00:00	12	torchiarolo	18.63	1	78.17	1	0.0	1	0.23	1	332.4	1	0.0	1	1012.02	1	40.488146	18.053571
3527	2024-05-26 22:00:00	12	torchiarolo	17.96	1	81.28	1	0.0	1	0.06	1	319.41	1	0.0	1	1012.12	1	40.488146	18.053571
3528	2024-05-26 23:00:00	12	torchiarolo	17.24	1	83.81	1	0.0	1	null	3	307.28	1	0.0	1	1012.09	1	40.488146	18.053571
3529	2024-05-27 00:00:00	12	torchiarolo	16.66	1	85.3	1	0.0	1	0.03	1	303.97	1	0.0	1	1012.01	1	40.488146	18.053571
3530	2024-05-27 01:00:00	12	torchiarolo	16.29	1	87.16	1	0.0	1	0.06	1	310.4	1	0.0	1	1011.85	1	40.488146	18.053571
3531	2024-05-27 02:00:00	12	torchiarolo	15.86	1	87.93	1	0.0	1	0.01	1	278.77	1	0.0	1	1011.72	1	40.488146	18.053571
3532	2024-05-27 03:00:00	12	torchiarolo	15.71	1	88.91	1	0.0	1	0.04	1	293.83	1	0.0	1	1011.55	1	40.488146	18.053571
3533	2024-05-27 04:00:00	12	torchiarolo	15.52	1	89.27	1	0.0	1	0.01	1	294.46	1	0.0	1	1011.37	1	40.488146	18.053571
3534	2024-05-27 05:00:00	12	torchiarolo	15.39	1	90.41	1	0.0	1	null	3	288.06	1	5.55	1	1011.41	1	40.488146	18.053571
3535	2024-05-27 06:00:00	12	torchiarolo	17.72	1	84.54	1	0.0	1	null	3	302.65	1	124.22	1	1011.78	1	40.488146	18.053571
3536	2024-05-27 07:00:00	12	torchiarolo	23.69	1	63.24	1	0.0	1	0.99	1	348.52	1	307.99	1	1012.09	1	40.488146	18.053571
3537	2024-05-27 08:00:00	12	torchiarolo	25.88	1	53.85	1	0.0	1	2.12	1	359.18	1	545.0	1	1012.45	1	40.488146	18.053571
3538	2024-05-27 09:00:00	12	torchiarolo	26.68	1	50.81	1	0.0	1	2.34	1	14.54	1	751.46	1	1012.58	1	40.488146	18.053571
3539	2024-05-27 10:00:00	12	torchiarolo	26.69	1	50.67	1	0.0	1	2.33	1	31.11	1	854.44	1	1012.63	1	40.488146	18.053571
3540	2024-05-27 11:00:00	12	torchiarolo	26.22	1	50.39	1	0.0	1	2.16	1	33.65	1	901.16	1	1012.86	1	40.488146	18.053571
3541	2024-05-27 12:00:00	12	torchiarolo	26.3	1	51.53	1	0.0	1	2.77	1	30.95	1	952.16	1	1012.82	1	40.488146	18.053571
3542	2024-05-27 13:00:00	12	torchiarolo	25.84	1	51.1	1	0.0	1	2.85	1	32.75	1	842.63	1	1012.54	1	40.488146	18.053571
3543	2024-05-27 14:00:00	12	torchiarolo	26.72	1	47.51	1	0.0	1	2.45	1	31.49	1	881.67	1	1012.11	1	40.488146	18.053571
3544	2024-05-27 15:00:00	12	torchiarolo	27.41	1	44.2	1	0.0	1	1.21	1	55.9	1	764.12	1	1012.05	1	40.488146	18.053571
3545	2024-05-27 16:00:00	12	torchiarolo	28.09	1	43.99	1	0.0	1	1.36	1	17.13	1	584.72	1	1011.51	1	40.488146	18.053571
3546	2024-05-27 17:00:00	12	torchiarolo	26.54	1	50.85	1	0.0	1	2.03	1	23.17	1	392.59	1	1011.27	1	40.488146	18.053571
3547	2024-05-27 18:00:00	12	torchiarolo	23.67	1	58.95	1	0.0	1	1.18	1	29.84	1	134.94	1	1011.0	1	40.488146	18.053571
3548	2024-05-27 19:00:00	12	torchiarolo	21.87	1	66.58	1	0.0	1	1.0	1	34.21	1	27.48	1	1011.29	1	40.488146	18.053571
3549	2024-05-27 20:00:00	12	torchiarolo	20.49	1	72.8	1	0.0	1	null	3	25.07	1	0.0	5	1011.14	1	40.488146	18.053571
3550	2024-05-27 21:00:00	12	torchiarolo	20.01	1	75.68	1	0.0	1	null	3	78.82	1	0.0	1	1011.6	1	40.488146	18.053571
3551	2024-05-27 22:00:00	12	torchiarolo	19.66	1	76.74	1	0.0	1	null	3	283.58	1	0.0	1	1011.54	1	40.488146	18.053571
3552	2024-05-27 23:00:00	12	torchiarolo	18.82	1	79.31	1	0.0	1	null	3	277.36	1	0.0	1	1011.26	1	40.488146	18.053571
3553	2024-05-28 00:00:00	12	torchiarolo	18.33	1	81.11	1	0.0	1	null	3	271.07	1	0.0	1	1010.85	1	40.488146	18.053571
3554	2024-05-28 01:00:00	12	torchiarolo	17.78	1	81.3	1	0.0	1	null	3	265.43	1	0.0	1	1010.35	1	40.488146	18.053571
3555	2024-05-28 02:00:00	12	torchiarolo	17.47	1	82.72	1	0.0	1	null	3	212.4	1	0.0	1	1009.96	1	40.488146	18.053571
3556	2024-05-28 03:00:00	12	torchiarolo	17.15	1	84.73	1	0.0	1	null	3	243.87	1	0.0	1	1009.73	1	40.488146	18.053571
3557	2024-05-28 04:00:00	12	torchiarolo	16.96	1	85.26	1	0.0	1	0.01	1	250.14	1	0.0	1	1009.52	1	40.488146	18.053571
3558	2024-05-28 05:00:00	12	torchiarolo	16.61	1	87.1	1	0.0	1	null	3	254.27	1	9.21	1	1009.52	1	40.488146	18.053571
3559	2024-05-28 06:00:00	12	torchiarolo	18.94	1	80.9	1	0.0	1	0.01	1	249.96	1	130.05	1	1009.56	1	40.488146	18.053571
3560	2024-05-28 07:00:00	12	torchiarolo	24.48	1	60.53	1	0.0	1	null	3	243.46	1	317.79	1	1009.89	1	40.488146	18.053571
3561	2024-05-28 08:00:00	12	torchiarolo	27.28	1	46.51	1	0.0	1	null	3	199.0	1	492.43	1	1010.01	1	40.488146	18.053571
3562	2024-05-28 09:00:00	12	torchiarolo	28.94	1	40.05	1	0.0	1	0.04	1	null	3	654.53	1	1009.98	1	40.488146	18.053571
3563	2024-05-28 10:00:00	12	torchiarolo	25.2	1	53.03	1	0.0	1	0.81	1	76.55	1	170.99	1	1009.89	1	40.488146	18.053571
3564	2024-05-28 11:00:00	12	torchiarolo	24.17	1	59.06	1	0.0	1	2.43	1	105.3	1	565.21	1	1009.82	1	40.488146	18.053571
3565	2024-05-28 12:00:00	12	torchiarolo	22.31	1	70.32	1	0.2	1	0.49	1	356.69	1	41.24	1	1010.08	1	40.488146	18.053571
3566	2024-05-28 13:00:00	12	torchiarolo	20.01	1	84.74	1	1.0	1	0.68	1	135.44	1	208.79	1	1009.83	1	40.488146	18.053571
3567	2024-05-28 14:00:00	12	torchiarolo	23.62	1	67.59	1	0.0	1	0.51	1	151.45	1	515.46	1	1008.91	1	40.488146	18.053571
3568	2024-05-28 15:00:00	12	torchiarolo	24.87	1	56.81	1	0.0	1	0.49	1	176.98	1	296.68	1	1008.08	1	40.488146	18.053571
3569	2024-05-28 16:00:00	12	torchiarolo	26.93	1	46.73	1	0.0	1	1.49	1	207.51	1	344.24	1	1007.84	1	40.488146	18.053571
3570	2024-05-28 17:00:00	12	torchiarolo	25.31	1	47.19	1	0.0	1	2.2	1	223.18	1	226.59	1	1008.31	1	40.488146	18.053571
3571	2024-05-28 18:00:00	12	torchiarolo	23.74	1	54.1	1	0.0	1	1.29	1	234.38	1	67.86	1	1008.42	1	40.488146	18.053571
3572	2024-05-28 19:00:00	12	torchiarolo	22.72	1	59.29	1	0.0	1	0.25	1	226.09	1	32.53	1	1008.4	1	40.488146	18.053571
3573	2024-05-28 20:00:00	12	torchiarolo	21.44	1	64.63	1	0.0	1	0.08	1	194.98	1	0.0	5	1008.3	1	40.488146	18.053571
3574	2024-05-28 21:00:00	12	torchiarolo	20.19	1	71.71	1	0.0	1	null	3	195.7	1	0.0	1	1008.42	1	40.488146	18.053571
3575	2024-05-28 22:00:00	12	torchiarolo	18.9	1	77.91	1	0.0	1	0.01	1	261.35	1	0.0	1	1008.43	1	40.488146	18.053571
3576	2024-05-28 23:00:00	12	torchiarolo	18.79	1	81.02	1	0.0	1	null	3	207.09	1	0.0	1	1008.54	1	40.488146	18.053571
3577	2024-05-29 00:00:00	12	torchiarolo	17.7	1	84.65	1	0.0	1	null	3	131.09	1	0.0	1	1008.73	1	40.488146	18.053571
3578	2024-05-29 01:00:00	12	torchiarolo	17.31	1	87.48	1	0.0	1	null	3	189.65	1	0.0	1	1008.42	1	40.488146	18.053571
3579	2024-05-29 02:00:00	12	torchiarolo	17.05	1	87.45	1	0.0	1	null	3	233.44	1	0.0	1	1008.28	1	40.488146	18.053571
3580	2024-05-29 03:00:00	12	torchiarolo	16.89	1	87.32	1	0.0	1	null	3	217.21	1	0.0	1	1008.05	1	40.488146	18.053571
3581	2024-05-29 04:00:00	12	torchiarolo	16.79	1	87.48	1	0.0	1	null	3	232.4	1	0.0	1	1007.7	1	40.488146	18.053571
3582	2024-05-29 05:00:00	12	torchiarolo	16.02	1	88.87	1	0.0	1	null	3	254.28	1	9.22	1	1007.58	1	40.488146	18.053571
3583	2024-05-29 06:00:00	12	torchiarolo	17.61	1	85.52	1	0.0	1	0.01	1	244.65	1	115.73	1	1007.69	1	40.488146	18.053571
3584	2024-05-29 07:00:00	12	torchiarolo	22.7	1	68.5	1	0.0	1	0.01	1	21.87	1	288.87	1	1008.21	1	40.488146	18.053571
3585	2024-05-29 08:00:00	12	torchiarolo	23.91	1	68.74	1	0.0	1	1.37	1	71.0	1	421.21	1	1008.56	1	40.488146	18.053571
3586	2024-05-29 09:00:00	12	torchiarolo	24.65	1	66.48	1	0.0	1	2.02	1	76.18	1	710.0	1	1008.66	1	40.488146	18.053571
3587	2024-05-29 10:00:00	12	torchiarolo	26.49	1	55.98	1	0.0	1	1.21	1	92.91	1	869.46	1	1008.42	1	40.488146	18.053571
3588	2024-05-29 11:00:00	12	torchiarolo	26.51	1	52.48	1	0.0	1	0.95	1	66.47	1	449.14	1	1008.42	1	40.488146	18.053571
3589	2024-05-29 12:00:00	12	torchiarolo	24.84	1	60.09	1	0.0	1	2.49	1	47.48	1	475.48	1	1008.21	1	40.488146	18.053571
3590	2024-05-29 13:00:00	12	torchiarolo	23.73	1	66.49	1	0.0	1	2.87	1	90.78	1	370.56	1	1008.14	1	40.488146	18.053571
3591	2024-05-29 14:00:00	12	torchiarolo	24.41	1	56.09	1	0.0	1	1.18	1	121.56	1	504.89	1	1007.76	1	40.488146	18.053571
3592	2024-05-29 15:00:00	12	torchiarolo	27.27	1	46.53	1	0.0	1	1.99	1	56.35	1	733.0	1	1006.69	1	40.488146	18.053571
3593	2024-05-29 16:00:00	12	torchiarolo	26.67	1	50.33	1	0.0	1	2.1	1	68.02	1	584.92	1	1006.59	1	40.488146	18.053571
3594	2024-05-29 17:00:00	12	torchiarolo	25.69	1	53.98	1	0.0	1	1.13	1	68.99	1	401.08	1	1006.59	1	40.488146	18.053571
3595	2024-05-29 18:00:00	12	torchiarolo	23.65	1	59.2	1	0.0	1	1.11	1	72.33	1	190.97	1	1006.87	1	40.488146	18.053571
3596	2024-05-29 19:00:00	12	torchiarolo	22.25	1	67.53	1	0.0	1	0.88	1	82.86	1	42.45	1	1006.94	1	40.488146	18.053571
3597	2024-05-29 20:00:00	12	torchiarolo	20.93	1	74.56	1	0.0	1	null	3	107.05	1	0.0	5	1006.67	1	40.488146	18.053571
3598	2024-05-29 21:00:00	12	torchiarolo	20.13	1	77.11	1	0.0	1	null	3	114.81	1	0.0	1	1006.89	1	40.488146	18.053571
3599	2024-05-29 22:00:00	12	torchiarolo	19.59	1	77.59	1	0.0	1	null	3	207.86	1	0.0	1	1006.93	1	40.488146	18.053571
3600	2024-05-29 23:00:00	12	torchiarolo	18.69	1	80.1	1	0.0	1	null	3	143.06	1	0.0	1	1006.6	1	40.488146	18.053571
3601	2024-05-30 00:00:00	12	torchiarolo	18.06	1	81.56	1	0.0	1	null	3	142.44	1	0.0	1	1006.58	1	40.488146	18.053571
3602	2024-05-30 01:00:00	12	torchiarolo	17.59	1	81.17	1	0.0	1	null	3	257.69	1	0.0	1	1006.14	1	40.488146	18.053571
3603	2024-05-30 02:00:00	12	torchiarolo	17.04	1	82.99	1	0.0	1	null	3	220.89	1	0.0	1	1005.68	1	40.488146	18.053571
3604	2024-05-30 03:00:00	12	torchiarolo	17.06	1	84.72	1	0.0	1	null	3	193.11	1	0.0	1	1005.36	1	40.488146	18.053571
3605	2024-05-30 04:00:00	12	torchiarolo	16.68	1	85.04	1	0.0	1	null	3	237.08	1	0.0	1	1005.13	1	40.488146	18.053571
3606	2024-05-30 05:00:00	12	torchiarolo	16.26	1	87.3	1	0.0	1	0.01	1	234.18	1	9.85	1	1005.13	1	40.488146	18.053571
3607	2024-05-30 06:00:00	12	torchiarolo	18.68	1	79.69	1	0.0	1	null	3	204.86	1	126.95	1	1005.33	1	40.488146	18.053571
3608	2024-05-30 07:00:00	12	torchiarolo	23.75	1	62.11	1	0.0	1	null	3	176.74	1	310.17	1	1005.73	1	40.488146	18.053571
3609	2024-05-30 08:00:00	12	torchiarolo	26.98	1	51.16	1	0.0	1	0.03	1	206.1	1	504.93	1	1006.45	1	40.488146	18.053571
3610	2024-05-30 09:00:00	12	torchiarolo	28.1	1	48.29	1	0.0	1	0.26	1	143.22	1	696.07	1	1006.96	1	40.488146	18.053571
3611	2024-05-30 10:00:00	12	torchiarolo	28.19	1	46.81	1	0.0	1	0.57	1	120.06	1	636.51	1	1006.96	1	40.488146	18.053571
3612	2024-05-30 11:00:00	12	torchiarolo	28.25	1	45.34	1	0.0	1	2.02	1	96.57	1	700.33	1	1006.96	1	40.488146	18.053571
3613	2024-05-30 12:00:00	12	torchiarolo	null	6	null	6	null	6	null	6	null	6	null	6	null	6	40.488146	18.053571
3614	2024-05-30 13:00:00	12	torchiarolo	null	6	null	6	null	6	null	6	null	6	null	6	null	6	40.488146	18.053571
3615	2024-05-30 14:00:00	12	torchiarolo	null	6	null	6	null	6	null	6	null	6	null	6	null	6	40.488146	18.053571
3616	2024-05-30 15:00:00	12	torchiarolo	29.93	1	35.75	1	0.0	1	2.87	1	205.45	1	621.87	1	1005.47	1	40.488146	18.053571
3617	2024-05-30 16:00:00	12	torchiarolo	29.32	1	37.41	1	0.0	1	3.58	1	214.25	1	586.36	1	1005.07	1	40.488146	18.053571
3618	2024-05-30 17:00:00	12	torchiarolo	28.27	1	41.45	1	0.0	1	3.28	1	211.43	1	415.67	1	1004.51	1	40.488146	18.053571
3619	2024-05-30 18:00:00	12	torchiarolo	25.59	1	48.02	1	0.0	1	3.37	1	200.08	1	150.29	1	1004.32	1	40.488146	18.053571
3620	2024-05-30 19:00:00	12	torchiarolo	24.06	1	49.41	1	0.0	1	2.67	1	208.52	1	34.77	1	1004.34	1	40.488146	18.053571
3621	2024-05-30 20:00:00	12	torchiarolo	22.78	1	53.85	1	0.0	1	1.45	1	192.43	1	0.0	5	1004.06	1	40.488146	18.053571
3622	2024-05-30 21:00:00	12	torchiarolo	21.98	1	65.95	1	0.0	1	1.8	1	178.37	1	0.0	1	1004.47	1	40.488146	18.053571
3623	2024-05-30 22:00:00	12	torchiarolo	21.33	1	74.59	1	0.0	1	0.54	1	165.73	1	0.0	1	1004.53	1	40.488146	18.053571
3624	2024-05-30 23:00:00	12	torchiarolo	20.9	1	79.13	1	0.0	1	0.82	1	177.14	1	0.0	1	1004.39	1	40.488146	18.053571
3625	2024-05-31 00:00:00	12	torchiarolo	20.75	1	82.15	1	0.0	1	0.82	1	175.2	1	0.0	1	1004.25	1	40.488146	18.053571
3626	2024-05-31 01:00:00	12	torchiarolo	20.5	1	83.83	1	0.0	1	0.52	1	174.57	1	0.0	1	1004.05	1	40.488146	18.053571
3627	2024-05-31 02:00:00	12	torchiarolo	20.32	1	84.47	1	0.0	1	1.34	1	169.84	1	0.0	1	1003.86	1	40.488146	18.053571
3628	2024-05-31 03:00:00	12	torchiarolo	20.17	1	85.13	1	0.0	1	0.94	1	167.58	1	0.0	1	1003.62	1	40.488146	18.053571
3629	2024-05-31 04:00:00	12	torchiarolo	19.93	1	85.81	1	0.0	1	1.76	1	175.54	1	0.0	1	1003.47	1	40.488146	18.053571
3630	2024-05-31 05:00:00	12	torchiarolo	20.2	1	84.91	1	0.0	1	2.22	1	178.79	1	5.71	1	1003.96	1	40.488146	18.053571
3631	2024-05-31 06:00:00	12	torchiarolo	20.75	1	82.55	1	0.0	1	2.37	1	187.47	1	49.5	1	1004.35	1	40.488146	18.053571
3632	2024-05-31 07:00:00	12	torchiarolo	23.0	1	72.06	1	0.0	1	2.42	1	188.95	1	264.91	1	1004.82	1	40.488146	18.053571
3633	2024-05-31 08:00:00	12	torchiarolo	null	6	null	6	null	6	null	6	null	6	null	6	null	6	40.488146	18.053571
3634	2024-05-31 09:00:00	12	torchiarolo	null	6	null	6	null	6	null	6	null	6	null	6	null	6	40.488146	18.053571
3635	2024-05-31 10:00:00	12	torchiarolo	27.56	1	49.28	1	0.0	1	4.24	1	200.86	1	845.07	1	1005.62	1	40.488146	18.053571
3636	2024-05-31 11:00:00	12	torchiarolo	28.3	1	45.48	1	0.0	1	3.98	1	204.65	1	889.47	1	1005.85	1	40.488146	18.053571
3637	2024-05-31 12:00:00	12	torchiarolo	28.89	1	42.19	1	0.0	1	4.16	1	206.15	1	936.29	1	1005.86	1	40.488146	18.053571
3638	2024-05-31 13:00:00	12	torchiarolo	28.91	1	45.31	1	0.0	1	4.2	1	208.33	1	813.58	1	1005.97	1	40.488146	18.053571
3639	2024-05-31 14:00:00	12	torchiarolo	28.48	1	48.52	1	0.0	1	4.23	1	205.72	1	557.37	1	1006.06	1	40.488146	18.053571
3640	2024-05-31 15:00:00	12	torchiarolo	27.66	1	49.8	1	0.0	1	3.78	1	196.77	1	296.93	1	1006.05	1	40.488146	18.053571
3641	2024-05-31 16:00:00	12	torchiarolo	27.33	1	49.78	1	0.0	1	3.48	1	193.21	1	255.52	1	1006.05	1	40.488146	18.053571
3642	2024-05-31 17:00:00	12	torchiarolo	26.6	1	48.26	1	0.0	1	4.21	1	185.29	1	195.77	1	1005.7	1	40.488146	18.053571
3643	2024-05-31 18:00:00	12	torchiarolo	25.38	1	49.51	1	0.0	1	4.22	1	187.96	1	102.88	1	1006.05	1	40.488146	18.053571
3644	2024-05-31 19:00:00	12	torchiarolo	23.94	1	61.64	1	0.0	1	3.79	1	184.92	1	35.81	1	1006.56	1	40.488146	18.053571
3645	2024-05-31 20:00:00	12	torchiarolo	22.84	1	68.05	1	0.0	1	3.54	1	179.68	1	0.0	5	1006.36	1	40.488146	18.053571
3646	2024-05-31 21:00:00	12	torchiarolo	22.27	1	72.51	1	0.0	1	3.58	1	185.23	1	0.0	1	1006.85	1	40.488146	18.053571
3647	2024-05-31 22:00:00	12	torchiarolo	21.92	1	75.23	1	0.0	1	2.84	1	179.84	1	0.0	1	1007.26	1	40.488146	18.053571
3648	2024-05-31 23:00:00	12	torchiarolo	21.78	1	77.45	1	0.0	1	2.87	1	183.36	1	0.0	1	1007.31	1	40.488146	"18.053571	"
